<?xml version="1.0" encoding="UTF-8"?>
<gpx version="1.1" creator="Endomondo.com" xsi:schemaLocation="http://www.topografix.com/GPX/1/1 http://www.topografix.com/GPX/1/1/gpx.xsd http://www.garmin.com/xmlschemas/GpxExtensions/v3 http://www.garmin.com/xmlschemas/GpxExtensionsv3.xsd http://www.garmin.com/xmlschemas/TrackPointExtension/v1 http://www.garmin.com/xmlschemas/TrackPointExtensionv1.xsd" xmlns="http://www.topografix.com/GPX/1/1" xmlns:gpxtpx="http://www.garmin.com/xmlschemas/TrackPointExtension/v1" xmlns:gpxx="http://www.garmin.com/xmlschemas/GpxExtensions/v3" xmlns:xsi="http://www.w3.org/2001/XMLSchema-instance">
  <metadata>
    <author>
      <name>Pablo Pravia Fernadez</name>
      <email id="praporvertesonreir" domain="gmail.com"/>
    </author>
    <link href="http://www.endomondo.com">
      <text>Endomondo</text>
    </link>
    <time>2012-03-04T16:33:06Z</time>
    <bounds minlat="43.392066" minlon="-6.067307" maxlat="43.392287" maxlon="-6.064918"/>
  </metadata>
  <trk>
    <name>Embalse Afilorios. 73 km</name>
    <cmt>Grado, Fuejo, Trubia, Oviedo, Soto de Ribera, Argame, Afilorios, CampadoSango, Santo Adriano, Trubia, Fuejo, Grado. 73 Km.</cmt>
    <src>http://www.endomondo.com/</src>
    <link href="http://www.endomondo.com/workouts/vew8SfZb2Hg">
      <text>Embalse Afilorios. 73 km</text>
    </link>
    <type>CYCLING_SPORT</type>
    <trkseg>
      <trkpt lat="43.392066" lon="-6.067307">
        <time>2012-03-04T09:04:27Z</time>
      </trkpt>
      <trkpt lat="43.392066" lon="-6.067307">
        <ele>127.0</ele>
        <time>2012-03-04T09:04:34Z</time>
      </trkpt>
      <trkpt lat="43.39225" lon="-6.067314">
        <ele>120.0</ele>
        <time>2012-03-04T09:04:47Z</time>
      </trkpt>
      <trkpt lat="43.392403" lon="-6.067237">
        <ele>119.0</ele>
        <time>2012-03-04T09:04:51Z</time>
      </trkpt>
      <trkpt lat="43.392583" lon="-6.067145">
        <ele>118.0</ele>
        <time>2012-03-04T09:04:55Z</time>
      </trkpt>
      <trkpt lat="43.392855" lon="-6.067022">
        <ele>117.0</ele>
        <time>2012-03-04T09:04:59Z</time>
      </trkpt>
      <trkpt lat="43.393103" lon="-6.066865">
        <ele>117.0</ele>
        <time>2012-03-04T09:05:03Z</time>
      </trkpt>
      <trkpt lat="43.393293" lon="-6.066591">
        <ele>117.0</ele>
        <time>2012-03-04T09:05:07Z</time>
      </trkpt>
      <trkpt lat="43.393366" lon="-6.066374">
        <ele>117.0</ele>
        <time>2012-03-04T09:05:10Z</time>
      </trkpt>
      <trkpt lat="43.393352" lon="-6.065931">
        <ele>116.0</ele>
        <time>2012-03-04T09:05:18Z</time>
      </trkpt>
      <trkpt lat="43.393332" lon="-6.065703">
        <ele>114.0</ele>
        <time>2012-03-04T09:05:22Z</time>
      </trkpt>
      <trkpt lat="43.393312" lon="-6.065468">
        <ele>114.0</ele>
        <time>2012-03-04T09:05:26Z</time>
      </trkpt>
      <trkpt lat="43.393297" lon="-6.065207">
        <ele>113.0</ele>
        <time>2012-03-04T09:05:30Z</time>
      </trkpt>
      <trkpt lat="43.393286" lon="-6.064919">
        <ele>112.0</ele>
        <time>2012-03-04T09:05:34Z</time>
      </trkpt>
      <trkpt lat="43.393244" lon="-6.06465">
        <ele>112.0</ele>
        <time>2012-03-04T09:05:38Z</time>
      </trkpt>
      <trkpt lat="43.393279" lon="-6.064478">
        <ele>112.0</ele>
        <time>2012-03-04T09:05:42Z</time>
      </trkpt>
      <trkpt lat="43.393284" lon="-6.064372">
        <ele>112.0</ele>
        <time>2012-03-04T09:05:44Z</time>
      </trkpt>
      <trkpt lat="43.393286" lon="-6.063962">
        <ele>111.0</ele>
        <time>2012-03-04T09:05:50Z</time>
      </trkpt>
      <trkpt lat="43.393268" lon="-6.063545">
        <ele>111.0</ele>
        <time>2012-03-04T09:05:55Z</time>
      </trkpt>
      <trkpt lat="43.393261" lon="-6.063176">
        <ele>110.0</ele>
        <time>2012-03-04T09:05:59Z</time>
      </trkpt>
      <trkpt lat="43.393256" lon="-6.062814">
        <ele>110.0</ele>
        <time>2012-03-04T09:06:03Z</time>
      </trkpt>
      <trkpt lat="43.393257" lon="-6.06255">
        <ele>109.0</ele>
        <time>2012-03-04T09:06:06Z</time>
      </trkpt>
      <trkpt lat="43.39326" lon="-6.062219">
        <ele>109.0</ele>
        <time>2012-03-04T09:06:10Z</time>
      </trkpt>
      <trkpt lat="43.393265" lon="-6.061888">
        <ele>108.0</ele>
        <time>2012-03-04T09:06:14Z</time>
      </trkpt>
      <trkpt lat="43.393286" lon="-6.061558">
        <ele>107.0</ele>
        <time>2012-03-04T09:06:18Z</time>
      </trkpt>
      <trkpt lat="43.393324" lon="-6.061224">
        <ele>107.0</ele>
        <time>2012-03-04T09:06:22Z</time>
      </trkpt>
      <trkpt lat="43.393381" lon="-6.060895">
        <ele>106.0</ele>
        <time>2012-03-04T09:06:26Z</time>
      </trkpt>
      <trkpt lat="43.393466" lon="-6.060582">
        <ele>106.0</ele>
        <time>2012-03-04T09:06:30Z</time>
      </trkpt>
      <trkpt lat="43.393581" lon="-6.060287">
        <ele>106.0</ele>
        <time>2012-03-04T09:06:34Z</time>
      </trkpt>
      <trkpt lat="43.393755" lon="-6.05993">
        <ele>107.0</ele>
        <time>2012-03-04T09:06:39Z</time>
      </trkpt>
      <trkpt lat="43.3939" lon="-6.059653">
        <ele>107.0</ele>
        <time>2012-03-04T09:06:43Z</time>
      </trkpt>
      <trkpt lat="43.39404" lon="-6.059387">
        <ele>107.0</ele>
        <time>2012-03-04T09:06:47Z</time>
      </trkpt>
      <trkpt lat="43.394177" lon="-6.059119">
        <ele>107.0</ele>
        <time>2012-03-04T09:06:51Z</time>
      </trkpt>
      <trkpt lat="43.394314" lon="-6.058848">
        <ele>105.0</ele>
        <time>2012-03-04T09:06:55Z</time>
      </trkpt>
      <trkpt lat="43.394447" lon="-6.058576">
        <ele>104.0</ele>
        <time>2012-03-04T09:06:59Z</time>
      </trkpt>
      <trkpt lat="43.394506" lon="-6.058274">
        <ele>104.0</ele>
        <time>2012-03-04T09:07:03Z</time>
      </trkpt>
      <trkpt lat="43.394606" lon="-6.058024">
        <ele>104.0</ele>
        <time>2012-03-04T09:07:07Z</time>
      </trkpt>
      <trkpt lat="43.394782" lon="-6.057871">
        <ele>105.0</ele>
        <time>2012-03-04T09:07:11Z</time>
      </trkpt>
      <trkpt lat="43.394921" lon="-6.057624">
        <ele>105.0</ele>
        <time>2012-03-04T09:07:15Z</time>
      </trkpt>
      <trkpt lat="43.395052" lon="-6.057358">
        <ele>105.0</ele>
        <time>2012-03-04T09:07:19Z</time>
      </trkpt>
      <trkpt lat="43.395182" lon="-6.057091">
        <ele>105.0</ele>
        <time>2012-03-04T09:07:23Z</time>
      </trkpt>
      <trkpt lat="43.395317" lon="-6.056809">
        <ele>105.0</ele>
        <time>2012-03-04T09:07:27Z</time>
      </trkpt>
      <trkpt lat="43.395457" lon="-6.056531">
        <ele>104.0</ele>
        <time>2012-03-04T09:07:31Z</time>
      </trkpt>
      <trkpt lat="43.395595" lon="-6.05625">
        <ele>104.0</ele>
        <time>2012-03-04T09:07:35Z</time>
      </trkpt>
      <trkpt lat="43.39573" lon="-6.05597">
        <ele>105.0</ele>
        <time>2012-03-04T09:07:39Z</time>
      </trkpt>
      <trkpt lat="43.395864" lon="-6.0557">
        <ele>105.0</ele>
        <time>2012-03-04T09:07:43Z</time>
      </trkpt>
      <trkpt lat="43.395993" lon="-6.055429">
        <ele>105.0</ele>
        <time>2012-03-04T09:07:47Z</time>
      </trkpt>
      <trkpt lat="43.396124" lon="-6.05516">
        <ele>105.0</ele>
        <time>2012-03-04T09:07:51Z</time>
      </trkpt>
      <trkpt lat="43.396252" lon="-6.054892">
        <ele>106.0</ele>
        <time>2012-03-04T09:07:55Z</time>
      </trkpt>
      <trkpt lat="43.396388" lon="-6.054623">
        <ele>106.0</ele>
        <time>2012-03-04T09:07:59Z</time>
      </trkpt>
      <trkpt lat="43.396525" lon="-6.05435">
        <ele>106.0</ele>
        <time>2012-03-04T09:08:03Z</time>
      </trkpt>
      <trkpt lat="43.396663" lon="-6.054074">
        <ele>106.0</ele>
        <time>2012-03-04T09:08:07Z</time>
      </trkpt>
      <trkpt lat="43.396798" lon="-6.053793">
        <ele>106.0</ele>
        <time>2012-03-04T09:08:11Z</time>
      </trkpt>
      <trkpt lat="43.396935" lon="-6.053514">
        <ele>106.0</ele>
        <time>2012-03-04T09:08:15Z</time>
      </trkpt>
      <trkpt lat="43.397071" lon="-6.053238">
        <ele>106.0</ele>
        <time>2012-03-04T09:08:19Z</time>
      </trkpt>
      <trkpt lat="43.3972" lon="-6.052973">
        <ele>105.0</ele>
        <time>2012-03-04T09:08:23Z</time>
      </trkpt>
      <trkpt lat="43.397337" lon="-6.052707">
        <ele>105.0</ele>
        <time>2012-03-04T09:08:27Z</time>
      </trkpt>
      <trkpt lat="43.397467" lon="-6.052439">
        <ele>105.0</ele>
        <time>2012-03-04T09:08:31Z</time>
      </trkpt>
      <trkpt lat="43.397597" lon="-6.052173">
        <ele>106.0</ele>
        <time>2012-03-04T09:08:35Z</time>
      </trkpt>
      <trkpt lat="43.397724" lon="-6.051896">
        <ele>106.0</ele>
        <time>2012-03-04T09:08:39Z</time>
      </trkpt>
      <trkpt lat="43.397849" lon="-6.051614">
        <ele>107.0</ele>
        <time>2012-03-04T09:08:43Z</time>
      </trkpt>
      <trkpt lat="43.397926" lon="-6.051319">
        <ele>107.0</ele>
        <time>2012-03-04T09:08:47Z</time>
      </trkpt>
      <trkpt lat="43.397878" lon="-6.051065">
        <ele>107.0</ele>
        <time>2012-03-04T09:08:51Z</time>
      </trkpt>
      <trkpt lat="43.397951" lon="-6.050578">
        <ele>107.0</ele>
        <time>2012-03-04T09:08:59Z</time>
      </trkpt>
      <trkpt lat="43.39816" lon="-6.050541">
        <ele>107.0</ele>
        <time>2012-03-04T09:09:03Z</time>
      </trkpt>
      <trkpt lat="43.398352" lon="-6.050502">
        <ele>107.0</ele>
        <time>2012-03-04T09:09:07Z</time>
      </trkpt>
      <trkpt lat="43.398505" lon="-6.050298">
        <ele>105.0</ele>
        <time>2012-03-04T09:09:11Z</time>
      </trkpt>
      <trkpt lat="43.398644" lon="-6.050045">
        <ele>104.0</ele>
        <time>2012-03-04T09:09:15Z</time>
      </trkpt>
      <trkpt lat="43.398774" lon="-6.049777">
        <ele>104.0</ele>
        <time>2012-03-04T09:09:19Z</time>
      </trkpt>
      <trkpt lat="43.398912" lon="-6.049502">
        <ele>103.0</ele>
        <time>2012-03-04T09:09:23Z</time>
      </trkpt>
      <trkpt lat="43.399052" lon="-6.049223">
        <ele>103.0</ele>
        <time>2012-03-04T09:09:27Z</time>
      </trkpt>
      <trkpt lat="43.399188" lon="-6.048947">
        <ele>103.0</ele>
        <time>2012-03-04T09:09:31Z</time>
      </trkpt>
      <trkpt lat="43.399329" lon="-6.048684">
        <ele>104.0</ele>
        <time>2012-03-04T09:09:35Z</time>
      </trkpt>
      <trkpt lat="43.399472" lon="-6.048431">
        <ele>104.0</ele>
        <time>2012-03-04T09:09:39Z</time>
      </trkpt>
      <trkpt lat="43.399634" lon="-6.048189">
        <ele>105.0</ele>
        <time>2012-03-04T09:09:43Z</time>
      </trkpt>
      <trkpt lat="43.3998" lon="-6.047961">
        <ele>105.0</ele>
        <time>2012-03-04T09:09:47Z</time>
      </trkpt>
      <trkpt lat="43.399967" lon="-6.047747">
        <ele>105.0</ele>
        <time>2012-03-04T09:09:51Z</time>
      </trkpt>
      <trkpt lat="43.40014" lon="-6.047552">
        <ele>105.0</ele>
        <time>2012-03-04T09:09:55Z</time>
      </trkpt>
      <trkpt lat="43.400319" lon="-6.047375">
        <ele>104.0</ele>
        <time>2012-03-04T09:09:59Z</time>
      </trkpt>
      <trkpt lat="43.400507" lon="-6.047196">
        <ele>104.0</ele>
        <time>2012-03-04T09:10:03Z</time>
      </trkpt>
      <trkpt lat="43.400699" lon="-6.047018">
        <ele>104.0</ele>
        <time>2012-03-04T09:10:07Z</time>
      </trkpt>
      <trkpt lat="43.400891" lon="-6.046842">
        <ele>104.0</ele>
        <time>2012-03-04T09:10:11Z</time>
      </trkpt>
      <trkpt lat="43.401085" lon="-6.04666">
        <ele>104.0</ele>
        <time>2012-03-04T09:10:15Z</time>
      </trkpt>
      <trkpt lat="43.401284" lon="-6.046472">
        <ele>104.0</ele>
        <time>2012-03-04T09:10:19Z</time>
      </trkpt>
      <trkpt lat="43.40148" lon="-6.046285">
        <ele>104.0</ele>
        <time>2012-03-04T09:10:23Z</time>
      </trkpt>
      <trkpt lat="43.401675" lon="-6.046088">
        <ele>104.0</ele>
        <time>2012-03-04T09:10:27Z</time>
      </trkpt>
      <trkpt lat="43.401874" lon="-6.045896">
        <ele>104.0</ele>
        <time>2012-03-04T09:10:31Z</time>
      </trkpt>
      <trkpt lat="43.402072" lon="-6.045691">
        <ele>104.0</ele>
        <time>2012-03-04T09:10:35Z</time>
      </trkpt>
      <trkpt lat="43.402235" lon="-6.045427">
        <ele>104.0</ele>
        <time>2012-03-04T09:10:39Z</time>
      </trkpt>
      <trkpt lat="43.402347" lon="-6.045116">
        <ele>104.0</ele>
        <time>2012-03-04T09:10:43Z</time>
      </trkpt>
      <trkpt lat="43.402462" lon="-6.044806">
        <ele>104.0</ele>
        <time>2012-03-04T09:10:47Z</time>
      </trkpt>
      <trkpt lat="43.402618" lon="-6.044506">
        <ele>104.0</ele>
        <time>2012-03-04T09:10:51Z</time>
      </trkpt>
      <trkpt lat="43.402825" lon="-6.044245">
        <ele>103.0</ele>
        <time>2012-03-04T09:10:55Z</time>
      </trkpt>
      <trkpt lat="43.402965" lon="-6.043901">
        <ele>103.0</ele>
        <time>2012-03-04T09:10:59Z</time>
      </trkpt>
      <trkpt lat="43.403052" lon="-6.04353">
        <ele>103.0</ele>
        <time>2012-03-04T09:11:03Z</time>
      </trkpt>
      <trkpt lat="43.4031" lon="-6.043162">
        <ele>103.0</ele>
        <time>2012-03-04T09:11:07Z</time>
      </trkpt>
      <trkpt lat="43.403131" lon="-6.042804">
        <ele>103.0</ele>
        <time>2012-03-04T09:11:11Z</time>
      </trkpt>
      <trkpt lat="43.403152" lon="-6.042467">
        <ele>103.0</ele>
        <time>2012-03-04T09:11:15Z</time>
      </trkpt>
      <trkpt lat="43.403142" lon="-6.042163">
        <ele>103.0</ele>
        <time>2012-03-04T09:11:19Z</time>
      </trkpt>
      <trkpt lat="43.403097" lon="-6.041889">
        <ele>103.0</ele>
        <time>2012-03-04T09:11:23Z</time>
      </trkpt>
      <trkpt lat="43.403056" lon="-6.04163">
        <ele>104.0</ele>
        <time>2012-03-04T09:11:27Z</time>
      </trkpt>
      <trkpt lat="43.403026" lon="-6.041366">
        <ele>104.0</ele>
        <time>2012-03-04T09:11:31Z</time>
      </trkpt>
      <trkpt lat="43.403003" lon="-6.041093">
        <ele>105.0</ele>
        <time>2012-03-04T09:11:35Z</time>
      </trkpt>
      <trkpt lat="43.402981" lon="-6.040487">
        <ele>106.0</ele>
        <time>2012-03-04T09:11:43Z</time>
      </trkpt>
      <trkpt lat="43.402967" lon="-6.040158">
        <ele>106.0</ele>
        <time>2012-03-04T09:11:47Z</time>
      </trkpt>
      <trkpt lat="43.40292" lon="-6.039802">
        <ele>106.0</ele>
        <time>2012-03-04T09:11:51Z</time>
      </trkpt>
      <trkpt lat="43.402829" lon="-6.039454">
        <ele>105.0</ele>
        <time>2012-03-04T09:11:55Z</time>
      </trkpt>
      <trkpt lat="43.402714" lon="-6.039117">
        <ele>105.0</ele>
        <time>2012-03-04T09:11:59Z</time>
      </trkpt>
      <trkpt lat="43.402583" lon="-6.038802">
        <ele>106.0</ele>
        <time>2012-03-04T09:12:03Z</time>
      </trkpt>
      <trkpt lat="43.402446" lon="-6.038487">
        <ele>107.0</ele>
        <time>2012-03-04T09:12:07Z</time>
      </trkpt>
      <trkpt lat="43.402377" lon="-6.03833">
        <ele>107.0</ele>
        <time>2012-03-04T09:12:09Z</time>
      </trkpt>
      <trkpt lat="43.402185" lon="-6.037856">
        <ele>107.0</ele>
        <time>2012-03-04T09:12:15Z</time>
      </trkpt>
      <trkpt lat="43.402062" lon="-6.037542">
        <ele>107.0</ele>
        <time>2012-03-04T09:12:19Z</time>
      </trkpt>
      <trkpt lat="43.401947" lon="-6.037223">
        <ele>107.0</ele>
        <time>2012-03-04T09:12:23Z</time>
      </trkpt>
      <trkpt lat="43.401855" lon="-6.036995">
        <ele>107.0</ele>
        <time>2012-03-04T09:12:26Z</time>
      </trkpt>
      <trkpt lat="43.40167" lon="-6.036384">
        <ele>108.0</ele>
        <time>2012-03-04T09:12:34Z</time>
      </trkpt>
      <trkpt lat="43.401667" lon="-6.036082">
        <ele>108.0</ele>
        <time>2012-03-04T09:12:38Z</time>
      </trkpt>
      <trkpt lat="43.401667" lon="-6.035929">
        <ele>108.0</ele>
        <time>2012-03-04T09:12:40Z</time>
      </trkpt>
      <trkpt lat="43.401606" lon="-6.035476">
        <ele>107.0</ele>
        <time>2012-03-04T09:12:46Z</time>
      </trkpt>
      <trkpt lat="43.401629" lon="-6.035072">
        <ele>104.0</ele>
        <time>2012-03-04T09:12:51Z</time>
      </trkpt>
      <trkpt lat="43.401493" lon="-6.034722">
        <ele>102.0</ele>
        <time>2012-03-04T09:12:55Z</time>
      </trkpt>
      <trkpt lat="43.401251" lon="-6.034386">
        <ele>103.0</ele>
        <time>2012-03-04T09:12:59Z</time>
      </trkpt>
      <trkpt lat="43.401035" lon="-6.034125">
        <ele>104.0</ele>
        <time>2012-03-04T09:13:03Z</time>
      </trkpt>
      <trkpt lat="43.400851" lon="-6.033889">
        <ele>105.0</ele>
        <time>2012-03-04T09:13:07Z</time>
      </trkpt>
      <trkpt lat="43.400651" lon="-6.033663">
        <ele>106.0</ele>
        <time>2012-03-04T09:13:11Z</time>
      </trkpt>
      <trkpt lat="43.400447" lon="-6.033445">
        <ele>107.0</ele>
        <time>2012-03-04T09:13:15Z</time>
      </trkpt>
      <trkpt lat="43.400263" lon="-6.033219">
        <ele>107.0</ele>
        <time>2012-03-04T09:13:19Z</time>
      </trkpt>
      <trkpt lat="43.400083" lon="-6.032993">
        <ele>108.0</ele>
        <time>2012-03-04T09:13:23Z</time>
      </trkpt>
      <trkpt lat="43.399906" lon="-6.03276">
        <ele>109.0</ele>
        <time>2012-03-04T09:13:27Z</time>
      </trkpt>
      <trkpt lat="43.399727" lon="-6.032522">
        <ele>110.0</ele>
        <time>2012-03-04T09:13:31Z</time>
      </trkpt>
      <trkpt lat="43.399545" lon="-6.032272">
        <ele>110.0</ele>
        <time>2012-03-04T09:13:35Z</time>
      </trkpt>
      <trkpt lat="43.399366" lon="-6.03202">
        <ele>111.0</ele>
        <time>2012-03-04T09:13:39Z</time>
      </trkpt>
      <trkpt lat="43.399284" lon="-6.031888">
        <ele>112.0</ele>
        <time>2012-03-04T09:13:41Z</time>
      </trkpt>
      <trkpt lat="43.399122" lon="-6.031621">
        <ele>112.0</ele>
        <time>2012-03-04T09:13:45Z</time>
      </trkpt>
      <trkpt lat="43.398873" lon="-6.031271">
        <ele>116.0</ele>
        <time>2012-03-04T09:13:51Z</time>
      </trkpt>
      <trkpt lat="43.398707" lon="-6.031036">
        <ele>117.0</ele>
        <time>2012-03-04T09:13:55Z</time>
      </trkpt>
      <trkpt lat="43.398554" lon="-6.030788">
        <ele>117.0</ele>
        <time>2012-03-04T09:13:59Z</time>
      </trkpt>
      <trkpt lat="43.398349" lon="-6.030612">
        <ele>117.0</ele>
        <time>2012-03-04T09:14:03Z</time>
      </trkpt>
      <trkpt lat="43.398179" lon="-6.030495">
        <ele>117.0</ele>
        <time>2012-03-04T09:14:06Z</time>
      </trkpt>
      <trkpt lat="43.397873" lon="-6.030289">
        <ele>118.0</ele>
        <time>2012-03-04T09:14:11Z</time>
      </trkpt>
      <trkpt lat="43.397635" lon="-6.030105">
        <ele>118.0</ele>
        <time>2012-03-04T09:14:15Z</time>
      </trkpt>
      <trkpt lat="43.397402" lon="-6.029918">
        <ele>119.0</ele>
        <time>2012-03-04T09:14:19Z</time>
      </trkpt>
      <trkpt lat="43.397173" lon="-6.029724">
        <ele>119.0</ele>
        <time>2012-03-04T09:14:23Z</time>
      </trkpt>
      <trkpt lat="43.396969" lon="-6.029497">
        <ele>120.0</ele>
        <time>2012-03-04T09:14:27Z</time>
      </trkpt>
      <trkpt lat="43.396796" lon="-6.029237">
        <ele>120.0</ele>
        <time>2012-03-04T09:14:31Z</time>
      </trkpt>
      <trkpt lat="43.396673" lon="-6.029033">
        <ele>121.0</ele>
        <time>2012-03-04T09:14:34Z</time>
      </trkpt>
      <trkpt lat="43.396533" lon="-6.028722">
        <ele>121.0</ele>
        <time>2012-03-04T09:14:38Z</time>
      </trkpt>
      <trkpt lat="43.396433" lon="-6.028283">
        <ele>122.0</ele>
        <time>2012-03-04T09:14:43Z</time>
      </trkpt>
      <trkpt lat="43.396373" lon="-6.027928">
        <ele>123.0</ele>
        <time>2012-03-04T09:14:47Z</time>
      </trkpt>
      <trkpt lat="43.396306" lon="-6.027581">
        <ele>124.0</ele>
        <time>2012-03-04T09:14:51Z</time>
      </trkpt>
      <trkpt lat="43.396247" lon="-6.027234">
        <ele>126.0</ele>
        <time>2012-03-04T09:14:55Z</time>
      </trkpt>
      <trkpt lat="43.396186" lon="-6.026883">
        <ele>127.0</ele>
        <time>2012-03-04T09:14:59Z</time>
      </trkpt>
      <trkpt lat="43.396118" lon="-6.026532">
        <ele>128.0</ele>
        <time>2012-03-04T09:15:03Z</time>
      </trkpt>
      <trkpt lat="43.396045" lon="-6.026189">
        <ele>129.0</ele>
        <time>2012-03-04T09:15:07Z</time>
      </trkpt>
      <trkpt lat="43.395971" lon="-6.025941">
        <ele>130.0</ele>
        <time>2012-03-04T09:15:10Z</time>
      </trkpt>
      <trkpt lat="43.395857" lon="-6.02569">
        <ele>131.0</ele>
        <time>2012-03-04T09:15:14Z</time>
      </trkpt>
      <trkpt lat="43.395563" lon="-6.025586">
        <ele>132.0</ele>
        <time>2012-03-04T09:15:19Z</time>
      </trkpt>
      <trkpt lat="43.395268" lon="-6.025625">
        <ele>133.0</ele>
        <time>2012-03-04T09:15:23Z</time>
      </trkpt>
      <trkpt lat="43.394983" lon="-6.025639">
        <ele>133.0</ele>
        <time>2012-03-04T09:15:27Z</time>
      </trkpt>
      <trkpt lat="43.394766" lon="-6.025617">
        <ele>134.0</ele>
        <time>2012-03-04T09:15:30Z</time>
      </trkpt>
      <trkpt lat="43.394433" lon="-6.025481">
        <ele>134.0</ele>
        <time>2012-03-04T09:15:35Z</time>
      </trkpt>
      <trkpt lat="43.394184" lon="-6.025307">
        <ele>134.0</ele>
        <time>2012-03-04T09:15:39Z</time>
      </trkpt>
      <trkpt lat="43.393944" lon="-6.02512">
        <ele>134.0</ele>
        <time>2012-03-04T09:15:43Z</time>
      </trkpt>
      <trkpt lat="43.393716" lon="-6.024911">
        <ele>134.0</ele>
        <time>2012-03-04T09:15:47Z</time>
      </trkpt>
      <trkpt lat="43.393556" lon="-6.024734">
        <ele>134.0</ele>
        <time>2012-03-04T09:15:50Z</time>
      </trkpt>
      <trkpt lat="43.393346" lon="-6.024373">
        <ele>133.0</ele>
        <time>2012-03-04T09:15:55Z</time>
      </trkpt>
      <trkpt lat="43.393233" lon="-6.024038">
        <ele>133.0</ele>
        <time>2012-03-04T09:15:59Z</time>
      </trkpt>
      <trkpt lat="43.39315" lon="-6.023689">
        <ele>133.0</ele>
        <time>2012-03-04T09:16:03Z</time>
      </trkpt>
      <trkpt lat="43.393116" lon="-6.023319">
        <ele>134.0</ele>
        <time>2012-03-04T09:16:07Z</time>
      </trkpt>
      <trkpt lat="43.393098" lon="-6.022956">
        <ele>134.0</ele>
        <time>2012-03-04T09:16:11Z</time>
      </trkpt>
      <trkpt lat="43.393016" lon="-6.022621">
        <ele>135.0</ele>
        <time>2012-03-04T09:16:15Z</time>
      </trkpt>
      <trkpt lat="43.392881" lon="-6.022294">
        <ele>135.0</ele>
        <time>2012-03-04T09:16:19Z</time>
      </trkpt>
      <trkpt lat="43.392778" lon="-6.021943">
        <ele>134.0</ele>
        <time>2012-03-04T09:16:23Z</time>
      </trkpt>
      <trkpt lat="43.392814" lon="-6.021581">
        <ele>134.0</ele>
        <time>2012-03-04T09:16:27Z</time>
      </trkpt>
      <trkpt lat="43.39298" lon="-6.021308">
        <ele>134.0</ele>
        <time>2012-03-04T09:16:31Z</time>
      </trkpt>
      <trkpt lat="43.393196" lon="-6.021098">
        <ele>133.0</ele>
        <time>2012-03-04T09:16:35Z</time>
      </trkpt>
      <trkpt lat="43.393415" lon="-6.020896">
        <ele>133.0</ele>
        <time>2012-03-04T09:16:39Z</time>
      </trkpt>
      <trkpt lat="43.393562" lon="-6.020603">
        <ele>133.0</ele>
        <time>2012-03-04T09:16:43Z</time>
      </trkpt>
      <trkpt lat="43.393581" lon="-6.020234">
        <ele>133.0</ele>
        <time>2012-03-04T09:16:47Z</time>
      </trkpt>
      <trkpt lat="43.393535" lon="-6.01985">
        <ele>132.0</ele>
        <time>2012-03-04T09:16:51Z</time>
      </trkpt>
      <trkpt lat="43.393414" lon="-6.019494">
        <ele>132.0</ele>
        <time>2012-03-04T09:16:55Z</time>
      </trkpt>
      <trkpt lat="43.39325" lon="-6.019186">
        <ele>132.0</ele>
        <time>2012-03-04T09:16:59Z</time>
      </trkpt>
      <trkpt lat="43.393011" lon="-6.018994">
        <ele>132.0</ele>
        <time>2012-03-04T09:17:03Z</time>
      </trkpt>
      <trkpt lat="43.392775" lon="-6.018838">
        <ele>132.0</ele>
        <time>2012-03-04T09:17:07Z</time>
      </trkpt>
      <trkpt lat="43.392598" lon="-6.018603">
        <ele>132.0</ele>
        <time>2012-03-04T09:17:11Z</time>
      </trkpt>
      <trkpt lat="43.392509" lon="-6.018279">
        <ele>131.0</ele>
        <time>2012-03-04T09:17:15Z</time>
      </trkpt>
      <trkpt lat="43.392474" lon="-6.017933">
        <ele>130.0</ele>
        <time>2012-03-04T09:17:19Z</time>
      </trkpt>
      <trkpt lat="43.392465" lon="-6.017582">
        <ele>130.0</ele>
        <time>2012-03-04T09:17:23Z</time>
      </trkpt>
      <trkpt lat="43.392468" lon="-6.017237">
        <ele>130.0</ele>
        <time>2012-03-04T09:17:27Z</time>
      </trkpt>
      <trkpt lat="43.392456" lon="-6.016901">
        <ele>130.0</ele>
        <time>2012-03-04T09:17:31Z</time>
      </trkpt>
      <trkpt lat="43.392434" lon="-6.016566">
        <ele>130.0</ele>
        <time>2012-03-04T09:17:35Z</time>
      </trkpt>
      <trkpt lat="43.392434" lon="-6.016234">
        <ele>130.0</ele>
        <time>2012-03-04T09:17:39Z</time>
      </trkpt>
      <trkpt lat="43.392417" lon="-6.015914">
        <ele>131.0</ele>
        <time>2012-03-04T09:17:43Z</time>
      </trkpt>
      <trkpt lat="43.392399" lon="-6.015586">
        <ele>131.0</ele>
        <time>2012-03-04T09:17:47Z</time>
      </trkpt>
      <trkpt lat="43.392383" lon="-6.015269">
        <ele>131.0</ele>
        <time>2012-03-04T09:17:51Z</time>
      </trkpt>
      <trkpt lat="43.392369" lon="-6.014954">
        <ele>131.0</ele>
        <time>2012-03-04T09:17:55Z</time>
      </trkpt>
      <trkpt lat="43.392373" lon="-6.014326">
        <ele>131.0</ele>
        <time>2012-03-04T09:18:03Z</time>
      </trkpt>
      <trkpt lat="43.392348" lon="-6.014017">
        <ele>132.0</ele>
        <time>2012-03-04T09:18:07Z</time>
      </trkpt>
      <trkpt lat="43.392295" lon="-6.01372">
        <ele>132.0</ele>
        <time>2012-03-04T09:18:11Z</time>
      </trkpt>
      <trkpt lat="43.392179" lon="-6.013461">
        <ele>133.0</ele>
        <time>2012-03-04T09:18:15Z</time>
      </trkpt>
      <trkpt lat="43.392019" lon="-6.013216">
        <ele>134.0</ele>
        <time>2012-03-04T09:18:19Z</time>
      </trkpt>
      <trkpt lat="43.391831" lon="-6.012983">
        <ele>134.0</ele>
        <time>2012-03-04T09:18:23Z</time>
      </trkpt>
      <trkpt lat="43.391595" lon="-6.012716">
        <ele>135.0</ele>
        <time>2012-03-04T09:18:28Z</time>
      </trkpt>
      <trkpt lat="43.391497" lon="-6.012617">
        <ele>135.0</ele>
        <time>2012-03-04T09:18:30Z</time>
      </trkpt>
      <trkpt lat="43.391286" lon="-6.012452">
        <ele>135.0</ele>
        <time>2012-03-04T09:18:34Z</time>
      </trkpt>
      <trkpt lat="43.391057" lon="-6.012327">
        <ele>135.0</ele>
        <time>2012-03-04T09:18:38Z</time>
      </trkpt>
      <trkpt lat="43.390776" lon="-6.012126">
        <ele>136.0</ele>
        <time>2012-03-04T09:18:43Z</time>
      </trkpt>
      <trkpt lat="43.390647" lon="-6.011941">
        <ele>136.0</ele>
        <time>2012-03-04T09:18:46Z</time>
      </trkpt>
      <trkpt lat="43.390434" lon="-6.011537">
        <ele>137.0</ele>
        <time>2012-03-04T09:18:52Z</time>
      </trkpt>
      <trkpt lat="43.390368" lon="-6.011396">
        <ele>137.0</ele>
        <time>2012-03-04T09:18:54Z</time>
      </trkpt>
      <trkpt lat="43.39024" lon="-6.011111">
        <ele>137.0</ele>
        <time>2012-03-04T09:18:58Z</time>
      </trkpt>
      <trkpt lat="43.390109" lon="-6.010833">
        <ele>137.0</ele>
        <time>2012-03-04T09:19:02Z</time>
      </trkpt>
      <trkpt lat="43.389982" lon="-6.010562">
        <ele>137.0</ele>
        <time>2012-03-04T09:19:06Z</time>
      </trkpt>
      <trkpt lat="43.389797" lon="-6.010161">
        <ele>137.0</ele>
        <time>2012-03-04T09:19:12Z</time>
      </trkpt>
      <trkpt lat="43.38967" lon="-6.009898">
        <ele>137.0</ele>
        <time>2012-03-04T09:19:16Z</time>
      </trkpt>
      <trkpt lat="43.389608" lon="-6.009769">
        <ele>138.0</ele>
        <time>2012-03-04T09:19:18Z</time>
      </trkpt>
      <trkpt lat="43.389489" lon="-6.009518">
        <ele>138.0</ele>
        <time>2012-03-04T09:19:22Z</time>
      </trkpt>
      <trkpt lat="43.389311" lon="-6.009145">
        <ele>139.0</ele>
        <time>2012-03-04T09:19:28Z</time>
      </trkpt>
      <trkpt lat="43.389189" lon="-6.008906">
        <ele>140.0</ele>
        <time>2012-03-04T09:19:32Z</time>
      </trkpt>
      <trkpt lat="43.389071" lon="-6.008664">
        <ele>140.0</ele>
        <time>2012-03-04T09:19:36Z</time>
      </trkpt>
      <trkpt lat="43.389014" lon="-6.008549">
        <ele>140.0</ele>
        <time>2012-03-04T09:19:38Z</time>
      </trkpt>
      <trkpt lat="43.388908" lon="-6.008333">
        <ele>140.0</ele>
        <time>2012-03-04T09:19:42Z</time>
      </trkpt>
      <trkpt lat="43.388755" lon="-6.008019">
        <ele>140.0</ele>
        <time>2012-03-04T09:19:48Z</time>
      </trkpt>
      <trkpt lat="43.388662" lon="-6.007811">
        <ele>141.0</ele>
        <time>2012-03-04T09:19:52Z</time>
      </trkpt>
      <trkpt lat="43.388622" lon="-6.007704">
        <ele>141.0</ele>
        <time>2012-03-04T09:19:54Z</time>
      </trkpt>
      <trkpt lat="43.388558" lon="-6.007482">
        <ele>141.0</ele>
        <time>2012-03-04T09:19:58Z</time>
      </trkpt>
      <trkpt lat="43.38847" lon="-6.00713">
        <ele>141.0</ele>
        <time>2012-03-04T09:20:04Z</time>
      </trkpt>
      <trkpt lat="43.388426" lon="-6.006889">
        <ele>142.0</ele>
        <time>2012-03-04T09:20:08Z</time>
      </trkpt>
      <trkpt lat="43.388372" lon="-6.00665">
        <ele>142.0</ele>
        <time>2012-03-04T09:20:12Z</time>
      </trkpt>
      <trkpt lat="43.388313" lon="-6.006414">
        <ele>142.0</ele>
        <time>2012-03-04T09:20:16Z</time>
      </trkpt>
      <trkpt lat="43.388282" lon="-6.006297">
        <ele>142.0</ele>
        <time>2012-03-04T09:20:18Z</time>
      </trkpt>
      <trkpt lat="43.388194" lon="-6.005939">
        <ele>143.0</ele>
        <time>2012-03-04T09:20:24Z</time>
      </trkpt>
      <trkpt lat="43.388178" lon="-6.005693">
        <ele>144.0</ele>
        <time>2012-03-04T09:20:28Z</time>
      </trkpt>
      <trkpt lat="43.388193" lon="-6.005569">
        <ele>144.0</ele>
        <time>2012-03-04T09:20:30Z</time>
      </trkpt>
      <trkpt lat="43.388308" lon="-6.005205">
        <ele>145.0</ele>
        <time>2012-03-04T09:20:36Z</time>
      </trkpt>
      <trkpt lat="43.388358" lon="-6.005075">
        <ele>145.0</ele>
        <time>2012-03-04T09:20:38Z</time>
      </trkpt>
      <trkpt lat="43.388428" lon="-6.004535">
        <ele>146.0</ele>
        <time>2012-03-04T09:20:44Z</time>
      </trkpt>
      <trkpt lat="43.388419" lon="-6.004092">
        <ele>147.0</ele>
        <time>2012-03-04T09:20:48Z</time>
      </trkpt>
      <trkpt lat="43.388366" lon="-6.003637">
        <ele>147.0</ele>
        <time>2012-03-04T09:20:52Z</time>
      </trkpt>
      <trkpt lat="43.388235" lon="-6.003191">
        <ele>146.0</ele>
        <time>2012-03-04T09:20:56Z</time>
      </trkpt>
      <trkpt lat="43.388052" lon="-6.00276">
        <ele>146.0</ele>
        <time>2012-03-04T09:21:00Z</time>
      </trkpt>
      <trkpt lat="43.387893" lon="-6.002315">
        <ele>145.0</ele>
        <time>2012-03-04T09:21:04Z</time>
      </trkpt>
      <trkpt lat="43.387809" lon="-6.001859">
        <ele>144.0</ele>
        <time>2012-03-04T09:21:08Z</time>
      </trkpt>
      <trkpt lat="43.387727" lon="-6.001451">
        <ele>143.0</ele>
        <time>2012-03-04T09:21:12Z</time>
      </trkpt>
      <trkpt lat="43.387539" lon="-6.001153">
        <ele>142.0</ele>
        <time>2012-03-04T09:21:16Z</time>
      </trkpt>
      <trkpt lat="43.387328" lon="-6.000914">
        <ele>142.0</ele>
        <time>2012-03-04T09:21:20Z</time>
      </trkpt>
      <trkpt lat="43.387117" lon="-6.000694">
        <ele>142.0</ele>
        <time>2012-03-04T09:21:24Z</time>
      </trkpt>
      <trkpt lat="43.386961" lon="-6.00054">
        <ele>141.0</ele>
        <time>2012-03-04T09:21:27Z</time>
      </trkpt>
      <trkpt lat="43.386729" lon="-6.000437">
        <ele>141.0</ele>
        <time>2012-03-04T09:21:31Z</time>
      </trkpt>
      <trkpt lat="43.386488" lon="-6.000506">
        <ele>141.0</ele>
        <time>2012-03-04T09:21:35Z</time>
      </trkpt>
      <trkpt lat="43.38628" lon="-6.000691">
        <ele>141.0</ele>
        <time>2012-03-04T09:21:39Z</time>
      </trkpt>
      <trkpt lat="43.386091" lon="-6.000898">
        <ele>141.0</ele>
        <time>2012-03-04T09:21:43Z</time>
      </trkpt>
      <trkpt lat="43.385928" lon="-6.001088">
        <ele>141.0</ele>
        <time>2012-03-04T09:21:47Z</time>
      </trkpt>
      <trkpt lat="43.385765" lon="-6.001247">
        <ele>142.0</ele>
        <time>2012-03-04T09:21:51Z</time>
      </trkpt>
      <trkpt lat="43.385579" lon="-6.001345">
        <ele>143.0</ele>
        <time>2012-03-04T09:21:55Z</time>
      </trkpt>
      <trkpt lat="43.385382" lon="-6.001371">
        <ele>143.0</ele>
        <time>2012-03-04T09:21:59Z</time>
      </trkpt>
      <trkpt lat="43.385187" lon="-6.001339">
        <ele>143.0</ele>
        <time>2012-03-04T09:22:03Z</time>
      </trkpt>
      <trkpt lat="43.38501" lon="-6.001241">
        <ele>144.0</ele>
        <time>2012-03-04T09:22:07Z</time>
      </trkpt>
      <trkpt lat="43.384846" lon="-6.0011">
        <ele>144.0</ele>
        <time>2012-03-04T09:22:11Z</time>
      </trkpt>
      <trkpt lat="43.384688" lon="-6.000961">
        <ele>144.0</ele>
        <time>2012-03-04T09:22:15Z</time>
      </trkpt>
      <trkpt lat="43.384535" lon="-6.000815">
        <ele>144.0</ele>
        <time>2012-03-04T09:22:19Z</time>
      </trkpt>
      <trkpt lat="43.384382" lon="-6.000658">
        <ele>144.0</ele>
        <time>2012-03-04T09:22:23Z</time>
      </trkpt>
      <trkpt lat="43.384244" lon="-6.000476">
        <ele>145.0</ele>
        <time>2012-03-04T09:22:27Z</time>
      </trkpt>
      <trkpt lat="43.384104" lon="-6.000299">
        <ele>145.0</ele>
        <time>2012-03-04T09:22:31Z</time>
      </trkpt>
      <trkpt lat="43.383951" lon="-6.00015">
        <ele>145.0</ele>
        <time>2012-03-04T09:22:35Z</time>
      </trkpt>
      <trkpt lat="43.383791" lon="-6.000027">
        <ele>145.0</ele>
        <time>2012-03-04T09:22:39Z</time>
      </trkpt>
      <trkpt lat="43.383636" lon="-5.999912">
        <ele>145.0</ele>
        <time>2012-03-04T09:22:43Z</time>
      </trkpt>
      <trkpt lat="43.383487" lon="-5.999786">
        <ele>145.0</ele>
        <time>2012-03-04T09:22:47Z</time>
      </trkpt>
      <trkpt lat="43.38334" lon="-5.999627">
        <ele>146.0</ele>
        <time>2012-03-04T09:22:51Z</time>
      </trkpt>
      <trkpt lat="43.383191" lon="-5.999467">
        <ele>146.0</ele>
        <time>2012-03-04T09:22:55Z</time>
      </trkpt>
      <trkpt lat="43.383032" lon="-5.999328">
        <ele>147.0</ele>
        <time>2012-03-04T09:22:59Z</time>
      </trkpt>
      <trkpt lat="43.382948" lon="-5.999273">
        <ele>147.0</ele>
        <time>2012-03-04T09:23:01Z</time>
      </trkpt>
      <trkpt lat="43.382779" lon="-5.999182">
        <ele>147.0</ele>
        <time>2012-03-04T09:23:05Z</time>
      </trkpt>
      <trkpt lat="43.382533" lon="-5.99904">
        <ele>148.0</ele>
        <time>2012-03-04T09:23:11Z</time>
      </trkpt>
      <trkpt lat="43.382372" lon="-5.998898">
        <ele>149.0</ele>
        <time>2012-03-04T09:23:15Z</time>
      </trkpt>
      <trkpt lat="43.382227" lon="-5.998721">
        <ele>150.0</ele>
        <time>2012-03-04T09:23:19Z</time>
      </trkpt>
      <trkpt lat="43.38216" lon="-5.998627">
        <ele>151.0</ele>
        <time>2012-03-04T09:23:21Z</time>
      </trkpt>
      <trkpt lat="43.381983" lon="-5.998323">
        <ele>152.0</ele>
        <time>2012-03-04T09:23:27Z</time>
      </trkpt>
      <trkpt lat="43.381843" lon="-5.998139">
        <ele>152.0</ele>
        <time>2012-03-04T09:23:31Z</time>
      </trkpt>
      <trkpt lat="43.38166" lon="-5.998074">
        <ele>152.0</ele>
        <time>2012-03-04T09:23:35Z</time>
      </trkpt>
      <trkpt lat="43.381566" lon="-5.998087">
        <ele>153.0</ele>
        <time>2012-03-04T09:23:37Z</time>
      </trkpt>
      <trkpt lat="43.381391" lon="-5.998178">
        <ele>154.0</ele>
        <time>2012-03-04T09:23:41Z</time>
      </trkpt>
      <trkpt lat="43.381153" lon="-5.998337">
        <ele>155.0</ele>
        <time>2012-03-04T09:23:47Z</time>
      </trkpt>
      <trkpt lat="43.380994" lon="-5.99844">
        <ele>156.0</ele>
        <time>2012-03-04T09:23:51Z</time>
      </trkpt>
      <trkpt lat="43.380822" lon="-5.9985">
        <ele>157.0</ele>
        <time>2012-03-04T09:23:55Z</time>
      </trkpt>
      <trkpt lat="43.380736" lon="-5.998502">
        <ele>157.0</ele>
        <time>2012-03-04T09:23:57Z</time>
      </trkpt>
      <trkpt lat="43.380552" lon="-5.998477">
        <ele>159.0</ele>
        <time>2012-03-04T09:24:01Z</time>
      </trkpt>
      <trkpt lat="43.380262" lon="-5.998354">
        <ele>161.0</ele>
        <time>2012-03-04T09:24:07Z</time>
      </trkpt>
      <trkpt lat="43.380165" lon="-5.998295">
        <ele>161.0</ele>
        <time>2012-03-04T09:24:09Z</time>
      </trkpt>
      <trkpt lat="43.379895" lon="-5.998083">
        <ele>162.0</ele>
        <time>2012-03-04T09:24:15Z</time>
      </trkpt>
      <trkpt lat="43.379716" lon="-5.997921">
        <ele>163.0</ele>
        <time>2012-03-04T09:24:19Z</time>
      </trkpt>
      <trkpt lat="43.379536" lon="-5.997758">
        <ele>164.0</ele>
        <time>2012-03-04T09:24:23Z</time>
      </trkpt>
      <trkpt lat="43.37937" lon="-5.997603">
        <ele>165.0</ele>
        <time>2012-03-04T09:24:27Z</time>
      </trkpt>
      <trkpt lat="43.379211" lon="-5.997478">
        <ele>165.0</ele>
        <time>2012-03-04T09:24:31Z</time>
      </trkpt>
      <trkpt lat="43.37905" lon="-5.99743">
        <ele>165.0</ele>
        <time>2012-03-04T09:24:35Z</time>
      </trkpt>
      <trkpt lat="43.378883" lon="-5.997523">
        <ele>166.0</ele>
        <time>2012-03-04T09:24:39Z</time>
      </trkpt>
      <trkpt lat="43.37874" lon="-5.997676">
        <ele>166.0</ele>
        <time>2012-03-04T09:24:43Z</time>
      </trkpt>
      <trkpt lat="43.378611" lon="-5.997856">
        <ele>167.0</ele>
        <time>2012-03-04T09:24:47Z</time>
      </trkpt>
      <trkpt lat="43.378504" lon="-5.998057">
        <ele>168.0</ele>
        <time>2012-03-04T09:24:51Z</time>
      </trkpt>
      <trkpt lat="43.378423" lon="-5.998272">
        <ele>168.0</ele>
        <time>2012-03-04T09:24:55Z</time>
      </trkpt>
      <trkpt lat="43.378339" lon="-5.998471">
        <ele>169.0</ele>
        <time>2012-03-04T09:24:59Z</time>
      </trkpt>
      <trkpt lat="43.378252" lon="-5.998666">
        <ele>169.0</ele>
        <time>2012-03-04T09:25:03Z</time>
      </trkpt>
      <trkpt lat="43.378139" lon="-5.998847">
        <ele>169.0</ele>
        <time>2012-03-04T09:25:07Z</time>
      </trkpt>
      <trkpt lat="43.378001" lon="-5.998993">
        <ele>170.0</ele>
        <time>2012-03-04T09:25:11Z</time>
      </trkpt>
      <trkpt lat="43.377923" lon="-5.999049">
        <ele>170.0</ele>
        <time>2012-03-04T09:25:13Z</time>
      </trkpt>
      <trkpt lat="43.37768" lon="-5.999156">
        <ele>170.0</ele>
        <time>2012-03-04T09:25:19Z</time>
      </trkpt>
      <trkpt lat="43.377498" lon="-5.999165">
        <ele>171.0</ele>
        <time>2012-03-04T09:25:23Z</time>
      </trkpt>
      <trkpt lat="43.377322" lon="-5.999099">
        <ele>172.0</ele>
        <time>2012-03-04T09:25:27Z</time>
      </trkpt>
      <trkpt lat="43.37715" lon="-5.998974">
        <ele>173.0</ele>
        <time>2012-03-04T09:25:31Z</time>
      </trkpt>
      <trkpt lat="43.376839" lon="-5.998675">
        <ele>175.0</ele>
        <time>2012-03-04T09:25:39Z</time>
      </trkpt>
      <trkpt lat="43.376681" lon="-5.998514">
        <ele>176.0</ele>
        <time>2012-03-04T09:25:43Z</time>
      </trkpt>
      <trkpt lat="43.376422" lon="-5.998275">
        <ele>177.0</ele>
        <time>2012-03-04T09:25:49Z</time>
      </trkpt>
      <trkpt lat="43.376161" lon="-5.99804">
        <ele>177.0</ele>
        <time>2012-03-04T09:25:55Z</time>
      </trkpt>
      <trkpt lat="43.376005" lon="-5.997882">
        <ele>178.0</ele>
        <time>2012-03-04T09:25:59Z</time>
      </trkpt>
      <trkpt lat="43.375872" lon="-5.997692">
        <ele>178.0</ele>
        <time>2012-03-04T09:26:03Z</time>
      </trkpt>
      <trkpt lat="43.375676" lon="-5.99738">
        <ele>178.0</ele>
        <time>2012-03-04T09:26:09Z</time>
      </trkpt>
      <trkpt lat="43.375406" lon="-5.997228">
        <ele>180.0</ele>
        <time>2012-03-04T09:26:15Z</time>
      </trkpt>
      <trkpt lat="43.375216" lon="-5.997289">
        <ele>181.0</ele>
        <time>2012-03-04T09:26:19Z</time>
      </trkpt>
      <trkpt lat="43.375066" lon="-5.997431">
        <ele>181.0</ele>
        <time>2012-03-04T09:26:23Z</time>
      </trkpt>
      <trkpt lat="43.374937" lon="-5.997614">
        <ele>182.0</ele>
        <time>2012-03-04T09:26:27Z</time>
      </trkpt>
      <trkpt lat="43.374804" lon="-5.9978">
        <ele>182.0</ele>
        <time>2012-03-04T09:26:31Z</time>
      </trkpt>
      <trkpt lat="43.374625" lon="-5.997924">
        <ele>183.0</ele>
        <time>2012-03-04T09:26:35Z</time>
      </trkpt>
      <trkpt lat="43.374424" lon="-5.997968">
        <ele>183.0</ele>
        <time>2012-03-04T09:26:39Z</time>
      </trkpt>
      <trkpt lat="43.374217" lon="-5.997953">
        <ele>184.0</ele>
        <time>2012-03-04T09:26:43Z</time>
      </trkpt>
      <trkpt lat="43.374008" lon="-5.997861">
        <ele>184.0</ele>
        <time>2012-03-04T09:26:47Z</time>
      </trkpt>
      <trkpt lat="43.373822" lon="-5.997708">
        <ele>185.0</ele>
        <time>2012-03-04T09:26:51Z</time>
      </trkpt>
      <trkpt lat="43.373672" lon="-5.997488">
        <ele>186.0</ele>
        <time>2012-03-04T09:26:55Z</time>
      </trkpt>
      <trkpt lat="43.373551" lon="-5.997226">
        <ele>186.0</ele>
        <time>2012-03-04T09:26:59Z</time>
      </trkpt>
      <trkpt lat="43.373448" lon="-5.996962">
        <ele>187.0</ele>
        <time>2012-03-04T09:27:03Z</time>
      </trkpt>
      <trkpt lat="43.373347" lon="-5.996727">
        <ele>187.0</ele>
        <time>2012-03-04T09:27:07Z</time>
      </trkpt>
      <trkpt lat="43.373208" lon="-5.996535">
        <ele>187.0</ele>
        <time>2012-03-04T09:27:11Z</time>
      </trkpt>
      <trkpt lat="43.373009" lon="-5.996435">
        <ele>187.0</ele>
        <time>2012-03-04T09:27:15Z</time>
      </trkpt>
      <trkpt lat="43.372808" lon="-5.99638">
        <ele>188.0</ele>
        <time>2012-03-04T09:27:19Z</time>
      </trkpt>
      <trkpt lat="43.372593" lon="-5.996367">
        <ele>188.0</ele>
        <time>2012-03-04T09:27:23Z</time>
      </trkpt>
      <trkpt lat="43.372381" lon="-5.996415">
        <ele>189.0</ele>
        <time>2012-03-04T09:27:27Z</time>
      </trkpt>
      <trkpt lat="43.372284" lon="-5.99648">
        <ele>189.0</ele>
        <time>2012-03-04T09:27:29Z</time>
      </trkpt>
      <trkpt lat="43.372074" lon="-5.99681">
        <ele>190.0</ele>
        <time>2012-03-04T09:27:35Z</time>
      </trkpt>
      <trkpt lat="43.371966" lon="-5.997059">
        <ele>190.0</ele>
        <time>2012-03-04T09:27:39Z</time>
      </trkpt>
      <trkpt lat="43.371843" lon="-5.997304">
        <ele>191.0</ele>
        <time>2012-03-04T09:27:43Z</time>
      </trkpt>
      <trkpt lat="43.371685" lon="-5.997529">
        <ele>192.0</ele>
        <time>2012-03-04T09:27:47Z</time>
      </trkpt>
      <trkpt lat="43.371498" lon="-5.997708">
        <ele>193.0</ele>
        <time>2012-03-04T09:27:51Z</time>
      </trkpt>
      <trkpt lat="43.371289" lon="-5.997839">
        <ele>194.0</ele>
        <time>2012-03-04T09:27:55Z</time>
      </trkpt>
      <trkpt lat="43.370746" lon="-5.997998">
        <ele>196.0</ele>
        <time>2012-03-04T09:28:04Z</time>
      </trkpt>
      <trkpt lat="43.370477" lon="-5.998019">
        <ele>197.0</ele>
        <time>2012-03-04T09:28:08Z</time>
      </trkpt>
      <trkpt lat="43.370204" lon="-5.998036">
        <ele>198.0</ele>
        <time>2012-03-04T09:28:12Z</time>
      </trkpt>
      <trkpt lat="43.36993" lon="-5.998016">
        <ele>199.0</ele>
        <time>2012-03-04T09:28:16Z</time>
      </trkpt>
      <trkpt lat="43.369677" lon="-5.997873">
        <ele>200.0</ele>
        <time>2012-03-04T09:28:20Z</time>
      </trkpt>
      <trkpt lat="43.369436" lon="-5.997702">
        <ele>201.0</ele>
        <time>2012-03-04T09:28:24Z</time>
      </trkpt>
      <trkpt lat="43.369201" lon="-5.997524">
        <ele>202.0</ele>
        <time>2012-03-04T09:28:28Z</time>
      </trkpt>
      <trkpt lat="43.368966" lon="-5.997333">
        <ele>203.0</ele>
        <time>2012-03-04T09:28:32Z</time>
      </trkpt>
      <trkpt lat="43.368728" lon="-5.997137">
        <ele>204.0</ele>
        <time>2012-03-04T09:28:36Z</time>
      </trkpt>
      <trkpt lat="43.36849" lon="-5.996945">
        <ele>204.0</ele>
        <time>2012-03-04T09:28:40Z</time>
      </trkpt>
      <trkpt lat="43.368297" lon="-5.996676">
        <ele>205.0</ele>
        <time>2012-03-04T09:28:44Z</time>
      </trkpt>
      <trkpt lat="43.368247" lon="-5.996312">
        <ele>205.0</ele>
        <time>2012-03-04T09:28:48Z</time>
      </trkpt>
      <trkpt lat="43.368289" lon="-5.995941">
        <ele>206.0</ele>
        <time>2012-03-04T09:28:52Z</time>
      </trkpt>
      <trkpt lat="43.36836" lon="-5.995596">
        <ele>206.0</ele>
        <time>2012-03-04T09:28:56Z</time>
      </trkpt>
      <trkpt lat="43.368417" lon="-5.995346">
        <ele>207.0</ele>
        <time>2012-03-04T09:28:59Z</time>
      </trkpt>
      <trkpt lat="43.368458" lon="-5.995183">
        <ele>207.0</ele>
        <time>2012-03-04T09:29:01Z</time>
      </trkpt>
      <trkpt lat="43.368575" lon="-5.994695">
        <ele>208.0</ele>
        <time>2012-03-04T09:29:07Z</time>
      </trkpt>
      <trkpt lat="43.368517" lon="-5.994388">
        <ele>210.0</ele>
        <time>2012-03-04T09:29:11Z</time>
      </trkpt>
      <trkpt lat="43.36831" lon="-5.994303">
        <ele>211.0</ele>
        <time>2012-03-04T09:29:15Z</time>
      </trkpt>
      <trkpt lat="43.368112" lon="-5.994456">
        <ele>212.0</ele>
        <time>2012-03-04T09:29:19Z</time>
      </trkpt>
      <trkpt lat="43.367862" lon="-5.994719">
        <ele>213.0</ele>
        <time>2012-03-04T09:29:24Z</time>
      </trkpt>
      <trkpt lat="43.367665" lon="-5.994936">
        <ele>214.0</ele>
        <time>2012-03-04T09:29:28Z</time>
      </trkpt>
      <trkpt lat="43.367433" lon="-5.995099">
        <ele>215.0</ele>
        <time>2012-03-04T09:29:32Z</time>
      </trkpt>
      <trkpt lat="43.367243" lon="-5.995051">
        <ele>216.0</ele>
        <time>2012-03-04T09:29:35Z</time>
      </trkpt>
      <trkpt lat="43.36707" lon="-5.994682">
        <ele>218.0</ele>
        <time>2012-03-04T09:29:40Z</time>
      </trkpt>
      <trkpt lat="43.367087" lon="-5.994337">
        <ele>220.0</ele>
        <time>2012-03-04T09:29:44Z</time>
      </trkpt>
      <trkpt lat="43.367141" lon="-5.993999">
        <ele>221.0</ele>
        <time>2012-03-04T09:29:48Z</time>
      </trkpt>
      <trkpt lat="43.367206" lon="-5.993664">
        <ele>222.0</ele>
        <time>2012-03-04T09:29:52Z</time>
      </trkpt>
      <trkpt lat="43.36727" lon="-5.993338">
        <ele>223.0</ele>
        <time>2012-03-04T09:29:56Z</time>
      </trkpt>
      <trkpt lat="43.367321" lon="-5.993008">
        <ele>223.0</ele>
        <time>2012-03-04T09:30:00Z</time>
      </trkpt>
      <trkpt lat="43.367275" lon="-5.992688">
        <ele>224.0</ele>
        <time>2012-03-04T09:30:04Z</time>
      </trkpt>
      <trkpt lat="43.367135" lon="-5.992437">
        <ele>225.0</ele>
        <time>2012-03-04T09:30:08Z</time>
      </trkpt>
      <trkpt lat="43.366938" lon="-5.992307">
        <ele>226.0</ele>
        <time>2012-03-04T09:30:12Z</time>
      </trkpt>
      <trkpt lat="43.366722" lon="-5.992219">
        <ele>226.0</ele>
        <time>2012-03-04T09:30:16Z</time>
      </trkpt>
      <trkpt lat="43.366483" lon="-5.992139">
        <ele>227.0</ele>
        <time>2012-03-04T09:30:20Z</time>
      </trkpt>
      <trkpt lat="43.366238" lon="-5.992034">
        <ele>227.0</ele>
        <time>2012-03-04T09:30:24Z</time>
      </trkpt>
      <trkpt lat="43.366016" lon="-5.991842">
        <ele>228.0</ele>
        <time>2012-03-04T09:30:28Z</time>
      </trkpt>
      <trkpt lat="43.365792" lon="-5.991512">
        <ele>230.0</ele>
        <time>2012-03-04T09:30:32Z</time>
      </trkpt>
      <trkpt lat="43.365557" lon="-5.991057">
        <ele>231.0</ele>
        <time>2012-03-04T09:30:36Z</time>
      </trkpt>
      <trkpt lat="43.36532" lon="-5.990562">
        <ele>232.0</ele>
        <time>2012-03-04T09:30:40Z</time>
      </trkpt>
      <trkpt lat="43.365161" lon="-5.990016">
        <ele>232.0</ele>
        <time>2012-03-04T09:30:44Z</time>
      </trkpt>
      <trkpt lat="43.365078" lon="-5.989434">
        <ele>232.0</ele>
        <time>2012-03-04T09:30:48Z</time>
      </trkpt>
      <trkpt lat="43.365005" lon="-5.988884">
        <ele>233.0</ele>
        <time>2012-03-04T09:30:52Z</time>
      </trkpt>
      <trkpt lat="43.364929" lon="-5.988389">
        <ele>232.0</ele>
        <time>2012-03-04T09:30:56Z</time>
      </trkpt>
      <trkpt lat="43.364866" lon="-5.987938">
        <ele>232.0</ele>
        <time>2012-03-04T09:31:00Z</time>
      </trkpt>
      <trkpt lat="43.364952" lon="-5.987526">
        <ele>233.0</ele>
        <time>2012-03-04T09:31:04Z</time>
      </trkpt>
      <trkpt lat="43.365165" lon="-5.987227">
        <ele>233.0</ele>
        <time>2012-03-04T09:31:08Z</time>
      </trkpt>
      <trkpt lat="43.365405" lon="-5.986998">
        <ele>233.0</ele>
        <time>2012-03-04T09:31:12Z</time>
      </trkpt>
      <trkpt lat="43.365638" lon="-5.986789">
        <ele>233.0</ele>
        <time>2012-03-04T09:31:16Z</time>
      </trkpt>
      <trkpt lat="43.365867" lon="-5.98657">
        <ele>233.0</ele>
        <time>2012-03-04T09:31:20Z</time>
      </trkpt>
      <trkpt lat="43.366078" lon="-5.986332">
        <ele>234.0</ele>
        <time>2012-03-04T09:31:24Z</time>
      </trkpt>
      <trkpt lat="43.366207" lon="-5.985995">
        <ele>235.0</ele>
        <time>2012-03-04T09:31:28Z</time>
      </trkpt>
      <trkpt lat="43.366248" lon="-5.985599">
        <ele>235.0</ele>
        <time>2012-03-04T09:31:32Z</time>
      </trkpt>
      <trkpt lat="43.366213" lon="-5.985186">
        <ele>235.0</ele>
        <time>2012-03-04T09:31:36Z</time>
      </trkpt>
      <trkpt lat="43.366146" lon="-5.984772">
        <ele>235.0</ele>
        <time>2012-03-04T09:31:40Z</time>
      </trkpt>
      <trkpt lat="43.366092" lon="-5.984358">
        <ele>235.0</ele>
        <time>2012-03-04T09:31:44Z</time>
      </trkpt>
      <trkpt lat="43.366028" lon="-5.983942">
        <ele>234.0</ele>
        <time>2012-03-04T09:31:48Z</time>
      </trkpt>
      <trkpt lat="43.365908" lon="-5.983541">
        <ele>234.0</ele>
        <time>2012-03-04T09:31:52Z</time>
      </trkpt>
      <trkpt lat="43.365743" lon="-5.983173">
        <ele>233.0</ele>
        <time>2012-03-04T09:31:56Z</time>
      </trkpt>
      <trkpt lat="43.365563" lon="-5.982828">
        <ele>233.0</ele>
        <time>2012-03-04T09:32:00Z</time>
      </trkpt>
      <trkpt lat="43.365386" lon="-5.982497">
        <ele>233.0</ele>
        <time>2012-03-04T09:32:04Z</time>
      </trkpt>
      <trkpt lat="43.365238" lon="-5.982165">
        <ele>233.0</ele>
        <time>2012-03-04T09:32:08Z</time>
      </trkpt>
      <trkpt lat="43.365151" lon="-5.981795">
        <ele>233.0</ele>
        <time>2012-03-04T09:32:12Z</time>
      </trkpt>
      <trkpt lat="43.36509" lon="-5.981395">
        <ele>233.0</ele>
        <time>2012-03-04T09:32:16Z</time>
      </trkpt>
      <trkpt lat="43.365028" lon="-5.98099">
        <ele>233.0</ele>
        <time>2012-03-04T09:32:20Z</time>
      </trkpt>
      <trkpt lat="43.364828" lon="-5.980673">
        <ele>233.0</ele>
        <time>2012-03-04T09:32:24Z</time>
      </trkpt>
      <trkpt lat="43.364495" lon="-5.980538">
        <ele>233.0</ele>
        <time>2012-03-04T09:32:28Z</time>
      </trkpt>
      <trkpt lat="43.364122" lon="-5.980436">
        <ele>232.0</ele>
        <time>2012-03-04T09:32:32Z</time>
      </trkpt>
      <trkpt lat="43.363932" lon="-5.980392">
        <ele>232.0</ele>
        <time>2012-03-04T09:32:34Z</time>
      </trkpt>
      <trkpt lat="43.363365" lon="-5.980244">
        <ele>231.0</ele>
        <time>2012-03-04T09:32:40Z</time>
      </trkpt>
      <trkpt lat="43.363026" lon="-5.979962">
        <ele>230.0</ele>
        <time>2012-03-04T09:32:44Z</time>
      </trkpt>
      <trkpt lat="43.362703" lon="-5.979653">
        <ele>229.0</ele>
        <time>2012-03-04T09:32:48Z</time>
      </trkpt>
      <trkpt lat="43.362376" lon="-5.979349">
        <ele>228.0</ele>
        <time>2012-03-04T09:32:52Z</time>
      </trkpt>
      <trkpt lat="43.362059" lon="-5.978997">
        <ele>228.0</ele>
        <time>2012-03-04T09:32:56Z</time>
      </trkpt>
      <trkpt lat="43.361778" lon="-5.978628">
        <ele>227.0</ele>
        <time>2012-03-04T09:33:00Z</time>
      </trkpt>
      <trkpt lat="43.361521" lon="-5.978285">
        <ele>226.0</ele>
        <time>2012-03-04T09:33:04Z</time>
      </trkpt>
      <trkpt lat="43.361282" lon="-5.977964">
        <ele>225.0</ele>
        <time>2012-03-04T09:33:08Z</time>
      </trkpt>
      <trkpt lat="43.361065" lon="-5.977643">
        <ele>224.0</ele>
        <time>2012-03-04T09:33:12Z</time>
      </trkpt>
      <trkpt lat="43.360906" lon="-5.977267">
        <ele>223.0</ele>
        <time>2012-03-04T09:33:16Z</time>
      </trkpt>
      <trkpt lat="43.36079" lon="-5.976858">
        <ele>222.0</ele>
        <time>2012-03-04T09:33:20Z</time>
      </trkpt>
      <trkpt lat="43.360596" lon="-5.976509">
        <ele>221.0</ele>
        <time>2012-03-04T09:33:24Z</time>
      </trkpt>
      <trkpt lat="43.360345" lon="-5.976215">
        <ele>220.0</ele>
        <time>2012-03-04T09:33:28Z</time>
      </trkpt>
      <trkpt lat="43.360219" lon="-5.975913">
        <ele>220.0</ele>
        <time>2012-03-04T09:33:31Z</time>
      </trkpt>
      <trkpt lat="43.360125" lon="-5.975475">
        <ele>220.0</ele>
        <time>2012-03-04T09:33:35Z</time>
      </trkpt>
      <trkpt lat="43.36" lon="-5.975065">
        <ele>220.0</ele>
        <time>2012-03-04T09:33:39Z</time>
      </trkpt>
      <trkpt lat="43.359791" lon="-5.974721">
        <ele>219.0</ele>
        <time>2012-03-04T09:33:43Z</time>
      </trkpt>
      <trkpt lat="43.359669" lon="-5.974309">
        <ele>218.0</ele>
        <time>2012-03-04T09:33:47Z</time>
      </trkpt>
      <trkpt lat="43.35973" lon="-5.973851">
        <ele>217.0</ele>
        <time>2012-03-04T09:33:51Z</time>
      </trkpt>
      <trkpt lat="43.359722" lon="-5.9734">
        <ele>215.0</ele>
        <time>2012-03-04T09:33:55Z</time>
      </trkpt>
      <trkpt lat="43.359644" lon="-5.97296">
        <ele>215.0</ele>
        <time>2012-03-04T09:33:59Z</time>
      </trkpt>
      <trkpt lat="43.359595" lon="-5.972513">
        <ele>214.0</ele>
        <time>2012-03-04T09:34:03Z</time>
      </trkpt>
      <trkpt lat="43.359566" lon="-5.972059">
        <ele>212.0</ele>
        <time>2012-03-04T09:34:07Z</time>
      </trkpt>
      <trkpt lat="43.359562" lon="-5.971623">
        <ele>211.0</ele>
        <time>2012-03-04T09:34:11Z</time>
      </trkpt>
      <trkpt lat="43.359538" lon="-5.971199">
        <ele>211.0</ele>
        <time>2012-03-04T09:34:15Z</time>
      </trkpt>
      <trkpt lat="43.359476" lon="-5.970801">
        <ele>210.0</ele>
        <time>2012-03-04T09:34:19Z</time>
      </trkpt>
      <trkpt lat="43.359383" lon="-5.970407">
        <ele>209.0</ele>
        <time>2012-03-04T09:34:23Z</time>
      </trkpt>
      <trkpt lat="43.35933" lon="-5.970214">
        <ele>209.0</ele>
        <time>2012-03-04T09:34:25Z</time>
      </trkpt>
      <trkpt lat="43.359141" lon="-5.96964">
        <ele>207.0</ele>
        <time>2012-03-04T09:34:31Z</time>
      </trkpt>
      <trkpt lat="43.359024" lon="-5.969262">
        <ele>206.0</ele>
        <time>2012-03-04T09:34:35Z</time>
      </trkpt>
      <trkpt lat="43.358992" lon="-5.968848">
        <ele>205.0</ele>
        <time>2012-03-04T09:34:39Z</time>
      </trkpt>
      <trkpt lat="43.359026" lon="-5.968426">
        <ele>204.0</ele>
        <time>2012-03-04T09:34:43Z</time>
      </trkpt>
      <trkpt lat="43.359083" lon="-5.96799">
        <ele>202.0</ele>
        <time>2012-03-04T09:34:47Z</time>
      </trkpt>
      <trkpt lat="43.359139" lon="-5.967522">
        <ele>201.0</ele>
        <time>2012-03-04T09:34:51Z</time>
      </trkpt>
      <trkpt lat="43.359183" lon="-5.967022">
        <ele>201.0</ele>
        <time>2012-03-04T09:34:55Z</time>
      </trkpt>
      <trkpt lat="43.35921" lon="-5.966496">
        <ele>200.0</ele>
        <time>2012-03-04T09:34:59Z</time>
      </trkpt>
      <trkpt lat="43.359076" lon="-5.966004">
        <ele>199.0</ele>
        <time>2012-03-04T09:35:03Z</time>
      </trkpt>
      <trkpt lat="43.358773" lon="-5.965679">
        <ele>198.0</ele>
        <time>2012-03-04T09:35:07Z</time>
      </trkpt>
      <trkpt lat="43.358485" lon="-5.965605">
        <ele>197.0</ele>
        <time>2012-03-04T09:35:10Z</time>
      </trkpt>
      <trkpt lat="43.357988" lon="-5.965583">
        <ele>193.0</ele>
        <time>2012-03-04T09:35:15Z</time>
      </trkpt>
      <trkpt lat="43.35759" lon="-5.965571">
        <ele>191.0</ele>
        <time>2012-03-04T09:35:19Z</time>
      </trkpt>
      <trkpt lat="43.35719" lon="-5.965598">
        <ele>190.0</ele>
        <time>2012-03-04T09:35:23Z</time>
      </trkpt>
      <trkpt lat="43.3568" lon="-5.965721">
        <ele>189.0</ele>
        <time>2012-03-04T09:35:27Z</time>
      </trkpt>
      <trkpt lat="43.356417" lon="-5.965886">
        <ele>187.0</ele>
        <time>2012-03-04T09:35:31Z</time>
      </trkpt>
      <trkpt lat="43.356032" lon="-5.966044">
        <ele>182.0</ele>
        <time>2012-03-04T09:35:35Z</time>
      </trkpt>
      <trkpt lat="43.355641" lon="-5.966151">
        <ele>177.0</ele>
        <time>2012-03-04T09:35:39Z</time>
      </trkpt>
      <trkpt lat="43.355249" lon="-5.966219">
        <ele>172.0</ele>
        <time>2012-03-04T09:35:43Z</time>
      </trkpt>
      <trkpt lat="43.354874" lon="-5.966271">
        <ele>167.0</ele>
        <time>2012-03-04T09:35:47Z</time>
      </trkpt>
      <trkpt lat="43.354612" lon="-5.966315">
        <ele>164.0</ele>
        <time>2012-03-04T09:35:50Z</time>
      </trkpt>
      <trkpt lat="43.354349" lon="-5.966353">
        <ele>163.0</ele>
        <time>2012-03-04T09:35:53Z</time>
      </trkpt>
      <trkpt lat="43.354016" lon="-5.96629">
        <ele>161.0</ele>
        <time>2012-03-04T09:35:59Z</time>
      </trkpt>
      <trkpt lat="43.353871" lon="-5.966063">
        <ele>160.0</ele>
        <time>2012-03-04T09:36:03Z</time>
      </trkpt>
      <trkpt lat="43.353754" lon="-5.965815">
        <ele>158.0</ele>
        <time>2012-03-04T09:36:07Z</time>
      </trkpt>
      <trkpt lat="43.353641" lon="-5.965557">
        <ele>155.0</ele>
        <time>2012-03-04T09:36:11Z</time>
      </trkpt>
      <trkpt lat="43.353521" lon="-5.965283">
        <ele>153.0</ele>
        <time>2012-03-04T09:36:15Z</time>
      </trkpt>
      <trkpt lat="43.353395" lon="-5.964994">
        <ele>152.0</ele>
        <time>2012-03-04T09:36:19Z</time>
      </trkpt>
      <trkpt lat="43.353265" lon="-5.964702">
        <ele>152.0</ele>
        <time>2012-03-04T09:36:23Z</time>
      </trkpt>
      <trkpt lat="43.353141" lon="-5.964426">
        <ele>152.0</ele>
        <time>2012-03-04T09:36:27Z</time>
      </trkpt>
      <trkpt lat="43.353017" lon="-5.964222">
        <ele>151.0</ele>
        <time>2012-03-04T09:36:31Z</time>
      </trkpt>
      <trkpt lat="43.352883" lon="-5.964091">
        <ele>150.0</ele>
        <time>2012-03-04T09:36:35Z</time>
      </trkpt>
      <trkpt lat="43.352738" lon="-5.964002">
        <ele>150.0</ele>
        <time>2012-03-04T09:36:39Z</time>
      </trkpt>
      <trkpt lat="43.352593" lon="-5.963951">
        <ele>150.0</ele>
        <time>2012-03-04T09:36:43Z</time>
      </trkpt>
      <trkpt lat="43.352519" lon="-5.963939">
        <ele>150.0</ele>
        <time>2012-03-04T09:36:45Z</time>
      </trkpt>
      <trkpt lat="43.352368" lon="-5.963915">
        <ele>150.0</ele>
        <time>2012-03-04T09:36:50Z</time>
      </trkpt>
      <trkpt lat="43.352227" lon="-5.963887">
        <ele>150.0</ele>
        <time>2012-03-04T09:36:54Z</time>
      </trkpt>
      <trkpt lat="43.352083" lon="-5.963864">
        <ele>150.0</ele>
        <time>2012-03-04T09:36:58Z</time>
      </trkpt>
      <trkpt lat="43.351943" lon="-5.963847">
        <ele>150.0</ele>
        <time>2012-03-04T09:37:02Z</time>
      </trkpt>
      <trkpt lat="43.351812" lon="-5.963821">
        <ele>150.0</ele>
        <time>2012-03-04T09:37:06Z</time>
      </trkpt>
      <trkpt lat="43.351685" lon="-5.963791">
        <ele>150.0</ele>
        <time>2012-03-04T09:37:10Z</time>
      </trkpt>
      <trkpt lat="43.351544" lon="-5.963766">
        <ele>150.0</ele>
        <time>2012-03-04T09:37:14Z</time>
      </trkpt>
      <trkpt lat="43.351383" lon="-5.963735">
        <ele>150.0</ele>
        <time>2012-03-04T09:37:18Z</time>
      </trkpt>
      <trkpt lat="43.351214" lon="-5.963738">
        <ele>150.0</ele>
        <time>2012-03-04T09:37:22Z</time>
      </trkpt>
      <trkpt lat="43.351044" lon="-5.963789">
        <ele>150.0</ele>
        <time>2012-03-04T09:37:26Z</time>
      </trkpt>
      <trkpt lat="43.350881" lon="-5.96387">
        <ele>150.0</ele>
        <time>2012-03-04T09:37:30Z</time>
      </trkpt>
      <trkpt lat="43.350731" lon="-5.963962">
        <ele>150.0</ele>
        <time>2012-03-04T09:37:34Z</time>
      </trkpt>
      <trkpt lat="43.350593" lon="-5.96404">
        <ele>151.0</ele>
        <time>2012-03-04T09:37:38Z</time>
      </trkpt>
      <trkpt lat="43.350453" lon="-5.964109">
        <ele>151.0</ele>
        <time>2012-03-04T09:37:42Z</time>
      </trkpt>
      <trkpt lat="43.350309" lon="-5.964159">
        <ele>151.0</ele>
        <time>2012-03-04T09:37:46Z</time>
      </trkpt>
      <trkpt lat="43.350153" lon="-5.964159">
        <ele>151.0</ele>
        <time>2012-03-04T09:37:50Z</time>
      </trkpt>
      <trkpt lat="43.349997" lon="-5.964122">
        <ele>152.0</ele>
        <time>2012-03-04T09:37:54Z</time>
      </trkpt>
      <trkpt lat="43.349836" lon="-5.96406">
        <ele>152.0</ele>
        <time>2012-03-04T09:37:58Z</time>
      </trkpt>
      <trkpt lat="43.349682" lon="-5.963982">
        <ele>153.0</ele>
        <time>2012-03-04T09:38:02Z</time>
      </trkpt>
      <trkpt lat="43.349542" lon="-5.963882">
        <ele>153.0</ele>
        <time>2012-03-04T09:38:06Z</time>
      </trkpt>
      <trkpt lat="43.349436" lon="-5.963724">
        <ele>153.0</ele>
        <time>2012-03-04T09:38:10Z</time>
      </trkpt>
      <trkpt lat="43.349395" lon="-5.963518">
        <ele>153.0</ele>
        <time>2012-03-04T09:38:14Z</time>
      </trkpt>
      <trkpt lat="43.349413" lon="-5.963301">
        <ele>154.0</ele>
        <time>2012-03-04T09:38:18Z</time>
      </trkpt>
      <trkpt lat="43.349458" lon="-5.963088">
        <ele>155.0</ele>
        <time>2012-03-04T09:38:22Z</time>
      </trkpt>
      <trkpt lat="43.349518" lon="-5.962883">
        <ele>156.0</ele>
        <time>2012-03-04T09:38:26Z</time>
      </trkpt>
      <trkpt lat="43.349573" lon="-5.962684">
        <ele>156.0</ele>
        <time>2012-03-04T09:38:30Z</time>
      </trkpt>
      <trkpt lat="43.349589" lon="-5.962475">
        <ele>157.0</ele>
        <time>2012-03-04T09:38:34Z</time>
      </trkpt>
      <trkpt lat="43.34955" lon="-5.962271">
        <ele>158.0</ele>
        <time>2012-03-04T09:38:38Z</time>
      </trkpt>
      <trkpt lat="43.349465" lon="-5.961863">
        <ele>160.0</ele>
        <time>2012-03-04T09:38:46Z</time>
      </trkpt>
      <trkpt lat="43.34945" lon="-5.961764">
        <ele>160.0</ele>
        <time>2012-03-04T09:38:48Z</time>
      </trkpt>
      <trkpt lat="43.349413" lon="-5.961466">
        <ele>160.0</ele>
        <time>2012-03-04T09:38:54Z</time>
      </trkpt>
      <trkpt lat="43.349391" lon="-5.961277">
        <ele>160.0</ele>
        <time>2012-03-04T09:38:58Z</time>
      </trkpt>
      <trkpt lat="43.349366" lon="-5.961091">
        <ele>160.0</ele>
        <time>2012-03-04T09:39:02Z</time>
      </trkpt>
      <trkpt lat="43.349351" lon="-5.960895">
        <ele>160.0</ele>
        <time>2012-03-04T09:39:06Z</time>
      </trkpt>
      <trkpt lat="43.349355" lon="-5.960697">
        <ele>160.0</ele>
        <time>2012-03-04T09:39:10Z</time>
      </trkpt>
      <trkpt lat="43.349368" lon="-5.96049">
        <ele>161.0</ele>
        <time>2012-03-04T09:39:14Z</time>
      </trkpt>
      <trkpt lat="43.349402" lon="-5.960278">
        <ele>163.0</ele>
        <time>2012-03-04T09:39:18Z</time>
      </trkpt>
      <trkpt lat="43.349435" lon="-5.960059">
        <ele>165.0</ele>
        <time>2012-03-04T09:39:22Z</time>
      </trkpt>
      <trkpt lat="43.349456" lon="-5.959837">
        <ele>166.0</ele>
        <time>2012-03-04T09:39:26Z</time>
      </trkpt>
      <trkpt lat="43.349472" lon="-5.959605">
        <ele>166.0</ele>
        <time>2012-03-04T09:39:30Z</time>
      </trkpt>
      <trkpt lat="43.349479" lon="-5.959361">
        <ele>167.0</ele>
        <time>2012-03-04T09:39:34Z</time>
      </trkpt>
      <trkpt lat="43.349475" lon="-5.959236">
        <ele>168.0</ele>
        <time>2012-03-04T09:39:36Z</time>
      </trkpt>
      <trkpt lat="43.349395" lon="-5.958886">
        <ele>169.0</ele>
        <time>2012-03-04T09:39:42Z</time>
      </trkpt>
      <trkpt lat="43.349353" lon="-5.95878">
        <ele>169.0</ele>
        <time>2012-03-04T09:39:44Z</time>
      </trkpt>
      <trkpt lat="43.349187" lon="-5.9585">
        <ele>171.0</ele>
        <time>2012-03-04T09:39:50Z</time>
      </trkpt>
      <trkpt lat="43.348977" lon="-5.958134">
        <ele>173.0</ele>
        <time>2012-03-04T09:39:58Z</time>
      </trkpt>
      <trkpt lat="43.348891" lon="-5.957954">
        <ele>175.0</ele>
        <time>2012-03-04T09:40:02Z</time>
      </trkpt>
      <trkpt lat="43.348793" lon="-5.95778">
        <ele>177.0</ele>
        <time>2012-03-04T09:40:06Z</time>
      </trkpt>
      <trkpt lat="43.348668" lon="-5.957638">
        <ele>177.0</ele>
        <time>2012-03-04T09:40:10Z</time>
      </trkpt>
      <trkpt lat="43.348533" lon="-5.957537">
        <ele>178.0</ele>
        <time>2012-03-04T09:40:14Z</time>
      </trkpt>
      <trkpt lat="43.348393" lon="-5.957447">
        <ele>179.0</ele>
        <time>2012-03-04T09:40:18Z</time>
      </trkpt>
      <trkpt lat="43.348256" lon="-5.957348">
        <ele>179.0</ele>
        <time>2012-03-04T09:40:22Z</time>
      </trkpt>
      <trkpt lat="43.348111" lon="-5.957248">
        <ele>180.0</ele>
        <time>2012-03-04T09:40:26Z</time>
      </trkpt>
      <trkpt lat="43.347959" lon="-5.957163">
        <ele>181.0</ele>
        <time>2012-03-04T09:40:30Z</time>
      </trkpt>
      <trkpt lat="43.347801" lon="-5.957087">
        <ele>182.0</ele>
        <time>2012-03-04T09:40:34Z</time>
      </trkpt>
      <trkpt lat="43.347638" lon="-5.957025">
        <ele>182.0</ele>
        <time>2012-03-04T09:40:38Z</time>
      </trkpt>
      <trkpt lat="43.347475" lon="-5.956977">
        <ele>182.0</ele>
        <time>2012-03-04T09:40:42Z</time>
      </trkpt>
      <trkpt lat="43.347321" lon="-5.956934">
        <ele>183.0</ele>
        <time>2012-03-04T09:40:46Z</time>
      </trkpt>
      <trkpt lat="43.347167" lon="-5.956875">
        <ele>184.0</ele>
        <time>2012-03-04T09:40:50Z</time>
      </trkpt>
      <trkpt lat="43.347015" lon="-5.956764">
        <ele>185.0</ele>
        <time>2012-03-04T09:40:54Z</time>
      </trkpt>
      <trkpt lat="43.346726" lon="-5.956488">
        <ele>186.0</ele>
        <time>2012-03-04T09:41:02Z</time>
      </trkpt>
      <trkpt lat="43.34657" lon="-5.956355">
        <ele>186.0</ele>
        <time>2012-03-04T09:41:06Z</time>
      </trkpt>
      <trkpt lat="43.346421" lon="-5.956232">
        <ele>187.0</ele>
        <time>2012-03-04T09:41:10Z</time>
      </trkpt>
      <trkpt lat="43.346277" lon="-5.956124">
        <ele>187.0</ele>
        <time>2012-03-04T09:41:14Z</time>
      </trkpt>
      <trkpt lat="43.345946" lon="-5.956039">
        <ele>189.0</ele>
        <time>2012-03-04T09:41:22Z</time>
      </trkpt>
      <trkpt lat="43.345773" lon="-5.956018">
        <ele>189.0</ele>
        <time>2012-03-04T09:41:26Z</time>
      </trkpt>
      <trkpt lat="43.345593" lon="-5.955962">
        <ele>190.0</ele>
        <time>2012-03-04T09:41:30Z</time>
      </trkpt>
      <trkpt lat="43.345504" lon="-5.955926">
        <ele>191.0</ele>
        <time>2012-03-04T09:41:32Z</time>
      </trkpt>
      <trkpt lat="43.345254" lon="-5.955809">
        <ele>192.0</ele>
        <time>2012-03-04T09:41:38Z</time>
      </trkpt>
      <trkpt lat="43.344929" lon="-5.955672">
        <ele>193.0</ele>
        <time>2012-03-04T09:41:46Z</time>
      </trkpt>
      <trkpt lat="43.344763" lon="-5.955614">
        <ele>194.0</ele>
        <time>2012-03-04T09:41:50Z</time>
      </trkpt>
      <trkpt lat="43.344597" lon="-5.955569">
        <ele>195.0</ele>
        <time>2012-03-04T09:41:54Z</time>
      </trkpt>
      <trkpt lat="43.344429" lon="-5.955527">
        <ele>195.0</ele>
        <time>2012-03-04T09:41:58Z</time>
      </trkpt>
      <trkpt lat="43.344346" lon="-5.955503">
        <ele>196.0</ele>
        <time>2012-03-04T09:42:00Z</time>
      </trkpt>
      <trkpt lat="43.344089" lon="-5.955406">
        <ele>196.0</ele>
        <time>2012-03-04T09:42:06Z</time>
      </trkpt>
      <trkpt lat="43.343919" lon="-5.955335">
        <ele>196.0</ele>
        <time>2012-03-04T09:42:10Z</time>
      </trkpt>
      <trkpt lat="43.343829" lon="-5.9553">
        <ele>197.0</ele>
        <time>2012-03-04T09:42:12Z</time>
      </trkpt>
      <trkpt lat="43.343573" lon="-5.955198">
        <ele>198.0</ele>
        <time>2012-03-04T09:42:18Z</time>
      </trkpt>
      <trkpt lat="43.343403" lon="-5.955134">
        <ele>199.0</ele>
        <time>2012-03-04T09:42:22Z</time>
      </trkpt>
      <trkpt lat="43.343233" lon="-5.955081">
        <ele>201.0</ele>
        <time>2012-03-04T09:42:26Z</time>
      </trkpt>
      <trkpt lat="43.343064" lon="-5.95505">
        <ele>202.0</ele>
        <time>2012-03-04T09:42:30Z</time>
      </trkpt>
      <trkpt lat="43.342894" lon="-5.955022">
        <ele>203.0</ele>
        <time>2012-03-04T09:42:34Z</time>
      </trkpt>
      <trkpt lat="43.342724" lon="-5.955001">
        <ele>204.0</ele>
        <time>2012-03-04T09:42:38Z</time>
      </trkpt>
      <trkpt lat="43.342395" lon="-5.954962">
        <ele>205.0</ele>
        <time>2012-03-04T09:42:46Z</time>
      </trkpt>
      <trkpt lat="43.342224" lon="-5.954931">
        <ele>205.0</ele>
        <time>2012-03-04T09:42:50Z</time>
      </trkpt>
      <trkpt lat="43.341874" lon="-5.954828">
        <ele>207.0</ele>
        <time>2012-03-04T09:42:58Z</time>
      </trkpt>
      <trkpt lat="43.341713" lon="-5.954708">
        <ele>208.0</ele>
        <time>2012-03-04T09:43:02Z</time>
      </trkpt>
      <trkpt lat="43.341566" lon="-5.954548">
        <ele>209.0</ele>
        <time>2012-03-04T09:43:06Z</time>
      </trkpt>
      <trkpt lat="43.341436" lon="-5.954369">
        <ele>210.0</ele>
        <time>2012-03-04T09:43:10Z</time>
      </trkpt>
      <trkpt lat="43.341325" lon="-5.954177">
        <ele>212.0</ele>
        <time>2012-03-04T09:43:14Z</time>
      </trkpt>
      <trkpt lat="43.341263" lon="-5.953954">
        <ele>214.0</ele>
        <time>2012-03-04T09:43:18Z</time>
      </trkpt>
      <trkpt lat="43.341251" lon="-5.953713">
        <ele>215.0</ele>
        <time>2012-03-04T09:43:22Z</time>
      </trkpt>
      <trkpt lat="43.341268" lon="-5.953461">
        <ele>217.0</ele>
        <time>2012-03-04T09:43:26Z</time>
      </trkpt>
      <trkpt lat="43.341294" lon="-5.953215">
        <ele>219.0</ele>
        <time>2012-03-04T09:43:30Z</time>
      </trkpt>
      <trkpt lat="43.34131" lon="-5.952985">
        <ele>220.0</ele>
        <time>2012-03-04T09:43:34Z</time>
      </trkpt>
      <trkpt lat="43.34131" lon="-5.952752">
        <ele>221.0</ele>
        <time>2012-03-04T09:43:38Z</time>
      </trkpt>
      <trkpt lat="43.341348" lon="-5.952292">
        <ele>223.0</ele>
        <time>2012-03-04T09:43:46Z</time>
      </trkpt>
      <trkpt lat="43.341283" lon="-5.952071">
        <ele>223.0</ele>
        <time>2012-03-04T09:43:50Z</time>
      </trkpt>
      <trkpt lat="43.341225" lon="-5.95186">
        <ele>223.0</ele>
        <time>2012-03-04T09:43:54Z</time>
      </trkpt>
      <trkpt lat="43.341142" lon="-5.951642">
        <ele>223.0</ele>
        <time>2012-03-04T09:43:58Z</time>
      </trkpt>
      <trkpt lat="43.341093" lon="-5.951536">
        <ele>224.0</ele>
        <time>2012-03-04T09:44:00Z</time>
      </trkpt>
      <trkpt lat="43.340907" lon="-5.951269">
        <ele>225.0</ele>
        <time>2012-03-04T09:44:06Z</time>
      </trkpt>
      <trkpt lat="43.340834" lon="-5.951198">
        <ele>225.0</ele>
        <time>2012-03-04T09:44:08Z</time>
      </trkpt>
      <trkpt lat="43.340606" lon="-5.951037">
        <ele>226.0</ele>
        <time>2012-03-04T09:44:14Z</time>
      </trkpt>
      <trkpt lat="43.340433" lon="-5.950898">
        <ele>225.0</ele>
        <time>2012-03-04T09:44:19Z</time>
      </trkpt>
      <trkpt lat="43.340284" lon="-5.950853">
        <ele>225.0</ele>
        <time>2012-03-04T09:44:23Z</time>
      </trkpt>
      <trkpt lat="43.340154" lon="-5.950802">
        <ele>225.0</ele>
        <time>2012-03-04T09:44:27Z</time>
      </trkpt>
      <trkpt lat="43.34019" lon="-5.950706">
        <ele>226.0</ele>
        <time>2012-03-04T09:44:31Z</time>
      </trkpt>
      <trkpt lat="43.340463" lon="-5.950516">
        <ele>227.0</ele>
        <time>2012-03-04T09:44:35Z</time>
      </trkpt>
      <trkpt lat="43.340796" lon="-5.950309">
        <ele>227.0</ele>
        <time>2012-03-04T09:44:39Z</time>
      </trkpt>
      <trkpt lat="43.340995" lon="-5.950084">
        <ele>228.0</ele>
        <time>2012-03-04T09:44:43Z</time>
      </trkpt>
      <trkpt lat="43.341143" lon="-5.949854">
        <ele>228.0</ele>
        <time>2012-03-04T09:44:47Z</time>
      </trkpt>
      <trkpt lat="43.341279" lon="-5.949638">
        <ele>228.0</ele>
        <time>2012-03-04T09:44:51Z</time>
      </trkpt>
      <trkpt lat="43.341347" lon="-5.949529">
        <ele>228.0</ele>
        <time>2012-03-04T09:44:53Z</time>
      </trkpt>
      <trkpt lat="43.341534" lon="-5.949222">
        <ele>229.0</ele>
        <time>2012-03-04T09:44:59Z</time>
      </trkpt>
      <trkpt lat="43.341661" lon="-5.949029">
        <ele>229.0</ele>
        <time>2012-03-04T09:45:03Z</time>
      </trkpt>
      <trkpt lat="43.341783" lon="-5.948835">
        <ele>230.0</ele>
        <time>2012-03-04T09:45:07Z</time>
      </trkpt>
      <trkpt lat="43.341892" lon="-5.9486">
        <ele>232.0</ele>
        <time>2012-03-04T09:45:11Z</time>
      </trkpt>
      <trkpt lat="43.342037" lon="-5.948071">
        <ele>235.0</ele>
        <time>2012-03-04T09:45:19Z</time>
      </trkpt>
      <trkpt lat="43.342109" lon="-5.947802">
        <ele>236.0</ele>
        <time>2012-03-04T09:45:23Z</time>
      </trkpt>
      <trkpt lat="43.342203" lon="-5.947557">
        <ele>238.0</ele>
        <time>2012-03-04T09:45:27Z</time>
      </trkpt>
      <trkpt lat="43.342432" lon="-5.947101">
        <ele>241.0</ele>
        <time>2012-03-04T09:45:35Z</time>
      </trkpt>
      <trkpt lat="43.342487" lon="-5.946988">
        <ele>241.0</ele>
        <time>2012-03-04T09:45:37Z</time>
      </trkpt>
      <trkpt lat="43.342585" lon="-5.94675">
        <ele>242.0</ele>
        <time>2012-03-04T09:45:41Z</time>
      </trkpt>
      <trkpt lat="43.342743" lon="-5.946389">
        <ele>243.0</ele>
        <time>2012-03-04T09:45:47Z</time>
      </trkpt>
      <trkpt lat="43.342842" lon="-5.946158">
        <ele>244.0</ele>
        <time>2012-03-04T09:45:51Z</time>
      </trkpt>
      <trkpt lat="43.342874" lon="-5.9459">
        <ele>244.0</ele>
        <time>2012-03-04T09:45:55Z</time>
      </trkpt>
      <trkpt lat="43.342765" lon="-5.945668">
        <ele>245.0</ele>
        <time>2012-03-04T09:45:59Z</time>
      </trkpt>
      <trkpt lat="43.342602" lon="-5.945517">
        <ele>246.0</ele>
        <time>2012-03-04T09:46:03Z</time>
      </trkpt>
      <trkpt lat="43.342414" lon="-5.945384">
        <ele>248.0</ele>
        <time>2012-03-04T09:46:07Z</time>
      </trkpt>
      <trkpt lat="43.342227" lon="-5.945256">
        <ele>249.0</ele>
        <time>2012-03-04T09:46:11Z</time>
      </trkpt>
      <trkpt lat="43.342037" lon="-5.945114">
        <ele>251.0</ele>
        <time>2012-03-04T09:46:15Z</time>
      </trkpt>
      <trkpt lat="43.341871" lon="-5.944896">
        <ele>252.0</ele>
        <time>2012-03-04T09:46:19Z</time>
      </trkpt>
      <trkpt lat="43.341796" lon="-5.944598">
        <ele>253.0</ele>
        <time>2012-03-04T09:46:23Z</time>
      </trkpt>
      <trkpt lat="43.341806" lon="-5.94429">
        <ele>253.0</ele>
        <time>2012-03-04T09:46:27Z</time>
      </trkpt>
      <trkpt lat="43.341856" lon="-5.943992">
        <ele>254.0</ele>
        <time>2012-03-04T09:46:31Z</time>
      </trkpt>
      <trkpt lat="43.34192" lon="-5.943697">
        <ele>255.0</ele>
        <time>2012-03-04T09:46:35Z</time>
      </trkpt>
      <trkpt lat="43.341995" lon="-5.943417">
        <ele>255.0</ele>
        <time>2012-03-04T09:46:39Z</time>
      </trkpt>
      <trkpt lat="43.342091" lon="-5.943151">
        <ele>256.0</ele>
        <time>2012-03-04T09:46:43Z</time>
      </trkpt>
      <trkpt lat="43.342217" lon="-5.942891">
        <ele>256.0</ele>
        <time>2012-03-04T09:46:47Z</time>
      </trkpt>
      <trkpt lat="43.342363" lon="-5.942654">
        <ele>257.0</ele>
        <time>2012-03-04T09:46:51Z</time>
      </trkpt>
      <trkpt lat="43.342533" lon="-5.942453">
        <ele>257.0</ele>
        <time>2012-03-04T09:46:55Z</time>
      </trkpt>
      <trkpt lat="43.342718" lon="-5.942272">
        <ele>256.0</ele>
        <time>2012-03-04T09:46:59Z</time>
      </trkpt>
      <trkpt lat="43.342903" lon="-5.942098">
        <ele>256.0</ele>
        <time>2012-03-04T09:47:03Z</time>
      </trkpt>
      <trkpt lat="43.343087" lon="-5.94193">
        <ele>256.0</ele>
        <time>2012-03-04T09:47:07Z</time>
      </trkpt>
      <trkpt lat="43.343261" lon="-5.941765">
        <ele>257.0</ele>
        <time>2012-03-04T09:47:11Z</time>
      </trkpt>
      <trkpt lat="43.343416" lon="-5.9416">
        <ele>259.0</ele>
        <time>2012-03-04T09:47:15Z</time>
      </trkpt>
      <trkpt lat="43.343562" lon="-5.941425">
        <ele>260.0</ele>
        <time>2012-03-04T09:47:19Z</time>
      </trkpt>
      <trkpt lat="43.343706" lon="-5.941235">
        <ele>261.0</ele>
        <time>2012-03-04T09:47:23Z</time>
      </trkpt>
      <trkpt lat="43.343843" lon="-5.941034">
        <ele>262.0</ele>
        <time>2012-03-04T09:47:27Z</time>
      </trkpt>
      <trkpt lat="43.343965" lon="-5.940818">
        <ele>263.0</ele>
        <time>2012-03-04T09:47:31Z</time>
      </trkpt>
      <trkpt lat="43.344032" lon="-5.940559">
        <ele>264.0</ele>
        <time>2012-03-04T09:47:35Z</time>
      </trkpt>
      <trkpt lat="43.344025" lon="-5.940287">
        <ele>265.0</ele>
        <time>2012-03-04T09:47:39Z</time>
      </trkpt>
      <trkpt lat="43.343969" lon="-5.940009">
        <ele>266.0</ele>
        <time>2012-03-04T09:47:43Z</time>
      </trkpt>
      <trkpt lat="43.343911" lon="-5.939727">
        <ele>267.0</ele>
        <time>2012-03-04T09:47:47Z</time>
      </trkpt>
      <trkpt lat="43.343891" lon="-5.93944">
        <ele>268.0</ele>
        <time>2012-03-04T09:47:51Z</time>
      </trkpt>
      <trkpt lat="43.34392" lon="-5.93916">
        <ele>268.0</ele>
        <time>2012-03-04T09:47:55Z</time>
      </trkpt>
      <trkpt lat="43.343955" lon="-5.939027">
        <ele>268.0</ele>
        <time>2012-03-04T09:47:57Z</time>
      </trkpt>
      <trkpt lat="43.34413" lon="-5.938679">
        <ele>268.0</ele>
        <time>2012-03-04T09:48:03Z</time>
      </trkpt>
      <trkpt lat="43.344273" lon="-5.938472">
        <ele>268.0</ele>
        <time>2012-03-04T09:48:07Z</time>
      </trkpt>
      <trkpt lat="43.344428" lon="-5.938282">
        <ele>268.0</ele>
        <time>2012-03-04T09:48:11Z</time>
      </trkpt>
      <trkpt lat="43.34458" lon="-5.938094">
        <ele>269.0</ele>
        <time>2012-03-04T09:48:15Z</time>
      </trkpt>
      <trkpt lat="43.344724" lon="-5.937898">
        <ele>270.0</ele>
        <time>2012-03-04T09:48:19Z</time>
      </trkpt>
      <trkpt lat="43.344795" lon="-5.937804">
        <ele>270.0</ele>
        <time>2012-03-04T09:48:21Z</time>
      </trkpt>
      <trkpt lat="43.345029" lon="-5.937509">
        <ele>270.0</ele>
        <time>2012-03-04T09:48:27Z</time>
      </trkpt>
      <trkpt lat="43.345196" lon="-5.937296">
        <ele>270.0</ele>
        <time>2012-03-04T09:48:31Z</time>
      </trkpt>
      <trkpt lat="43.345341" lon="-5.937076">
        <ele>271.0</ele>
        <time>2012-03-04T09:48:35Z</time>
      </trkpt>
      <trkpt lat="43.345472" lon="-5.936858">
        <ele>271.0</ele>
        <time>2012-03-04T09:48:39Z</time>
      </trkpt>
      <trkpt lat="43.345606" lon="-5.936641">
        <ele>272.0</ele>
        <time>2012-03-04T09:48:43Z</time>
      </trkpt>
      <trkpt lat="43.345744" lon="-5.936437">
        <ele>273.0</ele>
        <time>2012-03-04T09:48:47Z</time>
      </trkpt>
      <trkpt lat="43.345895" lon="-5.936233">
        <ele>274.0</ele>
        <time>2012-03-04T09:48:51Z</time>
      </trkpt>
      <trkpt lat="43.346043" lon="-5.936012">
        <ele>274.0</ele>
        <time>2012-03-04T09:48:55Z</time>
      </trkpt>
      <trkpt lat="43.34616" lon="-5.935749">
        <ele>274.0</ele>
        <time>2012-03-04T09:48:59Z</time>
      </trkpt>
      <trkpt lat="43.346243" lon="-5.935483">
        <ele>276.0</ele>
        <time>2012-03-04T09:49:03Z</time>
      </trkpt>
      <trkpt lat="43.346313" lon="-5.935241">
        <ele>277.0</ele>
        <time>2012-03-04T09:49:07Z</time>
      </trkpt>
      <trkpt lat="43.346413" lon="-5.935007">
        <ele>278.0</ele>
        <time>2012-03-04T09:49:11Z</time>
      </trkpt>
      <trkpt lat="43.34655" lon="-5.934796">
        <ele>280.0</ele>
        <time>2012-03-04T09:49:15Z</time>
      </trkpt>
      <trkpt lat="43.346709" lon="-5.934614">
        <ele>281.0</ele>
        <time>2012-03-04T09:49:19Z</time>
      </trkpt>
      <trkpt lat="43.346879" lon="-5.934463">
        <ele>281.0</ele>
        <time>2012-03-04T09:49:23Z</time>
      </trkpt>
      <trkpt lat="43.347057" lon="-5.934331">
        <ele>282.0</ele>
        <time>2012-03-04T09:49:27Z</time>
      </trkpt>
      <trkpt lat="43.347232" lon="-5.934204">
        <ele>282.0</ele>
        <time>2012-03-04T09:49:31Z</time>
      </trkpt>
      <trkpt lat="43.347401" lon="-5.93407">
        <ele>283.0</ele>
        <time>2012-03-04T09:49:35Z</time>
      </trkpt>
      <trkpt lat="43.347554" lon="-5.933894">
        <ele>283.0</ele>
        <time>2012-03-04T09:49:39Z</time>
      </trkpt>
      <trkpt lat="43.347662" lon="-5.93365">
        <ele>284.0</ele>
        <time>2012-03-04T09:49:43Z</time>
      </trkpt>
      <trkpt lat="43.347746" lon="-5.933389">
        <ele>285.0</ele>
        <time>2012-03-04T09:49:47Z</time>
      </trkpt>
      <trkpt lat="43.347783" lon="-5.933248">
        <ele>286.0</ele>
        <time>2012-03-04T09:49:49Z</time>
      </trkpt>
      <trkpt lat="43.347859" lon="-5.932806">
        <ele>287.0</ele>
        <time>2012-03-04T09:49:55Z</time>
      </trkpt>
      <trkpt lat="43.347885" lon="-5.932497">
        <ele>288.0</ele>
        <time>2012-03-04T09:49:59Z</time>
      </trkpt>
      <trkpt lat="43.347873" lon="-5.932181">
        <ele>289.0</ele>
        <time>2012-03-04T09:50:03Z</time>
      </trkpt>
      <trkpt lat="43.34782" lon="-5.931874">
        <ele>290.0</ele>
        <time>2012-03-04T09:50:07Z</time>
      </trkpt>
      <trkpt lat="43.347743" lon="-5.931583">
        <ele>291.0</ele>
        <time>2012-03-04T09:50:11Z</time>
      </trkpt>
      <trkpt lat="43.347673" lon="-5.931285">
        <ele>292.0</ele>
        <time>2012-03-04T09:50:15Z</time>
      </trkpt>
      <trkpt lat="43.347622" lon="-5.930986">
        <ele>292.0</ele>
        <time>2012-03-04T09:50:19Z</time>
      </trkpt>
      <trkpt lat="43.347593" lon="-5.930674">
        <ele>292.0</ele>
        <time>2012-03-04T09:50:23Z</time>
      </trkpt>
      <trkpt lat="43.347567" lon="-5.930362">
        <ele>292.0</ele>
        <time>2012-03-04T09:50:27Z</time>
      </trkpt>
      <trkpt lat="43.347546" lon="-5.930053">
        <ele>293.0</ele>
        <time>2012-03-04T09:50:31Z</time>
      </trkpt>
      <trkpt lat="43.347519" lon="-5.929745">
        <ele>293.0</ele>
        <time>2012-03-04T09:50:35Z</time>
      </trkpt>
      <trkpt lat="43.347491" lon="-5.929433">
        <ele>293.0</ele>
        <time>2012-03-04T09:50:39Z</time>
      </trkpt>
      <trkpt lat="43.347453" lon="-5.929121">
        <ele>294.0</ele>
        <time>2012-03-04T09:50:43Z</time>
      </trkpt>
      <trkpt lat="43.347401" lon="-5.92881">
        <ele>295.0</ele>
        <time>2012-03-04T09:50:47Z</time>
      </trkpt>
      <trkpt lat="43.34726" lon="-5.928563">
        <ele>296.0</ele>
        <time>2012-03-04T09:50:51Z</time>
      </trkpt>
      <trkpt lat="43.347125" lon="-5.928318">
        <ele>297.0</ele>
        <time>2012-03-04T09:50:55Z</time>
      </trkpt>
      <trkpt lat="43.347088" lon="-5.928024">
        <ele>297.0</ele>
        <time>2012-03-04T09:50:59Z</time>
      </trkpt>
      <trkpt lat="43.347078" lon="-5.927731">
        <ele>297.0</ele>
        <time>2012-03-04T09:51:03Z</time>
      </trkpt>
      <trkpt lat="43.347039" lon="-5.927428">
        <ele>297.0</ele>
        <time>2012-03-04T09:51:07Z</time>
      </trkpt>
      <trkpt lat="43.347033" lon="-5.927106">
        <ele>298.0</ele>
        <time>2012-03-04T09:51:11Z</time>
      </trkpt>
      <trkpt lat="43.347064" lon="-5.926779">
        <ele>298.0</ele>
        <time>2012-03-04T09:51:15Z</time>
      </trkpt>
      <trkpt lat="43.347026" lon="-5.926354">
        <ele>299.0</ele>
        <time>2012-03-04T09:51:20Z</time>
      </trkpt>
      <trkpt lat="43.346973" lon="-5.926063">
        <ele>299.0</ele>
        <time>2012-03-04T09:51:24Z</time>
      </trkpt>
      <trkpt lat="43.346918" lon="-5.925783">
        <ele>300.0</ele>
        <time>2012-03-04T09:51:28Z</time>
      </trkpt>
      <trkpt lat="43.346817" lon="-5.925485">
        <ele>300.0</ele>
        <time>2012-03-04T09:51:32Z</time>
      </trkpt>
      <trkpt lat="43.346586" lon="-5.925305">
        <ele>301.0</ele>
        <time>2012-03-04T09:51:36Z</time>
      </trkpt>
      <trkpt lat="43.346318" lon="-5.925187">
        <ele>301.0</ele>
        <time>2012-03-04T09:51:40Z</time>
      </trkpt>
      <trkpt lat="43.346116" lon="-5.924922">
        <ele>301.0</ele>
        <time>2012-03-04T09:51:44Z</time>
      </trkpt>
      <trkpt lat="43.345979" lon="-5.924567">
        <ele>302.0</ele>
        <time>2012-03-04T09:51:48Z</time>
      </trkpt>
      <trkpt lat="43.34585" lon="-5.924182">
        <ele>302.0</ele>
        <time>2012-03-04T09:51:52Z</time>
      </trkpt>
      <trkpt lat="43.345741" lon="-5.923771">
        <ele>303.0</ele>
        <time>2012-03-04T09:51:56Z</time>
      </trkpt>
      <trkpt lat="43.34565" lon="-5.923334">
        <ele>302.0</ele>
        <time>2012-03-04T09:52:00Z</time>
      </trkpt>
      <trkpt lat="43.345421" lon="-5.922963">
        <ele>301.0</ele>
        <time>2012-03-04T09:52:04Z</time>
      </trkpt>
      <trkpt lat="43.345157" lon="-5.922634">
        <ele>302.0</ele>
        <time>2012-03-04T09:52:08Z</time>
      </trkpt>
      <trkpt lat="43.344838" lon="-5.922408">
        <ele>302.0</ele>
        <time>2012-03-04T09:52:12Z</time>
      </trkpt>
      <trkpt lat="43.344577" lon="-5.922092">
        <ele>302.0</ele>
        <time>2012-03-04T09:52:16Z</time>
      </trkpt>
      <trkpt lat="43.344468" lon="-5.921653">
        <ele>302.0</ele>
        <time>2012-03-04T09:52:20Z</time>
      </trkpt>
      <trkpt lat="43.344428" lon="-5.921192">
        <ele>302.0</ele>
        <time>2012-03-04T09:52:24Z</time>
      </trkpt>
      <trkpt lat="43.344467" lon="-5.920729">
        <ele>301.0</ele>
        <time>2012-03-04T09:52:28Z</time>
      </trkpt>
      <trkpt lat="43.34459" lon="-5.920281">
        <ele>299.0</ele>
        <time>2012-03-04T09:52:32Z</time>
      </trkpt>
      <trkpt lat="43.344834" lon="-5.919884">
        <ele>298.0</ele>
        <time>2012-03-04T09:52:36Z</time>
      </trkpt>
      <trkpt lat="43.345134" lon="-5.919566">
        <ele>297.0</ele>
        <time>2012-03-04T09:52:40Z</time>
      </trkpt>
      <trkpt lat="43.345442" lon="-5.91931">
        <ele>297.0</ele>
        <time>2012-03-04T09:52:44Z</time>
      </trkpt>
      <trkpt lat="43.345745" lon="-5.9191">
        <ele>297.0</ele>
        <time>2012-03-04T09:52:48Z</time>
      </trkpt>
      <trkpt lat="43.346033" lon="-5.918866">
        <ele>297.0</ele>
        <time>2012-03-04T09:52:52Z</time>
      </trkpt>
      <trkpt lat="43.346308" lon="-5.918602">
        <ele>296.0</ele>
        <time>2012-03-04T09:52:56Z</time>
      </trkpt>
      <trkpt lat="43.346563" lon="-5.918311">
        <ele>295.0</ele>
        <time>2012-03-04T09:53:00Z</time>
      </trkpt>
      <trkpt lat="43.346769" lon="-5.917962">
        <ele>294.0</ele>
        <time>2012-03-04T09:53:04Z</time>
      </trkpt>
      <trkpt lat="43.346874" lon="-5.917535">
        <ele>294.0</ele>
        <time>2012-03-04T09:53:08Z</time>
      </trkpt>
      <trkpt lat="43.34694" lon="-5.917086">
        <ele>293.0</ele>
        <time>2012-03-04T09:53:12Z</time>
      </trkpt>
      <trkpt lat="43.347011" lon="-5.916625">
        <ele>293.0</ele>
        <time>2012-03-04T09:53:16Z</time>
      </trkpt>
      <trkpt lat="43.347039" lon="-5.916176">
        <ele>291.0</ele>
        <time>2012-03-04T09:53:20Z</time>
      </trkpt>
      <trkpt lat="43.347024" lon="-5.915785">
        <ele>290.0</ele>
        <time>2012-03-04T09:53:24Z</time>
      </trkpt>
      <trkpt lat="43.347" lon="-5.915446">
        <ele>289.0</ele>
        <time>2012-03-04T09:53:28Z</time>
      </trkpt>
      <trkpt lat="43.346982" lon="-5.91513">
        <ele>289.0</ele>
        <time>2012-03-04T09:53:32Z</time>
      </trkpt>
      <trkpt lat="43.346941" lon="-5.914843">
        <ele>289.0</ele>
        <time>2012-03-04T09:53:36Z</time>
      </trkpt>
      <trkpt lat="43.346842" lon="-5.914592">
        <ele>289.0</ele>
        <time>2012-03-04T09:53:40Z</time>
      </trkpt>
      <trkpt lat="43.346708" lon="-5.914382">
        <ele>289.0</ele>
        <time>2012-03-04T09:53:44Z</time>
      </trkpt>
      <trkpt lat="43.346571" lon="-5.914186">
        <ele>290.0</ele>
        <time>2012-03-04T09:53:48Z</time>
      </trkpt>
      <trkpt lat="43.346451" lon="-5.913971">
        <ele>291.0</ele>
        <time>2012-03-04T09:53:52Z</time>
      </trkpt>
      <trkpt lat="43.346333" lon="-5.913734">
        <ele>291.0</ele>
        <time>2012-03-04T09:53:56Z</time>
      </trkpt>
      <trkpt lat="43.346209" lon="-5.913473">
        <ele>292.0</ele>
        <time>2012-03-04T09:54:00Z</time>
      </trkpt>
      <trkpt lat="43.346147" lon="-5.913339">
        <ele>291.0</ele>
        <time>2012-03-04T09:54:02Z</time>
      </trkpt>
      <trkpt lat="43.346033" lon="-5.91293">
        <ele>292.0</ele>
        <time>2012-03-04T09:54:08Z</time>
      </trkpt>
      <trkpt lat="43.34603" lon="-5.912639">
        <ele>292.0</ele>
        <time>2012-03-04T09:54:12Z</time>
      </trkpt>
      <trkpt lat="43.346062" lon="-5.912349">
        <ele>292.0</ele>
        <time>2012-03-04T09:54:16Z</time>
      </trkpt>
      <trkpt lat="43.346101" lon="-5.91206">
        <ele>293.0</ele>
        <time>2012-03-04T09:54:20Z</time>
      </trkpt>
      <trkpt lat="43.346098" lon="-5.911748">
        <ele>294.0</ele>
        <time>2012-03-04T09:54:24Z</time>
      </trkpt>
      <trkpt lat="43.346061" lon="-5.911356">
        <ele>295.0</ele>
        <time>2012-03-04T09:54:28Z</time>
      </trkpt>
      <trkpt lat="43.345909" lon="-5.910926">
        <ele>295.0</ele>
        <time>2012-03-04T09:54:32Z</time>
      </trkpt>
      <trkpt lat="43.345577" lon="-5.910702">
        <ele>295.0</ele>
        <time>2012-03-04T09:54:36Z</time>
      </trkpt>
      <trkpt lat="43.345227" lon="-5.910551">
        <ele>295.0</ele>
        <time>2012-03-04T09:54:40Z</time>
      </trkpt>
      <trkpt lat="43.344904" lon="-5.910375">
        <ele>295.0</ele>
        <time>2012-03-04T09:54:44Z</time>
      </trkpt>
      <trkpt lat="43.344641" lon="-5.910182">
        <ele>296.0</ele>
        <time>2012-03-04T09:54:48Z</time>
      </trkpt>
      <trkpt lat="43.344402" lon="-5.910006">
        <ele>296.0</ele>
        <time>2012-03-04T09:54:52Z</time>
      </trkpt>
      <trkpt lat="43.344239" lon="-5.909863">
        <ele>297.0</ele>
        <time>2012-03-04T09:54:55Z</time>
      </trkpt>
      <trkpt lat="43.343996" lon="-5.909588">
        <ele>297.0</ele>
        <time>2012-03-04T09:55:00Z</time>
      </trkpt>
      <trkpt lat="43.343812" lon="-5.909343">
        <ele>298.0</ele>
        <time>2012-03-04T09:55:04Z</time>
      </trkpt>
      <trkpt lat="43.343637" lon="-5.909085">
        <ele>299.0</ele>
        <time>2012-03-04T09:55:08Z</time>
      </trkpt>
      <trkpt lat="43.3435" lon="-5.908775">
        <ele>300.0</ele>
        <time>2012-03-04T09:55:12Z</time>
      </trkpt>
      <trkpt lat="43.343441" lon="-5.908388">
        <ele>301.0</ele>
        <time>2012-03-04T09:55:16Z</time>
      </trkpt>
      <trkpt lat="43.343379" lon="-5.907972">
        <ele>301.0</ele>
        <time>2012-03-04T09:55:20Z</time>
      </trkpt>
      <trkpt lat="43.343332" lon="-5.907532">
        <ele>302.0</ele>
        <time>2012-03-04T09:55:24Z</time>
      </trkpt>
      <trkpt lat="43.343339" lon="-5.907082">
        <ele>302.0</ele>
        <time>2012-03-04T09:55:28Z</time>
      </trkpt>
      <trkpt lat="43.343431" lon="-5.906617">
        <ele>302.0</ele>
        <time>2012-03-04T09:55:32Z</time>
      </trkpt>
      <trkpt lat="43.343548" lon="-5.906128">
        <ele>303.0</ele>
        <time>2012-03-04T09:55:36Z</time>
      </trkpt>
      <trkpt lat="43.343659" lon="-5.905623">
        <ele>303.0</ele>
        <time>2012-03-04T09:55:40Z</time>
      </trkpt>
      <trkpt lat="43.34376" lon="-5.905122">
        <ele>303.0</ele>
        <time>2012-03-04T09:55:44Z</time>
      </trkpt>
      <trkpt lat="43.343857" lon="-5.904643">
        <ele>303.0</ele>
        <time>2012-03-04T09:55:48Z</time>
      </trkpt>
      <trkpt lat="43.343958" lon="-5.904213">
        <ele>303.0</ele>
        <time>2012-03-04T09:55:52Z</time>
      </trkpt>
      <trkpt lat="43.344045" lon="-5.903832">
        <ele>304.0</ele>
        <time>2012-03-04T09:55:56Z</time>
      </trkpt>
      <trkpt lat="43.344134" lon="-5.903449">
        <ele>305.0</ele>
        <time>2012-03-04T09:56:00Z</time>
      </trkpt>
      <trkpt lat="43.344232" lon="-5.903071">
        <ele>306.0</ele>
        <time>2012-03-04T09:56:04Z</time>
      </trkpt>
      <trkpt lat="43.344336" lon="-5.902697">
        <ele>307.0</ele>
        <time>2012-03-04T09:56:08Z</time>
      </trkpt>
      <trkpt lat="43.344427" lon="-5.902309">
        <ele>307.0</ele>
        <time>2012-03-04T09:56:12Z</time>
      </trkpt>
      <trkpt lat="43.344502" lon="-5.901903">
        <ele>308.0</ele>
        <time>2012-03-04T09:56:16Z</time>
      </trkpt>
      <trkpt lat="43.344564" lon="-5.901485">
        <ele>309.0</ele>
        <time>2012-03-04T09:56:20Z</time>
      </trkpt>
      <trkpt lat="43.3446" lon="-5.901058">
        <ele>309.0</ele>
        <time>2012-03-04T09:56:24Z</time>
      </trkpt>
      <trkpt lat="43.344556" lon="-5.900638">
        <ele>309.0</ele>
        <time>2012-03-04T09:56:28Z</time>
      </trkpt>
      <trkpt lat="43.344487" lon="-5.900258">
        <ele>308.0</ele>
        <time>2012-03-04T09:56:32Z</time>
      </trkpt>
      <trkpt lat="43.344659" lon="-5.899992">
        <ele>308.0</ele>
        <time>2012-03-04T09:56:36Z</time>
      </trkpt>
      <trkpt lat="43.344836" lon="-5.899843">
        <ele>308.0</ele>
        <time>2012-03-04T09:56:39Z</time>
      </trkpt>
      <trkpt lat="43.345064" lon="-5.899548">
        <ele>308.0</ele>
        <time>2012-03-04T09:56:43Z</time>
      </trkpt>
      <trkpt lat="43.345326" lon="-5.899257">
        <ele>308.0</ele>
        <time>2012-03-04T09:56:47Z</time>
      </trkpt>
      <trkpt lat="43.345622" lon="-5.898994">
        <ele>308.0</ele>
        <time>2012-03-04T09:56:51Z</time>
      </trkpt>
      <trkpt lat="43.345968" lon="-5.898713">
        <ele>307.0</ele>
        <time>2012-03-04T09:56:55Z</time>
      </trkpt>
      <trkpt lat="43.346319" lon="-5.898394">
        <ele>306.0</ele>
        <time>2012-03-04T09:56:59Z</time>
      </trkpt>
      <trkpt lat="43.34662" lon="-5.898019">
        <ele>306.0</ele>
        <time>2012-03-04T09:57:03Z</time>
      </trkpt>
      <trkpt lat="43.346807" lon="-5.897707">
        <ele>306.0</ele>
        <time>2012-03-04T09:57:06Z</time>
      </trkpt>
      <trkpt lat="43.347065" lon="-5.897167">
        <ele>304.0</ele>
        <time>2012-03-04T09:57:11Z</time>
      </trkpt>
      <trkpt lat="43.347224" lon="-5.896757">
        <ele>304.0</ele>
        <time>2012-03-04T09:57:15Z</time>
      </trkpt>
      <trkpt lat="43.347358" lon="-5.896397">
        <ele>303.0</ele>
        <time>2012-03-04T09:57:19Z</time>
      </trkpt>
      <trkpt lat="43.34742" lon="-5.896225">
        <ele>303.0</ele>
        <time>2012-03-04T09:57:21Z</time>
      </trkpt>
      <trkpt lat="43.347579" lon="-5.89577">
        <ele>303.0</ele>
        <time>2012-03-04T09:57:27Z</time>
      </trkpt>
      <trkpt lat="43.347625" lon="-5.895542">
        <ele>305.0</ele>
        <time>2012-03-04T09:57:31Z</time>
      </trkpt>
      <trkpt lat="43.347665" lon="-5.895314">
        <ele>307.0</ele>
        <time>2012-03-04T09:57:35Z</time>
      </trkpt>
      <trkpt lat="43.347705" lon="-5.89508">
        <ele>309.0</ele>
        <time>2012-03-04T09:57:39Z</time>
      </trkpt>
      <trkpt lat="43.347743" lon="-5.894856">
        <ele>310.0</ele>
        <time>2012-03-04T09:57:43Z</time>
      </trkpt>
      <trkpt lat="43.347778" lon="-5.894635">
        <ele>311.0</ele>
        <time>2012-03-04T09:57:47Z</time>
      </trkpt>
      <trkpt lat="43.347808" lon="-5.894409">
        <ele>313.0</ele>
        <time>2012-03-04T09:57:51Z</time>
      </trkpt>
      <trkpt lat="43.347834" lon="-5.894183">
        <ele>313.0</ele>
        <time>2012-03-04T09:57:55Z</time>
      </trkpt>
      <trkpt lat="43.347855" lon="-5.893964">
        <ele>314.0</ele>
        <time>2012-03-04T09:57:59Z</time>
      </trkpt>
      <trkpt lat="43.347871" lon="-5.893735">
        <ele>314.0</ele>
        <time>2012-03-04T09:58:03Z</time>
      </trkpt>
      <trkpt lat="43.34788" lon="-5.893522">
        <ele>314.0</ele>
        <time>2012-03-04T09:58:07Z</time>
      </trkpt>
      <trkpt lat="43.347882" lon="-5.893316">
        <ele>314.0</ele>
        <time>2012-03-04T09:58:11Z</time>
      </trkpt>
      <trkpt lat="43.347885" lon="-5.893115">
        <ele>314.0</ele>
        <time>2012-03-04T09:58:15Z</time>
      </trkpt>
      <trkpt lat="43.347828" lon="-5.892954">
        <ele>314.0</ele>
        <time>2012-03-04T09:58:19Z</time>
      </trkpt>
      <trkpt lat="43.347696" lon="-5.892809">
        <ele>316.0</ele>
        <time>2012-03-04T09:58:23Z</time>
      </trkpt>
      <trkpt lat="43.347652" lon="-5.892605">
        <ele>317.0</ele>
        <time>2012-03-04T09:58:27Z</time>
      </trkpt>
      <trkpt lat="43.347705" lon="-5.892408">
        <ele>319.0</ele>
        <time>2012-03-04T09:58:31Z</time>
      </trkpt>
      <trkpt lat="43.347796" lon="-5.892246">
        <ele>320.0</ele>
        <time>2012-03-04T09:58:35Z</time>
      </trkpt>
      <trkpt lat="43.347821" lon="-5.892043">
        <ele>322.0</ele>
        <time>2012-03-04T09:58:39Z</time>
      </trkpt>
      <trkpt lat="43.347807" lon="-5.891814">
        <ele>323.0</ele>
        <time>2012-03-04T09:58:43Z</time>
      </trkpt>
      <trkpt lat="43.347781" lon="-5.891584">
        <ele>324.0</ele>
        <time>2012-03-04T09:58:47Z</time>
      </trkpt>
      <trkpt lat="43.347755" lon="-5.891335">
        <ele>325.0</ele>
        <time>2012-03-04T09:58:51Z</time>
      </trkpt>
      <trkpt lat="43.347718" lon="-5.891074">
        <ele>326.0</ele>
        <time>2012-03-04T09:58:55Z</time>
      </trkpt>
      <trkpt lat="43.347691" lon="-5.890946">
        <ele>326.0</ele>
        <time>2012-03-04T09:58:57Z</time>
      </trkpt>
      <trkpt lat="43.347607" lon="-5.890576">
        <ele>327.0</ele>
        <time>2012-03-04T09:59:03Z</time>
      </trkpt>
      <trkpt lat="43.347562" lon="-5.890327">
        <ele>328.0</ele>
        <time>2012-03-04T09:59:07Z</time>
      </trkpt>
      <trkpt lat="43.34754" lon="-5.890063">
        <ele>329.0</ele>
        <time>2012-03-04T09:59:11Z</time>
      </trkpt>
      <trkpt lat="43.347539" lon="-5.889924">
        <ele>329.0</ele>
        <time>2012-03-04T09:59:13Z</time>
      </trkpt>
      <trkpt lat="43.347615" lon="-5.889512">
        <ele>331.0</ele>
        <time>2012-03-04T09:59:19Z</time>
      </trkpt>
      <trkpt lat="43.347709" lon="-5.889229">
        <ele>331.0</ele>
        <time>2012-03-04T09:59:23Z</time>
      </trkpt>
      <trkpt lat="43.347824" lon="-5.888952">
        <ele>333.0</ele>
        <time>2012-03-04T09:59:27Z</time>
      </trkpt>
      <trkpt lat="43.347938" lon="-5.88868">
        <ele>333.0</ele>
        <time>2012-03-04T09:59:31Z</time>
      </trkpt>
      <trkpt lat="43.34806" lon="-5.8884">
        <ele>334.0</ele>
        <time>2012-03-04T09:59:35Z</time>
      </trkpt>
      <trkpt lat="43.348117" lon="-5.888261">
        <ele>334.0</ele>
        <time>2012-03-04T09:59:37Z</time>
      </trkpt>
      <trkpt lat="43.348297" lon="-5.887837">
        <ele>334.0</ele>
        <time>2012-03-04T09:59:43Z</time>
      </trkpt>
      <trkpt lat="43.348434" lon="-5.88757">
        <ele>336.0</ele>
        <time>2012-03-04T09:59:47Z</time>
      </trkpt>
      <trkpt lat="43.348519" lon="-5.887454">
        <ele>337.0</ele>
        <time>2012-03-04T09:59:49Z</time>
      </trkpt>
      <trkpt lat="43.34881" lon="-5.887192">
        <ele>338.0</ele>
        <time>2012-03-04T09:59:55Z</time>
      </trkpt>
      <trkpt lat="43.349029" lon="-5.887042">
        <ele>339.0</ele>
        <time>2012-03-04T09:59:59Z</time>
      </trkpt>
      <trkpt lat="43.349445" lon="-5.886708">
        <ele>341.0</ele>
        <time>2012-03-04T10:00:07Z</time>
      </trkpt>
      <trkpt lat="43.349594" lon="-5.886452">
        <ele>341.0</ele>
        <time>2012-03-04T10:00:11Z</time>
      </trkpt>
      <trkpt lat="43.349697" lon="-5.886166">
        <ele>342.0</ele>
        <time>2012-03-04T10:00:15Z</time>
      </trkpt>
      <trkpt lat="43.349793" lon="-5.885866">
        <ele>342.0</ele>
        <time>2012-03-04T10:00:19Z</time>
      </trkpt>
      <trkpt lat="43.349896" lon="-5.885564">
        <ele>343.0</ele>
        <time>2012-03-04T10:00:23Z</time>
      </trkpt>
      <trkpt lat="43.350004" lon="-5.885267">
        <ele>345.0</ele>
        <time>2012-03-04T10:00:27Z</time>
      </trkpt>
      <trkpt lat="43.350117" lon="-5.884953">
        <ele>347.0</ele>
        <time>2012-03-04T10:00:31Z</time>
      </trkpt>
      <trkpt lat="43.350245" lon="-5.8846">
        <ele>348.0</ele>
        <time>2012-03-04T10:00:35Z</time>
      </trkpt>
      <trkpt lat="43.350381" lon="-5.884176">
        <ele>349.0</ele>
        <time>2012-03-04T10:00:39Z</time>
      </trkpt>
      <trkpt lat="43.350516" lon="-5.883683">
        <ele>350.0</ele>
        <time>2012-03-04T10:00:43Z</time>
      </trkpt>
      <trkpt lat="43.350655" lon="-5.88315">
        <ele>350.0</ele>
        <time>2012-03-04T10:00:47Z</time>
      </trkpt>
      <trkpt lat="43.350813" lon="-5.882603">
        <ele>351.0</ele>
        <time>2012-03-04T10:00:51Z</time>
      </trkpt>
      <trkpt lat="43.351094" lon="-5.882123">
        <ele>351.0</ele>
        <time>2012-03-04T10:00:55Z</time>
      </trkpt>
      <trkpt lat="43.351311" lon="-5.881742">
        <ele>351.0</ele>
        <time>2012-03-04T10:00:58Z</time>
      </trkpt>
      <trkpt lat="43.351718" lon="-5.881169">
        <ele>350.0</ele>
        <time>2012-03-04T10:01:03Z</time>
      </trkpt>
      <trkpt lat="43.352133" lon="-5.880894">
        <ele>349.0</ele>
        <time>2012-03-04T10:01:07Z</time>
      </trkpt>
      <trkpt lat="43.35253" lon="-5.880676">
        <ele>348.0</ele>
        <time>2012-03-04T10:01:11Z</time>
      </trkpt>
      <trkpt lat="43.352838" lon="-5.880355">
        <ele>347.0</ele>
        <time>2012-03-04T10:01:15Z</time>
      </trkpt>
      <trkpt lat="43.353018" lon="-5.879886">
        <ele>347.0</ele>
        <time>2012-03-04T10:01:19Z</time>
      </trkpt>
      <trkpt lat="43.353067" lon="-5.879356">
        <ele>347.0</ele>
        <time>2012-03-04T10:01:23Z</time>
      </trkpt>
      <trkpt lat="43.353099" lon="-5.87884">
        <ele>348.0</ele>
        <time>2012-03-04T10:01:27Z</time>
      </trkpt>
      <trkpt lat="43.353125" lon="-5.878349">
        <ele>348.0</ele>
        <time>2012-03-04T10:01:31Z</time>
      </trkpt>
      <trkpt lat="43.353144" lon="-5.877849">
        <ele>347.0</ele>
        <time>2012-03-04T10:01:35Z</time>
      </trkpt>
      <trkpt lat="43.35319" lon="-5.877355">
        <ele>347.0</ele>
        <time>2012-03-04T10:01:39Z</time>
      </trkpt>
      <trkpt lat="43.353341" lon="-5.876949">
        <ele>347.0</ele>
        <time>2012-03-04T10:01:43Z</time>
      </trkpt>
      <trkpt lat="43.353587" lon="-5.876664">
        <ele>347.0</ele>
        <time>2012-03-04T10:01:47Z</time>
      </trkpt>
      <trkpt lat="43.353887" lon="-5.87654">
        <ele>348.0</ele>
        <time>2012-03-04T10:01:51Z</time>
      </trkpt>
      <trkpt lat="43.354203" lon="-5.876595">
        <ele>348.0</ele>
        <time>2012-03-04T10:01:55Z</time>
      </trkpt>
      <trkpt lat="43.354511" lon="-5.876744">
        <ele>348.0</ele>
        <time>2012-03-04T10:01:59Z</time>
      </trkpt>
      <trkpt lat="43.354819" lon="-5.876949">
        <ele>348.0</ele>
        <time>2012-03-04T10:02:03Z</time>
      </trkpt>
      <trkpt lat="43.355136" lon="-5.877107">
        <ele>348.0</ele>
        <time>2012-03-04T10:02:07Z</time>
      </trkpt>
      <trkpt lat="43.355462" lon="-5.87721">
        <ele>349.0</ele>
        <time>2012-03-04T10:02:11Z</time>
      </trkpt>
      <trkpt lat="43.355796" lon="-5.877288">
        <ele>349.0</ele>
        <time>2012-03-04T10:02:15Z</time>
      </trkpt>
      <trkpt lat="43.356132" lon="-5.877222">
        <ele>349.0</ele>
        <time>2012-03-04T10:02:19Z</time>
      </trkpt>
      <trkpt lat="43.356398" lon="-5.876935">
        <ele>350.0</ele>
        <time>2012-03-04T10:02:23Z</time>
      </trkpt>
      <trkpt lat="43.356518" lon="-5.876508">
        <ele>350.0</ele>
        <time>2012-03-04T10:02:27Z</time>
      </trkpt>
      <trkpt lat="43.356505" lon="-5.876059">
        <ele>351.0</ele>
        <time>2012-03-04T10:02:31Z</time>
      </trkpt>
      <trkpt lat="43.356425" lon="-5.875608">
        <ele>351.0</ele>
        <time>2012-03-04T10:02:35Z</time>
      </trkpt>
      <trkpt lat="43.356393" lon="-5.875136">
        <ele>352.0</ele>
        <time>2012-03-04T10:02:39Z</time>
      </trkpt>
      <trkpt lat="43.356495" lon="-5.874667">
        <ele>353.0</ele>
        <time>2012-03-04T10:02:43Z</time>
      </trkpt>
      <trkpt lat="43.356653" lon="-5.874253">
        <ele>353.0</ele>
        <time>2012-03-04T10:02:47Z</time>
      </trkpt>
      <trkpt lat="43.356732" lon="-5.873936">
        <ele>353.0</ele>
        <time>2012-03-04T10:02:51Z</time>
      </trkpt>
      <trkpt lat="43.356694" lon="-5.873867">
        <ele>352.0</ele>
        <time>2012-03-04T10:02:52Z</time>
      </trkpt>
      <trkpt lat="43.356457" lon="-5.873412">
        <ele>351.0</ele>
        <time>2012-03-04T10:02:59Z</time>
      </trkpt>
      <trkpt lat="43.356573" lon="-5.87299">
        <ele>352.0</ele>
        <time>2012-03-04T10:03:03Z</time>
      </trkpt>
      <trkpt lat="43.356716" lon="-5.872549">
        <ele>353.0</ele>
        <time>2012-03-04T10:03:07Z</time>
      </trkpt>
      <trkpt lat="43.356867" lon="-5.872101">
        <ele>354.0</ele>
        <time>2012-03-04T10:03:11Z</time>
      </trkpt>
      <trkpt lat="43.356976" lon="-5.87177">
        <ele>355.0</ele>
        <time>2012-03-04T10:03:14Z</time>
      </trkpt>
      <trkpt lat="43.357156" lon="-5.871205">
        <ele>355.0</ele>
        <time>2012-03-04T10:03:19Z</time>
      </trkpt>
      <trkpt lat="43.357291" lon="-5.870766">
        <ele>355.0</ele>
        <time>2012-03-04T10:03:23Z</time>
      </trkpt>
      <trkpt lat="43.357239" lon="-5.870449">
        <ele>355.0</ele>
        <time>2012-03-04T10:03:27Z</time>
      </trkpt>
      <trkpt lat="43.357048" lon="-5.870221">
        <ele>355.0</ele>
        <time>2012-03-04T10:03:31Z</time>
      </trkpt>
      <trkpt lat="43.356838" lon="-5.87">
        <ele>355.0</ele>
        <time>2012-03-04T10:03:35Z</time>
      </trkpt>
      <trkpt lat="43.356603" lon="-5.8698">
        <ele>355.0</ele>
        <time>2012-03-04T10:03:39Z</time>
      </trkpt>
      <trkpt lat="43.356331" lon="-5.869642">
        <ele>355.0</ele>
        <time>2012-03-04T10:03:43Z</time>
      </trkpt>
      <trkpt lat="43.35603" lon="-5.869522">
        <ele>355.0</ele>
        <time>2012-03-04T10:03:47Z</time>
      </trkpt>
      <trkpt lat="43.355733" lon="-5.869411">
        <ele>355.0</ele>
        <time>2012-03-04T10:03:51Z</time>
      </trkpt>
      <trkpt lat="43.355445" lon="-5.869294">
        <ele>355.0</ele>
        <time>2012-03-04T10:03:55Z</time>
      </trkpt>
      <trkpt lat="43.355152" lon="-5.869179">
        <ele>354.0</ele>
        <time>2012-03-04T10:03:59Z</time>
      </trkpt>
      <trkpt lat="43.354867" lon="-5.869068">
        <ele>354.0</ele>
        <time>2012-03-04T10:04:03Z</time>
      </trkpt>
      <trkpt lat="43.35458" lon="-5.868958">
        <ele>354.0</ele>
        <time>2012-03-04T10:04:07Z</time>
      </trkpt>
      <trkpt lat="43.354288" lon="-5.868843">
        <ele>355.0</ele>
        <time>2012-03-04T10:04:11Z</time>
      </trkpt>
      <trkpt lat="43.353982" lon="-5.868727">
        <ele>355.0</ele>
        <time>2012-03-04T10:04:15Z</time>
      </trkpt>
      <trkpt lat="43.353678" lon="-5.868618">
        <ele>356.0</ele>
        <time>2012-03-04T10:04:19Z</time>
      </trkpt>
      <trkpt lat="43.353501" lon="-5.868555">
        <ele>357.0</ele>
        <time>2012-03-04T10:04:22Z</time>
      </trkpt>
      <trkpt lat="43.35329" lon="-5.868487">
        <ele>358.0</ele>
        <time>2012-03-04T10:04:26Z</time>
      </trkpt>
      <trkpt lat="43.353073" lon="-5.868453">
        <ele>358.0</ele>
        <time>2012-03-04T10:04:30Z</time>
      </trkpt>
      <trkpt lat="43.352771" lon="-5.868466">
        <ele>358.0</ele>
        <time>2012-03-04T10:04:35Z</time>
      </trkpt>
      <trkpt lat="43.352505" lon="-5.868535">
        <ele>358.0</ele>
        <time>2012-03-04T10:04:39Z</time>
      </trkpt>
      <trkpt lat="43.352257" lon="-5.868676">
        <ele>358.0</ele>
        <time>2012-03-04T10:04:43Z</time>
      </trkpt>
      <trkpt lat="43.352013" lon="-5.868818">
        <ele>357.0</ele>
        <time>2012-03-04T10:04:47Z</time>
      </trkpt>
      <trkpt lat="43.351748" lon="-5.868932">
        <ele>357.0</ele>
        <time>2012-03-04T10:04:51Z</time>
      </trkpt>
      <trkpt lat="43.351404" lon="-5.869033">
        <ele>357.0</ele>
        <time>2012-03-04T10:04:55Z</time>
      </trkpt>
      <trkpt lat="43.350975" lon="-5.869075">
        <ele>356.0</ele>
        <time>2012-03-04T10:04:59Z</time>
      </trkpt>
      <trkpt lat="43.350497" lon="-5.868997">
        <ele>356.0</ele>
        <time>2012-03-04T10:05:03Z</time>
      </trkpt>
      <trkpt lat="43.350128" lon="-5.868841">
        <ele>355.0</ele>
        <time>2012-03-04T10:05:07Z</time>
      </trkpt>
      <trkpt lat="43.349972" lon="-5.86874">
        <ele>354.0</ele>
        <time>2012-03-04T10:05:09Z</time>
      </trkpt>
      <trkpt lat="43.349545" lon="-5.868389">
        <ele>347.0</ele>
        <time>2012-03-04T10:05:15Z</time>
      </trkpt>
      <trkpt lat="43.349261" lon="-5.868099">
        <ele>342.0</ele>
        <time>2012-03-04T10:05:19Z</time>
      </trkpt>
      <trkpt lat="43.348972" lon="-5.867799">
        <ele>336.0</ele>
        <time>2012-03-04T10:05:23Z</time>
      </trkpt>
      <trkpt lat="43.348781" lon="-5.867514">
        <ele>331.0</ele>
        <time>2012-03-04T10:05:27Z</time>
      </trkpt>
      <trkpt lat="43.348919" lon="-5.867294">
        <ele>327.0</ele>
        <time>2012-03-04T10:05:31Z</time>
      </trkpt>
      <trkpt lat="43.34913" lon="-5.867188">
        <ele>325.0</ele>
        <time>2012-03-04T10:05:35Z</time>
      </trkpt>
      <trkpt lat="43.349353" lon="-5.867093">
        <ele>323.0</ele>
        <time>2012-03-04T10:05:39Z</time>
      </trkpt>
      <trkpt lat="43.349584" lon="-5.867011">
        <ele>323.0</ele>
        <time>2012-03-04T10:05:43Z</time>
      </trkpt>
      <trkpt lat="43.349807" lon="-5.866931">
        <ele>323.0</ele>
        <time>2012-03-04T10:05:47Z</time>
      </trkpt>
      <trkpt lat="43.350252" lon="-5.866774">
        <ele>323.0</ele>
        <time>2012-03-04T10:05:55Z</time>
      </trkpt>
      <trkpt lat="43.350482" lon="-5.866695">
        <ele>323.0</ele>
        <time>2012-03-04T10:05:59Z</time>
      </trkpt>
      <trkpt lat="43.350716" lon="-5.866623">
        <ele>321.0</ele>
        <time>2012-03-04T10:06:03Z</time>
      </trkpt>
      <trkpt lat="43.351013" lon="-5.866482">
        <ele>319.0</ele>
        <time>2012-03-04T10:06:08Z</time>
      </trkpt>
      <trkpt lat="43.351241" lon="-5.866306">
        <ele>318.0</ele>
        <time>2012-03-04T10:06:12Z</time>
      </trkpt>
      <trkpt lat="43.35146" lon="-5.866086">
        <ele>317.0</ele>
        <time>2012-03-04T10:06:16Z</time>
      </trkpt>
      <trkpt lat="43.351672" lon="-5.865812">
        <ele>317.0</ele>
        <time>2012-03-04T10:06:20Z</time>
      </trkpt>
      <trkpt lat="43.351827" lon="-5.865452">
        <ele>316.0</ele>
        <time>2012-03-04T10:06:24Z</time>
      </trkpt>
      <trkpt lat="43.351859" lon="-5.865005">
        <ele>316.0</ele>
        <time>2012-03-04T10:06:28Z</time>
      </trkpt>
      <trkpt lat="43.351873" lon="-5.86455">
        <ele>316.0</ele>
        <time>2012-03-04T10:06:32Z</time>
      </trkpt>
      <trkpt lat="43.352083" lon="-5.864187">
        <ele>315.0</ele>
        <time>2012-03-04T10:06:36Z</time>
      </trkpt>
      <trkpt lat="43.352166" lon="-5.863861">
        <ele>315.0</ele>
        <time>2012-03-04T10:06:39Z</time>
      </trkpt>
      <trkpt lat="43.352229" lon="-5.863343">
        <ele>316.0</ele>
        <time>2012-03-04T10:06:44Z</time>
      </trkpt>
      <trkpt lat="43.35225" lon="-5.862992">
        <ele>317.0</ele>
        <time>2012-03-04T10:06:47Z</time>
      </trkpt>
      <trkpt lat="43.352221" lon="-5.86228">
        <ele>317.0</ele>
        <time>2012-03-04T10:06:52Z</time>
      </trkpt>
      <trkpt lat="43.352173" lon="-5.861677">
        <ele>316.0</ele>
        <time>2012-03-04T10:06:56Z</time>
      </trkpt>
      <trkpt lat="43.352178" lon="-5.861221">
        <ele>316.0</ele>
        <time>2012-03-04T10:06:59Z</time>
      </trkpt>
      <trkpt lat="43.352305" lon="-5.860492">
        <ele>313.0</ele>
        <time>2012-03-04T10:07:04Z</time>
      </trkpt>
      <trkpt lat="43.352482" lon="-5.859913">
        <ele>310.0</ele>
        <time>2012-03-04T10:07:08Z</time>
      </trkpt>
      <trkpt lat="43.352712" lon="-5.859385">
        <ele>306.0</ele>
        <time>2012-03-04T10:07:12Z</time>
      </trkpt>
      <trkpt lat="43.352914" lon="-5.859007">
        <ele>302.0</ele>
        <time>2012-03-04T10:07:16Z</time>
      </trkpt>
      <trkpt lat="43.352936" lon="-5.858758">
        <ele>299.0</ele>
        <time>2012-03-04T10:07:19Z</time>
      </trkpt>
      <trkpt lat="43.352836" lon="-5.858489">
        <ele>296.0</ele>
        <time>2012-03-04T10:07:23Z</time>
      </trkpt>
      <trkpt lat="43.3527" lon="-5.858322">
        <ele>294.0</ele>
        <time>2012-03-04T10:07:27Z</time>
      </trkpt>
      <trkpt lat="43.352569" lon="-5.858173">
        <ele>292.0</ele>
        <time>2012-03-04T10:07:31Z</time>
      </trkpt>
      <trkpt lat="43.352438" lon="-5.858">
        <ele>292.0</ele>
        <time>2012-03-04T10:07:35Z</time>
      </trkpt>
      <trkpt lat="43.352328" lon="-5.857769">
        <ele>291.0</ele>
        <time>2012-03-04T10:07:39Z</time>
      </trkpt>
      <trkpt lat="43.352237" lon="-5.857489">
        <ele>291.0</ele>
        <time>2012-03-04T10:07:43Z</time>
      </trkpt>
      <trkpt lat="43.352019" lon="-5.857132">
        <ele>292.0</ele>
        <time>2012-03-04T10:07:48Z</time>
      </trkpt>
      <trkpt lat="43.351741" lon="-5.856922">
        <ele>292.0</ele>
        <time>2012-03-04T10:07:52Z</time>
      </trkpt>
      <trkpt lat="43.351426" lon="-5.856968">
        <ele>292.0</ele>
        <time>2012-03-04T10:07:56Z</time>
      </trkpt>
      <trkpt lat="43.351095" lon="-5.8571">
        <ele>292.0</ele>
        <time>2012-03-04T10:08:00Z</time>
      </trkpt>
      <trkpt lat="43.350834" lon="-5.857191">
        <ele>291.0</ele>
        <time>2012-03-04T10:08:03Z</time>
      </trkpt>
      <trkpt lat="43.350429" lon="-5.857343">
        <ele>291.0</ele>
        <time>2012-03-04T10:08:08Z</time>
      </trkpt>
      <trkpt lat="43.350138" lon="-5.857503">
        <ele>290.0</ele>
        <time>2012-03-04T10:08:12Z</time>
      </trkpt>
      <trkpt lat="43.349863" lon="-5.857703">
        <ele>290.0</ele>
        <time>2012-03-04T10:08:16Z</time>
      </trkpt>
      <trkpt lat="43.3496" lon="-5.857917">
        <ele>289.0</ele>
        <time>2012-03-04T10:08:20Z</time>
      </trkpt>
      <trkpt lat="43.349365" lon="-5.858139">
        <ele>289.0</ele>
        <time>2012-03-04T10:08:24Z</time>
      </trkpt>
      <trkpt lat="43.349151" lon="-5.858369">
        <ele>289.0</ele>
        <time>2012-03-04T10:08:28Z</time>
      </trkpt>
      <trkpt lat="43.348939" lon="-5.858616">
        <ele>289.0</ele>
        <time>2012-03-04T10:08:32Z</time>
      </trkpt>
      <trkpt lat="43.348728" lon="-5.858883">
        <ele>289.0</ele>
        <time>2012-03-04T10:08:36Z</time>
      </trkpt>
      <trkpt lat="43.348527" lon="-5.859166">
        <ele>289.0</ele>
        <time>2012-03-04T10:08:40Z</time>
      </trkpt>
      <trkpt lat="43.34833" lon="-5.859452">
        <ele>288.0</ele>
        <time>2012-03-04T10:08:44Z</time>
      </trkpt>
      <trkpt lat="43.348132" lon="-5.859733">
        <ele>288.0</ele>
        <time>2012-03-04T10:08:48Z</time>
      </trkpt>
      <trkpt lat="43.347932" lon="-5.860018">
        <ele>288.0</ele>
        <time>2012-03-04T10:08:52Z</time>
      </trkpt>
      <trkpt lat="43.347835" lon="-5.860165">
        <ele>288.0</ele>
        <time>2012-03-04T10:08:54Z</time>
      </trkpt>
      <trkpt lat="43.347531" lon="-5.860602">
        <ele>288.0</ele>
        <time>2012-03-04T10:09:00Z</time>
      </trkpt>
      <trkpt lat="43.34731" lon="-5.860904">
        <ele>287.0</ele>
        <time>2012-03-04T10:09:04Z</time>
      </trkpt>
      <trkpt lat="43.347068" lon="-5.861208">
        <ele>286.0</ele>
        <time>2012-03-04T10:09:08Z</time>
      </trkpt>
      <trkpt lat="43.346815" lon="-5.861536">
        <ele>285.0</ele>
        <time>2012-03-04T10:09:12Z</time>
      </trkpt>
      <trkpt lat="43.346558" lon="-5.86189">
        <ele>284.0</ele>
        <time>2012-03-04T10:09:16Z</time>
      </trkpt>
      <trkpt lat="43.346298" lon="-5.862231">
        <ele>283.0</ele>
        <time>2012-03-04T10:09:20Z</time>
      </trkpt>
      <trkpt lat="43.346017" lon="-5.862582">
        <ele>282.0</ele>
        <time>2012-03-04T10:09:24Z</time>
      </trkpt>
      <trkpt lat="43.345722" lon="-5.86294">
        <ele>281.0</ele>
        <time>2012-03-04T10:09:28Z</time>
      </trkpt>
      <trkpt lat="43.345426" lon="-5.86331">
        <ele>281.0</ele>
        <time>2012-03-04T10:09:32Z</time>
      </trkpt>
      <trkpt lat="43.345137" lon="-5.863679">
        <ele>281.0</ele>
        <time>2012-03-04T10:09:36Z</time>
      </trkpt>
      <trkpt lat="43.344865" lon="-5.864038">
        <ele>281.0</ele>
        <time>2012-03-04T10:09:40Z</time>
      </trkpt>
      <trkpt lat="43.3446" lon="-5.864392">
        <ele>281.0</ele>
        <time>2012-03-04T10:09:44Z</time>
      </trkpt>
      <trkpt lat="43.34435" lon="-5.864739">
        <ele>280.0</ele>
        <time>2012-03-04T10:09:48Z</time>
      </trkpt>
      <trkpt lat="43.344113" lon="-5.865101">
        <ele>279.0</ele>
        <time>2012-03-04T10:09:52Z</time>
      </trkpt>
      <trkpt lat="43.343892" lon="-5.86546">
        <ele>277.0</ele>
        <time>2012-03-04T10:09:56Z</time>
      </trkpt>
      <trkpt lat="43.343675" lon="-5.865803">
        <ele>276.0</ele>
        <time>2012-03-04T10:10:00Z</time>
      </trkpt>
      <trkpt lat="43.34345" lon="-5.866138">
        <ele>276.0</ele>
        <time>2012-03-04T10:10:04Z</time>
      </trkpt>
      <trkpt lat="43.343208" lon="-5.866465">
        <ele>276.0</ele>
        <time>2012-03-04T10:10:08Z</time>
      </trkpt>
      <trkpt lat="43.342953" lon="-5.866782">
        <ele>275.0</ele>
        <time>2012-03-04T10:10:12Z</time>
      </trkpt>
      <trkpt lat="43.342686" lon="-5.867081">
        <ele>274.0</ele>
        <time>2012-03-04T10:10:16Z</time>
      </trkpt>
      <trkpt lat="43.342412" lon="-5.867362">
        <ele>273.0</ele>
        <time>2012-03-04T10:10:20Z</time>
      </trkpt>
      <trkpt lat="43.342134" lon="-5.867636">
        <ele>272.0</ele>
        <time>2012-03-04T10:10:24Z</time>
      </trkpt>
      <trkpt lat="43.341855" lon="-5.867912">
        <ele>272.0</ele>
        <time>2012-03-04T10:10:28Z</time>
      </trkpt>
      <trkpt lat="43.341575" lon="-5.868183">
        <ele>271.0</ele>
        <time>2012-03-04T10:10:32Z</time>
      </trkpt>
      <trkpt lat="43.341302" lon="-5.868444">
        <ele>271.0</ele>
        <time>2012-03-04T10:10:36Z</time>
      </trkpt>
      <trkpt lat="43.341022" lon="-5.868687">
        <ele>270.0</ele>
        <time>2012-03-04T10:10:40Z</time>
      </trkpt>
      <trkpt lat="43.340739" lon="-5.868919">
        <ele>270.0</ele>
        <time>2012-03-04T10:10:44Z</time>
      </trkpt>
      <trkpt lat="43.340448" lon="-5.869138">
        <ele>270.0</ele>
        <time>2012-03-04T10:10:48Z</time>
      </trkpt>
      <trkpt lat="43.34015" lon="-5.869345">
        <ele>270.0</ele>
        <time>2012-03-04T10:10:52Z</time>
      </trkpt>
      <trkpt lat="43.339852" lon="-5.869532">
        <ele>269.0</ele>
        <time>2012-03-04T10:10:56Z</time>
      </trkpt>
      <trkpt lat="43.339544" lon="-5.869708">
        <ele>268.0</ele>
        <time>2012-03-04T10:11:00Z</time>
      </trkpt>
      <trkpt lat="43.339231" lon="-5.869872">
        <ele>268.0</ele>
        <time>2012-03-04T10:11:04Z</time>
      </trkpt>
      <trkpt lat="43.338905" lon="-5.870029">
        <ele>268.0</ele>
        <time>2012-03-04T10:11:08Z</time>
      </trkpt>
      <trkpt lat="43.338567" lon="-5.87016">
        <ele>267.0</ele>
        <time>2012-03-04T10:11:12Z</time>
      </trkpt>
      <trkpt lat="43.338214" lon="-5.870271">
        <ele>266.0</ele>
        <time>2012-03-04T10:11:16Z</time>
      </trkpt>
      <trkpt lat="43.337832" lon="-5.870352">
        <ele>266.0</ele>
        <time>2012-03-04T10:11:20Z</time>
      </trkpt>
      <trkpt lat="43.337427" lon="-5.870395">
        <ele>265.0</ele>
        <time>2012-03-04T10:11:24Z</time>
      </trkpt>
      <trkpt lat="43.337104" lon="-5.870396">
        <ele>264.0</ele>
        <time>2012-03-04T10:11:27Z</time>
      </trkpt>
      <trkpt lat="43.336541" lon="-5.870374">
        <ele>263.0</ele>
        <time>2012-03-04T10:11:32Z</time>
      </trkpt>
      <trkpt lat="43.3361" lon="-5.870398">
        <ele>261.0</ele>
        <time>2012-03-04T10:11:36Z</time>
      </trkpt>
      <trkpt lat="43.335673" lon="-5.870481">
        <ele>260.0</ele>
        <time>2012-03-04T10:11:40Z</time>
      </trkpt>
      <trkpt lat="43.335282" lon="-5.870589">
        <ele>260.0</ele>
        <time>2012-03-04T10:11:44Z</time>
      </trkpt>
      <trkpt lat="43.334922" lon="-5.870647">
        <ele>260.0</ele>
        <time>2012-03-04T10:11:48Z</time>
      </trkpt>
      <trkpt lat="43.334595" lon="-5.870681">
        <ele>260.0</ele>
        <time>2012-03-04T10:11:52Z</time>
      </trkpt>
      <trkpt lat="43.334277" lon="-5.870721">
        <ele>259.0</ele>
        <time>2012-03-04T10:11:56Z</time>
      </trkpt>
      <trkpt lat="43.333969" lon="-5.870752">
        <ele>259.0</ele>
        <time>2012-03-04T10:12:00Z</time>
      </trkpt>
      <trkpt lat="43.333678" lon="-5.870793">
        <ele>259.0</ele>
        <time>2012-03-04T10:12:04Z</time>
      </trkpt>
      <trkpt lat="43.333385" lon="-5.870818">
        <ele>259.0</ele>
        <time>2012-03-04T10:12:08Z</time>
      </trkpt>
      <trkpt lat="43.333101" lon="-5.870835">
        <ele>259.0</ele>
        <time>2012-03-04T10:12:12Z</time>
      </trkpt>
      <trkpt lat="43.33282" lon="-5.870869">
        <ele>259.0</ele>
        <time>2012-03-04T10:12:16Z</time>
      </trkpt>
      <trkpt lat="43.332531" lon="-5.870925">
        <ele>259.0</ele>
        <time>2012-03-04T10:12:20Z</time>
      </trkpt>
      <trkpt lat="43.332269" lon="-5.871045">
        <ele>259.0</ele>
        <time>2012-03-04T10:12:24Z</time>
      </trkpt>
      <trkpt lat="43.332083" lon="-5.871314">
        <ele>259.0</ele>
        <time>2012-03-04T10:12:28Z</time>
      </trkpt>
      <trkpt lat="43.331904" lon="-5.871606">
        <ele>259.0</ele>
        <time>2012-03-04T10:12:32Z</time>
      </trkpt>
      <trkpt lat="43.331639" lon="-5.871742">
        <ele>260.0</ele>
        <time>2012-03-04T10:12:36Z</time>
      </trkpt>
      <trkpt lat="43.331425" lon="-5.871988">
        <ele>261.0</ele>
        <time>2012-03-04T10:12:40Z</time>
      </trkpt>
      <trkpt lat="43.331259" lon="-5.872312">
        <ele>261.0</ele>
        <time>2012-03-04T10:12:44Z</time>
      </trkpt>
      <trkpt lat="43.331119" lon="-5.872675">
        <ele>260.0</ele>
        <time>2012-03-04T10:12:48Z</time>
      </trkpt>
      <trkpt lat="43.331001" lon="-5.873092">
        <ele>263.0</ele>
        <time>2012-03-04T10:12:52Z</time>
      </trkpt>
      <trkpt lat="43.330886" lon="-5.87356">
        <ele>262.0</ele>
        <time>2012-03-04T10:12:56Z</time>
      </trkpt>
      <trkpt lat="43.330761" lon="-5.874095">
        <ele>261.0</ele>
        <time>2012-03-04T10:13:00Z</time>
      </trkpt>
      <trkpt lat="43.330582" lon="-5.874631">
        <ele>260.0</ele>
        <time>2012-03-04T10:13:04Z</time>
      </trkpt>
      <trkpt lat="43.330331" lon="-5.875128">
        <ele>259.0</ele>
        <time>2012-03-04T10:13:08Z</time>
      </trkpt>
      <trkpt lat="43.330014" lon="-5.875559">
        <ele>258.0</ele>
        <time>2012-03-04T10:13:12Z</time>
      </trkpt>
      <trkpt lat="43.329746" lon="-5.875826">
        <ele>256.0</ele>
        <time>2012-03-04T10:13:15Z</time>
      </trkpt>
      <trkpt lat="43.329251" lon="-5.87614">
        <ele>255.0</ele>
        <time>2012-03-04T10:13:20Z</time>
      </trkpt>
      <trkpt lat="43.328873" lon="-5.876291">
        <ele>254.0</ele>
        <time>2012-03-04T10:13:24Z</time>
      </trkpt>
      <trkpt lat="43.328553" lon="-5.876415">
        <ele>253.0</ele>
        <time>2012-03-04T10:13:28Z</time>
      </trkpt>
      <trkpt lat="43.328291" lon="-5.876522">
        <ele>253.0</ele>
        <time>2012-03-04T10:13:32Z</time>
      </trkpt>
      <trkpt lat="43.328065" lon="-5.876613">
        <ele>252.0</ele>
        <time>2012-03-04T10:13:36Z</time>
      </trkpt>
      <trkpt lat="43.327866" lon="-5.876704">
        <ele>252.0</ele>
        <time>2012-03-04T10:13:40Z</time>
      </trkpt>
      <trkpt lat="43.32767" lon="-5.876792">
        <ele>253.0</ele>
        <time>2012-03-04T10:13:44Z</time>
      </trkpt>
      <trkpt lat="43.327486" lon="-5.876885">
        <ele>254.0</ele>
        <time>2012-03-04T10:13:48Z</time>
      </trkpt>
      <trkpt lat="43.327314" lon="-5.876959">
        <ele>255.0</ele>
        <time>2012-03-04T10:13:52Z</time>
      </trkpt>
      <trkpt lat="43.327142" lon="-5.877027">
        <ele>255.0</ele>
        <time>2012-03-04T10:13:56Z</time>
      </trkpt>
      <trkpt lat="43.326955" lon="-5.877078">
        <ele>256.0</ele>
        <time>2012-03-04T10:14:00Z</time>
      </trkpt>
      <trkpt lat="43.326752" lon="-5.877123">
        <ele>256.0</ele>
        <time>2012-03-04T10:14:04Z</time>
      </trkpt>
      <trkpt lat="43.32654" lon="-5.877149">
        <ele>256.0</ele>
        <time>2012-03-04T10:14:08Z</time>
      </trkpt>
      <trkpt lat="43.326338" lon="-5.877154">
        <ele>257.0</ele>
        <time>2012-03-04T10:14:12Z</time>
      </trkpt>
      <trkpt lat="43.326144" lon="-5.877148">
        <ele>258.0</ele>
        <time>2012-03-04T10:14:16Z</time>
      </trkpt>
      <trkpt lat="43.325955" lon="-5.877124">
        <ele>259.0</ele>
        <time>2012-03-04T10:14:20Z</time>
      </trkpt>
      <trkpt lat="43.325766" lon="-5.877084">
        <ele>259.0</ele>
        <time>2012-03-04T10:14:24Z</time>
      </trkpt>
      <trkpt lat="43.32558" lon="-5.877035">
        <ele>260.0</ele>
        <time>2012-03-04T10:14:28Z</time>
      </trkpt>
      <trkpt lat="43.325401" lon="-5.876969">
        <ele>261.0</ele>
        <time>2012-03-04T10:14:32Z</time>
      </trkpt>
      <trkpt lat="43.32522" lon="-5.876882">
        <ele>262.0</ele>
        <time>2012-03-04T10:14:36Z</time>
      </trkpt>
      <trkpt lat="43.325043" lon="-5.876781">
        <ele>263.0</ele>
        <time>2012-03-04T10:14:40Z</time>
      </trkpt>
      <trkpt lat="43.324863" lon="-5.876666">
        <ele>264.0</ele>
        <time>2012-03-04T10:14:44Z</time>
      </trkpt>
      <trkpt lat="43.324679" lon="-5.876522">
        <ele>265.0</ele>
        <time>2012-03-04T10:14:48Z</time>
      </trkpt>
      <trkpt lat="43.324503" lon="-5.876347">
        <ele>267.0</ele>
        <time>2012-03-04T10:14:52Z</time>
      </trkpt>
      <trkpt lat="43.324328" lon="-5.876164">
        <ele>268.0</ele>
        <time>2012-03-04T10:14:56Z</time>
      </trkpt>
      <trkpt lat="43.324153" lon="-5.875974">
        <ele>268.0</ele>
        <time>2012-03-04T10:15:00Z</time>
      </trkpt>
      <trkpt lat="43.323995" lon="-5.875755">
        <ele>269.0</ele>
        <time>2012-03-04T10:15:04Z</time>
      </trkpt>
      <trkpt lat="43.323837" lon="-5.875483">
        <ele>270.0</ele>
        <time>2012-03-04T10:15:08Z</time>
      </trkpt>
      <trkpt lat="43.323646" lon="-5.875217">
        <ele>270.0</ele>
        <time>2012-03-04T10:15:12Z</time>
      </trkpt>
      <trkpt lat="43.323474" lon="-5.874879">
        <ele>270.0</ele>
        <time>2012-03-04T10:15:16Z</time>
      </trkpt>
      <trkpt lat="43.32329" lon="-5.874489">
        <ele>270.0</ele>
        <time>2012-03-04T10:15:20Z</time>
      </trkpt>
      <trkpt lat="43.323078" lon="-5.87403">
        <ele>270.0</ele>
        <time>2012-03-04T10:15:24Z</time>
      </trkpt>
      <trkpt lat="43.322846" lon="-5.873517">
        <ele>270.0</ele>
        <time>2012-03-04T10:15:28Z</time>
      </trkpt>
      <trkpt lat="43.322591" lon="-5.872985">
        <ele>270.0</ele>
        <time>2012-03-04T10:15:32Z</time>
      </trkpt>
      <trkpt lat="43.322326" lon="-5.872413">
        <ele>270.0</ele>
        <time>2012-03-04T10:15:36Z</time>
      </trkpt>
      <trkpt lat="43.322062" lon="-5.871834">
        <ele>270.0</ele>
        <time>2012-03-04T10:15:40Z</time>
      </trkpt>
      <trkpt lat="43.321808" lon="-5.871456">
        <ele>270.0</ele>
        <time>2012-03-04T10:15:43Z</time>
      </trkpt>
      <trkpt lat="43.321471" lon="-5.871133">
        <ele>270.0</ele>
        <time>2012-03-04T10:15:46Z</time>
      </trkpt>
      <trkpt lat="43.320684" lon="-5.870777">
        <ele>271.0</ele>
        <time>2012-03-04T10:15:52Z</time>
      </trkpt>
      <trkpt lat="43.320121" lon="-5.870683">
        <ele>268.0</ele>
        <time>2012-03-04T10:15:56Z</time>
      </trkpt>
      <trkpt lat="43.319549" lon="-5.870581">
        <ele>265.0</ele>
        <time>2012-03-04T10:16:00Z</time>
      </trkpt>
      <trkpt lat="43.318999" lon="-5.870355">
        <ele>264.0</ele>
        <time>2012-03-04T10:16:04Z</time>
      </trkpt>
      <trkpt lat="43.318506" lon="-5.869999">
        <ele>263.0</ele>
        <time>2012-03-04T10:16:08Z</time>
      </trkpt>
      <trkpt lat="43.31805" lon="-5.86963">
        <ele>260.0</ele>
        <time>2012-03-04T10:16:12Z</time>
      </trkpt>
      <trkpt lat="43.317604" lon="-5.869261">
        <ele>257.0</ele>
        <time>2012-03-04T10:16:16Z</time>
      </trkpt>
      <trkpt lat="43.31715" lon="-5.868894">
        <ele>254.0</ele>
        <time>2012-03-04T10:16:20Z</time>
      </trkpt>
      <trkpt lat="43.3167" lon="-5.868556">
        <ele>251.0</ele>
        <time>2012-03-04T10:16:24Z</time>
      </trkpt>
      <trkpt lat="43.316211" lon="-5.868354">
        <ele>249.0</ele>
        <time>2012-03-04T10:16:28Z</time>
      </trkpt>
      <trkpt lat="43.315684" lon="-5.868329">
        <ele>245.0</ele>
        <time>2012-03-04T10:16:32Z</time>
      </trkpt>
      <trkpt lat="43.315167" lon="-5.868418">
        <ele>242.0</ele>
        <time>2012-03-04T10:16:36Z</time>
      </trkpt>
      <trkpt lat="43.314665" lon="-5.868535">
        <ele>241.0</ele>
        <time>2012-03-04T10:16:40Z</time>
      </trkpt>
      <trkpt lat="43.314181" lon="-5.868655">
        <ele>241.0</ele>
        <time>2012-03-04T10:16:44Z</time>
      </trkpt>
      <trkpt lat="43.3137" lon="-5.868757">
        <ele>240.0</ele>
        <time>2012-03-04T10:16:48Z</time>
      </trkpt>
      <trkpt lat="43.313233" lon="-5.868868">
        <ele>240.0</ele>
        <time>2012-03-04T10:16:52Z</time>
      </trkpt>
      <trkpt lat="43.31276" lon="-5.868961">
        <ele>237.0</ele>
        <time>2012-03-04T10:16:56Z</time>
      </trkpt>
      <trkpt lat="43.312281" lon="-5.869068">
        <ele>234.0</ele>
        <time>2012-03-04T10:17:00Z</time>
      </trkpt>
      <trkpt lat="43.311889" lon="-5.869156">
        <ele>230.0</ele>
        <time>2012-03-04T10:17:04Z</time>
      </trkpt>
      <trkpt lat="43.31158" lon="-5.869381">
        <ele>226.0</ele>
        <time>2012-03-04T10:17:08Z</time>
      </trkpt>
      <trkpt lat="43.311247" lon="-5.86937">
        <ele>221.0</ele>
        <time>2012-03-04T10:17:12Z</time>
      </trkpt>
      <trkpt lat="43.310944" lon="-5.869476">
        <ele>218.0</ele>
        <time>2012-03-04T10:17:16Z</time>
      </trkpt>
      <trkpt lat="43.310664" lon="-5.869692">
        <ele>216.0</ele>
        <time>2012-03-04T10:17:20Z</time>
      </trkpt>
      <trkpt lat="43.310377" lon="-5.87003">
        <ele>213.0</ele>
        <time>2012-03-04T10:17:24Z</time>
      </trkpt>
      <trkpt lat="43.310132" lon="-5.870472">
        <ele>209.0</ele>
        <time>2012-03-04T10:17:28Z</time>
      </trkpt>
      <trkpt lat="43.309927" lon="-5.870957">
        <ele>206.0</ele>
        <time>2012-03-04T10:17:32Z</time>
      </trkpt>
      <trkpt lat="43.309719" lon="-5.871417">
        <ele>203.0</ele>
        <time>2012-03-04T10:17:36Z</time>
      </trkpt>
      <trkpt lat="43.309622" lon="-5.871902">
        <ele>201.0</ele>
        <time>2012-03-04T10:17:40Z</time>
      </trkpt>
      <trkpt lat="43.309434" lon="-5.872235">
        <ele>200.0</ele>
        <time>2012-03-04T10:17:44Z</time>
      </trkpt>
      <trkpt lat="43.309245" lon="-5.872501">
        <ele>200.0</ele>
        <time>2012-03-04T10:17:48Z</time>
      </trkpt>
      <trkpt lat="43.309123" lon="-5.872813">
        <ele>200.0</ele>
        <time>2012-03-04T10:17:52Z</time>
      </trkpt>
      <trkpt lat="43.308999" lon="-5.873143">
        <ele>200.0</ele>
        <time>2012-03-04T10:17:56Z</time>
      </trkpt>
      <trkpt lat="43.308854" lon="-5.87344">
        <ele>200.0</ele>
        <time>2012-03-04T10:18:00Z</time>
      </trkpt>
      <trkpt lat="43.308691" lon="-5.873687">
        <ele>200.0</ele>
        <time>2012-03-04T10:18:04Z</time>
      </trkpt>
      <trkpt lat="43.3085" lon="-5.873897">
        <ele>199.0</ele>
        <time>2012-03-04T10:18:08Z</time>
      </trkpt>
      <trkpt lat="43.308286" lon="-5.874096">
        <ele>199.0</ele>
        <time>2012-03-04T10:18:12Z</time>
      </trkpt>
      <trkpt lat="43.308067" lon="-5.874262">
        <ele>198.0</ele>
        <time>2012-03-04T10:18:16Z</time>
      </trkpt>
      <trkpt lat="43.307893" lon="-5.874362">
        <ele>198.0</ele>
        <time>2012-03-04T10:18:19Z</time>
      </trkpt>
      <trkpt lat="43.307676" lon="-5.874498">
        <ele>197.0</ele>
        <time>2012-03-04T10:18:23Z</time>
      </trkpt>
      <trkpt lat="43.307458" lon="-5.874624">
        <ele>197.0</ele>
        <time>2012-03-04T10:18:27Z</time>
      </trkpt>
      <trkpt lat="43.307231" lon="-5.874761">
        <ele>197.0</ele>
        <time>2012-03-04T10:18:31Z</time>
      </trkpt>
      <trkpt lat="43.306959" lon="-5.874981">
        <ele>196.0</ele>
        <time>2012-03-04T10:18:36Z</time>
      </trkpt>
      <trkpt lat="43.306743" lon="-5.875207">
        <ele>196.0</ele>
        <time>2012-03-04T10:18:40Z</time>
      </trkpt>
      <trkpt lat="43.306553" lon="-5.875453">
        <ele>196.0</ele>
        <time>2012-03-04T10:18:44Z</time>
      </trkpt>
      <trkpt lat="43.306388" lon="-5.875744">
        <ele>197.0</ele>
        <time>2012-03-04T10:18:48Z</time>
      </trkpt>
      <trkpt lat="43.306232" lon="-5.876066">
        <ele>198.0</ele>
        <time>2012-03-04T10:18:52Z</time>
      </trkpt>
      <trkpt lat="43.306078" lon="-5.876382">
        <ele>197.0</ele>
        <time>2012-03-04T10:18:56Z</time>
      </trkpt>
      <trkpt lat="43.305921" lon="-5.876679">
        <ele>196.0</ele>
        <time>2012-03-04T10:19:00Z</time>
      </trkpt>
      <trkpt lat="43.305777" lon="-5.876969">
        <ele>195.0</ele>
        <time>2012-03-04T10:19:04Z</time>
      </trkpt>
      <trkpt lat="43.305635" lon="-5.877261">
        <ele>195.0</ele>
        <time>2012-03-04T10:19:08Z</time>
      </trkpt>
      <trkpt lat="43.305488" lon="-5.877557">
        <ele>194.0</ele>
        <time>2012-03-04T10:19:12Z</time>
      </trkpt>
      <trkpt lat="43.30534" lon="-5.877846">
        <ele>194.0</ele>
        <time>2012-03-04T10:19:16Z</time>
      </trkpt>
      <trkpt lat="43.305185" lon="-5.878125">
        <ele>193.0</ele>
        <time>2012-03-04T10:19:20Z</time>
      </trkpt>
      <trkpt lat="43.305037" lon="-5.878414">
        <ele>193.0</ele>
        <time>2012-03-04T10:19:24Z</time>
      </trkpt>
      <trkpt lat="43.30489" lon="-5.878708">
        <ele>193.0</ele>
        <time>2012-03-04T10:19:28Z</time>
      </trkpt>
      <trkpt lat="43.304778" lon="-5.878931">
        <ele>193.0</ele>
        <time>2012-03-04T10:19:31Z</time>
      </trkpt>
      <trkpt lat="43.304588" lon="-5.879307">
        <ele>192.0</ele>
        <time>2012-03-04T10:19:36Z</time>
      </trkpt>
      <trkpt lat="43.30445" lon="-5.879619">
        <ele>192.0</ele>
        <time>2012-03-04T10:19:40Z</time>
      </trkpt>
      <trkpt lat="43.304159" lon="-5.880197">
        <ele>190.0</ele>
        <time>2012-03-04T10:19:48Z</time>
      </trkpt>
      <trkpt lat="43.303997" lon="-5.880476">
        <ele>188.0</ele>
        <time>2012-03-04T10:19:52Z</time>
      </trkpt>
      <trkpt lat="43.303828" lon="-5.880741">
        <ele>188.0</ele>
        <time>2012-03-04T10:19:56Z</time>
      </trkpt>
      <trkpt lat="43.303637" lon="-5.880992">
        <ele>188.0</ele>
        <time>2012-03-04T10:20:00Z</time>
      </trkpt>
      <trkpt lat="43.303425" lon="-5.881218">
        <ele>189.0</ele>
        <time>2012-03-04T10:20:04Z</time>
      </trkpt>
      <trkpt lat="43.303195" lon="-5.881405">
        <ele>189.0</ele>
        <time>2012-03-04T10:20:08Z</time>
      </trkpt>
      <trkpt lat="43.302957" lon="-5.881567">
        <ele>190.0</ele>
        <time>2012-03-04T10:20:12Z</time>
      </trkpt>
      <trkpt lat="43.302712" lon="-5.881699">
        <ele>191.0</ele>
        <time>2012-03-04T10:20:16Z</time>
      </trkpt>
      <trkpt lat="43.302462" lon="-5.881824">
        <ele>193.0</ele>
        <time>2012-03-04T10:20:20Z</time>
      </trkpt>
      <trkpt lat="43.302215" lon="-5.881961">
        <ele>194.0</ele>
        <time>2012-03-04T10:20:24Z</time>
      </trkpt>
      <trkpt lat="43.301971" lon="-5.882105">
        <ele>194.0</ele>
        <time>2012-03-04T10:20:28Z</time>
      </trkpt>
      <trkpt lat="43.30173" lon="-5.88226">
        <ele>194.0</ele>
        <time>2012-03-04T10:20:32Z</time>
      </trkpt>
      <trkpt lat="43.301486" lon="-5.882415">
        <ele>194.0</ele>
        <time>2012-03-04T10:20:36Z</time>
      </trkpt>
      <trkpt lat="43.30124" lon="-5.882551">
        <ele>194.0</ele>
        <time>2012-03-04T10:20:40Z</time>
      </trkpt>
      <trkpt lat="43.301003" lon="-5.882678">
        <ele>194.0</ele>
        <time>2012-03-04T10:20:44Z</time>
      </trkpt>
      <trkpt lat="43.300789" lon="-5.882782">
        <ele>194.0</ele>
        <time>2012-03-04T10:20:48Z</time>
      </trkpt>
      <trkpt lat="43.300587" lon="-5.882866">
        <ele>194.0</ele>
        <time>2012-03-04T10:20:52Z</time>
      </trkpt>
      <trkpt lat="43.300393" lon="-5.882941">
        <ele>195.0</ele>
        <time>2012-03-04T10:20:56Z</time>
      </trkpt>
      <trkpt lat="43.300204" lon="-5.882991">
        <ele>196.0</ele>
        <time>2012-03-04T10:21:00Z</time>
      </trkpt>
      <trkpt lat="43.300017" lon="-5.88304">
        <ele>196.0</ele>
        <time>2012-03-04T10:21:04Z</time>
      </trkpt>
      <trkpt lat="43.299848" lon="-5.883162">
        <ele>196.0</ele>
        <time>2012-03-04T10:21:08Z</time>
      </trkpt>
      <trkpt lat="43.299715" lon="-5.883408">
        <ele>196.0</ele>
        <time>2012-03-04T10:21:12Z</time>
      </trkpt>
      <trkpt lat="43.299626" lon="-5.883697">
        <ele>196.0</ele>
        <time>2012-03-04T10:21:16Z</time>
      </trkpt>
      <trkpt lat="43.299495" lon="-5.88396">
        <ele>197.0</ele>
        <time>2012-03-04T10:21:20Z</time>
      </trkpt>
      <trkpt lat="43.299375" lon="-5.884272">
        <ele>197.0</ele>
        <time>2012-03-04T10:21:24Z</time>
      </trkpt>
      <trkpt lat="43.299393" lon="-5.884658">
        <ele>196.0</ele>
        <time>2012-03-04T10:21:28Z</time>
      </trkpt>
      <trkpt lat="43.299611" lon="-5.884869">
        <ele>195.0</ele>
        <time>2012-03-04T10:21:32Z</time>
      </trkpt>
      <trkpt lat="43.299762" lon="-5.884989">
        <ele>195.0</ele>
        <time>2012-03-04T10:21:35Z</time>
      </trkpt>
      <trkpt lat="43.299778" lon="-5.8852">
        <ele>197.0</ele>
        <time>2012-03-04T10:21:39Z</time>
      </trkpt>
      <trkpt lat="43.299692" lon="-5.885358">
        <ele>198.0</ele>
        <time>2012-03-04T10:21:43Z</time>
      </trkpt>
      <trkpt lat="43.299662" lon="-5.885567">
        <ele>199.0</ele>
        <time>2012-03-04T10:21:47Z</time>
      </trkpt>
      <trkpt lat="43.299636" lon="-5.885781">
        <ele>198.0</ele>
        <time>2012-03-04T10:21:51Z</time>
      </trkpt>
      <trkpt lat="43.299607" lon="-5.885985">
        <ele>197.0</ele>
        <time>2012-03-04T10:21:55Z</time>
      </trkpt>
      <trkpt lat="43.299565" lon="-5.886194">
        <ele>197.0</ele>
        <time>2012-03-04T10:22:00Z</time>
      </trkpt>
      <trkpt lat="43.299531" lon="-5.886367">
        <ele>197.0</ele>
        <time>2012-03-04T10:22:04Z</time>
      </trkpt>
      <trkpt lat="43.299485" lon="-5.886543">
        <ele>198.0</ele>
        <time>2012-03-04T10:22:08Z</time>
      </trkpt>
      <trkpt lat="43.299432" lon="-5.886724">
        <ele>198.0</ele>
        <time>2012-03-04T10:22:12Z</time>
      </trkpt>
      <trkpt lat="43.299399" lon="-5.886804">
        <ele>198.0</ele>
        <time>2012-03-04T10:22:14Z</time>
      </trkpt>
      <trkpt lat="43.299305" lon="-5.887011">
        <ele>198.0</ele>
        <time>2012-03-04T10:22:20Z</time>
      </trkpt>
      <trkpt lat="43.299223" lon="-5.887183">
        <ele>198.0</ele>
        <time>2012-03-04T10:22:24Z</time>
      </trkpt>
      <trkpt lat="43.299124" lon="-5.887348">
        <ele>199.0</ele>
        <time>2012-03-04T10:22:28Z</time>
      </trkpt>
      <trkpt lat="43.299022" lon="-5.887502">
        <ele>199.0</ele>
        <time>2012-03-04T10:22:32Z</time>
      </trkpt>
      <trkpt lat="43.29893" lon="-5.887664">
        <ele>200.0</ele>
        <time>2012-03-04T10:22:36Z</time>
      </trkpt>
      <trkpt lat="43.298887" lon="-5.887741">
        <ele>200.0</ele>
        <time>2012-03-04T10:22:38Z</time>
      </trkpt>
      <trkpt lat="43.298783" lon="-5.887982">
        <ele>201.0</ele>
        <time>2012-03-04T10:22:44Z</time>
      </trkpt>
      <trkpt lat="43.29874" lon="-5.888167">
        <ele>201.0</ele>
        <time>2012-03-04T10:22:48Z</time>
      </trkpt>
      <trkpt lat="43.298711" lon="-5.888351">
        <ele>201.0</ele>
        <time>2012-03-04T10:22:52Z</time>
      </trkpt>
      <trkpt lat="43.298701" lon="-5.888445">
        <ele>201.0</ele>
        <time>2012-03-04T10:22:54Z</time>
      </trkpt>
      <trkpt lat="43.298656" lon="-5.888721">
        <ele>202.0</ele>
        <time>2012-03-04T10:23:00Z</time>
      </trkpt>
      <trkpt lat="43.298556" lon="-5.889031">
        <ele>203.0</ele>
        <time>2012-03-04T10:23:08Z</time>
      </trkpt>
      <trkpt lat="43.298516" lon="-5.88922">
        <ele>203.0</ele>
        <time>2012-03-04T10:23:12Z</time>
      </trkpt>
      <trkpt lat="43.298487" lon="-5.889409">
        <ele>204.0</ele>
        <time>2012-03-04T10:23:16Z</time>
      </trkpt>
      <trkpt lat="43.298438" lon="-5.889572">
        <ele>204.0</ele>
        <time>2012-03-04T10:23:20Z</time>
      </trkpt>
      <trkpt lat="43.298375" lon="-5.889655">
        <ele>205.0</ele>
        <time>2012-03-04T10:23:23Z</time>
      </trkpt>
      <trkpt lat="43.298321" lon="-5.889728">
        <ele>205.0</ele>
        <time>2012-03-04T10:23:26Z</time>
      </trkpt>
      <trkpt lat="43.298207" lon="-5.889889">
        <ele>206.0</ele>
        <time>2012-03-04T10:23:32Z</time>
      </trkpt>
      <trkpt lat="43.298157" lon="-5.889996">
        <ele>207.0</ele>
        <time>2012-03-04T10:23:35Z</time>
      </trkpt>
      <trkpt lat="43.298135" lon="-5.890084">
        <ele>207.0</ele>
        <time>2012-03-04T10:23:37Z</time>
      </trkpt>
      <trkpt lat="43.298082" lon="-5.890375">
        <ele>208.0</ele>
        <time>2012-03-04T10:23:43Z</time>
      </trkpt>
      <trkpt lat="43.298028" lon="-5.890557">
        <ele>209.0</ele>
        <time>2012-03-04T10:23:47Z</time>
      </trkpt>
      <trkpt lat="43.297996" lon="-5.890643">
        <ele>209.0</ele>
        <time>2012-03-04T10:23:49Z</time>
      </trkpt>
      <trkpt lat="43.297892" lon="-5.890877">
        <ele>210.0</ele>
        <time>2012-03-04T10:23:55Z</time>
      </trkpt>
      <trkpt lat="43.297826" lon="-5.891027">
        <ele>211.0</ele>
        <time>2012-03-04T10:23:59Z</time>
      </trkpt>
      <trkpt lat="43.29778" lon="-5.891136">
        <ele>211.0</ele>
        <time>2012-03-04T10:24:02Z</time>
      </trkpt>
      <trkpt lat="43.297714" lon="-5.89133">
        <ele>212.0</ele>
        <time>2012-03-04T10:24:07Z</time>
      </trkpt>
      <trkpt lat="43.297659" lon="-5.891517">
        <ele>212.0</ele>
        <time>2012-03-04T10:24:11Z</time>
      </trkpt>
      <trkpt lat="43.297632" lon="-5.891731">
        <ele>213.0</ele>
        <time>2012-03-04T10:24:15Z</time>
      </trkpt>
      <trkpt lat="43.297626" lon="-5.891933">
        <ele>213.0</ele>
        <time>2012-03-04T10:24:19Z</time>
      </trkpt>
      <trkpt lat="43.297609" lon="-5.892132">
        <ele>214.0</ele>
        <time>2012-03-04T10:24:23Z</time>
      </trkpt>
      <trkpt lat="43.297582" lon="-5.892327">
        <ele>214.0</ele>
        <time>2012-03-04T10:24:27Z</time>
      </trkpt>
      <trkpt lat="43.297545" lon="-5.892523">
        <ele>215.0</ele>
        <time>2012-03-04T10:24:31Z</time>
      </trkpt>
      <trkpt lat="43.297499" lon="-5.892705">
        <ele>216.0</ele>
        <time>2012-03-04T10:24:35Z</time>
      </trkpt>
      <trkpt lat="43.297451" lon="-5.892884">
        <ele>217.0</ele>
        <time>2012-03-04T10:24:39Z</time>
      </trkpt>
      <trkpt lat="43.297442" lon="-5.893075">
        <ele>217.0</ele>
        <time>2012-03-04T10:24:43Z</time>
      </trkpt>
      <trkpt lat="43.29745" lon="-5.893171">
        <ele>218.0</ele>
        <time>2012-03-04T10:24:45Z</time>
      </trkpt>
      <trkpt lat="43.297477" lon="-5.893495">
        <ele>224.0</ele>
        <time>2012-03-04T10:24:51Z</time>
      </trkpt>
      <trkpt lat="43.297488" lon="-5.893615">
        <ele>225.0</ele>
        <time>2012-03-04T10:24:53Z</time>
      </trkpt>
      <trkpt lat="43.297528" lon="-5.893983">
        <ele>227.0</ele>
        <time>2012-03-04T10:24:59Z</time>
      </trkpt>
      <trkpt lat="43.297614" lon="-5.894146">
        <ele>228.0</ele>
        <time>2012-03-04T10:25:03Z</time>
      </trkpt>
      <trkpt lat="43.297699" lon="-5.894098">
        <ele>229.0</ele>
        <time>2012-03-04T10:25:06Z</time>
      </trkpt>
      <trkpt lat="43.297644" lon="-5.893787">
        <ele>230.0</ele>
        <time>2012-03-04T10:25:12Z</time>
      </trkpt>
      <trkpt lat="43.297604" lon="-5.893527">
        <ele>235.0</ele>
        <time>2012-03-04T10:25:16Z</time>
      </trkpt>
      <trkpt lat="43.297576" lon="-5.893258">
        <ele>240.0</ele>
        <time>2012-03-04T10:25:20Z</time>
      </trkpt>
      <trkpt lat="43.297599" lon="-5.893042">
        <ele>242.0</ele>
        <time>2012-03-04T10:25:24Z</time>
      </trkpt>
      <trkpt lat="43.297639" lon="-5.892955">
        <ele>242.0</ele>
        <time>2012-03-04T10:25:26Z</time>
      </trkpt>
      <trkpt lat="43.297811" lon="-5.892752">
        <ele>248.0</ele>
        <time>2012-03-04T10:25:32Z</time>
      </trkpt>
      <trkpt lat="43.298075" lon="-5.89254">
        <ele>251.0</ele>
        <time>2012-03-04T10:25:40Z</time>
      </trkpt>
      <trkpt lat="43.298209" lon="-5.892425">
        <ele>251.0</ele>
        <time>2012-03-04T10:25:44Z</time>
      </trkpt>
      <trkpt lat="43.298277" lon="-5.89236">
        <ele>252.0</ele>
        <time>2012-03-04T10:25:46Z</time>
      </trkpt>
      <trkpt lat="43.298456" lon="-5.892115">
        <ele>255.0</ele>
        <time>2012-03-04T10:25:52Z</time>
      </trkpt>
      <trkpt lat="43.298541" lon="-5.891919">
        <ele>257.0</ele>
        <time>2012-03-04T10:25:56Z</time>
      </trkpt>
      <trkpt lat="43.298617" lon="-5.891724">
        <ele>258.0</ele>
        <time>2012-03-04T10:26:00Z</time>
      </trkpt>
      <trkpt lat="43.298661" lon="-5.891627">
        <ele>258.0</ele>
        <time>2012-03-04T10:26:02Z</time>
      </trkpt>
      <trkpt lat="43.298849" lon="-5.89137">
        <ele>261.0</ele>
        <time>2012-03-04T10:26:08Z</time>
      </trkpt>
      <trkpt lat="43.298914" lon="-5.891291">
        <ele>262.0</ele>
        <time>2012-03-04T10:26:10Z</time>
      </trkpt>
      <trkpt lat="43.299056" lon="-5.891155">
        <ele>263.0</ele>
        <time>2012-03-04T10:26:14Z</time>
      </trkpt>
      <trkpt lat="43.299216" lon="-5.891059">
        <ele>265.0</ele>
        <time>2012-03-04T10:26:18Z</time>
      </trkpt>
      <trkpt lat="43.299453" lon="-5.890915">
        <ele>267.0</ele>
        <time>2012-03-04T10:26:24Z</time>
      </trkpt>
      <trkpt lat="43.299609" lon="-5.89082">
        <ele>268.0</ele>
        <time>2012-03-04T10:26:28Z</time>
      </trkpt>
      <trkpt lat="43.299684" lon="-5.890773">
        <ele>269.0</ele>
        <time>2012-03-04T10:26:30Z</time>
      </trkpt>
      <trkpt lat="43.299881" lon="-5.89064">
        <ele>269.0</ele>
        <time>2012-03-04T10:26:36Z</time>
      </trkpt>
      <trkpt lat="43.299943" lon="-5.890595">
        <ele>269.0</ele>
        <time>2012-03-04T10:26:38Z</time>
      </trkpt>
      <trkpt lat="43.300124" lon="-5.890455">
        <ele>270.0</ele>
        <time>2012-03-04T10:26:44Z</time>
      </trkpt>
      <trkpt lat="43.300244" lon="-5.890351">
        <ele>270.0</ele>
        <time>2012-03-04T10:26:48Z</time>
      </trkpt>
      <trkpt lat="43.300489" lon="-5.890144">
        <ele>271.0</ele>
        <time>2012-03-04T10:26:56Z</time>
      </trkpt>
      <trkpt lat="43.300608" lon="-5.890024">
        <ele>272.0</ele>
        <time>2012-03-04T10:27:00Z</time>
      </trkpt>
      <trkpt lat="43.30072" lon="-5.889895">
        <ele>272.0</ele>
        <time>2012-03-04T10:27:04Z</time>
      </trkpt>
      <trkpt lat="43.300961" lon="-5.889619">
        <ele>277.0</ele>
        <time>2012-03-04T10:27:12Z</time>
      </trkpt>
      <trkpt lat="43.301077" lon="-5.889496">
        <ele>277.0</ele>
        <time>2012-03-04T10:27:16Z</time>
      </trkpt>
      <trkpt lat="43.301186" lon="-5.889377">
        <ele>277.0</ele>
        <time>2012-03-04T10:27:20Z</time>
      </trkpt>
      <trkpt lat="43.301295" lon="-5.889262">
        <ele>277.0</ele>
        <time>2012-03-04T10:27:24Z</time>
      </trkpt>
      <trkpt lat="43.301412" lon="-5.889151">
        <ele>278.0</ele>
        <time>2012-03-04T10:27:28Z</time>
      </trkpt>
      <trkpt lat="43.301534" lon="-5.889045">
        <ele>278.0</ele>
        <time>2012-03-04T10:27:32Z</time>
      </trkpt>
      <trkpt lat="43.301683" lon="-5.888957">
        <ele>278.0</ele>
        <time>2012-03-04T10:27:36Z</time>
      </trkpt>
      <trkpt lat="43.301859" lon="-5.88892">
        <ele>283.0</ele>
        <time>2012-03-04T10:27:40Z</time>
      </trkpt>
      <trkpt lat="43.302025" lon="-5.888871">
        <ele>283.0</ele>
        <time>2012-03-04T10:27:44Z</time>
      </trkpt>
      <trkpt lat="43.302182" lon="-5.888774">
        <ele>284.0</ele>
        <time>2012-03-04T10:27:48Z</time>
      </trkpt>
      <trkpt lat="43.302338" lon="-5.888667">
        <ele>287.0</ele>
        <time>2012-03-04T10:27:52Z</time>
      </trkpt>
      <trkpt lat="43.302475" lon="-5.888719">
        <ele>287.0</ele>
        <time>2012-03-04T10:27:56Z</time>
      </trkpt>
      <trkpt lat="43.302493" lon="-5.888821">
        <ele>288.0</ele>
        <time>2012-03-04T10:27:58Z</time>
      </trkpt>
      <trkpt lat="43.302339" lon="-5.889061">
        <ele>294.0</ele>
        <time>2012-03-04T10:28:04Z</time>
      </trkpt>
      <trkpt lat="43.302188" lon="-5.88915">
        <ele>296.0</ele>
        <time>2012-03-04T10:28:08Z</time>
      </trkpt>
      <trkpt lat="43.302038" lon="-5.889225">
        <ele>298.0</ele>
        <time>2012-03-04T10:28:12Z</time>
      </trkpt>
      <trkpt lat="43.301902" lon="-5.889307">
        <ele>299.0</ele>
        <time>2012-03-04T10:28:16Z</time>
      </trkpt>
      <trkpt lat="43.301787" lon="-5.889396">
        <ele>299.0</ele>
        <time>2012-03-04T10:28:20Z</time>
      </trkpt>
      <trkpt lat="43.301716" lon="-5.889474">
        <ele>300.0</ele>
        <time>2012-03-04T10:28:23Z</time>
      </trkpt>
      <trkpt lat="43.30166" lon="-5.889566">
        <ele>300.0</ele>
        <time>2012-03-04T10:28:26Z</time>
      </trkpt>
      <trkpt lat="43.301556" lon="-5.889804">
        <ele>300.0</ele>
        <time>2012-03-04T10:28:32Z</time>
      </trkpt>
      <trkpt lat="43.301482" lon="-5.889959">
        <ele>301.0</ele>
        <time>2012-03-04T10:28:36Z</time>
      </trkpt>
      <trkpt lat="43.301409" lon="-5.890124">
        <ele>302.0</ele>
        <time>2012-03-04T10:28:40Z</time>
      </trkpt>
      <trkpt lat="43.301326" lon="-5.890293">
        <ele>302.0</ele>
        <time>2012-03-04T10:28:44Z</time>
      </trkpt>
      <trkpt lat="43.30124" lon="-5.890463">
        <ele>303.0</ele>
        <time>2012-03-04T10:28:48Z</time>
      </trkpt>
      <trkpt lat="43.301058" lon="-5.890791">
        <ele>307.0</ele>
        <time>2012-03-04T10:28:56Z</time>
      </trkpt>
      <trkpt lat="43.300973" lon="-5.890973">
        <ele>310.0</ele>
        <time>2012-03-04T10:29:00Z</time>
      </trkpt>
      <trkpt lat="43.300885" lon="-5.891152">
        <ele>311.0</ele>
        <time>2012-03-04T10:29:04Z</time>
      </trkpt>
      <trkpt lat="43.30077" lon="-5.891288">
        <ele>312.0</ele>
        <time>2012-03-04T10:29:08Z</time>
      </trkpt>
      <trkpt lat="43.300673" lon="-5.891427">
        <ele>312.0</ele>
        <time>2012-03-04T10:29:12Z</time>
      </trkpt>
      <trkpt lat="43.300587" lon="-5.891585">
        <ele>312.0</ele>
        <time>2012-03-04T10:29:16Z</time>
      </trkpt>
      <trkpt lat="43.300512" lon="-5.89175">
        <ele>312.0</ele>
        <time>2012-03-04T10:29:20Z</time>
      </trkpt>
      <trkpt lat="43.300438" lon="-5.891926">
        <ele>313.0</ele>
        <time>2012-03-04T10:29:24Z</time>
      </trkpt>
      <trkpt lat="43.300367" lon="-5.892098">
        <ele>313.0</ele>
        <time>2012-03-04T10:29:28Z</time>
      </trkpt>
      <trkpt lat="43.300304" lon="-5.892262">
        <ele>314.0</ele>
        <time>2012-03-04T10:29:32Z</time>
      </trkpt>
      <trkpt lat="43.300274" lon="-5.892339">
        <ele>314.0</ele>
        <time>2012-03-04T10:29:34Z</time>
      </trkpt>
      <trkpt lat="43.300203" lon="-5.89253">
        <ele>315.0</ele>
        <time>2012-03-04T10:29:39Z</time>
      </trkpt>
      <trkpt lat="43.300144" lon="-5.89269">
        <ele>316.0</ele>
        <time>2012-03-04T10:29:43Z</time>
      </trkpt>
      <trkpt lat="43.300083" lon="-5.89286">
        <ele>316.0</ele>
        <time>2012-03-04T10:29:47Z</time>
      </trkpt>
      <trkpt lat="43.300028" lon="-5.893043">
        <ele>317.0</ele>
        <time>2012-03-04T10:29:51Z</time>
      </trkpt>
      <trkpt lat="43.299978" lon="-5.893231">
        <ele>318.0</ele>
        <time>2012-03-04T10:29:55Z</time>
      </trkpt>
      <trkpt lat="43.299935" lon="-5.893422">
        <ele>319.0</ele>
        <time>2012-03-04T10:29:59Z</time>
      </trkpt>
      <trkpt lat="43.299887" lon="-5.893623">
        <ele>323.0</ele>
        <time>2012-03-04T10:30:03Z</time>
      </trkpt>
      <trkpt lat="43.299834" lon="-5.893823">
        <ele>325.0</ele>
        <time>2012-03-04T10:30:07Z</time>
      </trkpt>
      <trkpt lat="43.299781" lon="-5.894017">
        <ele>326.0</ele>
        <time>2012-03-04T10:30:11Z</time>
      </trkpt>
      <trkpt lat="43.29973" lon="-5.894209">
        <ele>326.0</ele>
        <time>2012-03-04T10:30:15Z</time>
      </trkpt>
      <trkpt lat="43.299693" lon="-5.894402">
        <ele>327.0</ele>
        <time>2012-03-04T10:30:19Z</time>
      </trkpt>
      <trkpt lat="43.29967" lon="-5.894498">
        <ele>327.0</ele>
        <time>2012-03-04T10:30:21Z</time>
      </trkpt>
      <trkpt lat="43.299613" lon="-5.894684">
        <ele>328.0</ele>
        <time>2012-03-04T10:30:25Z</time>
      </trkpt>
      <trkpt lat="43.299522" lon="-5.894971">
        <ele>329.0</ele>
        <time>2012-03-04T10:30:31Z</time>
      </trkpt>
      <trkpt lat="43.299488" lon="-5.895055">
        <ele>329.0</ele>
        <time>2012-03-04T10:30:33Z</time>
      </trkpt>
      <trkpt lat="43.299379" lon="-5.895287">
        <ele>330.0</ele>
        <time>2012-03-04T10:30:39Z</time>
      </trkpt>
      <trkpt lat="43.299291" lon="-5.895442">
        <ele>331.0</ele>
        <time>2012-03-04T10:30:43Z</time>
      </trkpt>
      <trkpt lat="43.299195" lon="-5.895586">
        <ele>332.0</ele>
        <time>2012-03-04T10:30:47Z</time>
      </trkpt>
      <trkpt lat="43.29911" lon="-5.895732">
        <ele>333.0</ele>
        <time>2012-03-04T10:30:51Z</time>
      </trkpt>
      <trkpt lat="43.299039" lon="-5.895882">
        <ele>334.0</ele>
        <time>2012-03-04T10:30:55Z</time>
      </trkpt>
      <trkpt lat="43.298975" lon="-5.896084">
        <ele>335.0</ele>
        <time>2012-03-04T10:31:00Z</time>
      </trkpt>
      <trkpt lat="43.298955" lon="-5.896168">
        <ele>336.0</ele>
        <time>2012-03-04T10:31:02Z</time>
      </trkpt>
      <trkpt lat="43.298905" lon="-5.896509">
        <ele>338.0</ele>
        <time>2012-03-04T10:31:11Z</time>
      </trkpt>
      <trkpt lat="43.298941" lon="-5.896621">
        <ele>339.0</ele>
        <time>2012-03-04T10:31:14Z</time>
      </trkpt>
      <trkpt lat="43.299025" lon="-5.896838">
        <ele>340.0</ele>
        <time>2012-03-04T10:31:20Z</time>
      </trkpt>
      <trkpt lat="43.299025" lon="-5.896958">
        <ele>341.0</ele>
        <time>2012-03-04T10:31:23Z</time>
      </trkpt>
      <trkpt lat="43.299018" lon="-5.897082">
        <ele>341.0</ele>
        <time>2012-03-04T10:31:26Z</time>
      </trkpt>
      <trkpt lat="43.298995" lon="-5.897355">
        <ele>342.0</ele>
        <time>2012-03-04T10:31:32Z</time>
      </trkpt>
      <trkpt lat="43.298991" lon="-5.897446">
        <ele>343.0</ele>
        <time>2012-03-04T10:31:34Z</time>
      </trkpt>
      <trkpt lat="43.298962" lon="-5.89772">
        <ele>344.0</ele>
        <time>2012-03-04T10:31:40Z</time>
      </trkpt>
      <trkpt lat="43.298907" lon="-5.897893">
        <ele>345.0</ele>
        <time>2012-03-04T10:31:44Z</time>
      </trkpt>
      <trkpt lat="43.298846" lon="-5.898062">
        <ele>346.0</ele>
        <time>2012-03-04T10:31:48Z</time>
      </trkpt>
      <trkpt lat="43.29871" lon="-5.898375">
        <ele>347.0</ele>
        <time>2012-03-04T10:31:56Z</time>
      </trkpt>
      <trkpt lat="43.298659" lon="-5.898562">
        <ele>348.0</ele>
        <time>2012-03-04T10:32:00Z</time>
      </trkpt>
      <trkpt lat="43.298639" lon="-5.898754">
        <ele>348.0</ele>
        <time>2012-03-04T10:32:04Z</time>
      </trkpt>
      <trkpt lat="43.298601" lon="-5.898955">
        <ele>349.0</ele>
        <time>2012-03-04T10:32:08Z</time>
      </trkpt>
      <trkpt lat="43.298548" lon="-5.899161">
        <ele>350.0</ele>
        <time>2012-03-04T10:32:12Z</time>
      </trkpt>
      <trkpt lat="43.298469" lon="-5.899329">
        <ele>351.0</ele>
        <time>2012-03-04T10:32:16Z</time>
      </trkpt>
      <trkpt lat="43.298334" lon="-5.899463">
        <ele>352.0</ele>
        <time>2012-03-04T10:32:20Z</time>
      </trkpt>
      <trkpt lat="43.29818" lon="-5.899542">
        <ele>354.0</ele>
        <time>2012-03-04T10:32:24Z</time>
      </trkpt>
      <trkpt lat="43.298039" lon="-5.899633">
        <ele>356.0</ele>
        <time>2012-03-04T10:32:28Z</time>
      </trkpt>
      <trkpt lat="43.297912" lon="-5.899752">
        <ele>357.0</ele>
        <time>2012-03-04T10:32:32Z</time>
      </trkpt>
      <trkpt lat="43.297805" lon="-5.899888">
        <ele>359.0</ele>
        <time>2012-03-04T10:32:36Z</time>
      </trkpt>
      <trkpt lat="43.297707" lon="-5.900028">
        <ele>361.0</ele>
        <time>2012-03-04T10:32:40Z</time>
      </trkpt>
      <trkpt lat="43.297611" lon="-5.900175">
        <ele>362.0</ele>
        <time>2012-03-04T10:32:44Z</time>
      </trkpt>
      <trkpt lat="43.297524" lon="-5.900338">
        <ele>363.0</ele>
        <time>2012-03-04T10:32:48Z</time>
      </trkpt>
      <trkpt lat="43.297454" lon="-5.900515">
        <ele>365.0</ele>
        <time>2012-03-04T10:32:52Z</time>
      </trkpt>
      <trkpt lat="43.297397" lon="-5.900691">
        <ele>366.0</ele>
        <time>2012-03-04T10:32:56Z</time>
      </trkpt>
      <trkpt lat="43.297295" lon="-5.901057">
        <ele>369.0</ele>
        <time>2012-03-04T10:33:04Z</time>
      </trkpt>
      <trkpt lat="43.297253" lon="-5.901225">
        <ele>370.0</ele>
        <time>2012-03-04T10:33:08Z</time>
      </trkpt>
      <trkpt lat="43.297206" lon="-5.901393">
        <ele>371.0</ele>
        <time>2012-03-04T10:33:12Z</time>
      </trkpt>
      <trkpt lat="43.29712" lon="-5.901559">
        <ele>372.0</ele>
        <time>2012-03-04T10:33:16Z</time>
      </trkpt>
      <trkpt lat="43.297021" lon="-5.901727">
        <ele>373.0</ele>
        <time>2012-03-04T10:33:20Z</time>
      </trkpt>
      <trkpt lat="43.296977" lon="-5.901809">
        <ele>374.0</ele>
        <time>2012-03-04T10:33:22Z</time>
      </trkpt>
      <trkpt lat="43.296868" lon="-5.902062">
        <ele>376.0</ele>
        <time>2012-03-04T10:33:28Z</time>
      </trkpt>
      <trkpt lat="43.296802" lon="-5.902223">
        <ele>377.0</ele>
        <time>2012-03-04T10:33:32Z</time>
      </trkpt>
      <trkpt lat="43.296768" lon="-5.902301">
        <ele>377.0</ele>
        <time>2012-03-04T10:33:34Z</time>
      </trkpt>
      <trkpt lat="43.296677" lon="-5.902544">
        <ele>379.0</ele>
        <time>2012-03-04T10:33:40Z</time>
      </trkpt>
      <trkpt lat="43.296614" lon="-5.902706">
        <ele>380.0</ele>
        <time>2012-03-04T10:33:44Z</time>
      </trkpt>
      <trkpt lat="43.296585" lon="-5.90279">
        <ele>381.0</ele>
        <time>2012-03-04T10:33:46Z</time>
      </trkpt>
      <trkpt lat="43.296502" lon="-5.903054">
        <ele>382.0</ele>
        <time>2012-03-04T10:33:52Z</time>
      </trkpt>
      <trkpt lat="43.296413" lon="-5.903314">
        <ele>383.0</ele>
        <time>2012-03-04T10:33:58Z</time>
      </trkpt>
      <trkpt lat="43.296296" lon="-5.903581">
        <ele>385.0</ele>
        <time>2012-03-04T10:34:04Z</time>
      </trkpt>
      <trkpt lat="43.296201" lon="-5.903749">
        <ele>386.0</ele>
        <time>2012-03-04T10:34:08Z</time>
      </trkpt>
      <trkpt lat="43.296009" lon="-5.904036">
        <ele>389.0</ele>
        <time>2012-03-04T10:34:16Z</time>
      </trkpt>
      <trkpt lat="43.295956" lon="-5.904134">
        <ele>390.0</ele>
        <time>2012-03-04T10:34:19Z</time>
      </trkpt>
      <trkpt lat="43.295918" lon="-5.904246">
        <ele>391.0</ele>
        <time>2012-03-04T10:34:22Z</time>
      </trkpt>
      <trkpt lat="43.295854" lon="-5.904479">
        <ele>394.0</ele>
        <time>2012-03-04T10:34:28Z</time>
      </trkpt>
      <trkpt lat="43.295811" lon="-5.904588">
        <ele>395.0</ele>
        <time>2012-03-04T10:34:31Z</time>
      </trkpt>
      <trkpt lat="43.295764" lon="-5.904689">
        <ele>396.0</ele>
        <time>2012-03-04T10:34:34Z</time>
      </trkpt>
      <trkpt lat="43.295688" lon="-5.904874">
        <ele>399.0</ele>
        <time>2012-03-04T10:34:39Z</time>
      </trkpt>
      <trkpt lat="43.295634" lon="-5.905036">
        <ele>400.0</ele>
        <time>2012-03-04T10:34:43Z</time>
      </trkpt>
      <trkpt lat="43.295587" lon="-5.9052">
        <ele>402.0</ele>
        <time>2012-03-04T10:34:47Z</time>
      </trkpt>
      <trkpt lat="43.295549" lon="-5.905375">
        <ele>404.0</ele>
        <time>2012-03-04T10:34:51Z</time>
      </trkpt>
      <trkpt lat="43.295508" lon="-5.905552">
        <ele>405.0</ele>
        <time>2012-03-04T10:34:55Z</time>
      </trkpt>
      <trkpt lat="43.295409" lon="-5.905904">
        <ele>408.0</ele>
        <time>2012-03-04T10:35:03Z</time>
      </trkpt>
      <trkpt lat="43.295359" lon="-5.906071">
        <ele>410.0</ele>
        <time>2012-03-04T10:35:07Z</time>
      </trkpt>
      <trkpt lat="43.295319" lon="-5.906177">
        <ele>411.0</ele>
        <time>2012-03-04T10:35:10Z</time>
      </trkpt>
      <trkpt lat="43.295243" lon="-5.906348">
        <ele>413.0</ele>
        <time>2012-03-04T10:35:16Z</time>
      </trkpt>
      <trkpt lat="43.295195" lon="-5.906436">
        <ele>414.0</ele>
        <time>2012-03-04T10:35:19Z</time>
      </trkpt>
      <trkpt lat="43.295151" lon="-5.906525">
        <ele>416.0</ele>
        <time>2012-03-04T10:35:22Z</time>
      </trkpt>
      <trkpt lat="43.295079" lon="-5.906714">
        <ele>418.0</ele>
        <time>2012-03-04T10:35:28Z</time>
      </trkpt>
      <trkpt lat="43.295056" lon="-5.906812">
        <ele>419.0</ele>
        <time>2012-03-04T10:35:31Z</time>
      </trkpt>
      <trkpt lat="43.295038" lon="-5.90692">
        <ele>421.0</ele>
        <time>2012-03-04T10:35:34Z</time>
      </trkpt>
      <trkpt lat="43.295024" lon="-5.907162">
        <ele>423.0</ele>
        <time>2012-03-04T10:35:40Z</time>
      </trkpt>
      <trkpt lat="43.295024" lon="-5.90728">
        <ele>424.0</ele>
        <time>2012-03-04T10:35:43Z</time>
      </trkpt>
      <trkpt lat="43.295023" lon="-5.907386">
        <ele>425.0</ele>
        <time>2012-03-04T10:35:46Z</time>
      </trkpt>
      <trkpt lat="43.295023" lon="-5.907598">
        <ele>427.0</ele>
        <time>2012-03-04T10:35:52Z</time>
      </trkpt>
      <trkpt lat="43.295022" lon="-5.90771">
        <ele>429.0</ele>
        <time>2012-03-04T10:35:55Z</time>
      </trkpt>
      <trkpt lat="43.295024" lon="-5.907822">
        <ele>430.0</ele>
        <time>2012-03-04T10:35:58Z</time>
      </trkpt>
      <trkpt lat="43.295018" lon="-5.908064">
        <ele>432.0</ele>
        <time>2012-03-04T10:36:04Z</time>
      </trkpt>
      <trkpt lat="43.29501" lon="-5.90819">
        <ele>433.0</ele>
        <time>2012-03-04T10:36:07Z</time>
      </trkpt>
      <trkpt lat="43.29497" lon="-5.908361">
        <ele>434.0</ele>
        <time>2012-03-04T10:36:11Z</time>
      </trkpt>
      <trkpt lat="43.29493" lon="-5.908528">
        <ele>435.0</ele>
        <time>2012-03-04T10:36:15Z</time>
      </trkpt>
      <trkpt lat="43.294887" lon="-5.9087">
        <ele>437.0</ele>
        <time>2012-03-04T10:36:19Z</time>
      </trkpt>
      <trkpt lat="43.294835" lon="-5.908869">
        <ele>438.0</ele>
        <time>2012-03-04T10:36:23Z</time>
      </trkpt>
      <trkpt lat="43.294774" lon="-5.90903">
        <ele>439.0</ele>
        <time>2012-03-04T10:36:27Z</time>
      </trkpt>
      <trkpt lat="43.294706" lon="-5.909224">
        <ele>441.0</ele>
        <time>2012-03-04T10:36:32Z</time>
      </trkpt>
      <trkpt lat="43.294692" lon="-5.909343">
        <ele>441.0</ele>
        <time>2012-03-04T10:36:35Z</time>
      </trkpt>
      <trkpt lat="43.294691" lon="-5.909458">
        <ele>442.0</ele>
        <time>2012-03-04T10:36:38Z</time>
      </trkpt>
      <trkpt lat="43.29468" lon="-5.9097">
        <ele>444.0</ele>
        <time>2012-03-04T10:36:44Z</time>
      </trkpt>
      <trkpt lat="43.294658" lon="-5.909821">
        <ele>445.0</ele>
        <time>2012-03-04T10:36:47Z</time>
      </trkpt>
      <trkpt lat="43.294627" lon="-5.909926">
        <ele>446.0</ele>
        <time>2012-03-04T10:36:50Z</time>
      </trkpt>
      <trkpt lat="43.294554" lon="-5.910132">
        <ele>447.0</ele>
        <time>2012-03-04T10:36:56Z</time>
      </trkpt>
      <trkpt lat="43.294507" lon="-5.910231">
        <ele>448.0</ele>
        <time>2012-03-04T10:36:59Z</time>
      </trkpt>
      <trkpt lat="43.294429" lon="-5.910429">
        <ele>456.0</ele>
        <time>2012-03-04T10:37:04Z</time>
      </trkpt>
      <trkpt lat="43.294399" lon="-5.910529">
        <ele>460.0</ele>
        <time>2012-03-04T10:37:06Z</time>
      </trkpt>
      <trkpt lat="43.294294" lon="-5.910865">
        <ele>466.0</ele>
        <time>2012-03-04T10:37:12Z</time>
      </trkpt>
      <trkpt lat="43.294207" lon="-5.911154">
        <ele>467.0</ele>
        <time>2012-03-04T10:37:16Z</time>
      </trkpt>
      <trkpt lat="43.294094" lon="-5.911512">
        <ele>468.0</ele>
        <time>2012-03-04T10:37:20Z</time>
      </trkpt>
      <trkpt lat="43.293953" lon="-5.911928">
        <ele>468.0</ele>
        <time>2012-03-04T10:37:24Z</time>
      </trkpt>
      <trkpt lat="43.293899" lon="-5.912383">
        <ele>468.0</ele>
        <time>2012-03-04T10:37:28Z</time>
      </trkpt>
      <trkpt lat="43.29389" lon="-5.912796">
        <ele>468.0</ele>
        <time>2012-03-04T10:37:32Z</time>
      </trkpt>
      <trkpt lat="43.293844" lon="-5.913168">
        <ele>468.0</ele>
        <time>2012-03-04T10:37:36Z</time>
      </trkpt>
      <trkpt lat="43.293776" lon="-5.913512">
        <ele>468.0</ele>
        <time>2012-03-04T10:37:40Z</time>
      </trkpt>
      <trkpt lat="43.293713" lon="-5.913842">
        <ele>468.0</ele>
        <time>2012-03-04T10:37:44Z</time>
      </trkpt>
      <trkpt lat="43.293653" lon="-5.914168">
        <ele>469.0</ele>
        <time>2012-03-04T10:37:48Z</time>
      </trkpt>
      <trkpt lat="43.293601" lon="-5.914498">
        <ele>469.0</ele>
        <time>2012-03-04T10:37:52Z</time>
      </trkpt>
      <trkpt lat="43.293575" lon="-5.914833">
        <ele>469.0</ele>
        <time>2012-03-04T10:37:56Z</time>
      </trkpt>
      <trkpt lat="43.293582" lon="-5.915167">
        <ele>468.0</ele>
        <time>2012-03-04T10:38:00Z</time>
      </trkpt>
      <trkpt lat="43.293605" lon="-5.915516">
        <ele>468.0</ele>
        <time>2012-03-04T10:38:04Z</time>
      </trkpt>
      <trkpt lat="43.293657" lon="-5.915878">
        <ele>467.0</ele>
        <time>2012-03-04T10:38:08Z</time>
      </trkpt>
      <trkpt lat="43.293748" lon="-5.916241">
        <ele>466.0</ele>
        <time>2012-03-04T10:38:12Z</time>
      </trkpt>
      <trkpt lat="43.293876" lon="-5.916598">
        <ele>466.0</ele>
        <time>2012-03-04T10:38:16Z</time>
      </trkpt>
      <trkpt lat="43.294084" lon="-5.916874">
        <ele>466.0</ele>
        <time>2012-03-04T10:38:20Z</time>
      </trkpt>
      <trkpt lat="43.294299" lon="-5.917135">
        <ele>466.0</ele>
        <time>2012-03-04T10:38:24Z</time>
      </trkpt>
      <trkpt lat="43.294278" lon="-5.917503">
        <ele>467.0</ele>
        <time>2012-03-04T10:38:28Z</time>
      </trkpt>
      <trkpt lat="43.294186" lon="-5.917869">
        <ele>467.0</ele>
        <time>2012-03-04T10:38:32Z</time>
      </trkpt>
      <trkpt lat="43.294078" lon="-5.918231">
        <ele>466.0</ele>
        <time>2012-03-04T10:38:36Z</time>
      </trkpt>
      <trkpt lat="43.29397" lon="-5.918593">
        <ele>466.0</ele>
        <time>2012-03-04T10:38:40Z</time>
      </trkpt>
      <trkpt lat="43.293855" lon="-5.918975">
        <ele>465.0</ele>
        <time>2012-03-04T10:38:44Z</time>
      </trkpt>
      <trkpt lat="43.293704" lon="-5.919328">
        <ele>465.0</ele>
        <time>2012-03-04T10:38:48Z</time>
      </trkpt>
      <trkpt lat="43.293516" lon="-5.919366">
        <ele>465.0</ele>
        <time>2012-03-04T10:38:51Z</time>
      </trkpt>
      <trkpt lat="43.293202" lon="-5.919368">
        <ele>465.0</ele>
        <time>2012-03-04T10:38:56Z</time>
      </trkpt>
      <trkpt lat="43.292946" lon="-5.919441">
        <ele>464.0</ele>
        <time>2012-03-04T10:39:00Z</time>
      </trkpt>
      <trkpt lat="43.292764" lon="-5.919508">
        <ele>464.0</ele>
        <time>2012-03-04T10:39:03Z</time>
      </trkpt>
      <trkpt lat="43.292473" lon="-5.919675">
        <ele>464.0</ele>
        <time>2012-03-04T10:39:08Z</time>
      </trkpt>
      <trkpt lat="43.292247" lon="-5.919838">
        <ele>464.0</ele>
        <time>2012-03-04T10:39:12Z</time>
      </trkpt>
      <trkpt lat="43.292025" lon="-5.920005">
        <ele>464.0</ele>
        <time>2012-03-04T10:39:16Z</time>
      </trkpt>
      <trkpt lat="43.291806" lon="-5.920178">
        <ele>465.0</ele>
        <time>2012-03-04T10:39:20Z</time>
      </trkpt>
      <trkpt lat="43.291583" lon="-5.920354">
        <ele>465.0</ele>
        <time>2012-03-04T10:39:24Z</time>
      </trkpt>
      <trkpt lat="43.291359" lon="-5.920525">
        <ele>465.0</ele>
        <time>2012-03-04T10:39:28Z</time>
      </trkpt>
      <trkpt lat="43.291229" lon="-5.920699">
        <ele>465.0</ele>
        <time>2012-03-04T10:39:31Z</time>
      </trkpt>
      <trkpt lat="43.291049" lon="-5.921056">
        <ele>465.0</ele>
        <time>2012-03-04T10:39:36Z</time>
      </trkpt>
      <trkpt lat="43.290947" lon="-5.921277">
        <ele>466.0</ele>
        <time>2012-03-04T10:39:39Z</time>
      </trkpt>
      <trkpt lat="43.290812" lon="-5.921552">
        <ele>467.0</ele>
        <time>2012-03-04T10:39:43Z</time>
      </trkpt>
      <trkpt lat="43.290689" lon="-5.921818">
        <ele>467.0</ele>
        <time>2012-03-04T10:39:47Z</time>
      </trkpt>
      <trkpt lat="43.29057" lon="-5.922067">
        <ele>467.0</ele>
        <time>2012-03-04T10:39:51Z</time>
      </trkpt>
      <trkpt lat="43.290448" lon="-5.92231">
        <ele>468.0</ele>
        <time>2012-03-04T10:39:55Z</time>
      </trkpt>
      <trkpt lat="43.290361" lon="-5.922572">
        <ele>468.0</ele>
        <time>2012-03-04T10:39:59Z</time>
      </trkpt>
      <trkpt lat="43.290389" lon="-5.922832">
        <ele>468.0</ele>
        <time>2012-03-04T10:40:03Z</time>
      </trkpt>
      <trkpt lat="43.290435" lon="-5.923028">
        <ele>468.0</ele>
        <time>2012-03-04T10:40:07Z</time>
      </trkpt>
      <trkpt lat="43.290459" lon="-5.923209">
        <ele>469.0</ele>
        <time>2012-03-04T10:40:11Z</time>
      </trkpt>
      <trkpt lat="43.290449" lon="-5.923392">
        <ele>469.0</ele>
        <time>2012-03-04T10:40:15Z</time>
      </trkpt>
      <trkpt lat="43.290422" lon="-5.923567">
        <ele>469.0</ele>
        <time>2012-03-04T10:40:19Z</time>
      </trkpt>
      <trkpt lat="43.29035" lon="-5.923704">
        <ele>469.0</ele>
        <time>2012-03-04T10:40:23Z</time>
      </trkpt>
      <trkpt lat="43.290215" lon="-5.923774">
        <ele>469.0</ele>
        <time>2012-03-04T10:40:27Z</time>
      </trkpt>
      <trkpt lat="43.290065" lon="-5.923864">
        <ele>470.0</ele>
        <time>2012-03-04T10:40:32Z</time>
      </trkpt>
      <trkpt lat="43.289997" lon="-5.923935">
        <ele>470.0</ele>
        <time>2012-03-04T10:40:35Z</time>
      </trkpt>
      <trkpt lat="43.289934" lon="-5.924019">
        <ele>471.0</ele>
        <time>2012-03-04T10:40:38Z</time>
      </trkpt>
      <trkpt lat="43.289828" lon="-5.924207">
        <ele>471.0</ele>
        <time>2012-03-04T10:40:44Z</time>
      </trkpt>
      <trkpt lat="43.28979" lon="-5.924317">
        <ele>472.0</ele>
        <time>2012-03-04T10:40:47Z</time>
      </trkpt>
      <trkpt lat="43.289779" lon="-5.92443">
        <ele>472.0</ele>
        <time>2012-03-04T10:40:50Z</time>
      </trkpt>
      <trkpt lat="43.289792" lon="-5.92465">
        <ele>473.0</ele>
        <time>2012-03-04T10:40:56Z</time>
      </trkpt>
      <trkpt lat="43.289805" lon="-5.924758">
        <ele>473.0</ele>
        <time>2012-03-04T10:40:59Z</time>
      </trkpt>
      <trkpt lat="43.289794" lon="-5.924961">
        <ele>474.0</ele>
        <time>2012-03-04T10:41:04Z</time>
      </trkpt>
      <trkpt lat="43.289682" lon="-5.925061">
        <ele>475.0</ele>
        <time>2012-03-04T10:41:08Z</time>
      </trkpt>
      <trkpt lat="43.289568" lon="-5.925142">
        <ele>476.0</ele>
        <time>2012-03-04T10:41:12Z</time>
      </trkpt>
      <trkpt lat="43.289509" lon="-5.925234">
        <ele>476.0</ele>
        <time>2012-03-04T10:41:15Z</time>
      </trkpt>
      <trkpt lat="43.289425" lon="-5.925414">
        <ele>477.0</ele>
        <time>2012-03-04T10:41:20Z</time>
      </trkpt>
      <trkpt lat="43.28937" lon="-5.925574">
        <ele>478.0</ele>
        <time>2012-03-04T10:41:24Z</time>
      </trkpt>
      <trkpt lat="43.289329" lon="-5.925689">
        <ele>479.0</ele>
        <time>2012-03-04T10:41:27Z</time>
      </trkpt>
      <trkpt lat="43.289287" lon="-5.925803">
        <ele>480.0</ele>
        <time>2012-03-04T10:41:30Z</time>
      </trkpt>
      <trkpt lat="43.289199" lon="-5.926018">
        <ele>481.0</ele>
        <time>2012-03-04T10:41:36Z</time>
      </trkpt>
      <trkpt lat="43.289159" lon="-5.926124">
        <ele>482.0</ele>
        <time>2012-03-04T10:41:39Z</time>
      </trkpt>
      <trkpt lat="43.289121" lon="-5.92624">
        <ele>482.0</ele>
        <time>2012-03-04T10:41:42Z</time>
      </trkpt>
      <trkpt lat="43.28905" lon="-5.926432">
        <ele>484.0</ele>
        <time>2012-03-04T10:41:47Z</time>
      </trkpt>
      <trkpt lat="43.288976" lon="-5.926624">
        <ele>485.0</ele>
        <time>2012-03-04T10:41:52Z</time>
      </trkpt>
      <trkpt lat="43.288927" lon="-5.92673">
        <ele>486.0</ele>
        <time>2012-03-04T10:41:55Z</time>
      </trkpt>
      <trkpt lat="43.288879" lon="-5.926832">
        <ele>487.0</ele>
        <time>2012-03-04T10:41:58Z</time>
      </trkpt>
      <trkpt lat="43.288797" lon="-5.927033">
        <ele>488.0</ele>
        <time>2012-03-04T10:42:04Z</time>
      </trkpt>
      <trkpt lat="43.28877" lon="-5.927149">
        <ele>489.0</ele>
        <time>2012-03-04T10:42:07Z</time>
      </trkpt>
      <trkpt lat="43.288756" lon="-5.927266">
        <ele>490.0</ele>
        <time>2012-03-04T10:42:10Z</time>
      </trkpt>
      <trkpt lat="43.288714" lon="-5.927494">
        <ele>492.0</ele>
        <time>2012-03-04T10:42:16Z</time>
      </trkpt>
      <trkpt lat="43.288695" lon="-5.927614">
        <ele>493.0</ele>
        <time>2012-03-04T10:42:19Z</time>
      </trkpt>
      <trkpt lat="43.288676" lon="-5.927728">
        <ele>494.0</ele>
        <time>2012-03-04T10:42:22Z</time>
      </trkpt>
      <trkpt lat="43.288637" lon="-5.927959">
        <ele>496.0</ele>
        <time>2012-03-04T10:42:28Z</time>
      </trkpt>
      <trkpt lat="43.288613" lon="-5.92808">
        <ele>497.0</ele>
        <time>2012-03-04T10:42:31Z</time>
      </trkpt>
      <trkpt lat="43.288587" lon="-5.928197">
        <ele>498.0</ele>
        <time>2012-03-04T10:42:34Z</time>
      </trkpt>
      <trkpt lat="43.288533" lon="-5.928428">
        <ele>499.0</ele>
        <time>2012-03-04T10:42:40Z</time>
      </trkpt>
      <trkpt lat="43.288508" lon="-5.928546">
        <ele>500.0</ele>
        <time>2012-03-04T10:42:43Z</time>
      </trkpt>
      <trkpt lat="43.28848" lon="-5.928667">
        <ele>501.0</ele>
        <time>2012-03-04T10:42:46Z</time>
      </trkpt>
      <trkpt lat="43.288426" lon="-5.928909">
        <ele>503.0</ele>
        <time>2012-03-04T10:42:52Z</time>
      </trkpt>
      <trkpt lat="43.288396" lon="-5.929031">
        <ele>504.0</ele>
        <time>2012-03-04T10:42:55Z</time>
      </trkpt>
      <trkpt lat="43.288353" lon="-5.929211">
        <ele>505.0</ele>
        <time>2012-03-04T10:42:59Z</time>
      </trkpt>
      <trkpt lat="43.288258" lon="-5.929407">
        <ele>513.0</ele>
        <time>2012-03-04T10:43:03Z</time>
      </trkpt>
      <trkpt lat="43.288124" lon="-5.929613">
        <ele>517.0</ele>
        <time>2012-03-04T10:43:07Z</time>
      </trkpt>
      <trkpt lat="43.288172" lon="-5.93001">
        <ele>519.0</ele>
        <time>2012-03-04T10:43:12Z</time>
      </trkpt>
      <trkpt lat="43.288069" lon="-5.93035">
        <ele>520.0</ele>
        <time>2012-03-04T10:43:16Z</time>
      </trkpt>
      <trkpt lat="43.287951" lon="-5.93071">
        <ele>520.0</ele>
        <time>2012-03-04T10:43:20Z</time>
      </trkpt>
      <trkpt lat="43.287923" lon="-5.931108">
        <ele>520.0</ele>
        <time>2012-03-04T10:43:24Z</time>
      </trkpt>
      <trkpt lat="43.287865" lon="-5.931364">
        <ele>519.0</ele>
        <time>2012-03-04T10:43:27Z</time>
      </trkpt>
      <trkpt lat="43.287752" lon="-5.931603">
        <ele>520.0</ele>
        <time>2012-03-04T10:43:31Z</time>
      </trkpt>
      <trkpt lat="43.287669" lon="-5.931763">
        <ele>520.0</ele>
        <time>2012-03-04T10:43:35Z</time>
      </trkpt>
      <trkpt lat="43.287628" lon="-5.931834">
        <ele>520.0</ele>
        <time>2012-03-04T10:43:37Z</time>
      </trkpt>
      <trkpt lat="43.28755" lon="-5.931976">
        <ele>520.0</ele>
        <time>2012-03-04T10:43:41Z</time>
      </trkpt>
      <trkpt lat="43.287464" lon="-5.932243">
        <ele>520.0</ele>
        <time>2012-03-04T10:43:48Z</time>
      </trkpt>
      <trkpt lat="43.28744" lon="-5.932358">
        <ele>521.0</ele>
        <time>2012-03-04T10:43:51Z</time>
      </trkpt>
      <trkpt lat="43.287397" lon="-5.932681">
        <ele>522.0</ele>
        <time>2012-03-04T10:44:00Z</time>
      </trkpt>
      <trkpt lat="43.287392" lon="-5.932795">
        <ele>522.0</ele>
        <time>2012-03-04T10:44:03Z</time>
      </trkpt>
      <trkpt lat="43.287388" lon="-5.932908">
        <ele>523.0</ele>
        <time>2012-03-04T10:44:06Z</time>
      </trkpt>
      <trkpt lat="43.287373" lon="-5.933132">
        <ele>523.0</ele>
        <time>2012-03-04T10:44:12Z</time>
      </trkpt>
      <trkpt lat="43.287365" lon="-5.933247">
        <ele>524.0</ele>
        <time>2012-03-04T10:44:15Z</time>
      </trkpt>
      <trkpt lat="43.287358" lon="-5.933364">
        <ele>524.0</ele>
        <time>2012-03-04T10:44:18Z</time>
      </trkpt>
      <trkpt lat="43.287343" lon="-5.933581">
        <ele>525.0</ele>
        <time>2012-03-04T10:44:24Z</time>
      </trkpt>
      <trkpt lat="43.287335" lon="-5.933682">
        <ele>526.0</ele>
        <time>2012-03-04T10:44:27Z</time>
      </trkpt>
      <trkpt lat="43.287325" lon="-5.933787">
        <ele>526.0</ele>
        <time>2012-03-04T10:44:30Z</time>
      </trkpt>
      <trkpt lat="43.287308" lon="-5.933987">
        <ele>527.0</ele>
        <time>2012-03-04T10:44:36Z</time>
      </trkpt>
      <trkpt lat="43.287301" lon="-5.934088">
        <ele>527.0</ele>
        <time>2012-03-04T10:44:39Z</time>
      </trkpt>
      <trkpt lat="43.2873" lon="-5.934198">
        <ele>528.0</ele>
        <time>2012-03-04T10:44:42Z</time>
      </trkpt>
      <trkpt lat="43.287336" lon="-5.934422">
        <ele>528.0</ele>
        <time>2012-03-04T10:44:48Z</time>
      </trkpt>
      <trkpt lat="43.287351" lon="-5.934666">
        <ele>529.0</ele>
        <time>2012-03-04T10:44:54Z</time>
      </trkpt>
      <trkpt lat="43.287332" lon="-5.934903">
        <ele>530.0</ele>
        <time>2012-03-04T10:45:00Z</time>
      </trkpt>
      <trkpt lat="43.287327" lon="-5.935023">
        <ele>530.0</ele>
        <time>2012-03-04T10:45:03Z</time>
      </trkpt>
      <trkpt lat="43.287335" lon="-5.935145">
        <ele>531.0</ele>
        <time>2012-03-04T10:45:06Z</time>
      </trkpt>
      <trkpt lat="43.287319" lon="-5.935387">
        <ele>532.0</ele>
        <time>2012-03-04T10:45:12Z</time>
      </trkpt>
      <trkpt lat="43.28731" lon="-5.935497">
        <ele>532.0</ele>
        <time>2012-03-04T10:45:15Z</time>
      </trkpt>
      <trkpt lat="43.287294" lon="-5.935611">
        <ele>533.0</ele>
        <time>2012-03-04T10:45:18Z</time>
      </trkpt>
      <trkpt lat="43.287246" lon="-5.93584">
        <ele>534.0</ele>
        <time>2012-03-04T10:45:24Z</time>
      </trkpt>
      <trkpt lat="43.287199" lon="-5.936004">
        <ele>535.0</ele>
        <time>2012-03-04T10:45:28Z</time>
      </trkpt>
      <trkpt lat="43.287181" lon="-5.936086">
        <ele>536.0</ele>
        <time>2012-03-04T10:45:30Z</time>
      </trkpt>
      <trkpt lat="43.287147" lon="-5.936323">
        <ele>537.0</ele>
        <time>2012-03-04T10:45:36Z</time>
      </trkpt>
      <trkpt lat="43.287105" lon="-5.936425">
        <ele>538.0</ele>
        <time>2012-03-04T10:45:39Z</time>
      </trkpt>
      <trkpt lat="43.287085" lon="-5.93653">
        <ele>539.0</ele>
        <time>2012-03-04T10:45:42Z</time>
      </trkpt>
      <trkpt lat="43.287065" lon="-5.936721">
        <ele>540.0</ele>
        <time>2012-03-04T10:45:48Z</time>
      </trkpt>
      <trkpt lat="43.287053" lon="-5.936826">
        <ele>541.0</ele>
        <time>2012-03-04T10:45:51Z</time>
      </trkpt>
      <trkpt lat="43.287043" lon="-5.93693">
        <ele>542.0</ele>
        <time>2012-03-04T10:45:54Z</time>
      </trkpt>
      <trkpt lat="43.287029" lon="-5.937129">
        <ele>544.0</ele>
        <time>2012-03-04T10:46:00Z</time>
      </trkpt>
      <trkpt lat="43.287025" lon="-5.937221">
        <ele>544.0</ele>
        <time>2012-03-04T10:46:03Z</time>
      </trkpt>
      <trkpt lat="43.287022" lon="-5.937315">
        <ele>545.0</ele>
        <time>2012-03-04T10:46:06Z</time>
      </trkpt>
      <trkpt lat="43.287023" lon="-5.937511">
        <ele>547.0</ele>
        <time>2012-03-04T10:46:12Z</time>
      </trkpt>
      <trkpt lat="43.287028" lon="-5.937617">
        <ele>547.0</ele>
        <time>2012-03-04T10:46:15Z</time>
      </trkpt>
      <trkpt lat="43.287038" lon="-5.937725">
        <ele>548.0</ele>
        <time>2012-03-04T10:46:18Z</time>
      </trkpt>
      <trkpt lat="43.287029" lon="-5.937936">
        <ele>550.0</ele>
        <time>2012-03-04T10:46:24Z</time>
      </trkpt>
      <trkpt lat="43.287036" lon="-5.938051">
        <ele>550.0</ele>
        <time>2012-03-04T10:46:27Z</time>
      </trkpt>
      <trkpt lat="43.287035" lon="-5.938168">
        <ele>551.0</ele>
        <time>2012-03-04T10:46:30Z</time>
      </trkpt>
      <trkpt lat="43.287011" lon="-5.938408">
        <ele>553.0</ele>
        <time>2012-03-04T10:46:36Z</time>
      </trkpt>
      <trkpt lat="43.286996" lon="-5.938521">
        <ele>554.0</ele>
        <time>2012-03-04T10:46:39Z</time>
      </trkpt>
      <trkpt lat="43.286967" lon="-5.938636">
        <ele>555.0</ele>
        <time>2012-03-04T10:46:42Z</time>
      </trkpt>
      <trkpt lat="43.286945" lon="-5.938864">
        <ele>556.0</ele>
        <time>2012-03-04T10:46:48Z</time>
      </trkpt>
      <trkpt lat="43.286932" lon="-5.939203">
        <ele>558.0</ele>
        <time>2012-03-04T10:46:56Z</time>
      </trkpt>
      <trkpt lat="43.286915" lon="-5.93939">
        <ele>559.0</ele>
        <time>2012-03-04T10:47:00Z</time>
      </trkpt>
      <trkpt lat="43.286886" lon="-5.939577">
        <ele>560.0</ele>
        <time>2012-03-04T10:47:04Z</time>
      </trkpt>
      <trkpt lat="43.286849" lon="-5.939751">
        <ele>561.0</ele>
        <time>2012-03-04T10:47:08Z</time>
      </trkpt>
      <trkpt lat="43.286824" lon="-5.939831">
        <ele>562.0</ele>
        <time>2012-03-04T10:47:10Z</time>
      </trkpt>
      <trkpt lat="43.286748" lon="-5.940057">
        <ele>564.0</ele>
        <time>2012-03-04T10:47:16Z</time>
      </trkpt>
      <trkpt lat="43.286708" lon="-5.940172">
        <ele>565.0</ele>
        <time>2012-03-04T10:47:19Z</time>
      </trkpt>
      <trkpt lat="43.286627" lon="-5.940327">
        <ele>566.0</ele>
        <time>2012-03-04T10:47:23Z</time>
      </trkpt>
      <trkpt lat="43.286505" lon="-5.94048">
        <ele>576.0</ele>
        <time>2012-03-04T10:47:27Z</time>
      </trkpt>
      <trkpt lat="43.286364" lon="-5.940636">
        <ele>581.0</ele>
        <time>2012-03-04T10:47:31Z</time>
      </trkpt>
      <trkpt lat="43.286202" lon="-5.940812">
        <ele>584.0</ele>
        <time>2012-03-04T10:47:35Z</time>
      </trkpt>
      <trkpt lat="43.286002" lon="-5.940991">
        <ele>585.0</ele>
        <time>2012-03-04T10:47:39Z</time>
      </trkpt>
      <trkpt lat="43.28582" lon="-5.941199">
        <ele>586.0</ele>
        <time>2012-03-04T10:47:43Z</time>
      </trkpt>
      <trkpt lat="43.285675" lon="-5.941432">
        <ele>587.0</ele>
        <time>2012-03-04T10:47:47Z</time>
      </trkpt>
      <trkpt lat="43.285543" lon="-5.941682">
        <ele>587.0</ele>
        <time>2012-03-04T10:47:51Z</time>
      </trkpt>
      <trkpt lat="43.285427" lon="-5.941911">
        <ele>586.0</ele>
        <time>2012-03-04T10:47:55Z</time>
      </trkpt>
      <trkpt lat="43.285333" lon="-5.942144">
        <ele>585.0</ele>
        <time>2012-03-04T10:47:59Z</time>
      </trkpt>
      <trkpt lat="43.28529" lon="-5.942256">
        <ele>586.0</ele>
        <time>2012-03-04T10:48:01Z</time>
      </trkpt>
      <trkpt lat="43.285151" lon="-5.94256">
        <ele>588.0</ele>
        <time>2012-03-04T10:48:07Z</time>
      </trkpt>
      <trkpt lat="43.28504" lon="-5.942743">
        <ele>590.0</ele>
        <time>2012-03-04T10:48:11Z</time>
      </trkpt>
      <trkpt lat="43.284946" lon="-5.942949">
        <ele>590.0</ele>
        <time>2012-03-04T10:48:15Z</time>
      </trkpt>
      <trkpt lat="43.284861" lon="-5.943162">
        <ele>590.0</ele>
        <time>2012-03-04T10:48:19Z</time>
      </trkpt>
      <trkpt lat="43.284777" lon="-5.943373">
        <ele>590.0</ele>
        <time>2012-03-04T10:48:23Z</time>
      </trkpt>
      <trkpt lat="43.284694" lon="-5.943591">
        <ele>590.0</ele>
        <time>2012-03-04T10:48:27Z</time>
      </trkpt>
      <trkpt lat="43.284609" lon="-5.943809">
        <ele>591.0</ele>
        <time>2012-03-04T10:48:31Z</time>
      </trkpt>
      <trkpt lat="43.284532" lon="-5.944023">
        <ele>591.0</ele>
        <time>2012-03-04T10:48:35Z</time>
      </trkpt>
      <trkpt lat="43.284497" lon="-5.944127">
        <ele>591.0</ele>
        <time>2012-03-04T10:48:37Z</time>
      </trkpt>
      <trkpt lat="43.284391" lon="-5.94446">
        <ele>592.0</ele>
        <time>2012-03-04T10:48:43Z</time>
      </trkpt>
      <trkpt lat="43.284326" lon="-5.944689">
        <ele>593.0</ele>
        <time>2012-03-04T10:48:47Z</time>
      </trkpt>
      <trkpt lat="43.284237" lon="-5.944903">
        <ele>594.0</ele>
        <time>2012-03-04T10:48:51Z</time>
      </trkpt>
      <trkpt lat="43.284126" lon="-5.945091">
        <ele>594.0</ele>
        <time>2012-03-04T10:48:55Z</time>
      </trkpt>
      <trkpt lat="43.284009" lon="-5.945288">
        <ele>595.0</ele>
        <time>2012-03-04T10:48:59Z</time>
      </trkpt>
      <trkpt lat="43.28392" lon="-5.945502">
        <ele>595.0</ele>
        <time>2012-03-04T10:49:03Z</time>
      </trkpt>
      <trkpt lat="43.283872" lon="-5.945734">
        <ele>595.0</ele>
        <time>2012-03-04T10:49:07Z</time>
      </trkpt>
      <trkpt lat="43.283818" lon="-5.945976">
        <ele>595.0</ele>
        <time>2012-03-04T10:49:11Z</time>
      </trkpt>
      <trkpt lat="43.283716" lon="-5.946156">
        <ele>596.0</ele>
        <time>2012-03-04T10:49:15Z</time>
      </trkpt>
      <trkpt lat="43.283612" lon="-5.94631">
        <ele>597.0</ele>
        <time>2012-03-04T10:49:19Z</time>
      </trkpt>
      <trkpt lat="43.283521" lon="-5.946477">
        <ele>598.0</ele>
        <time>2012-03-04T10:49:23Z</time>
      </trkpt>
      <trkpt lat="43.283443" lon="-5.946656">
        <ele>599.0</ele>
        <time>2012-03-04T10:49:27Z</time>
      </trkpt>
      <trkpt lat="43.283371" lon="-5.946844">
        <ele>600.0</ele>
        <time>2012-03-04T10:49:31Z</time>
      </trkpt>
      <trkpt lat="43.283285" lon="-5.947027">
        <ele>601.0</ele>
        <time>2012-03-04T10:49:35Z</time>
      </trkpt>
      <trkpt lat="43.283199" lon="-5.947203">
        <ele>602.0</ele>
        <time>2012-03-04T10:49:39Z</time>
      </trkpt>
      <trkpt lat="43.28311" lon="-5.947372">
        <ele>603.0</ele>
        <time>2012-03-04T10:49:43Z</time>
      </trkpt>
      <trkpt lat="43.283018" lon="-5.94754">
        <ele>604.0</ele>
        <time>2012-03-04T10:49:47Z</time>
      </trkpt>
      <trkpt lat="43.282938" lon="-5.947736">
        <ele>605.0</ele>
        <time>2012-03-04T10:49:51Z</time>
      </trkpt>
      <trkpt lat="43.28286" lon="-5.947936">
        <ele>606.0</ele>
        <time>2012-03-04T10:49:55Z</time>
      </trkpt>
      <trkpt lat="43.282758" lon="-5.948114">
        <ele>606.0</ele>
        <time>2012-03-04T10:49:59Z</time>
      </trkpt>
      <trkpt lat="43.28264" lon="-5.948265">
        <ele>607.0</ele>
        <time>2012-03-04T10:50:03Z</time>
      </trkpt>
      <trkpt lat="43.282532" lon="-5.948413">
        <ele>608.0</ele>
        <time>2012-03-04T10:50:07Z</time>
      </trkpt>
      <trkpt lat="43.282424" lon="-5.948575">
        <ele>610.0</ele>
        <time>2012-03-04T10:50:11Z</time>
      </trkpt>
      <trkpt lat="43.282332" lon="-5.948755">
        <ele>611.0</ele>
        <time>2012-03-04T10:50:15Z</time>
      </trkpt>
      <trkpt lat="43.282254" lon="-5.94894">
        <ele>612.0</ele>
        <time>2012-03-04T10:50:19Z</time>
      </trkpt>
      <trkpt lat="43.282186" lon="-5.949142">
        <ele>613.0</ele>
        <time>2012-03-04T10:50:23Z</time>
      </trkpt>
      <trkpt lat="43.282111" lon="-5.949338">
        <ele>614.0</ele>
        <time>2012-03-04T10:50:27Z</time>
      </trkpt>
      <trkpt lat="43.282025" lon="-5.949521">
        <ele>614.0</ele>
        <time>2012-03-04T10:50:31Z</time>
      </trkpt>
      <trkpt lat="43.281946" lon="-5.949718">
        <ele>614.0</ele>
        <time>2012-03-04T10:50:35Z</time>
      </trkpt>
      <trkpt lat="43.281886" lon="-5.949926">
        <ele>614.0</ele>
        <time>2012-03-04T10:50:39Z</time>
      </trkpt>
      <trkpt lat="43.281818" lon="-5.950125">
        <ele>615.0</ele>
        <time>2012-03-04T10:50:43Z</time>
      </trkpt>
      <trkpt lat="43.281742" lon="-5.950309">
        <ele>615.0</ele>
        <time>2012-03-04T10:50:47Z</time>
      </trkpt>
      <trkpt lat="43.281663" lon="-5.950493">
        <ele>616.0</ele>
        <time>2012-03-04T10:50:51Z</time>
      </trkpt>
      <trkpt lat="43.281599" lon="-5.95069">
        <ele>617.0</ele>
        <time>2012-03-04T10:50:55Z</time>
      </trkpt>
      <trkpt lat="43.28153" lon="-5.950885">
        <ele>618.0</ele>
        <time>2012-03-04T10:50:59Z</time>
      </trkpt>
      <trkpt lat="43.281467" lon="-5.951079">
        <ele>618.0</ele>
        <time>2012-03-04T10:51:03Z</time>
      </trkpt>
      <trkpt lat="43.281398" lon="-5.951277">
        <ele>619.0</ele>
        <time>2012-03-04T10:51:07Z</time>
      </trkpt>
      <trkpt lat="43.281355" lon="-5.951483">
        <ele>619.0</ele>
        <time>2012-03-04T10:51:11Z</time>
      </trkpt>
      <trkpt lat="43.281315" lon="-5.95169">
        <ele>620.0</ele>
        <time>2012-03-04T10:51:15Z</time>
      </trkpt>
      <trkpt lat="43.281254" lon="-5.951886">
        <ele>620.0</ele>
        <time>2012-03-04T10:51:19Z</time>
      </trkpt>
      <trkpt lat="43.281167" lon="-5.952076">
        <ele>622.0</ele>
        <time>2012-03-04T10:51:23Z</time>
      </trkpt>
      <trkpt lat="43.281078" lon="-5.952269">
        <ele>623.0</ele>
        <time>2012-03-04T10:51:27Z</time>
      </trkpt>
      <trkpt lat="43.280998" lon="-5.95247">
        <ele>624.0</ele>
        <time>2012-03-04T10:51:31Z</time>
      </trkpt>
      <trkpt lat="43.280929" lon="-5.952682">
        <ele>625.0</ele>
        <time>2012-03-04T10:51:35Z</time>
      </trkpt>
      <trkpt lat="43.280851" lon="-5.952882">
        <ele>626.0</ele>
        <time>2012-03-04T10:51:39Z</time>
      </trkpt>
      <trkpt lat="43.280804" lon="-5.952973">
        <ele>627.0</ele>
        <time>2012-03-04T10:51:41Z</time>
      </trkpt>
      <trkpt lat="43.280662" lon="-5.953245">
        <ele>628.0</ele>
        <time>2012-03-04T10:51:47Z</time>
      </trkpt>
      <trkpt lat="43.280558" lon="-5.953431">
        <ele>629.0</ele>
        <time>2012-03-04T10:51:51Z</time>
      </trkpt>
      <trkpt lat="43.280457" lon="-5.953623">
        <ele>630.0</ele>
        <time>2012-03-04T10:51:55Z</time>
      </trkpt>
      <trkpt lat="43.280416" lon="-5.953719">
        <ele>631.0</ele>
        <time>2012-03-04T10:51:57Z</time>
      </trkpt>
      <trkpt lat="43.280336" lon="-5.954009">
        <ele>631.0</ele>
        <time>2012-03-04T10:52:03Z</time>
      </trkpt>
      <trkpt lat="43.280301" lon="-5.954211">
        <ele>632.0</ele>
        <time>2012-03-04T10:52:07Z</time>
      </trkpt>
      <trkpt lat="43.280248" lon="-5.954424">
        <ele>634.0</ele>
        <time>2012-03-04T10:52:11Z</time>
      </trkpt>
      <trkpt lat="43.280215" lon="-5.954531">
        <ele>635.0</ele>
        <time>2012-03-04T10:52:13Z</time>
      </trkpt>
      <trkpt lat="43.280097" lon="-5.954803">
        <ele>637.0</ele>
        <time>2012-03-04T10:52:19Z</time>
      </trkpt>
      <trkpt lat="43.280012" lon="-5.954981">
        <ele>637.0</ele>
        <time>2012-03-04T10:52:23Z</time>
      </trkpt>
      <trkpt lat="43.279937" lon="-5.955171">
        <ele>638.0</ele>
        <time>2012-03-04T10:52:27Z</time>
      </trkpt>
      <trkpt lat="43.279876" lon="-5.955378">
        <ele>638.0</ele>
        <time>2012-03-04T10:52:31Z</time>
      </trkpt>
      <trkpt lat="43.279825" lon="-5.955594">
        <ele>639.0</ele>
        <time>2012-03-04T10:52:35Z</time>
      </trkpt>
      <trkpt lat="43.279771" lon="-5.955823">
        <ele>639.0</ele>
        <time>2012-03-04T10:52:39Z</time>
      </trkpt>
      <trkpt lat="43.279667" lon="-5.956037">
        <ele>640.0</ele>
        <time>2012-03-04T10:52:43Z</time>
      </trkpt>
      <trkpt lat="43.279536" lon="-5.956206">
        <ele>641.0</ele>
        <time>2012-03-04T10:52:47Z</time>
      </trkpt>
      <trkpt lat="43.279379" lon="-5.956341">
        <ele>642.0</ele>
        <time>2012-03-04T10:52:51Z</time>
      </trkpt>
      <trkpt lat="43.279219" lon="-5.95645">
        <ele>643.0</ele>
        <time>2012-03-04T10:52:55Z</time>
      </trkpt>
      <trkpt lat="43.279073" lon="-5.956558">
        <ele>644.0</ele>
        <time>2012-03-04T10:52:59Z</time>
      </trkpt>
      <trkpt lat="43.279003" lon="-5.956632">
        <ele>644.0</ele>
        <time>2012-03-04T10:53:01Z</time>
      </trkpt>
      <trkpt lat="43.278793" lon="-5.956844">
        <ele>645.0</ele>
        <time>2012-03-04T10:53:07Z</time>
      </trkpt>
      <trkpt lat="43.278637" lon="-5.956949">
        <ele>647.0</ele>
        <time>2012-03-04T10:53:11Z</time>
      </trkpt>
      <trkpt lat="43.278491" lon="-5.95703">
        <ele>649.0</ele>
        <time>2012-03-04T10:53:15Z</time>
      </trkpt>
      <trkpt lat="43.278343" lon="-5.957123">
        <ele>652.0</ele>
        <time>2012-03-04T10:53:19Z</time>
      </trkpt>
      <trkpt lat="43.278041" lon="-5.957365">
        <ele>656.0</ele>
        <time>2012-03-04T10:53:27Z</time>
      </trkpt>
      <trkpt lat="43.277887" lon="-5.957433">
        <ele>657.0</ele>
        <time>2012-03-04T10:53:31Z</time>
      </trkpt>
      <trkpt lat="43.277724" lon="-5.95747">
        <ele>657.0</ele>
        <time>2012-03-04T10:53:35Z</time>
      </trkpt>
      <trkpt lat="43.277638" lon="-5.957497">
        <ele>657.0</ele>
        <time>2012-03-04T10:53:37Z</time>
      </trkpt>
      <trkpt lat="43.277416" lon="-5.957654">
        <ele>658.0</ele>
        <time>2012-03-04T10:53:43Z</time>
      </trkpt>
      <trkpt lat="43.277253" lon="-5.957738">
        <ele>658.0</ele>
        <time>2012-03-04T10:53:47Z</time>
      </trkpt>
      <trkpt lat="43.277089" lon="-5.957809">
        <ele>659.0</ele>
        <time>2012-03-04T10:53:51Z</time>
      </trkpt>
      <trkpt lat="43.276936" lon="-5.957878">
        <ele>660.0</ele>
        <time>2012-03-04T10:53:55Z</time>
      </trkpt>
      <trkpt lat="43.276793" lon="-5.957967">
        <ele>661.0</ele>
        <time>2012-03-04T10:53:59Z</time>
      </trkpt>
      <trkpt lat="43.276644" lon="-5.958072">
        <ele>661.0</ele>
        <time>2012-03-04T10:54:03Z</time>
      </trkpt>
      <trkpt lat="43.276492" lon="-5.958171">
        <ele>661.0</ele>
        <time>2012-03-04T10:54:07Z</time>
      </trkpt>
      <trkpt lat="43.276346" lon="-5.958294">
        <ele>661.0</ele>
        <time>2012-03-04T10:54:11Z</time>
      </trkpt>
      <trkpt lat="43.27621" lon="-5.958413">
        <ele>662.0</ele>
        <time>2012-03-04T10:54:15Z</time>
      </trkpt>
      <trkpt lat="43.276071" lon="-5.958545">
        <ele>662.0</ele>
        <time>2012-03-04T10:54:19Z</time>
      </trkpt>
      <trkpt lat="43.275939" lon="-5.958694">
        <ele>662.0</ele>
        <time>2012-03-04T10:54:23Z</time>
      </trkpt>
      <trkpt lat="43.275775" lon="-5.958947">
        <ele>662.0</ele>
        <time>2012-03-04T10:54:30Z</time>
      </trkpt>
      <trkpt lat="43.275733" lon="-5.959127">
        <ele>662.0</ele>
        <time>2012-03-04T10:54:36Z</time>
      </trkpt>
      <trkpt lat="43.275684" lon="-5.959353">
        <ele>663.0</ele>
        <time>2012-03-04T10:54:42Z</time>
      </trkpt>
      <trkpt lat="43.275638" lon="-5.959593">
        <ele>663.0</ele>
        <time>2012-03-04T10:54:48Z</time>
      </trkpt>
      <trkpt lat="43.27563" lon="-5.95971">
        <ele>664.0</ele>
        <time>2012-03-04T10:54:51Z</time>
      </trkpt>
      <trkpt lat="43.275639" lon="-5.959926">
        <ele>664.0</ele>
        <time>2012-03-04T10:54:56Z</time>
      </trkpt>
      <trkpt lat="43.275659" lon="-5.960103">
        <ele>665.0</ele>
        <time>2012-03-04T10:55:00Z</time>
      </trkpt>
      <trkpt lat="43.275689" lon="-5.960272">
        <ele>665.0</ele>
        <time>2012-03-04T10:55:04Z</time>
      </trkpt>
      <trkpt lat="43.275707" lon="-5.960446">
        <ele>666.0</ele>
        <time>2012-03-04T10:55:08Z</time>
      </trkpt>
      <trkpt lat="43.275714" lon="-5.960535">
        <ele>666.0</ele>
        <time>2012-03-04T10:55:10Z</time>
      </trkpt>
      <trkpt lat="43.275704" lon="-5.960809">
        <ele>667.0</ele>
        <time>2012-03-04T10:55:16Z</time>
      </trkpt>
      <trkpt lat="43.275652" lon="-5.960989">
        <ele>667.0</ele>
        <time>2012-03-04T10:55:20Z</time>
      </trkpt>
      <trkpt lat="43.275613" lon="-5.961195">
        <ele>672.0</ele>
        <time>2012-03-04T10:55:24Z</time>
      </trkpt>
      <trkpt lat="43.275603" lon="-5.961308">
        <ele>675.0</ele>
        <time>2012-03-04T10:55:26Z</time>
      </trkpt>
      <trkpt lat="43.275518" lon="-5.961666">
        <ele>679.0</ele>
        <time>2012-03-04T10:55:32Z</time>
      </trkpt>
      <trkpt lat="43.275432" lon="-5.961895">
        <ele>679.0</ele>
        <time>2012-03-04T10:55:36Z</time>
      </trkpt>
      <trkpt lat="43.275362" lon="-5.962133">
        <ele>681.0</ele>
        <time>2012-03-04T10:55:40Z</time>
      </trkpt>
      <trkpt lat="43.275283" lon="-5.962389">
        <ele>682.0</ele>
        <time>2012-03-04T10:55:44Z</time>
      </trkpt>
      <trkpt lat="43.275193" lon="-5.962648">
        <ele>683.0</ele>
        <time>2012-03-04T10:55:48Z</time>
      </trkpt>
      <trkpt lat="43.275101" lon="-5.9629">
        <ele>683.0</ele>
        <time>2012-03-04T10:55:52Z</time>
      </trkpt>
      <trkpt lat="43.275011" lon="-5.963146">
        <ele>683.0</ele>
        <time>2012-03-04T10:55:56Z</time>
      </trkpt>
      <trkpt lat="43.274926" lon="-5.963392">
        <ele>683.0</ele>
        <time>2012-03-04T10:56:00Z</time>
      </trkpt>
      <trkpt lat="43.274733" lon="-5.963907">
        <ele>685.0</ele>
        <time>2012-03-04T10:56:08Z</time>
      </trkpt>
      <trkpt lat="43.274625" lon="-5.964165">
        <ele>686.0</ele>
        <time>2012-03-04T10:56:12Z</time>
      </trkpt>
      <trkpt lat="43.274507" lon="-5.964396">
        <ele>687.0</ele>
        <time>2012-03-04T10:56:16Z</time>
      </trkpt>
      <trkpt lat="43.274404" lon="-5.96461">
        <ele>687.0</ele>
        <time>2012-03-04T10:56:20Z</time>
      </trkpt>
      <trkpt lat="43.274317" lon="-5.96484">
        <ele>688.0</ele>
        <time>2012-03-04T10:56:24Z</time>
      </trkpt>
      <trkpt lat="43.274242" lon="-5.965091">
        <ele>688.0</ele>
        <time>2012-03-04T10:56:28Z</time>
      </trkpt>
      <trkpt lat="43.274164" lon="-5.965343">
        <ele>689.0</ele>
        <time>2012-03-04T10:56:32Z</time>
      </trkpt>
      <trkpt lat="43.27408" lon="-5.965581">
        <ele>689.0</ele>
        <time>2012-03-04T10:56:36Z</time>
      </trkpt>
      <trkpt lat="43.273992" lon="-5.965809">
        <ele>689.0</ele>
        <time>2012-03-04T10:56:40Z</time>
      </trkpt>
      <trkpt lat="43.273948" lon="-5.965927">
        <ele>689.0</ele>
        <time>2012-03-04T10:56:42Z</time>
      </trkpt>
      <trkpt lat="43.273863" lon="-5.966289">
        <ele>689.0</ele>
        <time>2012-03-04T10:56:48Z</time>
      </trkpt>
      <trkpt lat="43.273853" lon="-5.96652">
        <ele>690.0</ele>
        <time>2012-03-04T10:56:52Z</time>
      </trkpt>
      <trkpt lat="43.273801" lon="-5.966782">
        <ele>691.0</ele>
        <time>2012-03-04T10:56:56Z</time>
      </trkpt>
      <trkpt lat="43.273738" lon="-5.967036">
        <ele>692.0</ele>
        <time>2012-03-04T10:57:00Z</time>
      </trkpt>
      <trkpt lat="43.273663" lon="-5.967281">
        <ele>693.0</ele>
        <time>2012-03-04T10:57:04Z</time>
      </trkpt>
      <trkpt lat="43.273597" lon="-5.967542">
        <ele>693.0</ele>
        <time>2012-03-04T10:57:08Z</time>
      </trkpt>
      <trkpt lat="43.273556" lon="-5.967825">
        <ele>693.0</ele>
        <time>2012-03-04T10:57:12Z</time>
      </trkpt>
      <trkpt lat="43.273556" lon="-5.968112">
        <ele>694.0</ele>
        <time>2012-03-04T10:57:16Z</time>
      </trkpt>
      <trkpt lat="43.273553" lon="-5.96841">
        <ele>694.0</ele>
        <time>2012-03-04T10:57:20Z</time>
      </trkpt>
      <trkpt lat="43.273536" lon="-5.96873">
        <ele>693.0</ele>
        <time>2012-03-04T10:57:24Z</time>
      </trkpt>
      <trkpt lat="43.273544" lon="-5.969055">
        <ele>693.0</ele>
        <time>2012-03-04T10:57:28Z</time>
      </trkpt>
      <trkpt lat="43.273571" lon="-5.969343">
        <ele>694.0</ele>
        <time>2012-03-04T10:57:32Z</time>
      </trkpt>
      <trkpt lat="43.27361" lon="-5.96964">
        <ele>694.0</ele>
        <time>2012-03-04T10:57:36Z</time>
      </trkpt>
      <trkpt lat="43.273622" lon="-5.969953">
        <ele>694.0</ele>
        <time>2012-03-04T10:57:40Z</time>
      </trkpt>
      <trkpt lat="43.273748" lon="-5.970099">
        <ele>695.0</ele>
        <time>2012-03-04T10:57:44Z</time>
      </trkpt>
      <trkpt lat="43.274009" lon="-5.970246">
        <ele>695.0</ele>
        <time>2012-03-04T10:57:48Z</time>
      </trkpt>
      <trkpt lat="43.274392" lon="-5.970451">
        <ele>694.0</ele>
        <time>2012-03-04T10:57:52Z</time>
      </trkpt>
      <trkpt lat="43.274881" lon="-5.970449">
        <ele>693.0</ele>
        <time>2012-03-04T10:57:56Z</time>
      </trkpt>
      <trkpt lat="43.275394" lon="-5.970568">
        <ele>693.0</ele>
        <time>2012-03-04T10:58:00Z</time>
      </trkpt>
      <trkpt lat="43.275875" lon="-5.97089">
        <ele>688.0</ele>
        <time>2012-03-04T10:58:04Z</time>
      </trkpt>
      <trkpt lat="43.276423" lon="-5.970825">
        <ele>678.0</ele>
        <time>2012-03-04T10:58:08Z</time>
      </trkpt>
      <trkpt lat="43.276962" lon="-5.97072">
        <ele>674.0</ele>
        <time>2012-03-04T10:58:12Z</time>
      </trkpt>
      <trkpt lat="43.277538" lon="-5.970677">
        <ele>671.0</ele>
        <time>2012-03-04T10:58:16Z</time>
      </trkpt>
      <trkpt lat="43.277976" lon="-5.970779">
        <ele>669.0</ele>
        <time>2012-03-04T10:58:20Z</time>
      </trkpt>
      <trkpt lat="43.278271" lon="-5.970963">
        <ele>666.0</ele>
        <time>2012-03-04T10:58:24Z</time>
      </trkpt>
      <trkpt lat="43.278457" lon="-5.971042">
        <ele>663.0</ele>
        <time>2012-03-04T10:58:28Z</time>
      </trkpt>
      <trkpt lat="43.278623" lon="-5.971039">
        <ele>662.0</ele>
        <time>2012-03-04T10:58:32Z</time>
      </trkpt>
      <trkpt lat="43.278768" lon="-5.971007">
        <ele>662.0</ele>
        <time>2012-03-04T10:58:36Z</time>
      </trkpt>
      <trkpt lat="43.2789" lon="-5.97099">
        <ele>662.0</ele>
        <time>2012-03-04T10:58:40Z</time>
      </trkpt>
      <trkpt lat="43.278963" lon="-5.970992">
        <ele>662.0</ele>
        <time>2012-03-04T10:58:42Z</time>
      </trkpt>
      <trkpt lat="43.279131" lon="-5.971037">
        <ele>663.0</ele>
        <time>2012-03-04T10:58:48Z</time>
      </trkpt>
      <trkpt lat="43.279203" lon="-5.971075">
        <ele>663.0</ele>
        <time>2012-03-04T10:58:51Z</time>
      </trkpt>
      <trkpt lat="43.279272" lon="-5.971123">
        <ele>663.0</ele>
        <time>2012-03-04T10:58:54Z</time>
      </trkpt>
      <trkpt lat="43.279391" lon="-5.971233">
        <ele>663.0</ele>
        <time>2012-03-04T10:59:00Z</time>
      </trkpt>
      <trkpt lat="43.279448" lon="-5.971289">
        <ele>663.0</ele>
        <time>2012-03-04T10:59:03Z</time>
      </trkpt>
      <trkpt lat="43.279508" lon="-5.971351">
        <ele>663.0</ele>
        <time>2012-03-04T10:59:06Z</time>
      </trkpt>
      <trkpt lat="43.279622" lon="-5.971482">
        <ele>664.0</ele>
        <time>2012-03-04T10:59:12Z</time>
      </trkpt>
      <trkpt lat="43.279682" lon="-5.971556">
        <ele>665.0</ele>
        <time>2012-03-04T10:59:15Z</time>
      </trkpt>
      <trkpt lat="43.279745" lon="-5.97162">
        <ele>665.0</ele>
        <time>2012-03-04T10:59:18Z</time>
      </trkpt>
      <trkpt lat="43.279868" lon="-5.971726">
        <ele>666.0</ele>
        <time>2012-03-04T10:59:24Z</time>
      </trkpt>
      <trkpt lat="43.279933" lon="-5.971741">
        <ele>667.0</ele>
        <time>2012-03-04T10:59:28Z</time>
      </trkpt>
      <trkpt lat="43.280002" lon="-5.971722">
        <ele>668.0</ele>
        <time>2012-03-04T10:59:33Z</time>
      </trkpt>
      <trkpt lat="43.280073" lon="-5.97168">
        <ele>668.0</ele>
        <time>2012-03-04T10:59:37Z</time>
      </trkpt>
      <trkpt lat="43.28014" lon="-5.971675">
        <ele>669.0</ele>
        <time>2012-03-04T10:59:44Z</time>
      </trkpt>
      <trkpt lat="43.280073" lon="-5.971717">
        <ele>670.0</ele>
        <time>2012-03-04T10:59:48Z</time>
      </trkpt>
      <trkpt lat="43.280012" lon="-5.971758">
        <ele>671.0</ele>
        <time>2012-03-04T10:59:52Z</time>
      </trkpt>
      <trkpt lat="43.279953" lon="-5.971811">
        <ele>671.0</ele>
        <time>2012-03-04T10:59:57Z</time>
      </trkpt>
      <trkpt lat="43.279953" lon="-5.971811">
        <time>2012-03-04T11:00:14Z</time>
      </trkpt>
    </trkseg>
    <trkseg>
      <trkpt lat="43.279953" lon="-5.971811">
        <time>2012-03-04T11:09:30Z</time>
      </trkpt>
      <trkpt lat="43.280168" lon="-5.971679">
        <ele>679.0</ele>
        <time>2012-03-04T11:09:45Z</time>
      </trkpt>
      <trkpt lat="43.28026" lon="-5.971588">
        <ele>679.0</ele>
        <time>2012-03-04T11:09:52Z</time>
      </trkpt>
      <trkpt lat="43.280342" lon="-5.971547">
        <ele>679.0</ele>
        <time>2012-03-04T11:09:56Z</time>
      </trkpt>
      <trkpt lat="43.280415" lon="-5.971509">
        <ele>679.0</ele>
        <time>2012-03-04T11:09:59Z</time>
      </trkpt>
      <trkpt lat="43.280616" lon="-5.971376">
        <ele>680.0</ele>
        <time>2012-03-04T11:10:08Z</time>
      </trkpt>
      <trkpt lat="43.280685" lon="-5.971323">
        <ele>680.0</ele>
        <time>2012-03-04T11:10:11Z</time>
      </trkpt>
      <trkpt lat="43.280824" lon="-5.971189">
        <ele>680.0</ele>
        <time>2012-03-04T11:10:16Z</time>
      </trkpt>
      <trkpt lat="43.28095" lon="-5.970971">
        <ele>681.0</ele>
        <time>2012-03-04T11:10:20Z</time>
      </trkpt>
      <trkpt lat="43.281107" lon="-5.97072">
        <ele>683.0</ele>
        <time>2012-03-04T11:10:24Z</time>
      </trkpt>
      <trkpt lat="43.281281" lon="-5.970591">
        <ele>684.0</ele>
        <time>2012-03-04T11:10:28Z</time>
      </trkpt>
      <trkpt lat="43.28143" lon="-5.970453">
        <ele>684.0</ele>
        <time>2012-03-04T11:10:32Z</time>
      </trkpt>
      <trkpt lat="43.281597" lon="-5.970298">
        <ele>684.0</ele>
        <time>2012-03-04T11:10:36Z</time>
      </trkpt>
      <trkpt lat="43.281782" lon="-5.970134">
        <ele>684.0</ele>
        <time>2012-03-04T11:10:40Z</time>
      </trkpt>
      <trkpt lat="43.281997" lon="-5.969999">
        <ele>684.0</ele>
        <time>2012-03-04T11:10:44Z</time>
      </trkpt>
      <trkpt lat="43.282257" lon="-5.969873">
        <ele>685.0</ele>
        <time>2012-03-04T11:10:48Z</time>
      </trkpt>
      <trkpt lat="43.282539" lon="-5.969724">
        <ele>685.0</ele>
        <time>2012-03-04T11:10:52Z</time>
      </trkpt>
      <trkpt lat="43.282684" lon="-5.969375">
        <ele>686.0</ele>
        <time>2012-03-04T11:10:56Z</time>
      </trkpt>
      <trkpt lat="43.282757" lon="-5.968918">
        <ele>686.0</ele>
        <time>2012-03-04T11:11:00Z</time>
      </trkpt>
      <trkpt lat="43.282927" lon="-5.96839">
        <ele>687.0</ele>
        <time>2012-03-04T11:11:04Z</time>
      </trkpt>
      <trkpt lat="43.283115" lon="-5.967918">
        <ele>687.0</ele>
        <time>2012-03-04T11:11:08Z</time>
      </trkpt>
      <trkpt lat="43.283245" lon="-5.96745">
        <ele>688.0</ele>
        <time>2012-03-04T11:11:12Z</time>
      </trkpt>
      <trkpt lat="43.283321" lon="-5.966952">
        <ele>688.0</ele>
        <time>2012-03-04T11:11:16Z</time>
      </trkpt>
      <trkpt lat="43.283356" lon="-5.966448">
        <ele>688.0</ele>
        <time>2012-03-04T11:11:20Z</time>
      </trkpt>
      <trkpt lat="43.283383" lon="-5.966109">
        <ele>687.0</ele>
        <time>2012-03-04T11:11:23Z</time>
      </trkpt>
      <trkpt lat="43.28344" lon="-5.965846">
        <ele>686.0</ele>
        <time>2012-03-04T11:11:27Z</time>
      </trkpt>
      <trkpt lat="43.283551" lon="-5.965882">
        <ele>684.0</ele>
        <time>2012-03-04T11:11:31Z</time>
      </trkpt>
      <trkpt lat="43.283582" lon="-5.96622">
        <ele>677.0</ele>
        <time>2012-03-04T11:11:35Z</time>
      </trkpt>
      <trkpt lat="43.283612" lon="-5.966647">
        <ele>673.0</ele>
        <time>2012-03-04T11:11:40Z</time>
      </trkpt>
      <trkpt lat="43.283826" lon="-5.967019">
        <ele>673.0</ele>
        <time>2012-03-04T11:11:44Z</time>
      </trkpt>
      <trkpt lat="43.284157" lon="-5.967393">
        <ele>671.0</ele>
        <time>2012-03-04T11:11:48Z</time>
      </trkpt>
      <trkpt lat="43.28429" lon="-5.967686">
        <ele>670.0</ele>
        <time>2012-03-04T11:11:51Z</time>
      </trkpt>
      <trkpt lat="43.284548" lon="-5.968149">
        <ele>668.0</ele>
        <time>2012-03-04T11:11:56Z</time>
      </trkpt>
      <trkpt lat="43.284816" lon="-5.96839">
        <ele>667.0</ele>
        <time>2012-03-04T11:12:00Z</time>
      </trkpt>
      <trkpt lat="43.285235" lon="-5.968277">
        <ele>667.0</ele>
        <time>2012-03-04T11:12:04Z</time>
      </trkpt>
      <trkpt lat="43.285589" lon="-5.968031">
        <ele>667.0</ele>
        <time>2012-03-04T11:12:08Z</time>
      </trkpt>
      <trkpt lat="43.285933" lon="-5.967913">
        <ele>667.0</ele>
        <time>2012-03-04T11:12:12Z</time>
      </trkpt>
      <trkpt lat="43.28631" lon="-5.968016">
        <ele>663.0</ele>
        <time>2012-03-04T11:12:16Z</time>
      </trkpt>
      <trkpt lat="43.286685" lon="-5.96821">
        <ele>658.0</ele>
        <time>2012-03-04T11:12:20Z</time>
      </trkpt>
      <trkpt lat="43.287035" lon="-5.968212">
        <ele>655.0</ele>
        <time>2012-03-04T11:12:24Z</time>
      </trkpt>
      <trkpt lat="43.287391" lon="-5.968219">
        <ele>652.0</ele>
        <time>2012-03-04T11:12:28Z</time>
      </trkpt>
      <trkpt lat="43.287701" lon="-5.968213">
        <ele>649.0</ele>
        <time>2012-03-04T11:12:32Z</time>
      </trkpt>
      <trkpt lat="43.287891" lon="-5.968177">
        <ele>650.0</ele>
        <time>2012-03-04T11:12:35Z</time>
      </trkpt>
      <trkpt lat="43.288009" lon="-5.968142">
        <ele>651.0</ele>
        <time>2012-03-04T11:12:37Z</time>
      </trkpt>
      <trkpt lat="43.288292" lon="-5.968068">
        <ele>649.0</ele>
        <time>2012-03-04T11:12:43Z</time>
      </trkpt>
      <trkpt lat="43.288391" lon="-5.968045">
        <ele>648.0</ele>
        <time>2012-03-04T11:12:45Z</time>
      </trkpt>
      <trkpt lat="43.288747" lon="-5.968018">
        <ele>645.0</ele>
        <time>2012-03-04T11:12:51Z</time>
      </trkpt>
      <trkpt lat="43.289099" lon="-5.967979">
        <ele>645.0</ele>
        <time>2012-03-04T11:12:56Z</time>
      </trkpt>
      <trkpt lat="43.28933" lon="-5.967913">
        <ele>646.0</ele>
        <time>2012-03-04T11:12:59Z</time>
      </trkpt>
      <trkpt lat="43.289751" lon="-5.967727">
        <ele>645.0</ele>
        <time>2012-03-04T11:13:04Z</time>
      </trkpt>
      <trkpt lat="43.290116" lon="-5.967555">
        <ele>645.0</ele>
        <time>2012-03-04T11:13:08Z</time>
      </trkpt>
      <trkpt lat="43.290472" lon="-5.967348">
        <ele>645.0</ele>
        <time>2012-03-04T11:13:12Z</time>
      </trkpt>
      <trkpt lat="43.290694" lon="-5.967018">
        <ele>645.0</ele>
        <time>2012-03-04T11:13:16Z</time>
      </trkpt>
      <trkpt lat="43.290831" lon="-5.966844">
        <ele>644.0</ele>
        <time>2012-03-04T11:13:20Z</time>
      </trkpt>
      <trkpt lat="43.290924" lon="-5.966816">
        <ele>643.0</ele>
        <time>2012-03-04T11:13:25Z</time>
      </trkpt>
      <trkpt lat="43.290924" lon="-5.966936">
        <ele>617.0</ele>
        <time>2012-03-04T11:13:32Z</time>
      </trkpt>
      <trkpt lat="43.290893" lon="-5.967034">
        <ele>610.0</ele>
        <time>2012-03-04T11:13:34Z</time>
      </trkpt>
      <trkpt lat="43.290718" lon="-5.967388">
        <ele>600.0</ele>
        <time>2012-03-04T11:13:39Z</time>
      </trkpt>
      <trkpt lat="43.290547" lon="-5.9678">
        <ele>595.0</ele>
        <time>2012-03-04T11:13:44Z</time>
      </trkpt>
      <trkpt lat="43.290476" lon="-5.968176">
        <ele>593.0</ele>
        <time>2012-03-04T11:13:48Z</time>
      </trkpt>
      <trkpt lat="43.290373" lon="-5.968627">
        <ele>590.0</ele>
        <time>2012-03-04T11:13:52Z</time>
      </trkpt>
      <trkpt lat="43.290196" lon="-5.969073">
        <ele>587.0</ele>
        <time>2012-03-04T11:13:56Z</time>
      </trkpt>
      <trkpt lat="43.290059" lon="-5.969534">
        <ele>583.0</ele>
        <time>2012-03-04T11:14:00Z</time>
      </trkpt>
      <trkpt lat="43.289881" lon="-5.969968">
        <ele>579.0</ele>
        <time>2012-03-04T11:14:04Z</time>
      </trkpt>
      <trkpt lat="43.289698" lon="-5.970411">
        <ele>577.0</ele>
        <time>2012-03-04T11:14:08Z</time>
      </trkpt>
      <trkpt lat="43.289538" lon="-5.970937">
        <ele>575.0</ele>
        <time>2012-03-04T11:14:12Z</time>
      </trkpt>
      <trkpt lat="43.289348" lon="-5.971483">
        <ele>574.0</ele>
        <time>2012-03-04T11:14:16Z</time>
      </trkpt>
      <trkpt lat="43.289133" lon="-5.972003">
        <ele>567.0</ele>
        <time>2012-03-04T11:14:20Z</time>
      </trkpt>
      <trkpt lat="43.288937" lon="-5.972537">
        <ele>557.0</ele>
        <time>2012-03-04T11:14:24Z</time>
      </trkpt>
      <trkpt lat="43.288787" lon="-5.973122">
        <ele>549.0</ele>
        <time>2012-03-04T11:14:28Z</time>
      </trkpt>
      <trkpt lat="43.288709" lon="-5.973828">
        <ele>544.0</ele>
        <time>2012-03-04T11:14:32Z</time>
      </trkpt>
      <trkpt lat="43.288735" lon="-5.974672">
        <ele>540.0</ele>
        <time>2012-03-04T11:14:36Z</time>
      </trkpt>
      <trkpt lat="43.288678" lon="-5.975371">
        <ele>537.0</ele>
        <time>2012-03-04T11:14:40Z</time>
      </trkpt>
      <trkpt lat="43.288326" lon="-5.97584">
        <ele>535.0</ele>
        <time>2012-03-04T11:14:44Z</time>
      </trkpt>
      <trkpt lat="43.287989" lon="-5.976415">
        <ele>532.0</ele>
        <time>2012-03-04T11:14:48Z</time>
      </trkpt>
      <trkpt lat="43.287802" lon="-5.976718">
        <ele>526.0</ele>
        <time>2012-03-04T11:14:50Z</time>
      </trkpt>
      <trkpt lat="43.287188" lon="-5.977918">
        <ele>505.0</ele>
        <time>2012-03-04T11:14:56Z</time>
      </trkpt>
      <trkpt lat="43.286843" lon="-5.978694">
        <ele>499.0</ele>
        <time>2012-03-04T11:15:00Z</time>
      </trkpt>
      <trkpt lat="43.286398" lon="-5.979264">
        <ele>495.0</ele>
        <time>2012-03-04T11:15:04Z</time>
      </trkpt>
      <trkpt lat="43.286001" lon="-5.979549">
        <ele>494.0</ele>
        <time>2012-03-04T11:15:07Z</time>
      </trkpt>
      <trkpt lat="43.285557" lon="-5.980242">
        <ele>492.0</ele>
        <time>2012-03-04T11:15:12Z</time>
      </trkpt>
      <trkpt lat="43.285242" lon="-5.980827">
        <ele>492.0</ele>
        <time>2012-03-04T11:15:16Z</time>
      </trkpt>
      <trkpt lat="43.284805" lon="-5.981412">
        <ele>487.0</ele>
        <time>2012-03-04T11:15:20Z</time>
      </trkpt>
      <trkpt lat="43.28436" lon="-5.982117">
        <ele>484.0</ele>
        <time>2012-03-04T11:15:24Z</time>
      </trkpt>
      <trkpt lat="43.283944" lon="-5.982934">
        <ele>481.0</ele>
        <time>2012-03-04T11:15:28Z</time>
      </trkpt>
      <trkpt lat="43.283504" lon="-5.983744">
        <ele>479.0</ele>
        <time>2012-03-04T11:15:32Z</time>
      </trkpt>
      <trkpt lat="43.283033" lon="-5.984455">
        <ele>480.0</ele>
        <time>2012-03-04T11:15:36Z</time>
      </trkpt>
      <trkpt lat="43.282749" lon="-5.985002">
        <ele>480.0</ele>
        <time>2012-03-04T11:15:39Z</time>
      </trkpt>
      <trkpt lat="43.282289" lon="-5.985553">
        <ele>480.0</ele>
        <time>2012-03-04T11:15:44Z</time>
      </trkpt>
      <trkpt lat="43.281785" lon="-5.985625">
        <ele>478.0</ele>
        <time>2012-03-04T11:15:48Z</time>
      </trkpt>
      <trkpt lat="43.281378" lon="-5.98548">
        <ele>476.0</ele>
        <time>2012-03-04T11:15:52Z</time>
      </trkpt>
      <trkpt lat="43.281242" lon="-5.985189">
        <ele>471.0</ele>
        <time>2012-03-04T11:15:56Z</time>
      </trkpt>
      <trkpt lat="43.281073" lon="-5.984887">
        <ele>467.0</ele>
        <time>2012-03-04T11:16:00Z</time>
      </trkpt>
      <trkpt lat="43.28093" lon="-5.984742">
        <ele>466.0</ele>
        <time>2012-03-04T11:16:03Z</time>
      </trkpt>
      <trkpt lat="43.280768" lon="-5.984645">
        <ele>463.0</ele>
        <time>2012-03-04T11:16:07Z</time>
      </trkpt>
      <trkpt lat="43.280693" lon="-5.984807">
        <ele>461.0</ele>
        <time>2012-03-04T11:16:11Z</time>
      </trkpt>
      <trkpt lat="43.280657" lon="-5.984889">
        <ele>460.0</ele>
        <time>2012-03-04T11:16:13Z</time>
      </trkpt>
      <trkpt lat="43.280585" lon="-5.985042">
        <ele>460.0</ele>
        <time>2012-03-04T11:16:17Z</time>
      </trkpt>
      <trkpt lat="43.280517" lon="-5.985227">
        <ele>459.0</ele>
        <time>2012-03-04T11:16:24Z</time>
      </trkpt>
      <trkpt lat="43.280491" lon="-5.98534">
        <ele>459.0</ele>
        <time>2012-03-04T11:16:27Z</time>
      </trkpt>
      <trkpt lat="43.280471" lon="-5.985453">
        <ele>459.0</ele>
        <time>2012-03-04T11:16:30Z</time>
      </trkpt>
      <trkpt lat="43.280452" lon="-5.985678">
        <ele>458.0</ele>
        <time>2012-03-04T11:16:35Z</time>
      </trkpt>
      <trkpt lat="43.28045" lon="-5.985944">
        <ele>455.0</ele>
        <time>2012-03-04T11:16:39Z</time>
      </trkpt>
      <trkpt lat="43.280626" lon="-5.986311">
        <ele>457.0</ele>
        <time>2012-03-04T11:16:44Z</time>
      </trkpt>
      <trkpt lat="43.280905" lon="-5.986486">
        <ele>458.0</ele>
        <time>2012-03-04T11:16:48Z</time>
      </trkpt>
      <trkpt lat="43.280974" lon="-5.986755">
        <ele>455.0</ele>
        <time>2012-03-04T11:16:52Z</time>
      </trkpt>
      <trkpt lat="43.280786" lon="-5.987061">
        <ele>450.0</ele>
        <time>2012-03-04T11:16:56Z</time>
      </trkpt>
      <trkpt lat="43.280483" lon="-5.98744">
        <ele>439.0</ele>
        <time>2012-03-04T11:17:00Z</time>
      </trkpt>
      <trkpt lat="43.280136" lon="-5.987928">
        <ele>429.0</ele>
        <time>2012-03-04T11:17:04Z</time>
      </trkpt>
      <trkpt lat="43.279785" lon="-5.98831">
        <ele>423.0</ele>
        <time>2012-03-04T11:17:08Z</time>
      </trkpt>
      <trkpt lat="43.27934" lon="-5.98833">
        <ele>423.0</ele>
        <time>2012-03-04T11:17:12Z</time>
      </trkpt>
      <trkpt lat="43.278785" lon="-5.988594">
        <ele>422.0</ele>
        <time>2012-03-04T11:17:16Z</time>
      </trkpt>
      <trkpt lat="43.278159" lon="-5.988931">
        <ele>423.0</ele>
        <time>2012-03-04T11:17:20Z</time>
      </trkpt>
      <trkpt lat="43.277575" lon="-5.989407">
        <ele>422.0</ele>
        <time>2012-03-04T11:17:24Z</time>
      </trkpt>
      <trkpt lat="43.277029" lon="-5.990006">
        <ele>421.0</ele>
        <time>2012-03-04T11:17:28Z</time>
      </trkpt>
      <trkpt lat="43.276411" lon="-5.990568">
        <ele>420.0</ele>
        <time>2012-03-04T11:17:32Z</time>
      </trkpt>
      <trkpt lat="43.275796" lon="-5.991122">
        <ele>415.0</ele>
        <time>2012-03-04T11:17:36Z</time>
      </trkpt>
      <trkpt lat="43.275222" lon="-5.991753">
        <ele>406.0</ele>
        <time>2012-03-04T11:17:40Z</time>
      </trkpt>
      <trkpt lat="43.274728" lon="-5.992448">
        <ele>401.0</ele>
        <time>2012-03-04T11:17:44Z</time>
      </trkpt>
      <trkpt lat="43.274437" lon="-5.992967">
        <ele>399.0</ele>
        <time>2012-03-04T11:17:47Z</time>
      </trkpt>
      <trkpt lat="43.273953" lon="-5.993563">
        <ele>400.0</ele>
        <time>2012-03-04T11:17:52Z</time>
      </trkpt>
      <trkpt lat="43.27361" lon="-5.993814">
        <ele>402.0</ele>
        <time>2012-03-04T11:17:56Z</time>
      </trkpt>
      <trkpt lat="43.273578" lon="-5.994247">
        <ele>395.0</ele>
        <time>2012-03-04T11:18:00Z</time>
      </trkpt>
      <trkpt lat="43.273662" lon="-5.994574">
        <ele>377.0</ele>
        <time>2012-03-04T11:18:04Z</time>
      </trkpt>
      <trkpt lat="43.273983" lon="-5.994791">
        <ele>363.0</ele>
        <time>2012-03-04T11:18:08Z</time>
      </trkpt>
      <trkpt lat="43.274263" lon="-5.994782">
        <ele>355.0</ele>
        <time>2012-03-04T11:18:12Z</time>
      </trkpt>
      <trkpt lat="43.274438" lon="-5.994701">
        <ele>335.0</ele>
        <time>2012-03-04T11:18:16Z</time>
      </trkpt>
      <trkpt lat="43.274586" lon="-5.994588">
        <ele>326.0</ele>
        <time>2012-03-04T11:18:20Z</time>
      </trkpt>
      <trkpt lat="43.274649" lon="-5.994519">
        <ele>324.0</ele>
        <time>2012-03-04T11:18:22Z</time>
      </trkpt>
      <trkpt lat="43.274828" lon="-5.994252">
        <ele>322.0</ele>
        <time>2012-03-04T11:18:28Z</time>
      </trkpt>
      <trkpt lat="43.274978" lon="-5.994063">
        <ele>318.0</ele>
        <time>2012-03-04T11:18:32Z</time>
      </trkpt>
      <trkpt lat="43.27516" lon="-5.993883">
        <ele>311.0</ele>
        <time>2012-03-04T11:18:36Z</time>
      </trkpt>
      <trkpt lat="43.275343" lon="-5.993703">
        <ele>307.0</ele>
        <time>2012-03-04T11:18:40Z</time>
      </trkpt>
      <trkpt lat="43.275427" lon="-5.993612">
        <ele>307.0</ele>
        <time>2012-03-04T11:18:42Z</time>
      </trkpt>
      <trkpt lat="43.275625" lon="-5.993408">
        <ele>308.0</ele>
        <time>2012-03-04T11:18:48Z</time>
      </trkpt>
      <trkpt lat="43.275688" lon="-5.993345">
        <ele>309.0</ele>
        <time>2012-03-04T11:18:51Z</time>
      </trkpt>
      <trkpt lat="43.275335" lon="-5.993517">
        <ele>313.0</ele>
        <time>2012-03-04T11:19:00Z</time>
      </trkpt>
      <trkpt lat="43.275115" lon="-5.993722">
        <ele>311.0</ele>
        <time>2012-03-04T11:19:04Z</time>
      </trkpt>
      <trkpt lat="43.274904" lon="-5.99394">
        <ele>309.0</ele>
        <time>2012-03-04T11:19:08Z</time>
      </trkpt>
      <trkpt lat="43.274768" lon="-5.994132">
        <ele>308.0</ele>
        <time>2012-03-04T11:19:11Z</time>
      </trkpt>
      <trkpt lat="43.27469" lon="-5.994247">
        <ele>307.0</ele>
        <time>2012-03-04T11:19:13Z</time>
      </trkpt>
      <trkpt lat="43.274783" lon="-5.994059">
        <ele>310.0</ele>
        <time>2012-03-04T11:19:20Z</time>
      </trkpt>
      <trkpt lat="43.275006" lon="-5.993796">
        <ele>311.0</ele>
        <time>2012-03-04T11:19:24Z</time>
      </trkpt>
      <trkpt lat="43.275284" lon="-5.993567">
        <ele>309.0</ele>
        <time>2012-03-04T11:19:28Z</time>
      </trkpt>
      <trkpt lat="43.275573" lon="-5.993311">
        <ele>309.0</ele>
        <time>2012-03-04T11:19:32Z</time>
      </trkpt>
      <trkpt lat="43.275714" lon="-5.993179">
        <ele>310.0</ele>
        <time>2012-03-04T11:19:34Z</time>
      </trkpt>
      <trkpt lat="43.276131" lon="-5.992788">
        <ele>309.0</ele>
        <time>2012-03-04T11:19:40Z</time>
      </trkpt>
      <trkpt lat="43.276315" lon="-5.992597">
        <ele>311.0</ele>
        <time>2012-03-04T11:19:43Z</time>
      </trkpt>
      <trkpt lat="43.276619" lon="-5.992254">
        <ele>316.0</ele>
        <time>2012-03-04T11:19:48Z</time>
      </trkpt>
      <trkpt lat="43.276876" lon="-5.991956">
        <ele>319.0</ele>
        <time>2012-03-04T11:19:52Z</time>
      </trkpt>
      <trkpt lat="43.277149" lon="-5.991619">
        <ele>319.0</ele>
        <time>2012-03-04T11:19:56Z</time>
      </trkpt>
      <trkpt lat="43.277418" lon="-5.991262">
        <ele>322.0</ele>
        <time>2012-03-04T11:20:00Z</time>
      </trkpt>
      <trkpt lat="43.277675" lon="-5.990902">
        <ele>326.0</ele>
        <time>2012-03-04T11:20:04Z</time>
      </trkpt>
      <trkpt lat="43.277907" lon="-5.990567">
        <ele>331.0</ele>
        <time>2012-03-04T11:20:08Z</time>
      </trkpt>
      <trkpt lat="43.27818" lon="-5.990351">
        <ele>333.0</ele>
        <time>2012-03-04T11:20:12Z</time>
      </trkpt>
      <trkpt lat="43.278488" lon="-5.990326">
        <ele>335.0</ele>
        <time>2012-03-04T11:20:16Z</time>
      </trkpt>
      <trkpt lat="43.278771" lon="-5.990396">
        <ele>339.0</ele>
        <time>2012-03-04T11:20:20Z</time>
      </trkpt>
      <trkpt lat="43.279021" lon="-5.990484">
        <ele>343.0</ele>
        <time>2012-03-04T11:20:24Z</time>
      </trkpt>
      <trkpt lat="43.279219" lon="-5.990538">
        <ele>345.0</ele>
        <time>2012-03-04T11:20:27Z</time>
      </trkpt>
      <trkpt lat="43.27961" lon="-5.990741">
        <ele>354.0</ele>
        <time>2012-03-04T11:20:32Z</time>
      </trkpt>
      <trkpt lat="43.279926" lon="-5.990984">
        <ele>361.0</ele>
        <time>2012-03-04T11:20:36Z</time>
      </trkpt>
      <trkpt lat="43.280336" lon="-5.990968">
        <ele>371.0</ele>
        <time>2012-03-04T11:20:40Z</time>
      </trkpt>
      <trkpt lat="43.28067" lon="-5.990533">
        <ele>382.0</ele>
        <time>2012-03-04T11:20:44Z</time>
      </trkpt>
      <trkpt lat="43.281057" lon="-5.990068">
        <ele>390.0</ele>
        <time>2012-03-04T11:20:48Z</time>
      </trkpt>
      <trkpt lat="43.281438" lon="-5.989528">
        <ele>393.0</ele>
        <time>2012-03-04T11:20:52Z</time>
      </trkpt>
      <trkpt lat="43.28181" lon="-5.988962">
        <ele>396.0</ele>
        <time>2012-03-04T11:20:56Z</time>
      </trkpt>
      <trkpt lat="43.28229" lon="-5.988633">
        <ele>399.0</ele>
        <time>2012-03-04T11:21:00Z</time>
      </trkpt>
      <trkpt lat="43.282747" lon="-5.988351">
        <ele>404.0</ele>
        <time>2012-03-04T11:21:04Z</time>
      </trkpt>
      <trkpt lat="43.283081" lon="-5.987929">
        <ele>408.0</ele>
        <time>2012-03-04T11:21:08Z</time>
      </trkpt>
      <trkpt lat="43.283357" lon="-5.987466">
        <ele>411.0</ele>
        <time>2012-03-04T11:21:12Z</time>
      </trkpt>
      <trkpt lat="43.283622" lon="-5.987011">
        <ele>414.0</ele>
        <time>2012-03-04T11:21:16Z</time>
      </trkpt>
      <trkpt lat="43.283819" lon="-5.986687">
        <ele>416.0</ele>
        <time>2012-03-04T11:21:19Z</time>
      </trkpt>
      <trkpt lat="43.284166" lon="-5.986258">
        <ele>418.0</ele>
        <time>2012-03-04T11:21:24Z</time>
      </trkpt>
      <trkpt lat="43.284429" lon="-5.985955">
        <ele>421.0</ele>
        <time>2012-03-04T11:21:28Z</time>
      </trkpt>
      <trkpt lat="43.284729" lon="-5.985588">
        <ele>422.0</ele>
        <time>2012-03-04T11:21:32Z</time>
      </trkpt>
      <trkpt lat="43.28501" lon="-5.985231">
        <ele>423.0</ele>
        <time>2012-03-04T11:21:36Z</time>
      </trkpt>
      <trkpt lat="43.285282" lon="-5.984885">
        <ele>425.0</ele>
        <time>2012-03-04T11:21:40Z</time>
      </trkpt>
      <trkpt lat="43.285583" lon="-5.984617">
        <ele>426.0</ele>
        <time>2012-03-04T11:21:44Z</time>
      </trkpt>
      <trkpt lat="43.285919" lon="-5.984442">
        <ele>426.0</ele>
        <time>2012-03-04T11:21:48Z</time>
      </trkpt>
      <trkpt lat="43.286296" lon="-5.98445">
        <ele>423.0</ele>
        <time>2012-03-04T11:21:52Z</time>
      </trkpt>
      <trkpt lat="43.286669" lon="-5.984491">
        <ele>416.0</ele>
        <time>2012-03-04T11:21:56Z</time>
      </trkpt>
      <trkpt lat="43.287027" lon="-5.984519">
        <ele>412.0</ele>
        <time>2012-03-04T11:22:00Z</time>
      </trkpt>
      <trkpt lat="43.287388" lon="-5.984516">
        <ele>410.0</ele>
        <time>2012-03-04T11:22:04Z</time>
      </trkpt>
      <trkpt lat="43.287728" lon="-5.984438">
        <ele>410.0</ele>
        <time>2012-03-04T11:22:08Z</time>
      </trkpt>
      <trkpt lat="43.288052" lon="-5.984284">
        <ele>409.0</ele>
        <time>2012-03-04T11:22:12Z</time>
      </trkpt>
      <trkpt lat="43.288378" lon="-5.984073">
        <ele>407.0</ele>
        <time>2012-03-04T11:22:16Z</time>
      </trkpt>
      <trkpt lat="43.288723" lon="-5.983857">
        <ele>401.0</ele>
        <time>2012-03-04T11:22:20Z</time>
      </trkpt>
      <trkpt lat="43.288985" lon="-5.983716">
        <ele>390.0</ele>
        <time>2012-03-04T11:22:23Z</time>
      </trkpt>
      <trkpt lat="43.289429" lon="-5.983466">
        <ele>364.0</ele>
        <time>2012-03-04T11:22:28Z</time>
      </trkpt>
      <trkpt lat="43.289774" lon="-5.983252">
        <ele>361.0</ele>
        <time>2012-03-04T11:22:32Z</time>
      </trkpt>
      <trkpt lat="43.290103" lon="-5.983067">
        <ele>366.0</ele>
        <time>2012-03-04T11:22:36Z</time>
      </trkpt>
      <trkpt lat="43.290411" lon="-5.982969">
        <ele>372.0</ele>
        <time>2012-03-04T11:22:40Z</time>
      </trkpt>
      <trkpt lat="43.290714" lon="-5.982917">
        <ele>375.0</ele>
        <time>2012-03-04T11:22:44Z</time>
      </trkpt>
      <trkpt lat="43.291023" lon="-5.982865">
        <ele>375.0</ele>
        <time>2012-03-04T11:22:48Z</time>
      </trkpt>
      <trkpt lat="43.291336" lon="-5.982785">
        <ele>372.0</ele>
        <time>2012-03-04T11:22:52Z</time>
      </trkpt>
      <trkpt lat="43.291658" lon="-5.98263">
        <ele>355.0</ele>
        <time>2012-03-04T11:22:56Z</time>
      </trkpt>
      <trkpt lat="43.291961" lon="-5.982416">
        <ele>343.0</ele>
        <time>2012-03-04T11:23:00Z</time>
      </trkpt>
      <trkpt lat="43.292273" lon="-5.982232">
        <ele>338.0</ele>
        <time>2012-03-04T11:23:04Z</time>
      </trkpt>
      <trkpt lat="43.292599" lon="-5.982213">
        <ele>338.0</ele>
        <time>2012-03-04T11:23:08Z</time>
      </trkpt>
      <trkpt lat="43.292922" lon="-5.982308">
        <ele>339.0</ele>
        <time>2012-03-04T11:23:12Z</time>
      </trkpt>
      <trkpt lat="43.293217" lon="-5.982519">
        <ele>336.0</ele>
        <time>2012-03-04T11:23:16Z</time>
      </trkpt>
      <trkpt lat="43.293504" lon="-5.982796">
        <ele>334.0</ele>
        <time>2012-03-04T11:23:20Z</time>
      </trkpt>
      <trkpt lat="43.293801" lon="-5.983062">
        <ele>330.0</ele>
        <time>2012-03-04T11:23:24Z</time>
      </trkpt>
      <trkpt lat="43.294097" lon="-5.983332">
        <ele>328.0</ele>
        <time>2012-03-04T11:23:28Z</time>
      </trkpt>
      <trkpt lat="43.29438" lon="-5.983613">
        <ele>328.0</ele>
        <time>2012-03-04T11:23:32Z</time>
      </trkpt>
      <trkpt lat="43.294652" lon="-5.983906">
        <ele>328.0</ele>
        <time>2012-03-04T11:23:36Z</time>
      </trkpt>
      <trkpt lat="43.294917" lon="-5.98421">
        <ele>328.0</ele>
        <time>2012-03-04T11:23:40Z</time>
      </trkpt>
      <trkpt lat="43.295193" lon="-5.984519">
        <ele>330.0</ele>
        <time>2012-03-04T11:23:44Z</time>
      </trkpt>
      <trkpt lat="43.295403" lon="-5.984745">
        <ele>330.0</ele>
        <time>2012-03-04T11:23:47Z</time>
      </trkpt>
      <trkpt lat="43.295732" lon="-5.985129">
        <ele>333.0</ele>
        <time>2012-03-04T11:23:52Z</time>
      </trkpt>
      <trkpt lat="43.295986" lon="-5.985311">
        <ele>336.0</ele>
        <time>2012-03-04T11:23:56Z</time>
      </trkpt>
      <trkpt lat="43.296257" lon="-5.985362">
        <ele>338.0</ele>
        <time>2012-03-04T11:24:00Z</time>
      </trkpt>
      <trkpt lat="43.296509" lon="-5.985398">
        <ele>340.0</ele>
        <time>2012-03-04T11:24:04Z</time>
      </trkpt>
      <trkpt lat="43.296833" lon="-5.985447">
        <ele>342.0</ele>
        <time>2012-03-04T11:24:09Z</time>
      </trkpt>
      <trkpt lat="43.296954" lon="-5.985481">
        <ele>343.0</ele>
        <time>2012-03-04T11:24:11Z</time>
      </trkpt>
      <trkpt lat="43.297181" lon="-5.985587">
        <ele>345.0</ele>
        <time>2012-03-04T11:24:15Z</time>
      </trkpt>
      <trkpt lat="43.297396" lon="-5.985705">
        <ele>346.0</ele>
        <time>2012-03-04T11:24:19Z</time>
      </trkpt>
      <trkpt lat="43.297587" lon="-5.985868">
        <ele>348.0</ele>
        <time>2012-03-04T11:24:23Z</time>
      </trkpt>
      <trkpt lat="43.297715" lon="-5.986135">
        <ele>349.0</ele>
        <time>2012-03-04T11:24:27Z</time>
      </trkpt>
      <trkpt lat="43.297834" lon="-5.986423">
        <ele>351.0</ele>
        <time>2012-03-04T11:24:31Z</time>
      </trkpt>
      <trkpt lat="43.297971" lon="-5.986681">
        <ele>353.0</ele>
        <time>2012-03-04T11:24:35Z</time>
      </trkpt>
      <trkpt lat="43.298112" lon="-5.986939">
        <ele>354.0</ele>
        <time>2012-03-04T11:24:39Z</time>
      </trkpt>
      <trkpt lat="43.29825" lon="-5.987192">
        <ele>354.0</ele>
        <time>2012-03-04T11:24:43Z</time>
      </trkpt>
      <trkpt lat="43.298446" lon="-5.987747">
        <ele>355.0</ele>
        <time>2012-03-04T11:24:51Z</time>
      </trkpt>
      <trkpt lat="43.299751" lon="-5.989054">
        <ele>346.0</ele>
        <time>2012-03-04T11:25:17Z</time>
      </trkpt>
      <trkpt lat="43.299975" lon="-5.989052">
        <ele>339.0</ele>
        <time>2012-03-04T11:25:20Z</time>
      </trkpt>
      <trkpt lat="43.300296" lon="-5.989038">
        <ele>331.0</ele>
        <time>2012-03-04T11:25:24Z</time>
      </trkpt>
      <trkpt lat="43.30063" lon="-5.988865">
        <ele>296.0</ele>
        <time>2012-03-04T11:25:29Z</time>
      </trkpt>
      <trkpt lat="43.300836" lon="-5.988731">
        <ele>284.0</ele>
        <time>2012-03-04T11:25:32Z</time>
      </trkpt>
      <trkpt lat="43.301122" lon="-5.988493">
        <ele>274.0</ele>
        <time>2012-03-04T11:25:36Z</time>
      </trkpt>
      <trkpt lat="43.30139" lon="-5.988188">
        <ele>268.0</ele>
        <time>2012-03-04T11:25:40Z</time>
      </trkpt>
      <trkpt lat="43.301644" lon="-5.98783">
        <ele>266.0</ele>
        <time>2012-03-04T11:25:44Z</time>
      </trkpt>
      <trkpt lat="43.301825" lon="-5.98754">
        <ele>267.0</ele>
        <time>2012-03-04T11:25:47Z</time>
      </trkpt>
      <trkpt lat="43.302147" lon="-5.986861">
        <ele>269.0</ele>
        <time>2012-03-04T11:25:53Z</time>
      </trkpt>
      <trkpt lat="43.302333" lon="-5.986402">
        <ele>272.0</ele>
        <time>2012-03-04T11:25:57Z</time>
      </trkpt>
      <trkpt lat="43.302536" lon="-5.985979">
        <ele>273.0</ele>
        <time>2012-03-04T11:26:01Z</time>
      </trkpt>
      <trkpt lat="43.302775" lon="-5.985589">
        <ele>276.0</ele>
        <time>2012-03-04T11:26:05Z</time>
      </trkpt>
      <trkpt lat="43.303009" lon="-5.985212">
        <ele>278.0</ele>
        <time>2012-03-04T11:26:09Z</time>
      </trkpt>
      <trkpt lat="43.303254" lon="-5.984851">
        <ele>282.0</ele>
        <time>2012-03-04T11:26:13Z</time>
      </trkpt>
      <trkpt lat="43.303512" lon="-5.98453">
        <ele>284.0</ele>
        <time>2012-03-04T11:26:17Z</time>
      </trkpt>
      <trkpt lat="43.303801" lon="-5.984237">
        <ele>283.0</ele>
        <time>2012-03-04T11:26:21Z</time>
      </trkpt>
      <trkpt lat="43.304045" lon="-5.984043">
        <ele>281.0</ele>
        <time>2012-03-04T11:26:24Z</time>
      </trkpt>
      <trkpt lat="43.304508" lon="-5.983899">
        <ele>280.0</ele>
        <time>2012-03-04T11:26:29Z</time>
      </trkpt>
      <trkpt lat="43.30487" lon="-5.983874">
        <ele>280.0</ele>
        <time>2012-03-04T11:26:33Z</time>
      </trkpt>
      <trkpt lat="43.305215" lon="-5.983907">
        <ele>279.0</ele>
        <time>2012-03-04T11:26:37Z</time>
      </trkpt>
      <trkpt lat="43.305576" lon="-5.983998">
        <ele>280.0</ele>
        <time>2012-03-04T11:26:41Z</time>
      </trkpt>
      <trkpt lat="43.305929" lon="-5.984346">
        <ele>280.0</ele>
        <time>2012-03-04T11:26:45Z</time>
      </trkpt>
      <trkpt lat="43.30606" lon="-5.984956">
        <ele>276.0</ele>
        <time>2012-03-04T11:26:49Z</time>
      </trkpt>
      <trkpt lat="43.306163" lon="-5.985356">
        <ele>273.0</ele>
        <time>2012-03-04T11:26:52Z</time>
      </trkpt>
      <trkpt lat="43.306497" lon="-5.985858">
        <ele>269.0</ele>
        <time>2012-03-04T11:26:57Z</time>
      </trkpt>
      <trkpt lat="43.306901" lon="-5.985993">
        <ele>269.0</ele>
        <time>2012-03-04T11:27:01Z</time>
      </trkpt>
      <trkpt lat="43.307325" lon="-5.986101">
        <ele>267.0</ele>
        <time>2012-03-04T11:27:05Z</time>
      </trkpt>
      <trkpt lat="43.307684" lon="-5.986205">
        <ele>267.0</ele>
        <time>2012-03-04T11:27:09Z</time>
      </trkpt>
      <trkpt lat="43.308005" lon="-5.98632">
        <ele>267.0</ele>
        <time>2012-03-04T11:27:13Z</time>
      </trkpt>
      <trkpt lat="43.308261" lon="-5.986456">
        <ele>267.0</ele>
        <time>2012-03-04T11:27:17Z</time>
      </trkpt>
      <trkpt lat="43.30853" lon="-5.986625">
        <ele>267.0</ele>
        <time>2012-03-04T11:27:21Z</time>
      </trkpt>
      <trkpt lat="43.308812" lon="-5.986768">
        <ele>267.0</ele>
        <time>2012-03-04T11:27:25Z</time>
      </trkpt>
      <trkpt lat="43.309099" lon="-5.986893">
        <ele>265.0</ele>
        <time>2012-03-04T11:27:29Z</time>
      </trkpt>
      <trkpt lat="43.309308" lon="-5.986993">
        <ele>264.0</ele>
        <time>2012-03-04T11:27:32Z</time>
      </trkpt>
      <trkpt lat="43.309514" lon="-5.987112">
        <ele>258.0</ele>
        <time>2012-03-04T11:27:36Z</time>
      </trkpt>
      <trkpt lat="43.309542" lon="-5.987214">
        <ele>248.0</ele>
        <time>2012-03-04T11:27:40Z</time>
      </trkpt>
      <trkpt lat="43.309687" lon="-5.987366">
        <ele>240.0</ele>
        <time>2012-03-04T11:27:45Z</time>
      </trkpt>
      <trkpt lat="43.309859" lon="-5.987477">
        <ele>231.0</ele>
        <time>2012-03-04T11:27:49Z</time>
      </trkpt>
      <trkpt lat="43.309954" lon="-5.987531">
        <ele>228.0</ele>
        <time>2012-03-04T11:27:51Z</time>
      </trkpt>
      <trkpt lat="43.31027" lon="-5.987646">
        <ele>221.0</ele>
        <time>2012-03-04T11:27:57Z</time>
      </trkpt>
      <trkpt lat="43.310501" lon="-5.9877">
        <ele>218.0</ele>
        <time>2012-03-04T11:28:01Z</time>
      </trkpt>
      <trkpt lat="43.31076" lon="-5.987779">
        <ele>215.0</ele>
        <time>2012-03-04T11:28:05Z</time>
      </trkpt>
      <trkpt lat="43.310968" lon="-5.987845">
        <ele>214.0</ele>
        <time>2012-03-04T11:28:08Z</time>
      </trkpt>
      <trkpt lat="43.311317" lon="-5.987955">
        <ele>211.0</ele>
        <time>2012-03-04T11:28:13Z</time>
      </trkpt>
      <trkpt lat="43.3116" lon="-5.988046">
        <ele>209.0</ele>
        <time>2012-03-04T11:28:17Z</time>
      </trkpt>
      <trkpt lat="43.311898" lon="-5.988128">
        <ele>209.0</ele>
        <time>2012-03-04T11:28:21Z</time>
      </trkpt>
      <trkpt lat="43.312201" lon="-5.988226">
        <ele>208.0</ele>
        <time>2012-03-04T11:28:25Z</time>
      </trkpt>
      <trkpt lat="43.312352" lon="-5.988275">
        <ele>208.0</ele>
        <time>2012-03-04T11:28:27Z</time>
      </trkpt>
      <trkpt lat="43.312716" lon="-5.988421">
        <ele>206.0</ele>
        <time>2012-03-04T11:28:32Z</time>
      </trkpt>
      <trkpt lat="43.313056" lon="-5.988633">
        <ele>204.0</ele>
        <time>2012-03-04T11:28:37Z</time>
      </trkpt>
      <trkpt lat="43.31331" lon="-5.988832">
        <ele>202.0</ele>
        <time>2012-03-04T11:28:41Z</time>
      </trkpt>
      <trkpt lat="43.31343" lon="-5.988946">
        <ele>201.0</ele>
        <time>2012-03-04T11:28:43Z</time>
      </trkpt>
      <trkpt lat="43.313694" lon="-5.989389">
        <ele>199.0</ele>
        <time>2012-03-04T11:28:49Z</time>
      </trkpt>
      <trkpt lat="43.313833" lon="-5.989699">
        <ele>199.0</ele>
        <time>2012-03-04T11:28:53Z</time>
      </trkpt>
      <trkpt lat="43.3139" lon="-5.98986">
        <ele>199.0</ele>
        <time>2012-03-04T11:28:55Z</time>
      </trkpt>
      <trkpt lat="43.314118" lon="-5.990327">
        <ele>199.0</ele>
        <time>2012-03-04T11:29:01Z</time>
      </trkpt>
      <trkpt lat="43.314285" lon="-5.990603">
        <ele>199.0</ele>
        <time>2012-03-04T11:29:05Z</time>
      </trkpt>
      <trkpt lat="43.314472" lon="-5.990841">
        <ele>199.0</ele>
        <time>2012-03-04T11:29:09Z</time>
      </trkpt>
      <trkpt lat="43.314693" lon="-5.991055">
        <ele>199.0</ele>
        <time>2012-03-04T11:29:13Z</time>
      </trkpt>
      <trkpt lat="43.314943" lon="-5.99123">
        <ele>198.0</ele>
        <time>2012-03-04T11:29:17Z</time>
      </trkpt>
      <trkpt lat="43.315194" lon="-5.991386">
        <ele>198.0</ele>
        <time>2012-03-04T11:29:21Z</time>
      </trkpt>
      <trkpt lat="43.315441" lon="-5.991519">
        <ele>197.0</ele>
        <time>2012-03-04T11:29:25Z</time>
      </trkpt>
      <trkpt lat="43.315694" lon="-5.99162">
        <ele>197.0</ele>
        <time>2012-03-04T11:29:29Z</time>
      </trkpt>
      <trkpt lat="43.315958" lon="-5.991689">
        <ele>196.0</ele>
        <time>2012-03-04T11:29:33Z</time>
      </trkpt>
      <trkpt lat="43.316229" lon="-5.991709">
        <ele>195.0</ele>
        <time>2012-03-04T11:29:37Z</time>
      </trkpt>
      <trkpt lat="43.316502" lon="-5.991733">
        <ele>194.0</ele>
        <time>2012-03-04T11:29:41Z</time>
      </trkpt>
      <trkpt lat="43.316775" lon="-5.991774">
        <ele>193.0</ele>
        <time>2012-03-04T11:29:45Z</time>
      </trkpt>
      <trkpt lat="43.316909" lon="-5.99179">
        <ele>193.0</ele>
        <time>2012-03-04T11:29:47Z</time>
      </trkpt>
      <trkpt lat="43.317169" lon="-5.991817">
        <ele>192.0</ele>
        <time>2012-03-04T11:29:51Z</time>
      </trkpt>
      <trkpt lat="43.317564" lon="-5.991856">
        <ele>191.0</ele>
        <time>2012-03-04T11:29:57Z</time>
      </trkpt>
      <trkpt lat="43.317768" lon="-5.991901">
        <ele>191.0</ele>
        <time>2012-03-04T11:30:00Z</time>
      </trkpt>
      <trkpt lat="43.318126" lon="-5.99198">
        <ele>192.0</ele>
        <time>2012-03-04T11:30:05Z</time>
      </trkpt>
      <trkpt lat="43.318461" lon="-5.992086">
        <ele>192.0</ele>
        <time>2012-03-04T11:30:09Z</time>
      </trkpt>
      <trkpt lat="43.318819" lon="-5.992214">
        <ele>192.0</ele>
        <time>2012-03-04T11:30:13Z</time>
      </trkpt>
      <trkpt lat="43.319181" lon="-5.992327">
        <ele>192.0</ele>
        <time>2012-03-04T11:30:17Z</time>
      </trkpt>
      <trkpt lat="43.319532" lon="-5.99245">
        <ele>192.0</ele>
        <time>2012-03-04T11:30:21Z</time>
      </trkpt>
      <trkpt lat="43.319879" lon="-5.992614">
        <ele>191.0</ele>
        <time>2012-03-04T11:30:25Z</time>
      </trkpt>
      <trkpt lat="43.32022" lon="-5.992822">
        <ele>191.0</ele>
        <time>2012-03-04T11:30:29Z</time>
      </trkpt>
      <trkpt lat="43.3204" lon="-5.992909">
        <ele>191.0</ele>
        <time>2012-03-04T11:30:31Z</time>
      </trkpt>
      <trkpt lat="43.320967" lon="-5.992915">
        <ele>190.0</ele>
        <time>2012-03-04T11:30:37Z</time>
      </trkpt>
      <trkpt lat="43.321338" lon="-5.992849">
        <ele>189.0</ele>
        <time>2012-03-04T11:30:41Z</time>
      </trkpt>
      <trkpt lat="43.32161" lon="-5.992801">
        <ele>190.0</ele>
        <time>2012-03-04T11:30:44Z</time>
      </trkpt>
      <trkpt lat="43.321978" lon="-5.992747">
        <ele>190.0</ele>
        <time>2012-03-04T11:30:48Z</time>
      </trkpt>
      <trkpt lat="43.32245" lon="-5.9927">
        <ele>189.0</ele>
        <time>2012-03-04T11:30:53Z</time>
      </trkpt>
      <trkpt lat="43.322832" lon="-5.992696">
        <ele>188.0</ele>
        <time>2012-03-04T11:30:57Z</time>
      </trkpt>
      <trkpt lat="43.323134" lon="-5.992716">
        <ele>188.0</ele>
        <time>2012-03-04T11:31:00Z</time>
      </trkpt>
      <trkpt lat="43.323634" lon="-5.992743">
        <ele>188.0</ele>
        <time>2012-03-04T11:31:05Z</time>
      </trkpt>
      <trkpt lat="43.324005" lon="-5.992612">
        <ele>189.0</ele>
        <time>2012-03-04T11:31:09Z</time>
      </trkpt>
      <trkpt lat="43.324355" lon="-5.992391">
        <ele>189.0</ele>
        <time>2012-03-04T11:31:13Z</time>
      </trkpt>
      <trkpt lat="43.324692" lon="-5.992145">
        <ele>189.0</ele>
        <time>2012-03-04T11:31:17Z</time>
      </trkpt>
      <trkpt lat="43.325014" lon="-5.991913">
        <ele>189.0</ele>
        <time>2012-03-04T11:31:21Z</time>
      </trkpt>
      <trkpt lat="43.325321" lon="-5.991689">
        <ele>190.0</ele>
        <time>2012-03-04T11:31:25Z</time>
      </trkpt>
      <trkpt lat="43.325617" lon="-5.991488">
        <ele>191.0</ele>
        <time>2012-03-04T11:31:29Z</time>
      </trkpt>
      <trkpt lat="43.325894" lon="-5.991291">
        <ele>191.0</ele>
        <time>2012-03-04T11:31:33Z</time>
      </trkpt>
      <trkpt lat="43.326154" lon="-5.991081">
        <ele>190.0</ele>
        <time>2012-03-04T11:31:37Z</time>
      </trkpt>
      <trkpt lat="43.326393" lon="-5.990849">
        <ele>190.0</ele>
        <time>2012-03-04T11:31:41Z</time>
      </trkpt>
      <trkpt lat="43.326564" lon="-5.990664">
        <ele>190.0</ele>
        <time>2012-03-04T11:31:44Z</time>
      </trkpt>
      <trkpt lat="43.326844" lon="-5.990352">
        <ele>190.0</ele>
        <time>2012-03-04T11:31:49Z</time>
      </trkpt>
      <trkpt lat="43.326953" lon="-5.990223">
        <ele>189.0</ele>
        <time>2012-03-04T11:31:51Z</time>
      </trkpt>
      <trkpt lat="43.32722" lon="-5.989889">
        <ele>190.0</ele>
        <time>2012-03-04T11:31:56Z</time>
      </trkpt>
      <trkpt lat="43.327525" lon="-5.989532">
        <ele>190.0</ele>
        <time>2012-03-04T11:32:01Z</time>
      </trkpt>
      <trkpt lat="43.327773" lon="-5.989227">
        <ele>189.0</ele>
        <time>2012-03-04T11:32:05Z</time>
      </trkpt>
      <trkpt lat="43.328026" lon="-5.9889">
        <ele>189.0</ele>
        <time>2012-03-04T11:32:09Z</time>
      </trkpt>
      <trkpt lat="43.328291" lon="-5.988581">
        <ele>188.0</ele>
        <time>2012-03-04T11:32:13Z</time>
      </trkpt>
      <trkpt lat="43.328569" lon="-5.988259">
        <ele>188.0</ele>
        <time>2012-03-04T11:32:17Z</time>
      </trkpt>
      <trkpt lat="43.328884" lon="-5.988042">
        <ele>188.0</ele>
        <time>2012-03-04T11:32:21Z</time>
      </trkpt>
      <trkpt lat="43.329232" lon="-5.98798">
        <ele>188.0</ele>
        <time>2012-03-04T11:32:25Z</time>
      </trkpt>
      <trkpt lat="43.329558" lon="-5.987983">
        <ele>189.0</ele>
        <time>2012-03-04T11:32:29Z</time>
      </trkpt>
      <trkpt lat="43.329876" lon="-5.987987">
        <ele>189.0</ele>
        <time>2012-03-04T11:32:33Z</time>
      </trkpt>
      <trkpt lat="43.330206" lon="-5.987981">
        <ele>188.0</ele>
        <time>2012-03-04T11:32:37Z</time>
      </trkpt>
      <trkpt lat="43.330455" lon="-5.987996">
        <ele>187.0</ele>
        <time>2012-03-04T11:32:40Z</time>
      </trkpt>
      <trkpt lat="43.330706" lon="-5.988032">
        <ele>186.0</ele>
        <time>2012-03-04T11:32:43Z</time>
      </trkpt>
      <trkpt lat="43.331218" lon="-5.988051">
        <ele>183.0</ele>
        <time>2012-03-04T11:32:49Z</time>
      </trkpt>
      <trkpt lat="43.331563" lon="-5.988049">
        <ele>183.0</ele>
        <time>2012-03-04T11:32:53Z</time>
      </trkpt>
      <trkpt lat="43.331909" lon="-5.988033">
        <ele>183.0</ele>
        <time>2012-03-04T11:32:57Z</time>
      </trkpt>
      <trkpt lat="43.332255" lon="-5.98802">
        <ele>183.0</ele>
        <time>2012-03-04T11:33:01Z</time>
      </trkpt>
      <trkpt lat="43.332623" lon="-5.987961">
        <ele>183.0</ele>
        <time>2012-03-04T11:33:05Z</time>
      </trkpt>
      <trkpt lat="43.333021" lon="-5.987799">
        <ele>183.0</ele>
        <time>2012-03-04T11:33:09Z</time>
      </trkpt>
      <trkpt lat="43.333404" lon="-5.987613">
        <ele>184.0</ele>
        <time>2012-03-04T11:33:13Z</time>
      </trkpt>
      <trkpt lat="43.33377" lon="-5.987424">
        <ele>184.0</ele>
        <time>2012-03-04T11:33:17Z</time>
      </trkpt>
      <trkpt lat="43.33414" lon="-5.98725">
        <ele>185.0</ele>
        <time>2012-03-04T11:33:21Z</time>
      </trkpt>
      <trkpt lat="43.334531" lon="-5.98704">
        <ele>186.0</ele>
        <time>2012-03-04T11:33:25Z</time>
      </trkpt>
      <trkpt lat="43.334918" lon="-5.986796">
        <ele>186.0</ele>
        <time>2012-03-04T11:33:29Z</time>
      </trkpt>
      <trkpt lat="43.335283" lon="-5.98657">
        <ele>186.0</ele>
        <time>2012-03-04T11:33:33Z</time>
      </trkpt>
      <trkpt lat="43.33567" lon="-5.986521">
        <ele>186.0</ele>
        <time>2012-03-04T11:33:37Z</time>
      </trkpt>
      <trkpt lat="43.336075" lon="-5.986517">
        <ele>187.0</ele>
        <time>2012-03-04T11:33:41Z</time>
      </trkpt>
      <trkpt lat="43.336485" lon="-5.986421">
        <ele>187.0</ele>
        <time>2012-03-04T11:33:45Z</time>
      </trkpt>
      <trkpt lat="43.337225" lon="-5.985792">
        <ele>187.0</ele>
        <time>2012-03-04T11:33:53Z</time>
      </trkpt>
      <trkpt lat="43.337646" lon="-5.985733">
        <ele>187.0</ele>
        <time>2012-03-04T11:33:57Z</time>
      </trkpt>
      <trkpt lat="43.338059" lon="-5.985739">
        <ele>186.0</ele>
        <time>2012-03-04T11:34:01Z</time>
      </trkpt>
      <trkpt lat="43.338436" lon="-5.985641">
        <ele>186.0</ele>
        <time>2012-03-04T11:34:05Z</time>
      </trkpt>
      <trkpt lat="43.338803" lon="-5.985376">
        <ele>185.0</ele>
        <time>2012-03-04T11:34:09Z</time>
      </trkpt>
      <trkpt lat="43.339154" lon="-5.985073">
        <ele>185.0</ele>
        <time>2012-03-04T11:34:13Z</time>
      </trkpt>
      <trkpt lat="43.339519" lon="-5.984755">
        <ele>185.0</ele>
        <time>2012-03-04T11:34:17Z</time>
      </trkpt>
      <trkpt lat="43.3398" lon="-5.984551">
        <ele>185.0</ele>
        <time>2012-03-04T11:34:20Z</time>
      </trkpt>
      <trkpt lat="43.3403" lon="-5.984192">
        <ele>185.0</ele>
        <time>2012-03-04T11:34:25Z</time>
      </trkpt>
      <trkpt lat="43.340567" lon="-5.984017">
        <ele>185.0</ele>
        <time>2012-03-04T11:34:28Z</time>
      </trkpt>
      <trkpt lat="43.340822" lon="-5.983803">
        <ele>185.0</ele>
        <time>2012-03-04T11:34:31Z</time>
      </trkpt>
      <trkpt lat="43.341196" lon="-5.983295">
        <ele>186.0</ele>
        <time>2012-03-04T11:34:36Z</time>
      </trkpt>
      <trkpt lat="43.341511" lon="-5.982897">
        <ele>186.0</ele>
        <time>2012-03-04T11:34:40Z</time>
      </trkpt>
      <trkpt lat="43.341837" lon="-5.982505">
        <ele>187.0</ele>
        <time>2012-03-04T11:34:44Z</time>
      </trkpt>
      <trkpt lat="43.342121" lon="-5.98205">
        <ele>187.0</ele>
        <time>2012-03-04T11:34:48Z</time>
      </trkpt>
      <trkpt lat="43.342397" lon="-5.981575">
        <ele>187.0</ele>
        <time>2012-03-04T11:34:52Z</time>
      </trkpt>
      <trkpt lat="43.34264" lon="-5.98109">
        <ele>187.0</ele>
        <time>2012-03-04T11:34:56Z</time>
      </trkpt>
      <trkpt lat="43.342808" lon="-5.980577">
        <ele>187.0</ele>
        <time>2012-03-04T11:35:00Z</time>
      </trkpt>
      <trkpt lat="43.342881" lon="-5.979997">
        <ele>187.0</ele>
        <time>2012-03-04T11:35:04Z</time>
      </trkpt>
      <trkpt lat="43.342978" lon="-5.979414">
        <ele>187.0</ele>
        <time>2012-03-04T11:35:08Z</time>
      </trkpt>
      <trkpt lat="43.342995" lon="-5.978858">
        <ele>185.0</ele>
        <time>2012-03-04T11:35:12Z</time>
      </trkpt>
      <trkpt lat="43.342991" lon="-5.978574">
        <ele>184.0</ele>
        <time>2012-03-04T11:35:14Z</time>
      </trkpt>
      <trkpt lat="43.343098" lon="-5.977844">
        <ele>182.0</ele>
        <time>2012-03-04T11:35:19Z</time>
      </trkpt>
      <trkpt lat="43.343218" lon="-5.977131">
        <ele>178.0</ele>
        <time>2012-03-04T11:35:24Z</time>
      </trkpt>
      <trkpt lat="43.343327" lon="-5.976644">
        <ele>177.0</ele>
        <time>2012-03-04T11:35:28Z</time>
      </trkpt>
      <trkpt lat="43.343386" lon="-5.976407">
        <ele>177.0</ele>
        <time>2012-03-04T11:35:30Z</time>
      </trkpt>
      <trkpt lat="43.343583" lon="-5.975666">
        <ele>178.0</ele>
        <time>2012-03-04T11:35:36Z</time>
      </trkpt>
      <trkpt lat="43.34375" lon="-5.975196">
        <ele>179.0</ele>
        <time>2012-03-04T11:35:40Z</time>
      </trkpt>
      <trkpt lat="43.343939" lon="-5.974757">
        <ele>180.0</ele>
        <time>2012-03-04T11:35:44Z</time>
      </trkpt>
      <trkpt lat="43.344128" lon="-5.974307">
        <ele>180.0</ele>
        <time>2012-03-04T11:35:48Z</time>
      </trkpt>
      <trkpt lat="43.344332" lon="-5.973877">
        <ele>181.0</ele>
        <time>2012-03-04T11:35:52Z</time>
      </trkpt>
      <trkpt lat="43.344586" lon="-5.973483">
        <ele>181.0</ele>
        <time>2012-03-04T11:35:56Z</time>
      </trkpt>
      <trkpt lat="43.344792" lon="-5.973192">
        <ele>181.0</ele>
        <time>2012-03-04T11:35:59Z</time>
      </trkpt>
      <trkpt lat="43.345138" lon="-5.972696">
        <ele>181.0</ele>
        <time>2012-03-04T11:36:04Z</time>
      </trkpt>
      <trkpt lat="43.345424" lon="-5.972321">
        <ele>182.0</ele>
        <time>2012-03-04T11:36:08Z</time>
      </trkpt>
      <trkpt lat="43.345729" lon="-5.971984">
        <ele>182.0</ele>
        <time>2012-03-04T11:36:12Z</time>
      </trkpt>
      <trkpt lat="43.345878" lon="-5.971827">
        <ele>183.0</ele>
        <time>2012-03-04T11:36:14Z</time>
      </trkpt>
      <trkpt lat="43.346256" lon="-5.971455">
        <ele>184.0</ele>
        <time>2012-03-04T11:36:19Z</time>
      </trkpt>
      <trkpt lat="43.346561" lon="-5.97116">
        <ele>184.0</ele>
        <time>2012-03-04T11:36:23Z</time>
      </trkpt>
      <trkpt lat="43.346963" lon="-5.970869">
        <ele>185.0</ele>
        <time>2012-03-04T11:36:28Z</time>
      </trkpt>
      <trkpt lat="43.347293" lon="-5.970642">
        <ele>185.0</ele>
        <time>2012-03-04T11:36:32Z</time>
      </trkpt>
      <trkpt lat="43.347618" lon="-5.970411">
        <ele>186.0</ele>
        <time>2012-03-04T11:36:36Z</time>
      </trkpt>
      <trkpt lat="43.347937" lon="-5.970186">
        <ele>187.0</ele>
        <time>2012-03-04T11:36:40Z</time>
      </trkpt>
      <trkpt lat="43.348199" lon="-5.970027">
        <ele>187.0</ele>
        <time>2012-03-04T11:36:43Z</time>
      </trkpt>
      <trkpt lat="43.348652" lon="-5.969778">
        <ele>187.0</ele>
        <time>2012-03-04T11:36:48Z</time>
      </trkpt>
      <trkpt lat="43.348915" lon="-5.969653">
        <ele>187.0</ele>
        <time>2012-03-04T11:36:51Z</time>
      </trkpt>
      <trkpt lat="43.349346" lon="-5.969481">
        <ele>185.0</ele>
        <time>2012-03-04T11:36:56Z</time>
      </trkpt>
      <trkpt lat="43.349702" lon="-5.969377">
        <ele>184.0</ele>
        <time>2012-03-04T11:37:00Z</time>
      </trkpt>
      <trkpt lat="43.350051" lon="-5.969267">
        <ele>183.0</ele>
        <time>2012-03-04T11:37:04Z</time>
      </trkpt>
      <trkpt lat="43.350223" lon="-5.969207">
        <ele>184.0</ele>
        <time>2012-03-04T11:37:06Z</time>
      </trkpt>
      <trkpt lat="43.350646" lon="-5.968803">
        <ele>182.0</ele>
        <time>2012-03-04T11:37:12Z</time>
      </trkpt>
      <trkpt lat="43.350962" lon="-5.968627">
        <ele>181.0</ele>
        <time>2012-03-04T11:37:16Z</time>
      </trkpt>
      <trkpt lat="43.351123" lon="-5.968548">
        <ele>180.0</ele>
        <time>2012-03-04T11:37:18Z</time>
      </trkpt>
      <trkpt lat="43.35154" lon="-5.968329">
        <ele>178.0</ele>
        <time>2012-03-04T11:37:24Z</time>
      </trkpt>
      <trkpt lat="43.351717" lon="-5.968245">
        <ele>178.0</ele>
        <time>2012-03-04T11:37:27Z</time>
      </trkpt>
      <trkpt lat="43.351928" lon="-5.96814">
        <ele>177.0</ele>
        <time>2012-03-04T11:37:31Z</time>
      </trkpt>
      <trkpt lat="43.352119" lon="-5.968042">
        <ele>176.0</ele>
        <time>2012-03-04T11:37:35Z</time>
      </trkpt>
      <trkpt lat="43.352296" lon="-5.967892">
        <ele>175.0</ele>
        <time>2012-03-04T11:37:39Z</time>
      </trkpt>
      <trkpt lat="43.352438" lon="-5.967671">
        <ele>175.0</ele>
        <time>2012-03-04T11:37:43Z</time>
      </trkpt>
      <trkpt lat="43.35258" lon="-5.967449">
        <ele>175.0</ele>
        <time>2012-03-04T11:37:47Z</time>
      </trkpt>
      <trkpt lat="43.352977" lon="-5.967201">
        <ele>175.0</ele>
        <time>2012-03-04T11:37:55Z</time>
      </trkpt>
      <trkpt lat="43.35322" lon="-5.967093">
        <ele>175.0</ele>
        <time>2012-03-04T11:37:59Z</time>
      </trkpt>
      <trkpt lat="43.353537" lon="-5.966916">
        <ele>176.0</ele>
        <time>2012-03-04T11:38:04Z</time>
      </trkpt>
      <trkpt lat="43.353653" lon="-5.966828">
        <ele>176.0</ele>
        <time>2012-03-04T11:38:06Z</time>
      </trkpt>
      <trkpt lat="43.353896" lon="-5.966613">
        <ele>175.0</ele>
        <time>2012-03-04T11:38:11Z</time>
      </trkpt>
      <trkpt lat="43.353953" lon="-5.966529">
        <ele>174.0</ele>
        <time>2012-03-04T11:38:13Z</time>
      </trkpt>
      <trkpt lat="43.354204" lon="-5.966461">
        <ele>174.0</ele>
        <time>2012-03-04T11:38:19Z</time>
      </trkpt>
      <trkpt lat="43.354379" lon="-5.966453">
        <ele>174.0</ele>
        <time>2012-03-04T11:38:23Z</time>
      </trkpt>
      <trkpt lat="43.354525" lon="-5.966435">
        <ele>174.0</ele>
        <time>2012-03-04T11:38:27Z</time>
      </trkpt>
      <trkpt lat="43.354662" lon="-5.966412">
        <ele>174.0</ele>
        <time>2012-03-04T11:38:31Z</time>
      </trkpt>
      <trkpt lat="43.354799" lon="-5.966399">
        <ele>174.0</ele>
        <time>2012-03-04T11:38:35Z</time>
      </trkpt>
      <trkpt lat="43.354942" lon="-5.966397">
        <ele>174.0</ele>
        <time>2012-03-04T11:38:39Z</time>
      </trkpt>
      <trkpt lat="43.355089" lon="-5.966376">
        <ele>174.0</ele>
        <time>2012-03-04T11:38:43Z</time>
      </trkpt>
      <trkpt lat="43.355237" lon="-5.966365">
        <ele>174.0</ele>
        <time>2012-03-04T11:38:47Z</time>
      </trkpt>
      <trkpt lat="43.355373" lon="-5.966351">
        <ele>174.0</ele>
        <time>2012-03-04T11:38:51Z</time>
      </trkpt>
      <trkpt lat="43.355501" lon="-5.966334">
        <ele>173.0</ele>
        <time>2012-03-04T11:38:55Z</time>
      </trkpt>
      <trkpt lat="43.355632" lon="-5.966311">
        <ele>173.0</ele>
        <time>2012-03-04T11:38:59Z</time>
      </trkpt>
      <trkpt lat="43.355761" lon="-5.96629">
        <ele>173.0</ele>
        <time>2012-03-04T11:39:03Z</time>
      </trkpt>
      <trkpt lat="43.355888" lon="-5.966263">
        <ele>173.0</ele>
        <time>2012-03-04T11:39:07Z</time>
      </trkpt>
      <trkpt lat="43.356015" lon="-5.966231">
        <ele>172.0</ele>
        <time>2012-03-04T11:39:11Z</time>
      </trkpt>
      <trkpt lat="43.356167" lon="-5.966176">
        <ele>172.0</ele>
        <time>2012-03-04T11:39:16Z</time>
      </trkpt>
      <trkpt lat="43.356293" lon="-5.966124">
        <ele>172.0</ele>
        <time>2012-03-04T11:39:20Z</time>
      </trkpt>
      <trkpt lat="43.356427" lon="-5.966069">
        <ele>172.0</ele>
        <time>2012-03-04T11:39:24Z</time>
      </trkpt>
      <trkpt lat="43.356493" lon="-5.966042">
        <ele>172.0</ele>
        <time>2012-03-04T11:39:26Z</time>
      </trkpt>
      <trkpt lat="43.356686" lon="-5.965961">
        <ele>172.0</ele>
        <time>2012-03-04T11:39:32Z</time>
      </trkpt>
      <trkpt lat="43.35681" lon="-5.965899">
        <ele>172.0</ele>
        <time>2012-03-04T11:39:36Z</time>
      </trkpt>
      <trkpt lat="43.356941" lon="-5.965841">
        <ele>172.0</ele>
        <time>2012-03-04T11:39:40Z</time>
      </trkpt>
      <trkpt lat="43.357072" lon="-5.965782">
        <ele>172.0</ele>
        <time>2012-03-04T11:39:44Z</time>
      </trkpt>
      <trkpt lat="43.357197" lon="-5.965724">
        <ele>172.0</ele>
        <time>2012-03-04T11:39:48Z</time>
      </trkpt>
      <trkpt lat="43.357325" lon="-5.965672">
        <ele>172.0</ele>
        <time>2012-03-04T11:39:52Z</time>
      </trkpt>
      <trkpt lat="43.357453" lon="-5.965638">
        <ele>171.0</ele>
        <time>2012-03-04T11:39:56Z</time>
      </trkpt>
      <trkpt lat="43.357585" lon="-5.965635">
        <ele>171.0</ele>
        <time>2012-03-04T11:40:00Z</time>
      </trkpt>
      <trkpt lat="43.357719" lon="-5.96563">
        <ele>171.0</ele>
        <time>2012-03-04T11:40:04Z</time>
      </trkpt>
      <trkpt lat="43.357848" lon="-5.965623">
        <ele>171.0</ele>
        <time>2012-03-04T11:40:08Z</time>
      </trkpt>
      <trkpt lat="43.357912" lon="-5.965623">
        <ele>171.0</ele>
        <time>2012-03-04T11:40:10Z</time>
      </trkpt>
      <trkpt lat="43.358224" lon="-5.965628">
        <ele>171.0</ele>
        <time>2012-03-04T11:40:20Z</time>
      </trkpt>
      <trkpt lat="43.35829" lon="-5.965625">
        <ele>171.0</ele>
        <time>2012-03-04T11:40:22Z</time>
      </trkpt>
      <trkpt lat="43.358474" lon="-5.965613">
        <ele>171.0</ele>
        <time>2012-03-04T11:40:28Z</time>
      </trkpt>
      <trkpt lat="43.358566" lon="-5.96561">
        <ele>171.0</ele>
        <time>2012-03-04T11:40:31Z</time>
      </trkpt>
      <trkpt lat="43.358725" lon="-5.965606">
        <ele>171.0</ele>
        <time>2012-03-04T11:40:36Z</time>
      </trkpt>
      <trkpt lat="43.358848" lon="-5.965653">
        <ele>171.0</ele>
        <time>2012-03-04T11:40:40Z</time>
      </trkpt>
      <trkpt lat="43.358969" lon="-5.965719">
        <ele>171.0</ele>
        <time>2012-03-04T11:40:44Z</time>
      </trkpt>
      <trkpt lat="43.359045" lon="-5.965775">
        <ele>172.0</ele>
        <time>2012-03-04T11:40:47Z</time>
      </trkpt>
      <trkpt lat="43.359112" lon="-5.965844">
        <ele>172.0</ele>
        <time>2012-03-04T11:40:50Z</time>
      </trkpt>
      <trkpt lat="43.359203" lon="-5.966011">
        <ele>172.0</ele>
        <time>2012-03-04T11:40:55Z</time>
      </trkpt>
      <trkpt lat="43.359264" lon="-5.966211">
        <ele>172.0</ele>
        <time>2012-03-04T11:41:00Z</time>
      </trkpt>
      <trkpt lat="43.359295" lon="-5.966384">
        <ele>172.0</ele>
        <time>2012-03-04T11:41:04Z</time>
      </trkpt>
      <trkpt lat="43.359311" lon="-5.966579">
        <ele>173.0</ele>
        <time>2012-03-04T11:41:08Z</time>
      </trkpt>
      <trkpt lat="43.359297" lon="-5.966785">
        <ele>173.0</ele>
        <time>2012-03-04T11:41:12Z</time>
      </trkpt>
      <trkpt lat="43.359253" lon="-5.966989">
        <ele>173.0</ele>
        <time>2012-03-04T11:41:16Z</time>
      </trkpt>
      <trkpt lat="43.359205" lon="-5.967205">
        <ele>174.0</ele>
        <time>2012-03-04T11:41:20Z</time>
      </trkpt>
      <trkpt lat="43.359157" lon="-5.967414">
        <ele>174.0</ele>
        <time>2012-03-04T11:41:24Z</time>
      </trkpt>
      <trkpt lat="43.359061" lon="-5.967808">
        <ele>175.0</ele>
        <time>2012-03-04T11:41:32Z</time>
      </trkpt>
      <trkpt lat="43.359044" lon="-5.967905">
        <ele>175.0</ele>
        <time>2012-03-04T11:41:34Z</time>
      </trkpt>
      <trkpt lat="43.358975" lon="-5.968187">
        <ele>176.0</ele>
        <time>2012-03-04T11:41:40Z</time>
      </trkpt>
      <trkpt lat="43.358945" lon="-5.968378">
        <ele>176.0</ele>
        <time>2012-03-04T11:41:44Z</time>
      </trkpt>
      <trkpt lat="43.358932" lon="-5.968594">
        <ele>176.0</ele>
        <time>2012-03-04T11:41:48Z</time>
      </trkpt>
      <trkpt lat="43.358935" lon="-5.968818">
        <ele>177.0</ele>
        <time>2012-03-04T11:41:52Z</time>
      </trkpt>
      <trkpt lat="43.358985" lon="-5.96904">
        <ele>180.0</ele>
        <time>2012-03-04T11:41:56Z</time>
      </trkpt>
      <trkpt lat="43.35903" lon="-5.969252">
        <ele>182.0</ele>
        <time>2012-03-04T11:42:00Z</time>
      </trkpt>
      <trkpt lat="43.359083" lon="-5.969462">
        <ele>183.0</ele>
        <time>2012-03-04T11:42:04Z</time>
      </trkpt>
      <trkpt lat="43.359127" lon="-5.969667">
        <ele>184.0</ele>
        <time>2012-03-04T11:42:08Z</time>
      </trkpt>
      <trkpt lat="43.359157" lon="-5.969863">
        <ele>184.0</ele>
        <time>2012-03-04T11:42:12Z</time>
      </trkpt>
      <trkpt lat="43.359172" lon="-5.96996">
        <ele>184.0</ele>
        <time>2012-03-04T11:42:14Z</time>
      </trkpt>
      <trkpt lat="43.359192" lon="-5.97024">
        <ele>184.0</ele>
        <time>2012-03-04T11:42:20Z</time>
      </trkpt>
      <trkpt lat="43.359193" lon="-5.970644">
        <ele>185.0</ele>
        <time>2012-03-04T11:42:28Z</time>
      </trkpt>
      <trkpt lat="43.359236" lon="-5.970876">
        <ele>187.0</ele>
        <time>2012-03-04T11:42:32Z</time>
      </trkpt>
      <trkpt lat="43.35926" lon="-5.970988">
        <ele>188.0</ele>
        <time>2012-03-04T11:42:34Z</time>
      </trkpt>
      <trkpt lat="43.359312" lon="-5.971297">
        <ele>189.0</ele>
        <time>2012-03-04T11:42:40Z</time>
      </trkpt>
      <trkpt lat="43.359343" lon="-5.971499">
        <ele>190.0</ele>
        <time>2012-03-04T11:42:44Z</time>
      </trkpt>
      <trkpt lat="43.359373" lon="-5.971705">
        <ele>191.0</ele>
        <time>2012-03-04T11:42:48Z</time>
      </trkpt>
      <trkpt lat="43.359335" lon="-5.971905">
        <ele>192.0</ele>
        <time>2012-03-04T11:42:52Z</time>
      </trkpt>
      <trkpt lat="43.35931" lon="-5.972123">
        <ele>192.0</ele>
        <time>2012-03-04T11:42:56Z</time>
      </trkpt>
      <trkpt lat="43.359234" lon="-5.972323">
        <ele>193.0</ele>
        <time>2012-03-04T11:43:00Z</time>
      </trkpt>
      <trkpt lat="43.359178" lon="-5.9725">
        <ele>194.0</ele>
        <time>2012-03-04T11:43:04Z</time>
      </trkpt>
      <trkpt lat="43.359158" lon="-5.972697">
        <ele>194.0</ele>
        <time>2012-03-04T11:43:08Z</time>
      </trkpt>
      <trkpt lat="43.359144" lon="-5.97279">
        <ele>194.0</ele>
        <time>2012-03-04T11:43:10Z</time>
      </trkpt>
      <trkpt lat="43.359118" lon="-5.973101">
        <ele>194.0</ele>
        <time>2012-03-04T11:43:17Z</time>
      </trkpt>
      <trkpt lat="43.359111" lon="-5.9732">
        <ele>195.0</ele>
        <time>2012-03-04T11:43:19Z</time>
      </trkpt>
      <trkpt lat="43.359118" lon="-5.973435">
        <ele>195.0</ele>
        <time>2012-03-04T11:43:23Z</time>
      </trkpt>
      <trkpt lat="43.35913" lon="-5.973698">
        <ele>196.0</ele>
        <time>2012-03-04T11:43:27Z</time>
      </trkpt>
      <trkpt lat="43.359121" lon="-5.973972">
        <ele>196.0</ele>
        <time>2012-03-04T11:43:31Z</time>
      </trkpt>
      <trkpt lat="43.359267" lon="-5.974448">
        <ele>201.0</ele>
        <time>2012-03-04T11:43:39Z</time>
      </trkpt>
      <trkpt lat="43.359438" lon="-5.974786">
        <ele>201.0</ele>
        <time>2012-03-04T11:43:47Z</time>
      </trkpt>
      <trkpt lat="43.359505" lon="-5.974947">
        <ele>201.0</ele>
        <time>2012-03-04T11:43:51Z</time>
      </trkpt>
      <trkpt lat="43.359574" lon="-5.975135">
        <ele>202.0</ele>
        <time>2012-03-04T11:43:55Z</time>
      </trkpt>
      <trkpt lat="43.359637" lon="-5.975337">
        <ele>202.0</ele>
        <time>2012-03-04T11:43:59Z</time>
      </trkpt>
      <trkpt lat="43.359651" lon="-5.975543">
        <ele>202.0</ele>
        <time>2012-03-04T11:44:03Z</time>
      </trkpt>
      <trkpt lat="43.359703" lon="-5.975874">
        <ele>203.0</ele>
        <time>2012-03-04T11:44:09Z</time>
      </trkpt>
      <trkpt lat="43.359851" lon="-5.976266">
        <ele>204.0</ele>
        <time>2012-03-04T11:44:17Z</time>
      </trkpt>
      <trkpt lat="43.35988" lon="-5.97635">
        <ele>204.0</ele>
        <time>2012-03-04T11:44:19Z</time>
      </trkpt>
      <trkpt lat="43.359965" lon="-5.976507">
        <ele>204.0</ele>
        <time>2012-03-04T11:44:23Z</time>
      </trkpt>
      <trkpt lat="43.36005" lon="-5.976669">
        <ele>204.0</ele>
        <time>2012-03-04T11:44:27Z</time>
      </trkpt>
      <trkpt lat="43.360157" lon="-5.976882">
        <ele>205.0</ele>
        <time>2012-03-04T11:44:31Z</time>
      </trkpt>
      <trkpt lat="43.360249" lon="-5.97711">
        <ele>205.0</ele>
        <time>2012-03-04T11:44:35Z</time>
      </trkpt>
      <trkpt lat="43.360337" lon="-5.97732">
        <ele>206.0</ele>
        <time>2012-03-04T11:44:39Z</time>
      </trkpt>
      <trkpt lat="43.360409" lon="-5.977542">
        <ele>206.0</ele>
        <time>2012-03-04T11:44:43Z</time>
      </trkpt>
      <trkpt lat="43.360512" lon="-5.977767">
        <ele>208.0</ele>
        <time>2012-03-04T11:44:47Z</time>
      </trkpt>
      <trkpt lat="43.360824" lon="-5.978135">
        <ele>212.0</ele>
        <time>2012-03-04T11:44:53Z</time>
      </trkpt>
      <trkpt lat="43.361124" lon="-5.978221">
        <ele>214.0</ele>
        <time>2012-03-04T11:44:57Z</time>
      </trkpt>
      <trkpt lat="43.361328" lon="-5.978262">
        <ele>214.0</ele>
        <time>2012-03-04T11:45:00Z</time>
      </trkpt>
      <trkpt lat="43.361527" lon="-5.978359">
        <ele>214.0</ele>
        <time>2012-03-04T11:45:04Z</time>
      </trkpt>
      <trkpt lat="43.361679" lon="-5.978488">
        <ele>214.0</ele>
        <time>2012-03-04T11:45:08Z</time>
      </trkpt>
      <trkpt lat="43.361807" lon="-5.978645">
        <ele>214.0</ele>
        <time>2012-03-04T11:45:12Z</time>
      </trkpt>
      <trkpt lat="43.361934" lon="-5.978806">
        <ele>214.0</ele>
        <time>2012-03-04T11:45:16Z</time>
      </trkpt>
      <trkpt lat="43.362058" lon="-5.978967">
        <ele>214.0</ele>
        <time>2012-03-04T11:45:20Z</time>
      </trkpt>
      <trkpt lat="43.362172" lon="-5.979136">
        <ele>214.0</ele>
        <time>2012-03-04T11:45:24Z</time>
      </trkpt>
      <trkpt lat="43.362289" lon="-5.979288">
        <ele>214.0</ele>
        <time>2012-03-04T11:45:28Z</time>
      </trkpt>
      <trkpt lat="43.362405" lon="-5.979431">
        <ele>214.0</ele>
        <time>2012-03-04T11:45:32Z</time>
      </trkpt>
      <trkpt lat="43.362515" lon="-5.979564">
        <ele>214.0</ele>
        <time>2012-03-04T11:45:36Z</time>
      </trkpt>
      <trkpt lat="43.362627" lon="-5.979675">
        <ele>214.0</ele>
        <time>2012-03-04T11:45:40Z</time>
      </trkpt>
      <trkpt lat="43.362683" lon="-5.979731">
        <ele>214.0</ele>
        <time>2012-03-04T11:45:42Z</time>
      </trkpt>
      <trkpt lat="43.362796" lon="-5.979845">
        <ele>214.0</ele>
        <time>2012-03-04T11:45:46Z</time>
      </trkpt>
      <trkpt lat="43.362962" lon="-5.980028">
        <ele>215.0</ele>
        <time>2012-03-04T11:45:52Z</time>
      </trkpt>
      <trkpt lat="43.363137" lon="-5.980215">
        <ele>215.0</ele>
        <time>2012-03-04T11:45:58Z</time>
      </trkpt>
      <trkpt lat="43.363308" lon="-5.980386">
        <ele>216.0</ele>
        <time>2012-03-04T11:46:04Z</time>
      </trkpt>
      <trkpt lat="43.363437" lon="-5.980449">
        <ele>216.0</ele>
        <time>2012-03-04T11:46:08Z</time>
      </trkpt>
      <trkpt lat="43.363502" lon="-5.980472">
        <ele>216.0</ele>
        <time>2012-03-04T11:46:10Z</time>
      </trkpt>
      <trkpt lat="43.363708" lon="-5.980524">
        <ele>217.0</ele>
        <time>2012-03-04T11:46:16Z</time>
      </trkpt>
      <trkpt lat="43.363846" lon="-5.980553">
        <ele>217.0</ele>
        <time>2012-03-04T11:46:20Z</time>
      </trkpt>
      <trkpt lat="43.363988" lon="-5.980581">
        <ele>217.0</ele>
        <time>2012-03-04T11:46:24Z</time>
      </trkpt>
      <trkpt lat="43.364059" lon="-5.980595">
        <ele>218.0</ele>
        <time>2012-03-04T11:46:26Z</time>
      </trkpt>
      <trkpt lat="43.364274" lon="-5.980638">
        <ele>218.0</ele>
        <time>2012-03-04T11:46:32Z</time>
      </trkpt>
      <trkpt lat="43.364419" lon="-5.980667">
        <ele>219.0</ele>
        <time>2012-03-04T11:46:36Z</time>
      </trkpt>
      <trkpt lat="43.36449" lon="-5.980682">
        <ele>219.0</ele>
        <time>2012-03-04T11:46:38Z</time>
      </trkpt>
      <trkpt lat="43.364699" lon="-5.98072">
        <ele>219.0</ele>
        <time>2012-03-04T11:46:44Z</time>
      </trkpt>
      <trkpt lat="43.364843" lon="-5.980758">
        <ele>220.0</ele>
        <time>2012-03-04T11:46:48Z</time>
      </trkpt>
      <trkpt lat="43.364915" lon="-5.980785">
        <ele>220.0</ele>
        <time>2012-03-04T11:46:50Z</time>
      </trkpt>
      <trkpt lat="43.365053" lon="-5.98099">
        <ele>221.0</ele>
        <time>2012-03-04T11:46:56Z</time>
      </trkpt>
      <trkpt lat="43.365078" lon="-5.981075">
        <ele>221.0</ele>
        <time>2012-03-04T11:46:58Z</time>
      </trkpt>
      <trkpt lat="43.365163" lon="-5.981334">
        <ele>222.0</ele>
        <time>2012-03-04T11:47:04Z</time>
      </trkpt>
      <trkpt lat="43.36522" lon="-5.981725">
        <ele>223.0</ele>
        <time>2012-03-04T11:47:12Z</time>
      </trkpt>
      <trkpt lat="43.365243" lon="-5.981955">
        <ele>227.0</ele>
        <time>2012-03-04T11:47:16Z</time>
      </trkpt>
      <trkpt lat="43.365258" lon="-5.982074">
        <ele>229.0</ele>
        <time>2012-03-04T11:47:18Z</time>
      </trkpt>
      <trkpt lat="43.36537" lon="-5.982391">
        <ele>231.0</ele>
        <time>2012-03-04T11:47:24Z</time>
      </trkpt>
      <trkpt lat="43.36547" lon="-5.982585">
        <ele>232.0</ele>
        <time>2012-03-04T11:47:28Z</time>
      </trkpt>
      <trkpt lat="43.365569" lon="-5.982789">
        <ele>232.0</ele>
        <time>2012-03-04T11:47:32Z</time>
      </trkpt>
      <trkpt lat="43.36567" lon="-5.982999">
        <ele>232.0</ele>
        <time>2012-03-04T11:47:36Z</time>
      </trkpt>
      <trkpt lat="43.365772" lon="-5.983207">
        <ele>232.0</ele>
        <time>2012-03-04T11:47:40Z</time>
      </trkpt>
      <trkpt lat="43.365873" lon="-5.983412">
        <ele>232.0</ele>
        <time>2012-03-04T11:47:44Z</time>
      </trkpt>
      <trkpt lat="43.365967" lon="-5.983623">
        <ele>232.0</ele>
        <time>2012-03-04T11:47:48Z</time>
      </trkpt>
      <trkpt lat="43.366046" lon="-5.983834">
        <ele>232.0</ele>
        <time>2012-03-04T11:47:52Z</time>
      </trkpt>
      <trkpt lat="43.366106" lon="-5.984061">
        <ele>233.0</ele>
        <time>2012-03-04T11:47:56Z</time>
      </trkpt>
      <trkpt lat="43.366132" lon="-5.984178">
        <ele>233.0</ele>
        <time>2012-03-04T11:47:58Z</time>
      </trkpt>
      <trkpt lat="43.36618" lon="-5.98455">
        <ele>234.0</ele>
        <time>2012-03-04T11:48:04Z</time>
      </trkpt>
      <trkpt lat="43.366204" lon="-5.984805">
        <ele>235.0</ele>
        <time>2012-03-04T11:48:08Z</time>
      </trkpt>
      <trkpt lat="43.366218" lon="-5.984934">
        <ele>235.0</ele>
        <time>2012-03-04T11:48:10Z</time>
      </trkpt>
      <trkpt lat="43.366261" lon="-5.985317">
        <ele>236.0</ele>
        <time>2012-03-04T11:48:16Z</time>
      </trkpt>
      <trkpt lat="43.366273" lon="-5.98545">
        <ele>236.0</ele>
        <time>2012-03-04T11:48:18Z</time>
      </trkpt>
      <trkpt lat="43.366295" lon="-5.985858">
        <ele>237.0</ele>
        <time>2012-03-04T11:48:24Z</time>
      </trkpt>
      <trkpt lat="43.366265" lon="-5.986119">
        <ele>238.0</ele>
        <time>2012-03-04T11:48:28Z</time>
      </trkpt>
      <trkpt lat="43.36609" lon="-5.986585">
        <ele>239.0</ele>
        <time>2012-03-04T11:48:36Z</time>
      </trkpt>
      <trkpt lat="43.365924" lon="-5.986712">
        <ele>239.0</ele>
        <time>2012-03-04T11:48:40Z</time>
      </trkpt>
      <trkpt lat="43.365743" lon="-5.986848">
        <ele>240.0</ele>
        <time>2012-03-04T11:48:44Z</time>
      </trkpt>
      <trkpt lat="43.365561" lon="-5.987012">
        <ele>240.0</ele>
        <time>2012-03-04T11:48:48Z</time>
      </trkpt>
      <trkpt lat="43.365369" lon="-5.987175">
        <ele>240.0</ele>
        <time>2012-03-04T11:48:52Z</time>
      </trkpt>
      <trkpt lat="43.365268" lon="-5.987244">
        <ele>240.0</ele>
        <time>2012-03-04T11:48:54Z</time>
      </trkpt>
      <trkpt lat="43.365072" lon="-5.987353">
        <ele>240.0</ele>
        <time>2012-03-04T11:48:58Z</time>
      </trkpt>
      <trkpt lat="43.364906" lon="-5.987342">
        <ele>241.0</ele>
        <time>2012-03-04T11:49:05Z</time>
      </trkpt>
      <trkpt lat="43.364974" lon="-5.987257">
        <ele>241.0</ele>
        <time>2012-03-04T11:49:08Z</time>
      </trkpt>
      <trkpt lat="43.365232" lon="-5.987025">
        <ele>243.0</ele>
        <time>2012-03-04T11:49:13Z</time>
      </trkpt>
      <trkpt lat="43.365514" lon="-5.986829">
        <ele>244.0</ele>
        <time>2012-03-04T11:49:17Z</time>
      </trkpt>
      <trkpt lat="43.365765" lon="-5.986661">
        <ele>245.0</ele>
        <time>2012-03-04T11:49:21Z</time>
      </trkpt>
      <trkpt lat="43.36592" lon="-5.986522">
        <ele>245.0</ele>
        <time>2012-03-04T11:49:24Z</time>
      </trkpt>
      <trkpt lat="43.36608" lon="-5.986294">
        <ele>246.0</ele>
        <time>2012-03-04T11:49:28Z</time>
      </trkpt>
      <trkpt lat="43.366189" lon="-5.985975">
        <ele>246.0</ele>
        <time>2012-03-04T11:49:32Z</time>
      </trkpt>
      <trkpt lat="43.366214" lon="-5.985651">
        <ele>247.0</ele>
        <time>2012-03-04T11:49:36Z</time>
      </trkpt>
      <trkpt lat="43.366222" lon="-5.985554">
        <ele>247.0</ele>
        <time>2012-03-04T11:49:38Z</time>
      </trkpt>
      <trkpt lat="43.366254" lon="-5.986065">
        <ele>248.0</ele>
        <time>2012-03-04T11:49:49Z</time>
      </trkpt>
      <trkpt lat="43.365908" lon="-5.986543">
        <ele>246.0</ele>
        <time>2012-03-04T11:49:57Z</time>
      </trkpt>
      <trkpt lat="43.365644" lon="-5.986703">
        <ele>247.0</ele>
        <time>2012-03-04T11:50:01Z</time>
      </trkpt>
      <trkpt lat="43.365427" lon="-5.986914">
        <ele>248.0</ele>
        <time>2012-03-04T11:50:05Z</time>
      </trkpt>
      <trkpt lat="43.365283" lon="-5.987073">
        <ele>250.0</ele>
        <time>2012-03-04T11:50:08Z</time>
      </trkpt>
      <trkpt lat="43.365098" lon="-5.987271">
        <ele>251.0</ele>
        <time>2012-03-04T11:50:12Z</time>
      </trkpt>
      <trkpt lat="43.364938" lon="-5.9875">
        <ele>252.0</ele>
        <time>2012-03-04T11:50:16Z</time>
      </trkpt>
      <trkpt lat="43.364862" lon="-5.987817">
        <ele>253.0</ele>
        <time>2012-03-04T11:50:20Z</time>
      </trkpt>
      <trkpt lat="43.364881" lon="-5.987988">
        <ele>254.0</ele>
        <time>2012-03-04T11:50:22Z</time>
      </trkpt>
      <trkpt lat="43.364991" lon="-5.988563">
        <ele>254.0</ele>
        <time>2012-03-04T11:50:29Z</time>
      </trkpt>
      <trkpt lat="43.365049" lon="-5.98889">
        <ele>254.0</ele>
        <time>2012-03-04T11:50:33Z</time>
      </trkpt>
      <trkpt lat="43.365105" lon="-5.989208">
        <ele>253.0</ele>
        <time>2012-03-04T11:50:37Z</time>
      </trkpt>
      <trkpt lat="43.365132" lon="-5.989371">
        <ele>253.0</ele>
        <time>2012-03-04T11:50:39Z</time>
      </trkpt>
      <trkpt lat="43.365179" lon="-5.989874">
        <ele>253.0</ele>
        <time>2012-03-04T11:50:45Z</time>
      </trkpt>
      <trkpt lat="43.365206" lon="-5.990193">
        <ele>252.0</ele>
        <time>2012-03-04T11:50:49Z</time>
      </trkpt>
      <trkpt lat="43.365279" lon="-5.990489">
        <ele>252.0</ele>
        <time>2012-03-04T11:50:53Z</time>
      </trkpt>
      <trkpt lat="43.365332" lon="-5.990626">
        <ele>252.0</ele>
        <time>2012-03-04T11:50:55Z</time>
      </trkpt>
      <trkpt lat="43.365539" lon="-5.991018">
        <ele>252.0</ele>
        <time>2012-03-04T11:51:01Z</time>
      </trkpt>
      <trkpt lat="43.365679" lon="-5.991266">
        <ele>252.0</ele>
        <time>2012-03-04T11:51:05Z</time>
      </trkpt>
      <trkpt lat="43.365806" lon="-5.991518">
        <ele>251.0</ele>
        <time>2012-03-04T11:51:09Z</time>
      </trkpt>
      <trkpt lat="43.365943" lon="-5.991749">
        <ele>251.0</ele>
        <time>2012-03-04T11:51:13Z</time>
      </trkpt>
      <trkpt lat="43.366101" lon="-5.991942">
        <ele>251.0</ele>
        <time>2012-03-04T11:51:17Z</time>
      </trkpt>
      <trkpt lat="43.366292" lon="-5.992086">
        <ele>250.0</ele>
        <time>2012-03-04T11:51:21Z</time>
      </trkpt>
      <trkpt lat="43.366526" lon="-5.992179">
        <ele>250.0</ele>
        <time>2012-03-04T11:51:25Z</time>
      </trkpt>
      <trkpt lat="43.366767" lon="-5.992245">
        <ele>250.0</ele>
        <time>2012-03-04T11:51:29Z</time>
      </trkpt>
      <trkpt lat="43.367013" lon="-5.992355">
        <ele>250.0</ele>
        <time>2012-03-04T11:51:33Z</time>
      </trkpt>
      <trkpt lat="43.367208" lon="-5.992626">
        <ele>250.0</ele>
        <time>2012-03-04T11:51:37Z</time>
      </trkpt>
      <trkpt lat="43.367334" lon="-5.992982">
        <ele>251.0</ele>
        <time>2012-03-04T11:51:41Z</time>
      </trkpt>
      <trkpt lat="43.367289" lon="-5.993168">
        <ele>251.0</ele>
        <time>2012-03-04T11:51:43Z</time>
      </trkpt>
      <trkpt lat="43.367204" lon="-5.993716">
        <ele>251.0</ele>
        <time>2012-03-04T11:51:49Z</time>
      </trkpt>
      <trkpt lat="43.367113" lon="-5.994104">
        <ele>251.0</ele>
        <time>2012-03-04T11:51:53Z</time>
      </trkpt>
      <trkpt lat="43.367027" lon="-5.994511">
        <ele>252.0</ele>
        <time>2012-03-04T11:51:57Z</time>
      </trkpt>
      <trkpt lat="43.36714" lon="-5.994933">
        <ele>253.0</ele>
        <time>2012-03-04T11:52:01Z</time>
      </trkpt>
      <trkpt lat="43.367349" lon="-5.995231">
        <ele>254.0</ele>
        <time>2012-03-04T11:52:05Z</time>
      </trkpt>
      <trkpt lat="43.367638" lon="-5.994913">
        <ele>254.0</ele>
        <time>2012-03-04T11:52:09Z</time>
      </trkpt>
      <trkpt lat="43.367872" lon="-5.994625">
        <ele>253.0</ele>
        <time>2012-03-04T11:52:13Z</time>
      </trkpt>
      <trkpt lat="43.368133" lon="-5.99442">
        <ele>252.0</ele>
        <time>2012-03-04T11:52:17Z</time>
      </trkpt>
      <trkpt lat="43.368454" lon="-5.994489">
        <ele>253.0</ele>
        <time>2012-03-04T11:52:21Z</time>
      </trkpt>
      <trkpt lat="43.368561" lon="-5.994903">
        <ele>255.0</ele>
        <time>2012-03-04T11:52:25Z</time>
      </trkpt>
      <trkpt lat="43.368566" lon="-5.99516">
        <ele>256.0</ele>
        <time>2012-03-04T11:52:28Z</time>
      </trkpt>
      <trkpt lat="43.368525" lon="-5.995335">
        <ele>255.0</ele>
        <time>2012-03-04T11:52:30Z</time>
      </trkpt>
      <trkpt lat="43.368307" lon="-5.99588">
        <ele>252.0</ele>
        <time>2012-03-04T11:52:36Z</time>
      </trkpt>
      <trkpt lat="43.368267" lon="-5.996323">
        <ele>250.0</ele>
        <time>2012-03-04T11:52:40Z</time>
      </trkpt>
      <trkpt lat="43.368414" lon="-5.996799">
        <ele>250.0</ele>
        <time>2012-03-04T11:52:44Z</time>
      </trkpt>
      <trkpt lat="43.368672" lon="-5.997124">
        <ele>249.0</ele>
        <time>2012-03-04T11:52:48Z</time>
      </trkpt>
      <trkpt lat="43.368953" lon="-5.997401">
        <ele>248.0</ele>
        <time>2012-03-04T11:52:52Z</time>
      </trkpt>
      <trkpt lat="43.369171" lon="-5.997592">
        <ele>248.0</ele>
        <time>2012-03-04T11:52:55Z</time>
      </trkpt>
      <trkpt lat="43.369544" lon="-5.997899">
        <ele>247.0</ele>
        <time>2012-03-04T11:53:00Z</time>
      </trkpt>
      <trkpt lat="43.369789" lon="-5.998042">
        <ele>247.0</ele>
        <time>2012-03-04T11:53:03Z</time>
      </trkpt>
      <trkpt lat="43.370213" lon="-5.998076">
        <ele>246.0</ele>
        <time>2012-03-04T11:53:08Z</time>
      </trkpt>
      <trkpt lat="43.370545" lon="-5.998057">
        <ele>245.0</ele>
        <time>2012-03-04T11:53:12Z</time>
      </trkpt>
      <trkpt lat="43.370879" lon="-5.998009">
        <ele>244.0</ele>
        <time>2012-03-04T11:53:16Z</time>
      </trkpt>
      <trkpt lat="43.371204" lon="-5.997851">
        <ele>243.0</ele>
        <time>2012-03-04T11:53:20Z</time>
      </trkpt>
      <trkpt lat="43.371503" lon="-5.997584">
        <ele>243.0</ele>
        <time>2012-03-04T11:53:24Z</time>
      </trkpt>
      <trkpt lat="43.371759" lon="-5.997223">
        <ele>244.0</ele>
        <time>2012-03-04T11:53:28Z</time>
      </trkpt>
      <trkpt lat="43.371971" lon="-5.996811">
        <ele>244.0</ele>
        <time>2012-03-04T11:53:32Z</time>
      </trkpt>
      <trkpt lat="43.372238" lon="-5.996471">
        <ele>244.0</ele>
        <time>2012-03-04T11:53:36Z</time>
      </trkpt>
      <trkpt lat="43.372545" lon="-5.996345">
        <ele>244.0</ele>
        <time>2012-03-04T11:53:40Z</time>
      </trkpt>
      <trkpt lat="43.372856" lon="-5.996444">
        <ele>244.0</ele>
        <time>2012-03-04T11:53:44Z</time>
      </trkpt>
      <trkpt lat="43.37314" lon="-5.996678">
        <ele>244.0</ele>
        <time>2012-03-04T11:53:48Z</time>
      </trkpt>
      <trkpt lat="43.373323" lon="-5.996986">
        <ele>244.0</ele>
        <time>2012-03-04T11:53:52Z</time>
      </trkpt>
      <trkpt lat="43.373472" lon="-5.997357">
        <ele>243.0</ele>
        <time>2012-03-04T11:53:56Z</time>
      </trkpt>
      <trkpt lat="43.373672" lon="-5.997709">
        <ele>241.0</ele>
        <time>2012-03-04T11:54:00Z</time>
      </trkpt>
      <trkpt lat="43.373965" lon="-5.997897">
        <ele>238.0</ele>
        <time>2012-03-04T11:54:04Z</time>
      </trkpt>
      <trkpt lat="43.374258" lon="-5.997983">
        <ele>236.0</ele>
        <time>2012-03-04T11:54:08Z</time>
      </trkpt>
      <trkpt lat="43.374546" lon="-5.997909">
        <ele>235.0</ele>
        <time>2012-03-04T11:54:12Z</time>
      </trkpt>
      <trkpt lat="43.374757" lon="-5.99768">
        <ele>235.0</ele>
        <time>2012-03-04T11:54:16Z</time>
      </trkpt>
      <trkpt lat="43.374999" lon="-5.997402">
        <ele>235.0</ele>
        <time>2012-03-04T11:54:20Z</time>
      </trkpt>
      <trkpt lat="43.375324" lon="-5.997406">
        <ele>235.0</ele>
        <time>2012-03-04T11:54:24Z</time>
      </trkpt>
      <trkpt lat="43.375563" lon="-5.997633">
        <ele>239.0</ele>
        <time>2012-03-04T11:54:28Z</time>
      </trkpt>
      <trkpt lat="43.37572" lon="-5.997836">
        <ele>240.0</ele>
        <time>2012-03-04T11:54:31Z</time>
      </trkpt>
      <trkpt lat="43.376001" lon="-5.998183">
        <ele>239.0</ele>
        <time>2012-03-04T11:54:36Z</time>
      </trkpt>
      <trkpt lat="43.376264" lon="-5.998452">
        <ele>238.0</ele>
        <time>2012-03-04T11:54:40Z</time>
      </trkpt>
      <trkpt lat="43.376527" lon="-5.998739">
        <ele>238.0</ele>
        <time>2012-03-04T11:54:44Z</time>
      </trkpt>
      <trkpt lat="43.376726" lon="-5.998959">
        <ele>238.0</ele>
        <time>2012-03-04T11:54:47Z</time>
      </trkpt>
      <trkpt lat="43.377115" lon="-5.999182">
        <ele>239.0</ele>
        <time>2012-03-04T11:54:52Z</time>
      </trkpt>
      <trkpt lat="43.377448" lon="-5.999235">
        <ele>239.0</ele>
        <time>2012-03-04T11:54:56Z</time>
      </trkpt>
      <trkpt lat="43.377759" lon="-5.999185">
        <ele>239.0</ele>
        <time>2012-03-04T11:55:00Z</time>
      </trkpt>
      <trkpt lat="43.377998" lon="-5.998956">
        <ele>239.0</ele>
        <time>2012-03-04T11:55:04Z</time>
      </trkpt>
      <trkpt lat="43.378204" lon="-5.998618">
        <ele>239.0</ele>
        <time>2012-03-04T11:55:08Z</time>
      </trkpt>
      <trkpt lat="43.378395" lon="-5.998211">
        <ele>239.0</ele>
        <time>2012-03-04T11:55:12Z</time>
      </trkpt>
      <trkpt lat="43.378566" lon="-5.997809">
        <ele>240.0</ele>
        <time>2012-03-04T11:55:16Z</time>
      </trkpt>
      <trkpt lat="43.378614" lon="-5.997395">
        <ele>239.0</ele>
        <time>2012-03-04T11:55:20Z</time>
      </trkpt>
      <trkpt lat="43.378765" lon="-5.997066">
        <ele>237.0</ele>
        <time>2012-03-04T11:55:24Z</time>
      </trkpt>
      <trkpt lat="43.379092" lon="-5.996965">
        <ele>237.0</ele>
        <time>2012-03-04T11:55:28Z</time>
      </trkpt>
      <trkpt lat="43.379196" lon="-5.997122">
        <ele>234.0</ele>
        <time>2012-03-04T11:55:31Z</time>
      </trkpt>
      <trkpt lat="43.379171" lon="-5.99744">
        <ele>228.0</ele>
        <time>2012-03-04T11:55:35Z</time>
      </trkpt>
      <trkpt lat="43.379468" lon="-5.997799">
        <ele>223.0</ele>
        <time>2012-03-04T11:55:40Z</time>
      </trkpt>
      <trkpt lat="43.37974" lon="-5.998089">
        <ele>220.0</ele>
        <time>2012-03-04T11:55:44Z</time>
      </trkpt>
      <trkpt lat="43.380024" lon="-5.998328">
        <ele>217.0</ele>
        <time>2012-03-04T11:55:48Z</time>
      </trkpt>
      <trkpt lat="43.380334" lon="-5.998475">
        <ele>213.0</ele>
        <time>2012-03-04T11:55:52Z</time>
      </trkpt>
      <trkpt lat="43.380658" lon="-5.998489">
        <ele>210.0</ele>
        <time>2012-03-04T11:55:56Z</time>
      </trkpt>
      <trkpt lat="43.380822" lon="-5.998477">
        <ele>209.0</ele>
        <time>2012-03-04T11:55:58Z</time>
      </trkpt>
      <trkpt lat="43.381286" lon="-5.998238">
        <ele>208.0</ele>
        <time>2012-03-04T11:56:04Z</time>
      </trkpt>
      <trkpt lat="43.381633" lon="-5.998186">
        <ele>207.0</ele>
        <time>2012-03-04T11:56:08Z</time>
      </trkpt>
      <trkpt lat="43.381923" lon="-5.998507">
        <ele>208.0</ele>
        <time>2012-03-04T11:56:12Z</time>
      </trkpt>
      <trkpt lat="43.382177" lon="-5.998828">
        <ele>208.0</ele>
        <time>2012-03-04T11:56:16Z</time>
      </trkpt>
      <trkpt lat="43.382475" lon="-5.999066">
        <ele>209.0</ele>
        <time>2012-03-04T11:56:20Z</time>
      </trkpt>
      <trkpt lat="43.382778" lon="-5.999265">
        <ele>208.0</ele>
        <time>2012-03-04T11:56:24Z</time>
      </trkpt>
      <trkpt lat="43.383065" lon="-5.999514">
        <ele>207.0</ele>
        <time>2012-03-04T11:56:28Z</time>
      </trkpt>
      <trkpt lat="43.383337" lon="-5.999811">
        <ele>205.0</ele>
        <time>2012-03-04T11:56:32Z</time>
      </trkpt>
      <trkpt lat="43.38362" lon="-6.000095">
        <ele>203.0</ele>
        <time>2012-03-04T11:56:36Z</time>
      </trkpt>
      <trkpt lat="43.383919" lon="-6.000368">
        <ele>202.0</ele>
        <time>2012-03-04T11:56:40Z</time>
      </trkpt>
      <trkpt lat="43.384166" lon="-6.000731">
        <ele>200.0</ele>
        <time>2012-03-04T11:56:44Z</time>
      </trkpt>
      <trkpt lat="43.384446" lon="-6.00102">
        <ele>199.0</ele>
        <time>2012-03-04T11:56:48Z</time>
      </trkpt>
      <trkpt lat="43.384734" lon="-6.00128">
        <ele>198.0</ele>
        <time>2012-03-04T11:56:52Z</time>
      </trkpt>
      <trkpt lat="43.385072" lon="-6.001389">
        <ele>196.0</ele>
        <time>2012-03-04T11:56:56Z</time>
      </trkpt>
      <trkpt lat="43.385414" lon="-6.001373">
        <ele>196.0</ele>
        <time>2012-03-04T11:57:00Z</time>
      </trkpt>
      <trkpt lat="43.385711" lon="-6.001156">
        <ele>195.0</ele>
        <time>2012-03-04T11:57:04Z</time>
      </trkpt>
      <trkpt lat="43.385989" lon="-6.000913">
        <ele>195.0</ele>
        <time>2012-03-04T11:57:08Z</time>
      </trkpt>
      <trkpt lat="43.386285" lon="-6.000688">
        <ele>192.0</ele>
        <time>2012-03-04T11:57:12Z</time>
      </trkpt>
      <trkpt lat="43.386621" lon="-6.000632">
        <ele>190.0</ele>
        <time>2012-03-04T11:57:16Z</time>
      </trkpt>
      <trkpt lat="43.386943" lon="-6.000704">
        <ele>189.0</ele>
        <time>2012-03-04T11:57:20Z</time>
      </trkpt>
      <trkpt lat="43.387178" lon="-6.000958">
        <ele>187.0</ele>
        <time>2012-03-04T11:57:24Z</time>
      </trkpt>
      <trkpt lat="43.387399" lon="-6.001192">
        <ele>184.0</ele>
        <time>2012-03-04T11:57:28Z</time>
      </trkpt>
      <trkpt lat="43.387584" lon="-6.001453">
        <ele>181.0</ele>
        <time>2012-03-04T11:57:32Z</time>
      </trkpt>
      <trkpt lat="43.38771" lon="-6.001738">
        <ele>177.0</ele>
        <time>2012-03-04T11:57:36Z</time>
      </trkpt>
      <trkpt lat="43.3878" lon="-6.002024">
        <ele>172.0</ele>
        <time>2012-03-04T11:57:40Z</time>
      </trkpt>
      <trkpt lat="43.387882" lon="-6.002316">
        <ele>168.0</ele>
        <time>2012-03-04T11:57:44Z</time>
      </trkpt>
      <trkpt lat="43.387956" lon="-6.002576">
        <ele>165.0</ele>
        <time>2012-03-04T11:57:48Z</time>
      </trkpt>
      <trkpt lat="43.388042" lon="-6.002812">
        <ele>164.0</ele>
        <time>2012-03-04T11:57:52Z</time>
      </trkpt>
      <trkpt lat="43.388138" lon="-6.003033">
        <ele>163.0</ele>
        <time>2012-03-04T11:57:56Z</time>
      </trkpt>
      <trkpt lat="43.388228" lon="-6.003255">
        <ele>162.0</ele>
        <time>2012-03-04T11:58:00Z</time>
      </trkpt>
      <trkpt lat="43.388297" lon="-6.003473">
        <ele>161.0</ele>
        <time>2012-03-04T11:58:04Z</time>
      </trkpt>
      <trkpt lat="43.388359" lon="-6.003687">
        <ele>160.0</ele>
        <time>2012-03-04T11:58:08Z</time>
      </trkpt>
      <trkpt lat="43.388413" lon="-6.003897">
        <ele>160.0</ele>
        <time>2012-03-04T11:58:12Z</time>
      </trkpt>
      <trkpt lat="43.388471" lon="-6.004103">
        <ele>160.0</ele>
        <time>2012-03-04T11:58:16Z</time>
      </trkpt>
      <trkpt lat="43.388511" lon="-6.004306">
        <ele>160.0</ele>
        <time>2012-03-04T11:58:20Z</time>
      </trkpt>
      <trkpt lat="43.388511" lon="-6.004506">
        <ele>160.0</ele>
        <time>2012-03-04T11:58:24Z</time>
      </trkpt>
      <trkpt lat="43.38851" lon="-6.004698">
        <ele>159.0</ele>
        <time>2012-03-04T11:58:28Z</time>
      </trkpt>
      <trkpt lat="43.38849" lon="-6.004882">
        <ele>159.0</ele>
        <time>2012-03-04T11:58:32Z</time>
      </trkpt>
      <trkpt lat="43.388407" lon="-6.005172">
        <ele>159.0</ele>
        <time>2012-03-04T11:58:39Z</time>
      </trkpt>
      <trkpt lat="43.388323" lon="-6.005343">
        <ele>159.0</ele>
        <time>2012-03-04T11:58:43Z</time>
      </trkpt>
      <trkpt lat="43.388276" lon="-6.005441">
        <ele>159.0</ele>
        <time>2012-03-04T11:58:45Z</time>
      </trkpt>
      <trkpt lat="43.388196" lon="-6.00582">
        <ele>160.0</ele>
        <time>2012-03-04T11:58:51Z</time>
      </trkpt>
      <trkpt lat="43.388233" lon="-6.006126">
        <ele>161.0</ele>
        <time>2012-03-04T11:58:55Z</time>
      </trkpt>
      <trkpt lat="43.388289" lon="-6.006444">
        <ele>162.0</ele>
        <time>2012-03-04T11:58:59Z</time>
      </trkpt>
      <trkpt lat="43.38838" lon="-6.006871">
        <ele>162.0</ele>
        <time>2012-03-04T11:59:04Z</time>
      </trkpt>
      <trkpt lat="43.388454" lon="-6.007225">
        <ele>161.0</ele>
        <time>2012-03-04T11:59:08Z</time>
      </trkpt>
      <trkpt lat="43.388544" lon="-6.007586">
        <ele>161.0</ele>
        <time>2012-03-04T11:59:12Z</time>
      </trkpt>
      <trkpt lat="43.388703" lon="-6.00794">
        <ele>162.0</ele>
        <time>2012-03-04T11:59:16Z</time>
      </trkpt>
      <trkpt lat="43.388838" lon="-6.008197">
        <ele>162.0</ele>
        <time>2012-03-04T11:59:19Z</time>
      </trkpt>
      <trkpt lat="43.389051" lon="-6.008621">
        <ele>162.0</ele>
        <time>2012-03-04T11:59:24Z</time>
      </trkpt>
      <trkpt lat="43.38922" lon="-6.008971">
        <ele>161.0</ele>
        <time>2012-03-04T11:59:28Z</time>
      </trkpt>
      <trkpt lat="43.389393" lon="-6.009322">
        <ele>161.0</ele>
        <time>2012-03-04T11:59:32Z</time>
      </trkpt>
      <trkpt lat="43.38956" lon="-6.009672">
        <ele>161.0</ele>
        <time>2012-03-04T11:59:36Z</time>
      </trkpt>
      <trkpt lat="43.389731" lon="-6.010017">
        <ele>161.0</ele>
        <time>2012-03-04T11:59:40Z</time>
      </trkpt>
      <trkpt lat="43.389885" lon="-6.010367">
        <ele>161.0</ele>
        <time>2012-03-04T11:59:44Z</time>
      </trkpt>
      <trkpt lat="43.390023" lon="-6.010705">
        <ele>161.0</ele>
        <time>2012-03-04T11:59:48Z</time>
      </trkpt>
      <trkpt lat="43.390144" lon="-6.010938">
        <ele>161.0</ele>
        <time>2012-03-04T11:59:51Z</time>
      </trkpt>
      <trkpt lat="43.390346" lon="-6.01132">
        <ele>160.0</ele>
        <time>2012-03-04T11:59:56Z</time>
      </trkpt>
      <trkpt lat="43.39051" lon="-6.011622">
        <ele>160.0</ele>
        <time>2012-03-04T12:00:00Z</time>
      </trkpt>
      <trkpt lat="43.390698" lon="-6.011926">
        <ele>158.0</ele>
        <time>2012-03-04T12:00:04Z</time>
      </trkpt>
      <trkpt lat="43.390936" lon="-6.012176">
        <ele>157.0</ele>
        <time>2012-03-04T12:00:08Z</time>
      </trkpt>
      <trkpt lat="43.391203" lon="-6.012356">
        <ele>156.0</ele>
        <time>2012-03-04T12:00:12Z</time>
      </trkpt>
      <trkpt lat="43.391452" lon="-6.012556">
        <ele>155.0</ele>
        <time>2012-03-04T12:00:16Z</time>
      </trkpt>
      <trkpt lat="43.391685" lon="-6.012811">
        <ele>155.0</ele>
        <time>2012-03-04T12:00:20Z</time>
      </trkpt>
      <trkpt lat="43.391902" lon="-6.013102">
        <ele>156.0</ele>
        <time>2012-03-04T12:00:24Z</time>
      </trkpt>
      <trkpt lat="43.392077" lon="-6.013437">
        <ele>155.0</ele>
        <time>2012-03-04T12:00:28Z</time>
      </trkpt>
      <trkpt lat="43.392195" lon="-6.013697">
        <ele>154.0</ele>
        <time>2012-03-04T12:00:31Z</time>
      </trkpt>
      <trkpt lat="43.39236" lon="-6.014042">
        <ele>154.0</ele>
        <time>2012-03-04T12:00:35Z</time>
      </trkpt>
      <trkpt lat="43.392559" lon="-6.014493">
        <ele>153.0</ele>
        <time>2012-03-04T12:00:40Z</time>
      </trkpt>
      <trkpt lat="43.392712" lon="-6.014873">
        <ele>153.0</ele>
        <time>2012-03-04T12:00:44Z</time>
      </trkpt>
      <trkpt lat="43.392726" lon="-6.015316">
        <ele>151.0</ele>
        <time>2012-03-04T12:00:48Z</time>
      </trkpt>
      <trkpt lat="43.39267" lon="-6.015765">
        <ele>150.0</ele>
        <time>2012-03-04T12:00:52Z</time>
      </trkpt>
      <trkpt lat="43.392628" lon="-6.016202">
        <ele>150.0</ele>
        <time>2012-03-04T12:00:56Z</time>
      </trkpt>
      <trkpt lat="43.392587" lon="-6.01665">
        <ele>149.0</ele>
        <time>2012-03-04T12:01:00Z</time>
      </trkpt>
      <trkpt lat="43.392533" lon="-6.017109">
        <ele>149.0</ele>
        <time>2012-03-04T12:01:04Z</time>
      </trkpt>
      <trkpt lat="43.392504" lon="-6.017564">
        <ele>148.0</ele>
        <time>2012-03-04T12:01:08Z</time>
      </trkpt>
      <trkpt lat="43.392502" lon="-6.018013">
        <ele>147.0</ele>
        <time>2012-03-04T12:01:12Z</time>
      </trkpt>
      <trkpt lat="43.392506" lon="-6.018458">
        <ele>147.0</ele>
        <time>2012-03-04T12:01:16Z</time>
      </trkpt>
      <trkpt lat="43.392638" lon="-6.018839">
        <ele>146.0</ele>
        <time>2012-03-04T12:01:20Z</time>
      </trkpt>
      <trkpt lat="43.392941" lon="-6.0191">
        <ele>147.0</ele>
        <time>2012-03-04T12:01:24Z</time>
      </trkpt>
      <trkpt lat="43.393185" lon="-6.019365">
        <ele>148.0</ele>
        <time>2012-03-04T12:01:28Z</time>
      </trkpt>
      <trkpt lat="43.393362" lon="-6.019675">
        <ele>149.0</ele>
        <time>2012-03-04T12:01:32Z</time>
      </trkpt>
      <trkpt lat="43.393489" lon="-6.020005">
        <ele>150.0</ele>
        <time>2012-03-04T12:01:36Z</time>
      </trkpt>
      <trkpt lat="43.393548" lon="-6.020365">
        <ele>150.0</ele>
        <time>2012-03-04T12:01:40Z</time>
      </trkpt>
      <trkpt lat="43.393577" lon="-6.020724">
        <ele>149.0</ele>
        <time>2012-03-04T12:01:44Z</time>
      </trkpt>
      <trkpt lat="43.393441" lon="-6.021028">
        <ele>148.0</ele>
        <time>2012-03-04T12:01:48Z</time>
      </trkpt>
      <trkpt lat="43.393234" lon="-6.021296">
        <ele>148.0</ele>
        <time>2012-03-04T12:01:52Z</time>
      </trkpt>
      <trkpt lat="43.392957" lon="-6.021589">
        <ele>148.0</ele>
        <time>2012-03-04T12:01:56Z</time>
      </trkpt>
      <trkpt lat="43.392876" lon="-6.021931">
        <ele>149.0</ele>
        <time>2012-03-04T12:01:59Z</time>
      </trkpt>
      <trkpt lat="43.392962" lon="-6.0224">
        <ele>149.0</ele>
        <time>2012-03-04T12:02:04Z</time>
      </trkpt>
      <trkpt lat="43.39307" lon="-6.022725">
        <ele>148.0</ele>
        <time>2012-03-04T12:02:08Z</time>
      </trkpt>
      <trkpt lat="43.39312" lon="-6.022894">
        <ele>148.0</ele>
        <time>2012-03-04T12:02:10Z</time>
      </trkpt>
      <trkpt lat="43.393279" lon="-6.023412">
        <ele>148.0</ele>
        <time>2012-03-04T12:02:16Z</time>
      </trkpt>
      <trkpt lat="43.39338" lon="-6.02378">
        <ele>149.0</ele>
        <time>2012-03-04T12:02:20Z</time>
      </trkpt>
      <trkpt lat="43.393395" lon="-6.023976">
        <ele>149.0</ele>
        <time>2012-03-04T12:02:22Z</time>
      </trkpt>
      <trkpt lat="43.39346" lon="-6.024524">
        <ele>149.0</ele>
        <time>2012-03-04T12:02:28Z</time>
      </trkpt>
      <trkpt lat="43.393632" lon="-6.024842">
        <ele>148.0</ele>
        <time>2012-03-04T12:02:32Z</time>
      </trkpt>
      <trkpt lat="43.393891" lon="-6.025097">
        <ele>149.0</ele>
        <time>2012-03-04T12:02:36Z</time>
      </trkpt>
      <trkpt lat="43.394137" lon="-6.025355">
        <ele>149.0</ele>
        <time>2012-03-04T12:02:40Z</time>
      </trkpt>
      <trkpt lat="43.394399" lon="-6.025568">
        <ele>148.0</ele>
        <time>2012-03-04T12:02:44Z</time>
      </trkpt>
      <trkpt lat="43.394548" lon="-6.025632">
        <ele>147.0</ele>
        <time>2012-03-04T12:02:46Z</time>
      </trkpt>
      <trkpt lat="43.394985" lon="-6.02576">
        <ele>147.0</ele>
        <time>2012-03-04T12:02:52Z</time>
      </trkpt>
      <trkpt lat="43.395279" lon="-6.025736">
        <ele>146.0</ele>
        <time>2012-03-04T12:02:56Z</time>
      </trkpt>
      <trkpt lat="43.395566" lon="-6.025735">
        <ele>147.0</ele>
        <time>2012-03-04T12:03:00Z</time>
      </trkpt>
      <trkpt lat="43.395828" lon="-6.025896">
        <ele>146.0</ele>
        <time>2012-03-04T12:03:04Z</time>
      </trkpt>
      <trkpt lat="43.395916" lon="-6.02604">
        <ele>146.0</ele>
        <time>2012-03-04T12:03:06Z</time>
      </trkpt>
      <trkpt lat="43.396115" lon="-6.026528">
        <ele>146.0</ele>
        <time>2012-03-04T12:03:12Z</time>
      </trkpt>
      <trkpt lat="43.396175" lon="-6.026908">
        <ele>145.0</ele>
        <time>2012-03-04T12:03:16Z</time>
      </trkpt>
      <trkpt lat="43.39624" lon="-6.027264">
        <ele>145.0</ele>
        <time>2012-03-04T12:03:20Z</time>
      </trkpt>
      <trkpt lat="43.396316" lon="-6.027608">
        <ele>144.0</ele>
        <time>2012-03-04T12:03:24Z</time>
      </trkpt>
      <trkpt lat="43.396372" lon="-6.027861">
        <ele>143.0</ele>
        <time>2012-03-04T12:03:27Z</time>
      </trkpt>
      <trkpt lat="43.396457" lon="-6.028285">
        <ele>142.0</ele>
        <time>2012-03-04T12:03:32Z</time>
      </trkpt>
      <trkpt lat="43.396548" lon="-6.02863">
        <ele>141.0</ele>
        <time>2012-03-04T12:03:36Z</time>
      </trkpt>
      <trkpt lat="43.396671" lon="-6.028975">
        <ele>141.0</ele>
        <time>2012-03-04T12:03:40Z</time>
      </trkpt>
      <trkpt lat="43.396839" lon="-6.029289">
        <ele>142.0</ele>
        <time>2012-03-04T12:03:44Z</time>
      </trkpt>
      <trkpt lat="43.397036" lon="-6.029592">
        <ele>142.0</ele>
        <time>2012-03-04T12:03:48Z</time>
      </trkpt>
      <trkpt lat="43.39721" lon="-6.029791">
        <ele>142.0</ele>
        <time>2012-03-04T12:03:51Z</time>
      </trkpt>
      <trkpt lat="43.397513" lon="-6.03006">
        <ele>142.0</ele>
        <time>2012-03-04T12:03:56Z</time>
      </trkpt>
      <trkpt lat="43.397758" lon="-6.030249">
        <ele>141.0</ele>
        <time>2012-03-04T12:04:00Z</time>
      </trkpt>
      <trkpt lat="43.39801" lon="-6.03043">
        <ele>140.0</ele>
        <time>2012-03-04T12:04:04Z</time>
      </trkpt>
      <trkpt lat="43.398197" lon="-6.030564">
        <ele>139.0</ele>
        <time>2012-03-04T12:04:07Z</time>
      </trkpt>
      <trkpt lat="43.398441" lon="-6.030748">
        <ele>139.0</ele>
        <time>2012-03-04T12:04:12Z</time>
      </trkpt>
      <trkpt lat="43.398721" lon="-6.031017">
        <ele>140.0</ele>
        <time>2012-03-04T12:04:16Z</time>
      </trkpt>
      <trkpt lat="43.398911" lon="-6.031287">
        <ele>140.0</ele>
        <time>2012-03-04T12:04:20Z</time>
      </trkpt>
      <trkpt lat="43.399103" lon="-6.031576">
        <ele>140.0</ele>
        <time>2012-03-04T12:04:24Z</time>
      </trkpt>
      <trkpt lat="43.399299" lon="-6.031869">
        <ele>140.0</ele>
        <time>2012-03-04T12:04:28Z</time>
      </trkpt>
      <trkpt lat="43.399501" lon="-6.03217">
        <ele>138.0</ele>
        <time>2012-03-04T12:04:32Z</time>
      </trkpt>
      <trkpt lat="43.399703" lon="-6.032462">
        <ele>137.0</ele>
        <time>2012-03-04T12:04:36Z</time>
      </trkpt>
      <trkpt lat="43.399807" lon="-6.032603">
        <ele>136.0</ele>
        <time>2012-03-04T12:04:38Z</time>
      </trkpt>
      <trkpt lat="43.400124" lon="-6.033025">
        <ele>136.0</ele>
        <time>2012-03-04T12:04:44Z</time>
      </trkpt>
      <trkpt lat="43.400346" lon="-6.033307">
        <ele>136.0</ele>
        <time>2012-03-04T12:04:48Z</time>
      </trkpt>
      <trkpt lat="43.400578" lon="-6.033593">
        <ele>136.0</ele>
        <time>2012-03-04T12:04:52Z</time>
      </trkpt>
      <trkpt lat="43.400806" lon="-6.033892">
        <ele>137.0</ele>
        <time>2012-03-04T12:04:56Z</time>
      </trkpt>
      <trkpt lat="43.401023" lon="-6.034208">
        <ele>137.0</ele>
        <time>2012-03-04T12:05:00Z</time>
      </trkpt>
      <trkpt lat="43.401198" lon="-6.034562">
        <ele>136.0</ele>
        <time>2012-03-04T12:05:04Z</time>
      </trkpt>
      <trkpt lat="43.401341" lon="-6.034947">
        <ele>134.0</ele>
        <time>2012-03-04T12:05:08Z</time>
      </trkpt>
      <trkpt lat="43.40147" lon="-6.035351">
        <ele>133.0</ele>
        <time>2012-03-04T12:05:12Z</time>
      </trkpt>
      <trkpt lat="43.401586" lon="-6.035765">
        <ele>133.0</ele>
        <time>2012-03-04T12:05:16Z</time>
      </trkpt>
      <trkpt lat="43.401701" lon="-6.036179">
        <ele>133.0</ele>
        <time>2012-03-04T12:05:20Z</time>
      </trkpt>
      <trkpt lat="43.40181" lon="-6.036592">
        <ele>132.0</ele>
        <time>2012-03-04T12:05:24Z</time>
      </trkpt>
      <trkpt lat="43.40191" lon="-6.036986">
        <ele>132.0</ele>
        <time>2012-03-04T12:05:28Z</time>
      </trkpt>
      <trkpt lat="43.401997" lon="-6.037367">
        <ele>132.0</ele>
        <time>2012-03-04T12:05:32Z</time>
      </trkpt>
      <trkpt lat="43.40205" lon="-6.037734">
        <ele>132.0</ele>
        <time>2012-03-04T12:05:36Z</time>
      </trkpt>
      <trkpt lat="43.402173" lon="-6.03808">
        <ele>133.0</ele>
        <time>2012-03-04T12:05:40Z</time>
      </trkpt>
      <trkpt lat="43.402306" lon="-6.03842">
        <ele>133.0</ele>
        <time>2012-03-04T12:05:44Z</time>
      </trkpt>
      <trkpt lat="43.402416" lon="-6.038678">
        <ele>133.0</ele>
        <time>2012-03-04T12:05:47Z</time>
      </trkpt>
      <trkpt lat="43.402592" lon="-6.039123">
        <ele>133.0</ele>
        <time>2012-03-04T12:05:52Z</time>
      </trkpt>
      <trkpt lat="43.402723" lon="-6.03949">
        <ele>133.0</ele>
        <time>2012-03-04T12:05:56Z</time>
      </trkpt>
      <trkpt lat="43.402847" lon="-6.039862">
        <ele>133.0</ele>
        <time>2012-03-04T12:06:00Z</time>
      </trkpt>
      <trkpt lat="43.402965" lon="-6.040219">
        <ele>132.0</ele>
        <time>2012-03-04T12:06:04Z</time>
      </trkpt>
      <trkpt lat="43.403081" lon="-6.040563">
        <ele>132.0</ele>
        <time>2012-03-04T12:06:08Z</time>
      </trkpt>
      <trkpt lat="43.403181" lon="-6.040848">
        <ele>133.0</ele>
        <time>2012-03-04T12:06:12Z</time>
      </trkpt>
      <trkpt lat="43.403246" lon="-6.041154">
        <ele>133.0</ele>
        <time>2012-03-04T12:06:16Z</time>
      </trkpt>
      <trkpt lat="43.403254" lon="-6.041517">
        <ele>133.0</ele>
        <time>2012-03-04T12:06:20Z</time>
      </trkpt>
      <trkpt lat="43.403263" lon="-6.041926">
        <ele>133.0</ele>
        <time>2012-03-04T12:06:24Z</time>
      </trkpt>
      <trkpt lat="43.403277" lon="-6.042348">
        <ele>133.0</ele>
        <time>2012-03-04T12:06:28Z</time>
      </trkpt>
      <trkpt lat="43.403234" lon="-6.042775">
        <ele>132.0</ele>
        <time>2012-03-04T12:06:32Z</time>
      </trkpt>
      <trkpt lat="43.403128" lon="-6.043216">
        <ele>131.0</ele>
        <time>2012-03-04T12:06:36Z</time>
      </trkpt>
      <trkpt lat="43.403045" lon="-6.043631">
        <ele>131.0</ele>
        <time>2012-03-04T12:06:40Z</time>
      </trkpt>
      <trkpt lat="43.402927" lon="-6.044005">
        <ele>131.0</ele>
        <time>2012-03-04T12:06:44Z</time>
      </trkpt>
      <trkpt lat="43.402717" lon="-6.044291">
        <ele>129.0</ele>
        <time>2012-03-04T12:06:48Z</time>
      </trkpt>
      <trkpt lat="43.402533" lon="-6.044544">
        <ele>129.0</ele>
        <time>2012-03-04T12:06:52Z</time>
      </trkpt>
      <trkpt lat="43.402377" lon="-6.044796">
        <ele>129.0</ele>
        <time>2012-03-04T12:06:56Z</time>
      </trkpt>
      <trkpt lat="43.402239" lon="-6.045069">
        <ele>129.0</ele>
        <time>2012-03-04T12:07:00Z</time>
      </trkpt>
      <trkpt lat="43.402123" lon="-6.045359">
        <ele>129.0</ele>
        <time>2012-03-04T12:07:04Z</time>
      </trkpt>
      <trkpt lat="43.401998" lon="-6.045634">
        <ele>129.0</ele>
        <time>2012-03-04T12:07:08Z</time>
      </trkpt>
      <trkpt lat="43.401869" lon="-6.045904">
        <ele>129.0</ele>
        <time>2012-03-04T12:07:12Z</time>
      </trkpt>
      <trkpt lat="43.401654" lon="-6.046203">
        <ele>129.0</ele>
        <time>2012-03-04T12:07:17Z</time>
      </trkpt>
      <trkpt lat="43.401483" lon="-6.046386">
        <ele>129.0</ele>
        <time>2012-03-04T12:07:20Z</time>
      </trkpt>
      <trkpt lat="43.401221" lon="-6.046615">
        <ele>130.0</ele>
        <time>2012-03-04T12:07:24Z</time>
      </trkpt>
      <trkpt lat="43.400964" lon="-6.046852">
        <ele>130.0</ele>
        <time>2012-03-04T12:07:28Z</time>
      </trkpt>
      <trkpt lat="43.400705" lon="-6.047096">
        <ele>130.0</ele>
        <time>2012-03-04T12:07:32Z</time>
      </trkpt>
      <trkpt lat="43.400432" lon="-6.047334">
        <ele>129.0</ele>
        <time>2012-03-04T12:07:36Z</time>
      </trkpt>
      <trkpt lat="43.400175" lon="-6.04757">
        <ele>130.0</ele>
        <time>2012-03-04T12:07:40Z</time>
      </trkpt>
      <trkpt lat="43.399925" lon="-6.047817">
        <ele>129.0</ele>
        <time>2012-03-04T12:07:44Z</time>
      </trkpt>
      <trkpt lat="43.399685" lon="-6.04809">
        <ele>129.0</ele>
        <time>2012-03-04T12:07:48Z</time>
      </trkpt>
      <trkpt lat="43.399446" lon="-6.048401">
        <ele>128.0</ele>
        <time>2012-03-04T12:07:52Z</time>
      </trkpt>
      <trkpt lat="43.399235" lon="-6.048734">
        <ele>127.0</ele>
        <time>2012-03-04T12:07:56Z</time>
      </trkpt>
      <trkpt lat="43.399057" lon="-6.049078">
        <ele>126.0</ele>
        <time>2012-03-04T12:08:00Z</time>
      </trkpt>
      <trkpt lat="43.398881" lon="-6.049434">
        <ele>125.0</ele>
        <time>2012-03-04T12:08:04Z</time>
      </trkpt>
      <trkpt lat="43.3987" lon="-6.049791">
        <ele>125.0</ele>
        <time>2012-03-04T12:08:08Z</time>
      </trkpt>
      <trkpt lat="43.398519" lon="-6.05016">
        <ele>124.0</ele>
        <time>2012-03-04T12:08:12Z</time>
      </trkpt>
      <trkpt lat="43.398261" lon="-6.050587">
        <ele>124.0</ele>
        <time>2012-03-04T12:08:17Z</time>
      </trkpt>
      <trkpt lat="43.398109" lon="-6.050853">
        <ele>124.0</ele>
        <time>2012-03-04T12:08:20Z</time>
      </trkpt>
      <trkpt lat="43.397824" lon="-6.05124">
        <ele>123.0</ele>
        <time>2012-03-04T12:08:25Z</time>
      </trkpt>
      <trkpt lat="43.397676" lon="-6.051499">
        <ele>123.0</ele>
        <time>2012-03-04T12:08:28Z</time>
      </trkpt>
      <trkpt lat="43.397557" lon="-6.051909">
        <ele>123.0</ele>
        <time>2012-03-04T12:08:32Z</time>
      </trkpt>
      <trkpt lat="43.397426" lon="-6.052292">
        <ele>123.0</ele>
        <time>2012-03-04T12:08:36Z</time>
      </trkpt>
      <trkpt lat="43.397251" lon="-6.052658">
        <ele>122.0</ele>
        <time>2012-03-04T12:08:40Z</time>
      </trkpt>
      <trkpt lat="43.397075" lon="-6.053016">
        <ele>123.0</ele>
        <time>2012-03-04T12:08:44Z</time>
      </trkpt>
      <trkpt lat="43.396913" lon="-6.053362">
        <ele>123.0</ele>
        <time>2012-03-04T12:08:48Z</time>
      </trkpt>
      <trkpt lat="43.396755" lon="-6.053692">
        <ele>123.0</ele>
        <time>2012-03-04T12:08:52Z</time>
      </trkpt>
      <trkpt lat="43.396639" lon="-6.053996">
        <ele>123.0</ele>
        <time>2012-03-04T12:08:56Z</time>
      </trkpt>
      <trkpt lat="43.396522" lon="-6.054283">
        <ele>123.0</ele>
        <time>2012-03-04T12:09:00Z</time>
      </trkpt>
      <trkpt lat="43.396418" lon="-6.054503">
        <ele>124.0</ele>
        <time>2012-03-04T12:09:03Z</time>
      </trkpt>
      <trkpt lat="43.396256" lon="-6.05497">
        <ele>127.0</ele>
        <time>2012-03-04T12:09:09Z</time>
      </trkpt>
      <trkpt lat="43.396199" lon="-6.055224">
        <ele>127.0</ele>
        <time>2012-03-04T12:09:12Z</time>
      </trkpt>
      <trkpt lat="43.396093" lon="-6.055534">
        <ele>127.0</ele>
        <time>2012-03-04T12:09:16Z</time>
      </trkpt>
      <trkpt lat="43.395954" lon="-6.055788">
        <ele>127.0</ele>
        <time>2012-03-04T12:09:20Z</time>
      </trkpt>
      <trkpt lat="43.395737" lon="-6.056084">
        <ele>128.0</ele>
        <time>2012-03-04T12:09:25Z</time>
      </trkpt>
      <trkpt lat="43.395594" lon="-6.056387">
        <ele>128.0</ele>
        <time>2012-03-04T12:09:29Z</time>
      </trkpt>
      <trkpt lat="43.395447" lon="-6.056689">
        <ele>128.0</ele>
        <time>2012-03-04T12:09:33Z</time>
      </trkpt>
      <trkpt lat="43.395292" lon="-6.056991">
        <ele>127.0</ele>
        <time>2012-03-04T12:09:37Z</time>
      </trkpt>
      <trkpt lat="43.395168" lon="-6.057214">
        <ele>127.0</ele>
        <time>2012-03-04T12:09:40Z</time>
      </trkpt>
      <trkpt lat="43.394964" lon="-6.057605">
        <ele>127.0</ele>
        <time>2012-03-04T12:09:45Z</time>
      </trkpt>
      <trkpt lat="43.394801" lon="-6.057931">
        <ele>127.0</ele>
        <time>2012-03-04T12:09:49Z</time>
      </trkpt>
      <trkpt lat="43.394686" lon="-6.058298">
        <ele>127.0</ele>
        <time>2012-03-04T12:09:53Z</time>
      </trkpt>
      <trkpt lat="43.394484" lon="-6.058563">
        <ele>127.0</ele>
        <time>2012-03-04T12:09:57Z</time>
      </trkpt>
      <trkpt lat="43.394308" lon="-6.058871">
        <ele>127.0</ele>
        <time>2012-03-04T12:10:01Z</time>
      </trkpt>
      <trkpt lat="43.394225" lon="-6.059028">
        <ele>127.0</ele>
        <time>2012-03-04T12:10:03Z</time>
      </trkpt>
      <trkpt lat="43.393975" lon="-6.059499">
        <ele>127.0</ele>
        <time>2012-03-04T12:10:09Z</time>
      </trkpt>
      <trkpt lat="43.393806" lon="-6.059815">
        <ele>126.0</ele>
        <time>2012-03-04T12:10:13Z</time>
      </trkpt>
      <trkpt lat="43.393676" lon="-6.060048">
        <ele>126.0</ele>
        <time>2012-03-04T12:10:16Z</time>
      </trkpt>
      <trkpt lat="43.393514" lon="-6.060371">
        <ele>125.0</ele>
        <time>2012-03-04T12:10:20Z</time>
      </trkpt>
      <trkpt lat="43.393347" lon="-6.060809">
        <ele>124.0</ele>
        <time>2012-03-04T12:10:25Z</time>
      </trkpt>
      <trkpt lat="43.393276" lon="-6.061202">
        <ele>123.0</ele>
        <time>2012-03-04T12:10:29Z</time>
      </trkpt>
      <trkpt lat="43.393254" lon="-6.06157">
        <ele>122.0</ele>
        <time>2012-03-04T12:10:33Z</time>
      </trkpt>
      <trkpt lat="43.393248" lon="-6.061935">
        <ele>122.0</ele>
        <time>2012-03-04T12:10:37Z</time>
      </trkpt>
      <trkpt lat="43.393236" lon="-6.062307">
        <ele>122.0</ele>
        <time>2012-03-04T12:10:41Z</time>
      </trkpt>
      <trkpt lat="43.393237" lon="-6.062692">
        <ele>121.0</ele>
        <time>2012-03-04T12:10:45Z</time>
      </trkpt>
      <trkpt lat="43.393243" lon="-6.062888">
        <ele>121.0</ele>
        <time>2012-03-04T12:10:47Z</time>
      </trkpt>
      <trkpt lat="43.393247" lon="-6.063466">
        <ele>121.0</ele>
        <time>2012-03-04T12:10:53Z</time>
      </trkpt>
      <trkpt lat="43.39324" lon="-6.063819">
        <ele>121.0</ele>
        <time>2012-03-04T12:10:57Z</time>
      </trkpt>
      <trkpt lat="43.393232" lon="-6.064145">
        <ele>121.0</ele>
        <time>2012-03-04T12:11:01Z</time>
      </trkpt>
      <trkpt lat="43.393244" lon="-6.06445">
        <ele>121.0</ele>
        <time>2012-03-04T12:11:05Z</time>
      </trkpt>
      <trkpt lat="43.393282" lon="-6.064687">
        <ele>121.0</ele>
        <time>2012-03-04T12:11:09Z</time>
      </trkpt>
      <trkpt lat="43.39326" lon="-6.064893">
        <ele>121.0</ele>
        <time>2012-03-04T12:11:13Z</time>
      </trkpt>
      <trkpt lat="43.393103" lon="-6.065085">
        <ele>123.0</ele>
        <time>2012-03-04T12:11:25Z</time>
      </trkpt>
      <trkpt lat="43.393035" lon="-6.065178">
        <ele>124.0</ele>
        <time>2012-03-04T12:11:27Z</time>
      </trkpt>
      <trkpt lat="43.392965" lon="-6.065199">
        <ele>123.0</ele>
        <time>2012-03-04T12:11:33Z</time>
      </trkpt>
      <trkpt lat="43.392828" lon="-6.06512">
        <ele>123.0</ele>
        <time>2012-03-04T12:11:37Z</time>
      </trkpt>
      <trkpt lat="43.392404" lon="-6.064953">
        <ele>121.0</ele>
        <time>2012-03-04T12:11:45Z</time>
      </trkpt>
      <trkpt lat="43.392287" lon="-6.064918">
        <ele>121.0</ele>
        <time>2012-03-04T12:11:47Z</time>
      </trkpt>
      <trkpt lat="43.392287" lon="-6.064918">
        <time>2012-03-04T12:11:49Z</time>
      </trkpt>
    </trkseg>
  </trk>
</gpx>